<?xml version="1.0" encoding="utf-8"?>
<gpx xmlns:xsi="http://www.w3.org/2001/XMLSchema-instance" xmlns:xsd="http://www.w3.org/2001/XMLSchema" version="1.1" creator="Shapelink.com" xmlns="http://www.topografix.com/GPX/1/1" xmlns:gpxtpx="http://www.garmin.com/xmlschemas/TrackPointExtension/v1">
  <metadata>
    <name>Löpning 12.46 km, 2018-03-20</name>
    <desc></desc>
    <author><name>Bengt-Åke Forslund</name></author> 
    <time>2018-03-20T11:35:12Z</time>
  </metadata>
  <trk>
    <name>Löpning 12.46 km, 2018-03-20</name>
    <trkseg>
      <trkpt lat="62.641591615839" lon="17.899238912261">
        <ele>38</ele>
        <time>2018-03-20T11:35:12Z</time>
      </trkpt>
      <trkpt lat="62.641667891129" lon="17.898875640715">
        <ele>38.4</ele>
        <time>2018-03-20T11:35:25Z</time>
      </trkpt>
      <trkpt lat="62.64167618921" lon="17.898815458673">
        <ele>38.4</ele>
        <time>2018-03-20T11:35:26Z</time>
      </trkpt>
      <trkpt lat="62.641679961065" lon="17.898757791201">
        <ele>38.2</ele>
        <time>2018-03-20T11:35:27Z</time>
      </trkpt>
      <trkpt lat="62.641690773716" lon="17.898689646354">
        <ele>38.2</ele>
        <time>2018-03-20T11:35:28Z</time>
      </trkpt>
      <trkpt lat="62.641698065969" lon="17.898606246449">
        <ele>38</ele>
        <time>2018-03-20T11:35:29Z</time>
      </trkpt>
      <trkpt lat="62.641705609679" lon="17.898517482128">
        <ele>37.8</ele>
        <time>2018-03-20T11:35:30Z</time>
      </trkpt>
      <trkpt lat="62.641713237208" lon="17.898428969264">
        <ele>37.6</ele>
        <time>2018-03-20T11:35:31Z</time>
      </trkpt>
      <trkpt lat="62.641719691271" lon="17.898341797504">
        <ele>37.4</ele>
        <time>2018-03-20T11:35:32Z</time>
      </trkpt>
      <trkpt lat="62.641727654076" lon="17.8982566374">
        <ele>37.2</ele>
        <time>2018-03-20T11:35:33Z</time>
      </trkpt>
      <trkpt lat="62.64173653889" lon="17.898160077912">
        <ele>37</ele>
        <time>2018-03-20T11:35:34Z</time>
      </trkpt>
      <trkpt lat="62.64174492079" lon="17.898055304162">
        <ele>37</ele>
        <time>2018-03-20T11:35:35Z</time>
      </trkpt>
      <trkpt lat="62.641751793948" lon="17.897955140457">
        <ele>36.6</ele>
        <time>2018-03-20T11:35:36Z</time>
      </trkpt>
      <trkpt lat="62.641756403993" lon="17.897855814942">
        <ele>36.4</ele>
        <time>2018-03-20T11:35:37Z</time>
      </trkpt>
      <trkpt lat="62.641753973242" lon="17.897795381443">
        <ele>36.2</ele>
        <time>2018-03-20T11:35:38Z</time>
      </trkpt>
      <trkpt lat="62.641736874166" lon="17.89767660992">
        <ele>36</ele>
        <time>2018-03-20T11:35:39Z</time>
      </trkpt>
      <trkpt lat="62.641708962439" lon="17.897631180022">
        <ele>35.8</ele>
        <time>2018-03-20T11:35:40Z</time>
      </trkpt>
      <trkpt lat="62.64167786559" lon="17.897607626883">
        <ele>35.4</ele>
        <time>2018-03-20T11:35:41Z</time>
      </trkpt>
      <trkpt lat="62.641657581392" lon="17.897618188077">
        <ele>35.2</ele>
        <time>2018-03-20T11:35:42Z</time>
      </trkpt>
      <trkpt lat="62.641637548651" lon="17.897633526954">
        <ele>35.2</ele>
        <time>2018-03-20T11:35:43Z</time>
      </trkpt>
      <trkpt lat="62.641612905865" lon="17.897668144201">
        <ele>35</ele>
        <time>2018-03-20T11:35:44Z</time>
      </trkpt>
      <trkpt lat="62.64158817926" lon="17.897697732308">
        <ele>35</ele>
        <time>2018-03-20T11:35:45Z</time>
      </trkpt>
      <trkpt lat="62.641564793759" lon="17.897729583528">
        <ele>35</ele>
        <time>2018-03-20T11:35:46Z</time>
      </trkpt>
      <trkpt lat="62.641540821525" lon="17.897764787508">
        <ele>35</ele>
        <time>2018-03-20T11:35:47Z</time>
      </trkpt>
      <trkpt lat="62.641516681653" lon="17.897797728375">
        <ele>35</ele>
        <time>2018-03-20T11:35:48Z</time>
      </trkpt>
      <trkpt lat="62.641494972532" lon="17.897831423613">
        <ele>35</ele>
        <time>2018-03-20T11:35:49Z</time>
      </trkpt>
      <trkpt lat="62.641473179592" lon="17.897852797458">
        <ele>35</ele>
        <time>2018-03-20T11:35:50Z</time>
      </trkpt>
      <trkpt lat="62.641452727756" lon="17.897874841855">
        <ele>35</ele>
        <time>2018-03-20T11:35:51Z</time>
      </trkpt>
      <trkpt lat="62.641433617024" lon="17.8978962157">
        <ele>35</ele>
        <time>2018-03-20T11:35:52Z</time>
      </trkpt>
      <trkpt lat="62.641416685586" lon="17.897918343916">
        <ele>35.2</ele>
        <time>2018-03-20T11:35:53Z</time>
      </trkpt>
      <trkpt lat="62.641397658673" lon="17.897943405797">
        <ele>35.2</ele>
        <time>2018-03-20T11:35:54Z</time>
      </trkpt>
      <trkpt lat="62.641379050855" lon="17.897964444366">
        <ele>35.2</ele>
        <time>2018-03-20T11:35:55Z</time>
      </trkpt>
      <trkpt lat="62.641359437209" lon="17.897988081324">
        <ele>35.4</ele>
        <time>2018-03-20T11:35:56Z</time>
      </trkpt>
      <trkpt lat="62.641338901554" lon="17.898007108237">
        <ele>35.6</ele>
        <time>2018-03-20T11:35:57Z</time>
      </trkpt>
      <trkpt lat="62.641322389211" lon="17.898017166517">
        <ele>35.8</ele>
        <time>2018-03-20T11:35:58Z</time>
      </trkpt>
      <trkpt lat="62.641300344814" lon="17.898037953629">
        <ele>36</ele>
        <time>2018-03-20T11:35:59Z</time>
      </trkpt>
      <trkpt lat="62.641281904634" lon="17.898053208687">
        <ele>36.2</ele>
        <time>2018-03-20T11:36:00Z</time>
      </trkpt>
      <trkpt lat="62.641257010391" lon="17.898066955003">
        <ele>36.6</ele>
        <time>2018-03-20T11:36:01Z</time>
      </trkpt>
      <trkpt lat="62.641231780872" lon="17.898081707147">
        <ele>36.8</ele>
        <time>2018-03-20T11:36:02Z</time>
      </trkpt>
      <trkpt lat="62.641212837778" lon="17.898096962205">
        <ele>37</ele>
        <time>2018-03-20T11:36:03Z</time>
      </trkpt>
      <trkpt lat="62.641192469761" lon="17.898109870331">
        <ele>37.2</ele>
        <time>2018-03-20T11:36:04Z</time>
      </trkpt>
      <trkpt lat="62.641159109799" lon="17.898113055453">
        <ele>37.4</ele>
        <time>2018-03-20T11:36:05Z</time>
      </trkpt>
      <trkpt lat="62.641138993239" lon="17.898121018258">
        <ele>37.4</ele>
        <time>2018-03-20T11:36:06Z</time>
      </trkpt>
      <trkpt lat="62.641114182815" lon="17.898118671326">
        <ele>37.6</ele>
        <time>2018-03-20T11:36:07Z</time>
      </trkpt>
      <trkpt lat="62.641090042943" lon="17.898106098476">
        <ele>37.4</ele>
        <time>2018-03-20T11:36:08Z</time>
      </trkpt>
      <trkpt lat="62.641067579451" lon="17.8980889994">
        <ele>37.6</ele>
        <time>2018-03-20T11:36:09Z</time>
      </trkpt>
      <trkpt lat="62.641050648013" lon="17.898071313591">
        <ele>37.6</ele>
        <time>2018-03-20T11:36:10Z</time>
      </trkpt>
      <trkpt lat="62.641035141498" lon="17.898045245882">
        <ele>37.6</ele>
        <time>2018-03-20T11:36:11Z</time>
      </trkpt>
      <trkpt lat="62.641015527852" lon="17.898008030246">
        <ele>38</ele>
        <time>2018-03-20T11:36:12Z</time>
      </trkpt>
      <trkpt lat="62.641003625554" lon="17.897973245361">
        <ele>38</ele>
        <time>2018-03-20T11:36:13Z</time>
      </trkpt>
      <trkpt lat="62.640991890894" lon="17.897922618685">
        <ele>38.2</ele>
        <time>2018-03-20T11:36:14Z</time>
      </trkpt>
      <trkpt lat="62.640981664976" lon="17.89788448104">
        <ele>38.4</ele>
        <time>2018-03-20T11:36:15Z</time>
      </trkpt>
      <trkpt lat="62.640974121266" lon="17.897854222381">
        <ele>38.6</ele>
        <time>2018-03-20T11:36:16Z</time>
      </trkpt>
      <trkpt lat="62.640965823185" lon="17.897814743632">
        <ele>38.8</ele>
        <time>2018-03-20T11:36:17Z</time>
      </trkpt>
      <trkpt lat="62.640961045502" lon="17.897775264883">
        <ele>39</ele>
        <time>2018-03-20T11:36:18Z</time>
      </trkpt>
      <trkpt lat="62.640959117665" lon="17.897744838586">
        <ele>39.2</ele>
        <time>2018-03-20T11:36:19Z</time>
      </trkpt>
      <trkpt lat="62.640956267819" lon="17.89771013752">
        <ele>39.6</ele>
        <time>2018-03-20T11:36:20Z</time>
      </trkpt>
      <trkpt lat="62.640942353865" lon="17.897678453938">
        <ele>39.8</ele>
        <time>2018-03-20T11:36:21Z</time>
      </trkpt>
      <trkpt lat="62.640933469051" lon="17.89764643508">
        <ele>40.2</ele>
        <time>2018-03-20T11:36:22Z</time>
      </trkpt>
      <trkpt lat="62.640930283929" lon="17.897609722358">
        <ele>40.4</ele>
        <time>2018-03-20T11:36:23Z</time>
      </trkpt>
      <trkpt lat="62.640917962536" lon="17.897569992152">
        <ele>40.6</ele>
        <time>2018-03-20T11:36:24Z</time>
      </trkpt>
      <trkpt lat="62.640912514301" lon="17.897531519231">
        <ele>40.8</ele>
        <time>2018-03-20T11:36:25Z</time>
      </trkpt>
      <trkpt lat="62.640905389686" lon="17.897505367703">
        <ele>41</ele>
        <time>2018-03-20T11:36:26Z</time>
      </trkpt>
      <trkpt lat="62.640898432709" lon="17.897455160122">
        <ele>41.2</ele>
        <time>2018-03-20T11:36:27Z</time>
      </trkpt>
      <trkpt lat="62.640883345289" lon="17.897423895635">
        <ele>41.4</ele>
        <time>2018-03-20T11:36:28Z</time>
      </trkpt>
      <trkpt lat="62.640871778267" lon="17.897378549556">
        <ele>41.4</ele>
        <time>2018-03-20T11:36:29Z</time>
      </trkpt>
      <trkpt lat="62.640863480186" lon="17.897349464363">
        <ele>41.6</ele>
        <time>2018-03-20T11:36:30Z</time>
      </trkpt>
      <trkpt lat="62.640854176277" lon="17.897310739985">
        <ele>41.6</ele>
        <time>2018-03-20T11:36:31Z</time>
      </trkpt>
      <trkpt lat="62.640851913164" lon="17.897266818829">
        <ele>41.6</ele>
        <time>2018-03-20T11:36:32Z</time>
      </trkpt>
      <trkpt lat="62.640841435789" lon="17.897223400587">
        <ele>41.8</ele>
        <time>2018-03-20T11:36:33Z</time>
      </trkpt>
      <trkpt lat="62.640832634794" lon="17.897186352589">
        <ele>42</ele>
        <time>2018-03-20T11:36:34Z</time>
      </trkpt>
      <trkpt lat="62.640823666161" lon="17.897158357043">
        <ele>42</ele>
        <time>2018-03-20T11:36:35Z</time>
      </trkpt>
      <trkpt lat="62.640817379736" lon="17.897119465027">
        <ele>42.2</ele>
        <time>2018-03-20T11:36:36Z</time>
      </trkpt>
      <trkpt lat="62.640807069999" lon="17.897083506676">
        <ele>42.4</ele>
        <time>2018-03-20T11:36:37Z</time>
      </trkpt>
      <trkpt lat="62.640800532117" lon="17.89703958552">
        <ele>42.8</ele>
        <time>2018-03-20T11:36:38Z</time>
      </trkpt>
      <trkpt lat="62.640790809113" lon="17.896997256925">
        <ele>43</ele>
        <time>2018-03-20T11:36:39Z</time>
      </trkpt>
      <trkpt lat="62.640782594851" lon="17.896965238067">
        <ele>43.2</ele>
        <time>2018-03-20T11:36:40Z</time>
      </trkpt>
      <trkpt lat="62.64077345858" lon="17.896923831481">
        <ele>43.4</ele>
        <time>2018-03-20T11:36:41Z</time>
      </trkpt>
      <trkpt lat="62.640763819395" lon="17.896892483175">
        <ele>43.6</ele>
        <time>2018-03-20T11:36:42Z</time>
      </trkpt>
      <trkpt lat="62.640755940409" lon="17.896870019683">
        <ele>43.8</ele>
        <time>2018-03-20T11:36:43Z</time>
      </trkpt>
      <trkpt lat="62.640742864645" lon="17.89683925811">
        <ele>44</ele>
        <time>2018-03-20T11:36:44Z</time>
      </trkpt>
      <trkpt lat="62.640731129985" lon="17.896809167089">
        <ele>44.2</ele>
        <time>2018-03-20T11:36:45Z</time>
      </trkpt>
      <trkpt lat="62.640720149696" lon="17.896780249534">
        <ele>44.2</ele>
        <time>2018-03-20T11:36:46Z</time>
      </trkpt>
      <trkpt lat="62.640711013425" lon="17.896747643943">
        <ele>44.4</ele>
        <time>2018-03-20T11:36:47Z</time>
      </trkpt>
      <trkpt lat="62.640699781679" lon="17.896717636741">
        <ele>44.4</ele>
        <time>2018-03-20T11:36:48Z</time>
      </trkpt>
      <trkpt lat="62.640687879381" lon="17.896683690046">
        <ele>44.8</ele>
        <time>2018-03-20T11:36:49Z</time>
      </trkpt>
      <trkpt lat="62.64068209587" lon="17.896656281233">
        <ele>45</ele>
        <time>2018-03-20T11:36:50Z</time>
      </trkpt>
      <trkpt lat="62.640671367038" lon="17.896630045886">
        <ele>45.2</ele>
        <time>2018-03-20T11:36:51Z</time>
      </trkpt>
      <trkpt lat="62.640661057301" lon="17.896599284313">
        <ele>45.4</ele>
        <time>2018-03-20T11:36:52Z</time>
      </trkpt>
      <trkpt lat="62.640651250478" lon="17.896564164152">
        <ele>45.6</ele>
        <time>2018-03-20T11:36:53Z</time>
      </trkpt>
      <trkpt lat="62.640639851094" lon="17.896523176661">
        <ele>46</ele>
        <time>2018-03-20T11:36:54Z</time>
      </trkpt>
      <trkpt lat="62.640631050099" lon="17.896484536102">
        <ele>46.2</ele>
        <time>2018-03-20T11:36:55Z</time>
      </trkpt>
      <trkpt lat="62.640624176941" lon="17.896449164484">
        <ele>46.4</ele>
        <time>2018-03-20T11:36:56Z</time>
      </trkpt>
      <trkpt lat="62.640618225792" lon="17.896421588033">
        <ele>46.4</ele>
        <time>2018-03-20T11:36:57Z</time>
      </trkpt>
      <trkpt lat="62.640614118661" lon="17.89638663551">
        <ele>46.6</ele>
        <time>2018-03-20T11:36:58Z</time>
      </trkpt>
      <trkpt lat="62.640598193051" lon="17.896336847024">
        <ele>46.8</ele>
        <time>2018-03-20T11:36:59Z</time>
      </trkpt>
      <trkpt lat="62.640610346806" lon="17.896285801253">
        <ele>47</ele>
        <time>2018-03-20T11:37:00Z</time>
      </trkpt>
      <trkpt lat="62.640603725105" lon="17.896248669436">
        <ele>47</ele>
        <time>2018-03-20T11:37:01Z</time>
      </trkpt>
      <trkpt lat="62.640596265214" lon="17.896205083556">
        <ele>47.2</ele>
        <time>2018-03-20T11:37:02Z</time>
      </trkpt>
      <trkpt lat="62.64058654221" lon="17.89616032421">
        <ele>47.2</ele>
        <time>2018-03-20T11:37:03Z</time>
      </trkpt>
      <trkpt lat="62.640579166138" lon="17.896116486873">
        <ele>47.4</ele>
        <time>2018-03-20T11:37:04Z</time>
      </trkpt>
      <trkpt lat="62.640574975188" lon="17.896079522694">
        <ele>47.4</ele>
        <time>2018-03-20T11:37:05Z</time>
      </trkpt>
      <trkpt lat="62.64056726384" lon="17.896046498008">
        <ele>47.8</ele>
        <time>2018-03-20T11:37:06Z</time>
      </trkpt>
      <trkpt lat="62.640561145053" lon="17.896004085594">
        <ele>48</ele>
        <time>2018-03-20T11:37:07Z</time>
      </trkpt>
      <trkpt lat="62.640557121741" lon="17.895961840818">
        <ele>48.2</ele>
        <time>2018-03-20T11:37:08Z</time>
      </trkpt>
      <trkpt lat="62.640551841144" lon="17.895917919662">
        <ele>48.2</ele>
        <time>2018-03-20T11:37:09Z</time>
      </trkpt>
      <trkpt lat="62.640549242755" lon="17.895880201112">
        <ele>48.4</ele>
        <time>2018-03-20T11:37:10Z</time>
      </trkpt>
      <trkpt lat="62.640545806176" lon="17.895842314924">
        <ele>48.6</ele>
        <time>2018-03-20T11:37:11Z</time>
      </trkpt>
      <trkpt lat="62.640539435932" lon="17.895801997985">
        <ele>48.6</ele>
        <time>2018-03-20T11:37:12Z</time>
      </trkpt>
      <trkpt lat="62.64053373624" lon="17.895758579743">
        <ele>48.6</ele>
        <time>2018-03-20T11:37:13Z</time>
      </trkpt>
      <trkpt lat="62.640529964385" lon="17.895713149845">
        <ele>48.8</ele>
        <time>2018-03-20T11:37:14Z</time>
      </trkpt>
      <trkpt lat="62.640521331028" lon="17.895674257829">
        <ele>49</ele>
        <time>2018-03-20T11:37:15Z</time>
      </trkpt>
      <trkpt lat="62.640516050431" lon="17.895640981686">
        <ele>49</ele>
        <time>2018-03-20T11:37:16Z</time>
      </trkpt>
      <trkpt lat="62.640503980495" lon="17.895576021961">
        <ele>49.2</ele>
        <time>2018-03-20T11:37:17Z</time>
      </trkpt>
      <trkpt lat="62.640499202812" lon="17.895546852949">
        <ele>49.4</ele>
        <time>2018-03-20T11:37:18Z</time>
      </trkpt>
      <trkpt lat="62.64049601769" lon="17.895487090002">
        <ele>49.6</ele>
        <time>2018-03-20T11:37:19Z</time>
      </trkpt>
      <trkpt lat="62.640491072369" lon="17.895445180502">
        <ele>49.6</ele>
        <time>2018-03-20T11:37:20Z</time>
      </trkpt>
      <trkpt lat="62.640488725437" lon="17.895390279057">
        <ele>49.8</ele>
        <time>2018-03-20T11:37:21Z</time>
      </trkpt>
      <trkpt lat="62.640484031573" lon="17.895344932978">
        <ele>49.8</ele>
        <time>2018-03-20T11:37:22Z</time>
      </trkpt>
      <trkpt lat="62.640480846451" lon="17.89527938652">
        <ele>50</ele>
        <time>2018-03-20T11:37:23Z</time>
      </trkpt>
      <trkpt lat="62.640478667157" lon="17.895217528098">
        <ele>50</ele>
        <time>2018-03-20T11:37:24Z</time>
      </trkpt>
      <trkpt lat="62.640478499519" lon="17.8951385706">
        <ele>49.8</ele>
        <time>2018-03-20T11:37:25Z</time>
      </trkpt>
      <trkpt lat="62.64047590113" lon="17.895071683038">
        <ele>49.8</ele>
        <time>2018-03-20T11:37:26Z</time>
      </trkpt>
      <trkpt lat="62.640468776515" lon="17.894998509051">
        <ele>49.6</ele>
        <time>2018-03-20T11:37:27Z</time>
      </trkpt>
      <trkpt lat="62.64046249009" lon="17.894942350321">
        <ele>49.6</ele>
        <time>2018-03-20T11:37:28Z</time>
      </trkpt>
      <trkpt lat="62.640454694923" lon="17.894885521039">
        <ele>49.4</ele>
        <time>2018-03-20T11:37:29Z</time>
      </trkpt>
      <trkpt lat="62.640438014942" lon="17.894822321513">
        <ele>49.4</ele>
        <time>2018-03-20T11:37:30Z</time>
      </trkpt>
      <trkpt lat="62.640429130128" lon="17.894773035941">
        <ele>49.4</ele>
        <time>2018-03-20T11:37:31Z</time>
      </trkpt>
      <trkpt lat="62.640426028825" lon="17.894703885266">
        <ele>49.4</ele>
        <time>2018-03-20T11:37:32Z</time>
      </trkpt>
      <trkpt lat="62.640426112644" lon="17.89466499325">
        <ele>49.4</ele>
        <time>2018-03-20T11:37:33Z</time>
      </trkpt>
      <trkpt lat="62.640424436264" lon="17.894601374629">
        <ele>49.6</ele>
        <time>2018-03-20T11:37:34Z</time>
      </trkpt>
      <trkpt lat="62.640422927522" lon="17.894544377709">
        <ele>49.6</ele>
        <time>2018-03-20T11:37:35Z</time>
      </trkpt>
      <trkpt lat="62.640421502599" lon="17.894506323883">
        <ele>49.8</ele>
        <time>2018-03-20T11:37:36Z</time>
      </trkpt>
      <trkpt lat="62.640419993857" lon="17.894446896212">
        <ele>49.8</ele>
        <time>2018-03-20T11:37:37Z</time>
      </trkpt>
      <trkpt lat="62.640417563106" lon="17.894401214857">
        <ele>50</ele>
        <time>2018-03-20T11:37:38Z</time>
      </trkpt>
      <trkpt lat="62.64041219869" lon="17.894367351981">
        <ele>50</ele>
        <time>2018-03-20T11:37:39Z</time>
      </trkpt>
      <trkpt lat="62.640408929749" lon="17.894315384201">
        <ele>50.2</ele>
        <time>2018-03-20T11:37:40Z</time>
      </trkpt>
      <trkpt lat="62.640397362727" lon="17.894273642339">
        <ele>50.2</ele>
        <time>2018-03-20T11:37:41Z</time>
      </trkpt>
      <trkpt lat="62.640390741026" lon="17.894241372024">
        <ele>50.4</ele>
        <time>2018-03-20T11:37:42Z</time>
      </trkpt>
      <trkpt lat="62.640385125153" lon="17.894197869963">
        <ele>50.4</ele>
        <time>2018-03-20T11:37:43Z</time>
      </trkpt>
      <trkpt lat="62.640376491796" lon="17.894152188608">
        <ele>50.6</ele>
        <time>2018-03-20T11:37:44Z</time>
      </trkpt>
      <trkpt lat="62.640370708285" lon="17.894114972972">
        <ele>50.6</ele>
        <time>2018-03-20T11:37:45Z</time>
      </trkpt>
      <trkpt lat="62.640358889806" lon="17.894064094839">
        <ele>50.6</ele>
        <time>2018-03-20T11:37:46Z</time>
      </trkpt>
      <trkpt lat="62.640347741879" lon="17.894029142316">
        <ele>50.6</ele>
        <time>2018-03-20T11:37:47Z</time>
      </trkpt>
      <trkpt lat="62.640338270332" lon="17.893987316635">
        <ele>50.6</ele>
        <time>2018-03-20T11:37:48Z</time>
      </trkpt>
      <trkpt lat="62.640319075781" lon="17.893940880909">
        <ele>50.6</ele>
        <time>2018-03-20T11:37:49Z</time>
      </trkpt>
      <trkpt lat="62.640306083836" lon="17.893905174015">
        <ele>50.6</ele>
        <time>2018-03-20T11:37:50Z</time>
      </trkpt>
      <trkpt lat="62.640296612289" lon="17.893862761601">
        <ele>50.6</ele>
        <time>2018-03-20T11:37:51Z</time>
      </trkpt>
      <trkpt lat="62.640284626172" lon="17.893820684463">
        <ele>50.8</ele>
        <time>2018-03-20T11:37:52Z</time>
      </trkpt>
      <trkpt lat="62.640274316435" lon="17.893778523506">
        <ele>50.8</ele>
        <time>2018-03-20T11:37:53Z</time>
      </trkpt>
      <trkpt lat="62.64026300087" lon="17.893735189083">
        <ele>50.8</ele>
        <time>2018-03-20T11:37:54Z</time>
      </trkpt>
      <trkpt lat="62.64025713354" lon="17.893694788325">
        <ele>51</ele>
        <time>2018-03-20T11:37:55Z</time>
      </trkpt>
      <trkpt lat="62.640251936762" lon="17.893658578517">
        <ele>51.2</ele>
        <time>2018-03-20T11:37:56Z</time>
      </trkpt>
      <trkpt lat="62.640246907622" lon="17.893622033433">
        <ele>51.4</ele>
        <time>2018-03-20T11:37:57Z</time>
      </trkpt>
      <trkpt lat="62.640242632853" lon="17.893594708439">
        <ele>51.8</ele>
        <time>2018-03-20T11:37:58Z</time>
      </trkpt>
      <trkpt lat="62.640237100799" lon="17.893554810595">
        <ele>52</ele>
        <time>2018-03-20T11:37:59Z</time>
      </trkpt>
      <trkpt lat="62.64024036974" lon="17.89351583476">
        <ele>52.4</ele>
        <time>2018-03-20T11:38:00Z</time>
      </trkpt>
      <trkpt lat="62.640237603713" lon="17.89347224888">
        <ele>52.8</ele>
        <time>2018-03-20T11:38:01Z</time>
      </trkpt>
      <trkpt lat="62.640243219586" lon="17.893427070439">
        <ele>53</ele>
        <time>2018-03-20T11:38:02Z</time>
      </trkpt>
      <trkpt lat="62.640248919278" lon="17.893390022441">
        <ele>53.2</ele>
        <time>2018-03-20T11:38:03Z</time>
      </trkpt>
      <trkpt lat="62.640254870427" lon="17.893346185104">
        <ele>53.4</ele>
        <time>2018-03-20T11:38:04Z</time>
      </trkpt>
      <trkpt lat="62.640258390825" lon="17.893300252292">
        <ele>53.6</ele>
        <time>2018-03-20T11:38:05Z</time>
      </trkpt>
      <trkpt lat="62.640265766897" lon="17.893256247317">
        <ele>53.8</ele>
        <time>2018-03-20T11:38:06Z</time>
      </trkpt>
      <trkpt lat="62.640274316435" lon="17.893202938433">
        <ele>54</ele>
        <time>2018-03-20T11:38:07Z</time>
      </trkpt>
      <trkpt lat="62.640278172109" lon="17.893167734453">
        <ele>54</ele>
        <time>2018-03-20T11:38:08Z</time>
      </trkpt>
      <trkpt lat="62.640279094118" lon="17.893134206853">
        <ele>54.2</ele>
        <time>2018-03-20T11:38:09Z</time>
      </trkpt>
      <trkpt lat="62.640279429394" lon="17.89310595985">
        <ele>54.4</ele>
        <time>2018-03-20T11:38:10Z</time>
      </trkpt>
      <trkpt lat="62.640281357231" lon="17.893071426422">
        <ele>54.6</ele>
        <time>2018-03-20T11:38:11Z</time>
      </trkpt>
      <trkpt lat="62.640284709991" lon="17.893045023437">
        <ele>54.6</ele>
        <time>2018-03-20T11:38:12Z</time>
      </trkpt>
      <trkpt lat="62.640279010299" lon="17.893018285176">
        <ele>54.8</ele>
        <time>2018-03-20T11:38:13Z</time>
      </trkpt>
      <trkpt lat="62.640277585376" lon="17.892978722608">
        <ele>55</ele>
        <time>2018-03-20T11:38:14Z</time>
      </trkpt>
      <trkpt lat="62.640278255928" lon="17.892942345162">
        <ele>55.4</ele>
        <time>2018-03-20T11:38:15Z</time>
      </trkpt>
      <trkpt lat="62.640279094118" lon="17.892910913037">
        <ele>55.6</ele>
        <time>2018-03-20T11:38:16Z</time>
      </trkpt>
      <trkpt lat="62.640273729702" lon="17.892877217799">
        <ele>56</ele>
        <time>2018-03-20T11:38:17Z</time>
      </trkpt>
      <trkpt lat="62.64026635363" lon="17.89283690086">
        <ele>56.4</ele>
        <time>2018-03-20T11:38:18Z</time>
      </trkpt>
      <trkpt lat="62.640260234843" lon="17.892785184537">
        <ele>56.6</ele>
        <time>2018-03-20T11:38:19Z</time>
      </trkpt>
      <trkpt lat="62.640251936762" lon="17.892740676648">
        <ele>56.8</ele>
        <time>2018-03-20T11:38:20Z</time>
      </trkpt>
      <trkpt lat="62.640249003097" lon="17.892703544831">
        <ele>57</ele>
        <time>2018-03-20T11:38:21Z</time>
      </trkpt>
      <trkpt lat="62.640238525722" lon="17.892655265087">
        <ele>57.2</ele>
        <time>2018-03-20T11:38:22Z</time>
      </trkpt>
      <trkpt lat="62.640231484926" lon="17.892614361415">
        <ele>57.2</ele>
        <time>2018-03-20T11:38:23Z</time>
      </trkpt>
      <trkpt lat="62.640225869053" lon="17.892566919861">
        <ele>57.2</ele>
        <time>2018-03-20T11:38:24Z</time>
      </trkpt>
      <trkpt lat="62.640228048347" lon="17.892525848551">
        <ele>57.4</ele>
        <time>2018-03-20T11:38:25Z</time>
      </trkpt>
      <trkpt lat="62.640223438302" lon="17.892491734218">
        <ele>57.4</ele>
        <time>2018-03-20T11:38:26Z</time>
      </trkpt>
      <trkpt lat="62.640216565144" lon="17.892453177478">
        <ele>57.6</ele>
        <time>2018-03-20T11:38:27Z</time>
      </trkpt>
      <trkpt lat="62.640213380022" lon="17.892413279634">
        <ele>57.6</ele>
        <time>2018-03-20T11:38:28Z</time>
      </trkpt>
      <trkpt lat="62.640198711697" lon="17.89235829437">
        <ele>57.8</ele>
        <time>2018-03-20T11:38:29Z</time>
      </trkpt>
      <trkpt lat="62.640195778032" lon="17.892317725974">
        <ele>58</ele>
        <time>2018-03-20T11:38:30Z</time>
      </trkpt>
      <trkpt lat="62.640184630105" lon="17.892256621923">
        <ele>58</ele>
        <time>2018-03-20T11:38:31Z</time>
      </trkpt>
      <trkpt lat="62.640181109707" lon="17.892209515645">
        <ele>58</ele>
        <time>2018-03-20T11:38:32Z</time>
      </trkpt>
      <trkpt lat="62.640182450811" lon="17.892160900625">
        <ele>58.2</ele>
        <time>2018-03-20T11:38:33Z</time>
      </trkpt>
      <trkpt lat="62.64018421101" lon="17.892118739668">
        <ele>58.2</ele>
        <time>2018-03-20T11:38:34Z</time>
      </trkpt>
      <trkpt lat="62.640198124964" lon="17.892053360848">
        <ele>58.2</ele>
        <time>2018-03-20T11:38:35Z</time>
      </trkpt>
      <trkpt lat="62.640210781633" lon="17.892003656181">
        <ele>58.2</ele>
        <time>2018-03-20T11:38:36Z</time>
      </trkpt>
      <trkpt lat="62.640228802718" lon="17.891955376437">
        <ele>58.4</ele>
        <time>2018-03-20T11:38:37Z</time>
      </trkpt>
      <trkpt lat="62.640245566518" lon="17.891922351751">
        <ele>58.4</ele>
        <time>2018-03-20T11:38:38Z</time>
      </trkpt>
      <trkpt lat="62.640282446878" lon="17.891869042867">
        <ele>58.4</ele>
        <time>2018-03-20T11:38:39Z</time>
      </trkpt>
      <trkpt lat="62.640326368034" lon="17.891826127539">
        <ele>58.4</ele>
        <time>2018-03-20T11:38:40Z</time>
      </trkpt>
      <trkpt lat="62.640364505679" lon="17.89182688191">
        <ele>58.2</ele>
        <time>2018-03-20T11:38:41Z</time>
      </trkpt>
      <trkpt lat="62.640391076302" lon="17.891819086743">
        <ele>58.2</ele>
        <time>2018-03-20T11:38:42Z</time>
      </trkpt>
      <trkpt lat="62.640429130128" lon="17.891813806146">
        <ele>58</ele>
        <time>2018-03-20T11:38:43Z</time>
      </trkpt>
      <trkpt lat="62.640475230578" lon="17.891808693187">
        <ele>57.8</ele>
        <time>2018-03-20T11:38:44Z</time>
      </trkpt>
      <trkpt lat="62.640527449815" lon="17.891801484753">
        <ele>57.6</ele>
        <time>2018-03-20T11:38:45Z</time>
      </trkpt>
      <trkpt lat="62.640602719277" lon="17.891809866653">
        <ele>57.4</ele>
        <time>2018-03-20T11:38:46Z</time>
      </trkpt>
      <trkpt lat="62.640663152776" lon="17.891821517494">
        <ele>57</ele>
        <time>2018-03-20T11:38:47Z</time>
      </trkpt>
      <trkpt lat="62.640724759741" lon="17.891860828605">
        <ele>56</ele>
        <time>2018-03-20T11:38:48Z</time>
      </trkpt>
      <trkpt lat="62.640779158272" lon="17.891914808041">
        <ele>55.4</ele>
        <time>2018-03-20T11:38:49Z</time>
      </trkpt>
      <trkpt lat="62.640827689473" lon="17.891985886553">
        <ele>54.6</ele>
        <time>2018-03-20T11:38:50Z</time>
      </trkpt>
      <trkpt lat="62.640870940077" lon="17.8920624133">
        <ele>54</ele>
        <time>2018-03-20T11:38:51Z</time>
      </trkpt>
      <trkpt lat="62.640909664455" lon="17.892132569803">
        <ele>53.4</ele>
        <time>2018-03-20T11:38:52Z</time>
      </trkpt>
      <trkpt lat="62.640950987222" lon="17.892204654143">
        <ele>52.6</ele>
        <time>2018-03-20T11:38:53Z</time>
      </trkpt>
      <trkpt lat="62.640991136523" lon="17.892257124837">
        <ele>52.4</ele>
        <time>2018-03-20T11:38:54Z</time>
      </trkpt>
      <trkpt lat="62.641032710747" lon="17.892289059876">
        <ele>52.2</ele>
        <time>2018-03-20T11:38:55Z</time>
      </trkpt>
      <trkpt lat="62.641074284971" lon="17.89229962107">
        <ele>52</ele>
        <time>2018-03-20T11:38:56Z</time>
      </trkpt>
      <trkpt lat="62.641114266634" lon="17.892302722373">
        <ele>52</ele>
        <time>2018-03-20T11:38:57Z</time>
      </trkpt>
      <trkpt lat="62.641146536949" lon="17.892295681577">
        <ele>52</ele>
        <time>2018-03-20T11:38:58Z</time>
      </trkpt>
      <trkpt lat="62.641176879427" lon="17.892287132039">
        <ele>52</ele>
        <time>2018-03-20T11:38:59Z</time>
      </trkpt>
      <trkpt lat="62.641208563009" lon="17.892279336872">
        <ele>52.2</ele>
        <time>2018-03-20T11:39:00Z</time>
      </trkpt>
      <trkpt lat="62.6412411686" lon="17.892268356583">
        <ele>52.2</ele>
        <time>2018-03-20T11:39:01Z</time>
      </trkpt>
      <trkpt lat="62.641272516906" lon="17.892258885036">
        <ele>52.2</ele>
        <time>2018-03-20T11:39:02Z</time>
      </trkpt>
      <trkpt lat="62.641305206316" lon="17.892242372693">
        <ele>52.4</ele>
        <time>2018-03-20T11:39:03Z</time>
      </trkpt>
      <trkpt lat="62.641348205463" lon="17.892211275844">
        <ele>52.4</ele>
        <time>2018-03-20T11:39:04Z</time>
      </trkpt>
      <trkpt lat="62.641382487434" lon="17.892193254759">
        <ele>52.4</ele>
        <time>2018-03-20T11:39:05Z</time>
      </trkpt>
      <trkpt lat="62.641408638962" lon="17.892175904226">
        <ele>52.2</ele>
        <time>2018-03-20T11:39:06Z</time>
      </trkpt>
      <trkpt lat="62.641431856825" lon="17.892163499014">
        <ele>52</ele>
        <time>2018-03-20T11:39:07Z</time>
      </trkpt>
      <trkpt lat="62.64145239248" lon="17.89214539411">
        <ele>51.8</ele>
        <time>2018-03-20T11:39:08Z</time>
      </trkpt>
      <trkpt lat="62.641479130741" lon="17.89213533583">
        <ele>51.6</ele>
        <time>2018-03-20T11:39:09Z</time>
      </trkpt>
      <trkpt lat="62.641511317237" lon="17.892119326401">
        <ele>51.4</ele>
        <time>2018-03-20T11:39:10Z</time>
      </trkpt>
      <trkpt lat="62.641548532873" lon="17.892102227325">
        <ele>51.2</ele>
        <time>2018-03-20T11:39:11Z</time>
      </trkpt>
      <trkpt lat="62.641589436545" lon="17.892086385534">
        <ele>51</ele>
        <time>2018-03-20T11:39:12Z</time>
      </trkpt>
      <trkpt lat="62.641640230859" lon="17.892067777716">
        <ele>50.2</ele>
        <time>2018-03-20T11:39:13Z</time>
      </trkpt>
      <trkpt lat="62.641684990205" lon="17.892048918441">
        <ele>49.8</ele>
        <time>2018-03-20T11:39:14Z</time>
      </trkpt>
      <trkpt lat="62.641719355995" lon="17.892022347818">
        <ele>49</ele>
        <time>2018-03-20T11:39:15Z</time>
      </trkpt>
      <trkpt lat="62.641768306291" lon="17.891986557105">
        <ele>48</ele>
        <time>2018-03-20T11:39:16Z</time>
      </trkpt>
      <trkpt lat="62.641816083121" lon="17.891957220455">
        <ele>47.4</ele>
        <time>2018-03-20T11:39:17Z</time>
      </trkpt>
      <trkpt lat="62.641871906575" lon="17.891922267932">
        <ele>47</ele>
        <time>2018-03-20T11:39:18Z</time>
      </trkpt>
      <trkpt lat="62.641927394753" lon="17.891889243246">
        <ele>46.6</ele>
        <time>2018-03-20T11:39:19Z</time>
      </trkpt>
      <trkpt lat="62.641990007546" lon="17.891852614343">
        <ele>46</ele>
        <time>2018-03-20T11:39:20Z</time>
      </trkpt>
      <trkpt lat="62.642049519036" lon="17.891818919105">
        <ele>45.4</ele>
        <time>2018-03-20T11:39:21Z</time>
      </trkpt>
      <trkpt lat="62.642113556752" lon="17.891776841967">
        <ele>44.4</ele>
        <time>2018-03-20T11:39:22Z</time>
      </trkpt>
      <trkpt lat="62.642195531734" lon="17.891705679636">
        <ele>43.6</ele>
        <time>2018-03-20T11:39:23Z</time>
      </trkpt>
      <trkpt lat="62.642270382101" lon="17.89163158364">
        <ele>43</ele>
        <time>2018-03-20T11:39:24Z</time>
      </trkpt>
      <trkpt lat="62.642345400106" lon="17.891548183735">
        <ele>42.8</ele>
        <time>2018-03-20T11:39:25Z</time>
      </trkpt>
      <trkpt lat="62.642403319035" lon="17.891461850165">
        <ele>42.2</ele>
        <time>2018-03-20T11:39:26Z</time>
      </trkpt>
      <trkpt lat="62.642452017874" lon="17.891383730857">
        <ele>41.8</ele>
        <time>2018-03-20T11:39:27Z</time>
      </trkpt>
      <trkpt lat="62.642475235737" lon="17.891291613776">
        <ele>41</ele>
        <time>2018-03-20T11:39:28Z</time>
      </trkpt>
      <trkpt lat="62.642489820243" lon="17.891218272151">
        <ele>40.2</ele>
        <time>2018-03-20T11:39:29Z</time>
      </trkpt>
      <trkpt lat="62.642494597926" lon="17.891148367105">
        <ele>39.8</ele>
        <time>2018-03-20T11:39:30Z</time>
      </trkpt>
      <trkpt lat="62.642486299845" lon="17.891089023253">
        <ele>39.6</ele>
        <time>2018-03-20T11:39:31Z</time>
      </trkpt>
      <trkpt lat="62.642477834126" lon="17.891028841211">
        <ele>39.4</ele>
        <time>2018-03-20T11:39:32Z</time>
      </trkpt>
      <trkpt lat="62.642459561584" lon="17.890986931711">
        <ele>39.4</ele>
        <time>2018-03-20T11:39:33Z</time>
      </trkpt>
      <trkpt lat="62.642436846635" lon="17.890939154881">
        <ele>39.4</ele>
        <time>2018-03-20T11:39:34Z</time>
      </trkpt>
      <trkpt lat="62.642405833605" lon="17.890897245381">
        <ele>39.4</ele>
        <time>2018-03-20T11:39:35Z</time>
      </trkpt>
      <trkpt lat="62.642365768123" lon="17.890860700297">
        <ele>39.4</ele>
        <time>2018-03-20T11:39:36Z</time>
      </trkpt>
      <trkpt lat="62.642321427872" lon="17.890837733891">
        <ele>39.4</ele>
        <time>2018-03-20T11:39:37Z</time>
      </trkpt>
      <trkpt lat="62.642276836164" lon="17.890806888499">
        <ele>39.4</ele>
        <time>2018-03-20T11:39:38Z</time>
      </trkpt>
      <trkpt lat="62.642222521452" lon="17.890764978999">
        <ele>39.2</ele>
        <time>2018-03-20T11:39:39Z</time>
      </trkpt>
      <trkpt lat="62.642187904205" lon="17.89073472034">
        <ele>38.6</ele>
        <time>2018-03-20T11:39:40Z</time>
      </trkpt>
      <trkpt lat="62.642155885347" lon="17.890712340667">
        <ele>38.4</ele>
        <time>2018-03-20T11:39:41Z</time>
      </trkpt>
      <trkpt lat="62.642120010815" lon="17.890691637374">
        <ele>38</ele>
        <time>2018-03-20T11:39:42Z</time>
      </trkpt>
      <trkpt lat="62.642108946707" lon="17.890673281013">
        <ele>37.8</ele>
        <time>2018-03-20T11:39:43Z</time>
      </trkpt>
      <trkpt lat="62.642084806835" lon="17.890658864145">
        <ele>37.8</ele>
        <time>2018-03-20T11:39:44Z</time>
      </trkpt>
      <trkpt lat="62.642081537894" lon="17.890635394825">
        <ele>37.8</ele>
        <time>2018-03-20T11:39:45Z</time>
      </trkpt>
      <trkpt lat="62.642061588972" lon="17.89062575564">
        <ele>37.8</ele>
        <time>2018-03-20T11:39:46Z</time>
      </trkpt>
      <trkpt lat="62.64204666919" lon="17.890609578573">
        <ele>38</ele>
        <time>2018-03-20T11:39:47Z</time>
      </trkpt>
      <trkpt lat="62.642032168503" lon="17.89060144813">
        <ele>38</ele>
        <time>2018-03-20T11:39:48Z</time>
      </trkpt>
      <trkpt lat="62.642009621192" lon="17.890583929959">
        <ele>38.2</ele>
        <time>2018-03-20T11:39:49Z</time>
      </trkpt>
      <trkpt lat="62.641993527944" lon="17.890566411788">
        <ele>38.6</ele>
        <time>2018-03-20T11:39:50Z</time>
      </trkpt>
      <trkpt lat="62.641976009773" lon="17.890550821454">
        <ele>38.8</ele>
        <time>2018-03-20T11:39:51Z</time>
      </trkpt>
      <trkpt lat="62.641964107475" lon="17.89054361302">
        <ele>39.4</ele>
        <time>2018-03-20T11:39:52Z</time>
      </trkpt>
      <trkpt lat="62.641948349503" lon="17.890528274143">
        <ele>39.8</ele>
        <time>2018-03-20T11:39:53Z</time>
      </trkpt>
      <trkpt lat="62.641936279567" lon="17.890513773456">
        <ele>40.2</ele>
        <time>2018-03-20T11:39:54Z</time>
      </trkpt>
      <trkpt lat="62.64191926431" lon="17.890504469547">
        <ele>40.6</ele>
        <time>2018-03-20T11:39:55Z</time>
      </trkpt>
      <trkpt lat="62.641900237397" lon="17.890492315792">
        <ele>41</ele>
        <time>2018-03-20T11:39:56Z</time>
      </trkpt>
      <trkpt lat="62.641883976511" lon="17.890472031594">
        <ele>41.2</ele>
        <time>2018-03-20T11:39:57Z</time>
      </trkpt>
      <trkpt lat="62.641874672602" lon="17.890463901151">
        <ele>41.8</ele>
        <time>2018-03-20T11:39:58Z</time>
      </trkpt>
      <trkpt lat="62.641855813327" lon="17.890441186202">
        <ele>42</ele>
        <time>2018-03-20T11:39:59Z</time>
      </trkpt>
      <trkpt lat="62.641840390631" lon="17.890423416574">
        <ele>42.4</ele>
        <time>2018-03-20T11:40:00Z</time>
      </trkpt>
      <trkpt lat="62.641826057582" lon="17.89041034081">
        <ele>42.6</ele>
        <time>2018-03-20T11:40:01Z</time>
      </trkpt>
      <trkpt lat="62.641810886343" lon="17.890394834295">
        <ele>43</ele>
        <time>2018-03-20T11:40:02Z</time>
      </trkpt>
      <trkpt lat="62.641802420624" lon="17.890376477934">
        <ele>43.2</ele>
        <time>2018-03-20T11:40:03Z</time>
      </trkpt>
      <trkpt lat="62.641791607973" lon="17.890355690822">
        <ele>43.4</ele>
        <time>2018-03-20T11:40:04Z</time>
      </trkpt>
      <trkpt lat="62.641780376227" lon="17.890328282009">
        <ele>43.6</ele>
        <time>2018-03-20T11:40:05Z</time>
      </trkpt>
      <trkpt lat="62.641766629911" lon="17.890307327259">
        <ele>44</ele>
        <time>2018-03-20T11:40:06Z</time>
      </trkpt>
      <trkpt lat="62.641758583287" lon="17.890284696129">
        <ele>44.2</ele>
        <time>2018-03-20T11:40:07Z</time>
      </trkpt>
      <trkpt lat="62.641742238582" lon="17.890267764691">
        <ele>44.4</ele>
        <time>2018-03-20T11:40:08Z</time>
      </trkpt>
      <trkpt lat="62.641727067343" lon="17.890240691154">
        <ele>44.6</ele>
        <time>2018-03-20T11:40:09Z</time>
      </trkpt>
      <trkpt lat="62.641712901932" lon="17.890213198522">
        <ele>44.8</ele>
        <time>2018-03-20T11:40:10Z</time>
      </trkpt>
      <trkpt lat="62.641702340738" lon="17.890184951519">
        <ele>45</ele>
        <time>2018-03-20T11:40:11Z</time>
      </trkpt>
      <trkpt lat="62.641690019345" lon="17.890133067558">
        <ele>45.4</ele>
        <time>2018-03-20T11:40:12Z</time>
      </trkpt>
      <trkpt lat="62.641677530314" lon="17.890109514419">
        <ele>45.4</ele>
        <time>2018-03-20T11:40:13Z</time>
      </trkpt>
      <trkpt lat="62.641663700179" lon="17.890076238276">
        <ele>45.6</ele>
        <time>2018-03-20T11:40:14Z</time>
      </trkpt>
      <trkpt lat="62.641653390442" lon="17.890034328776">
        <ele>45.8</ele>
        <time>2018-03-20T11:40:15Z</time>
      </trkpt>
      <trkpt lat="62.64163930885" lon="17.889996694045">
        <ele>45.8</ele>
        <time>2018-03-20T11:40:16Z</time>
      </trkpt>
      <trkpt lat="62.641633525339" lon="17.889975823114">
        <ele>45.8</ele>
        <time>2018-03-20T11:40:17Z</time>
      </trkpt>
      <trkpt lat="62.641619443747" lon="17.889916730719">
        <ele>46</ele>
        <time>2018-03-20T11:40:18Z</time>
      </trkpt>
      <trkpt lat="62.641610642752" lon="17.889875407952">
        <ele>46</ele>
        <time>2018-03-20T11:40:19Z</time>
      </trkpt>
      <trkpt lat="62.641602260852" lon="17.88983366609">
        <ele>46</ele>
        <time>2018-03-20T11:40:20Z</time>
      </trkpt>
      <trkpt lat="62.641595974427" lon="17.889791086038">
        <ele>45.8</ele>
        <time>2018-03-20T11:40:21Z</time>
      </trkpt>
      <trkpt lat="62.641589185088" lon="17.889759402456">
        <ele>45.6</ele>
        <time>2018-03-20T11:40:22Z</time>
      </trkpt>
      <trkpt lat="62.641579294446" lon="17.889710619798">
        <ele>45.4</ele>
        <time>2018-03-20T11:40:23Z</time>
      </trkpt>
      <trkpt lat="62.641574684401" lon="17.889663094425">
        <ele>45</ele>
        <time>2018-03-20T11:40:24Z</time>
      </trkpt>
      <trkpt lat="62.641571834555" lon="17.889611126645">
        <ele>44.8</ele>
        <time>2018-03-20T11:40:25Z</time>
      </trkpt>
      <trkpt lat="62.64156973908" lon="17.889552453345">
        <ele>44.2</ele>
        <time>2018-03-20T11:40:26Z</time>
      </trkpt>
      <trkpt lat="62.641569655261" lon="17.889489086181">
        <ele>44</ele>
        <time>2018-03-20T11:40:27Z</time>
      </trkpt>
      <trkpt lat="62.641568733252" lon="17.889413984357">
        <ele>43.4</ele>
        <time>2018-03-20T11:40:28Z</time>
      </trkpt>
      <trkpt lat="62.641571750736" lon="17.889337038515">
        <ele>43.2</ele>
        <time>2018-03-20T11:40:29Z</time>
      </trkpt>
      <trkpt lat="62.641579378265" lon="17.889254057705">
        <ele>42.6</ele>
        <time>2018-03-20T11:40:30Z</time>
      </trkpt>
      <trkpt lat="62.641589352726" lon="17.889152804353">
        <ele>42</ele>
        <time>2018-03-20T11:40:31Z</time>
      </trkpt>
      <trkpt lat="62.641602177033" lon="17.889039983979">
        <ele>41.4</ele>
        <time>2018-03-20T11:40:32Z</time>
      </trkpt>
      <trkpt lat="62.64162925057" lon="17.888903945742">
        <ele>40.8</ele>
        <time>2018-03-20T11:40:33Z</time>
      </trkpt>
      <trkpt lat="62.64166445455" lon="17.888706384359">
        <ele>39.8</ele>
        <time>2018-03-20T11:40:34Z</time>
      </trkpt>
      <trkpt lat="62.641700245263" lon="17.888528352803">
        <ele>38</ele>
        <time>2018-03-20T11:40:35Z</time>
      </trkpt>
      <trkpt lat="62.641741232754" lon="17.88836348083">
        <ele>36.2</ele>
        <time>2018-03-20T11:40:36Z</time>
      </trkpt>
      <trkpt lat="62.641779118942" lon="17.888239261072">
        <ele>35</ele>
        <time>2018-03-20T11:40:37Z</time>
      </trkpt>
      <trkpt lat="62.641817759501" lon="17.888119232264">
        <ele>32.6</ele>
        <time>2018-03-20T11:40:38Z</time>
      </trkpt>
      <trkpt lat="62.641854639861" lon="17.888008675003">
        <ele>31.6</ele>
        <time>2018-03-20T11:40:39Z</time>
      </trkpt>
      <trkpt lat="62.641891184945" lon="17.887940949251">
        <ele>31</ele>
        <time>2018-03-20T11:40:40Z</time>
      </trkpt>
      <trkpt lat="62.641926724201" lon="17.887870038377">
        <ele>31</ele>
        <time>2018-03-20T11:40:41Z</time>
      </trkpt>
      <trkpt lat="62.641964191294" lon="17.887798205494">
        <ele>31.6</ele>
        <time>2018-03-20T11:40:42Z</time>
      </trkpt>
      <trkpt lat="62.641982463836" lon="17.887744812791">
        <ele>32.4</ele>
        <time>2018-03-20T11:40:43Z</time>
      </trkpt>
      <trkpt lat="62.642007106622" lon="17.887686810043">
        <ele>32.8</ele>
        <time>2018-03-20T11:40:44Z</time>
      </trkpt>
      <trkpt lat="62.642032336141" lon="17.887634339349">
        <ele>33.2</ele>
        <time>2018-03-20T11:40:45Z</time>
      </trkpt>
      <trkpt lat="62.64206008023" lon="17.887573319117">
        <ele>33.4</ele>
        <time>2018-03-20T11:40:46Z</time>
      </trkpt>
      <trkpt lat="62.642083801007" lon="17.887515903102">
        <ele>33.4</ele>
        <time>2018-03-20T11:40:47Z</time>
      </trkpt>
      <trkpt lat="62.642137948081" lon="17.887452955033">
        <ele>33</ele>
        <time>2018-03-20T11:40:49Z</time>
      </trkpt>
      <trkpt lat="62.64215731027" lon="17.887409955886">
        <ele>33</ele>
        <time>2018-03-20T11:40:50Z</time>
      </trkpt>
      <trkpt lat="62.642177762106" lon="17.887382127978">
        <ele>32.8</ele>
        <time>2018-03-20T11:40:51Z</time>
      </trkpt>
      <trkpt lat="62.642175498993" lon="17.887345163799">
        <ele>32.8</ele>
        <time>2018-03-20T11:40:52Z</time>
      </trkpt>
      <trkpt lat="62.642182539789" lon="17.887300488272">
        <ele>32.8</ele>
        <time>2018-03-20T11:40:53Z</time>
      </trkpt>
      <trkpt lat="62.642190754051" lon="17.887264781378">
        <ele>33</ele>
        <time>2018-03-20T11:40:54Z</time>
      </trkpt>
      <trkpt lat="62.642198213942" lon="17.887229912674">
        <ele>33.4</ele>
        <time>2018-03-20T11:40:55Z</time>
      </trkpt>
      <trkpt lat="62.6422050871" lon="17.887191607391">
        <ele>34</ele>
        <time>2018-03-20T11:40:56Z</time>
      </trkpt>
      <trkpt lat="62.642206679661" lon="17.8871506199">
        <ele>34.2</ele>
        <time>2018-03-20T11:40:57Z</time>
      </trkpt>
      <trkpt lat="62.642215732113" lon="17.887123462544">
        <ele>34.6</ele>
        <time>2018-03-20T11:40:58Z</time>
      </trkpt>
      <trkpt lat="62.642217576131" lon="17.887095802274">
        <ele>34.8</ele>
        <time>2018-03-20T11:40:59Z</time>
      </trkpt>
      <trkpt lat="62.642219252511" lon="17.887070237479">
        <ele>35</ele>
        <time>2018-03-20T11:41:00Z</time>
      </trkpt>
      <trkpt lat="62.642221096529" lon="17.887041487562">
        <ele>35.2</ele>
        <time>2018-03-20T11:41:01Z</time>
      </trkpt>
      <trkpt lat="62.642222521452" lon="17.887007540867">
        <ele>35.2</ele>
        <time>2018-03-20T11:41:02Z</time>
      </trkpt>
      <trkpt lat="62.642223275823" lon="17.886961608055">
        <ele>35.4</ele>
        <time>2018-03-20T11:41:03Z</time>
      </trkpt>
      <trkpt lat="62.642220258339" lon="17.886921374935">
        <ele>35.4</ele>
        <time>2018-03-20T11:41:04Z</time>
      </trkpt>
      <trkpt lat="62.642216989398" lon="17.886880806539">
        <ele>35.6</ele>
        <time>2018-03-20T11:41:05Z</time>
      </trkpt>
      <trkpt lat="62.642215648294" lon="17.886835292822">
        <ele>35.6</ele>
        <time>2018-03-20T11:41:06Z</time>
      </trkpt>
      <trkpt lat="62.642218917235" lon="17.886812996968">
        <ele>35.6</ele>
        <time>2018-03-20T11:41:07Z</time>
      </trkpt>
      <trkpt lat="62.642209780964" lon="17.886764549586">
        <ele>36</ele>
        <time>2018-03-20T11:41:08Z</time>
      </trkpt>
      <trkpt lat="62.642209110412" lon="17.886716688937">
        <ele>36</ele>
        <time>2018-03-20T11:41:09Z</time>
      </trkpt>
      <trkpt lat="62.642198884494" lon="17.88668542445">
        <ele>36.2</ele>
        <time>2018-03-20T11:41:10Z</time>
      </trkpt>
      <trkpt lat="62.642194106811" lon="17.886649130823">
        <ele>36.2</ele>
        <time>2018-03-20T11:41:11Z</time>
      </trkpt>
      <trkpt lat="62.642187736567" lon="17.886611831368">
        <ele>36.4</ele>
        <time>2018-03-20T11:41:12Z</time>
      </trkpt>
      <trkpt lat="62.642175331355" lon="17.886569502773">
        <ele>36.6</ele>
        <time>2018-03-20T11:41:13Z</time>
      </trkpt>
      <trkpt lat="62.642163931971" lon="17.886532622413">
        <ele>36.8</ele>
        <time>2018-03-20T11:41:14Z</time>
      </trkpt>
      <trkpt lat="62.642151191483" lon="17.8864968317">
        <ele>37</ele>
        <time>2018-03-20T11:41:15Z</time>
      </trkpt>
      <trkpt lat="62.642139121547" lon="17.886471769819">
        <ele>37.2</ele>
        <time>2018-03-20T11:41:16Z</time>
      </trkpt>
      <trkpt lat="62.642125039955" lon="17.886443019902">
        <ele>37.4</ele>
        <time>2018-03-20T11:41:17Z</time>
      </trkpt>
      <trkpt lat="62.642115903684" lon="17.886412342148">
        <ele>37.8</ele>
        <time>2018-03-20T11:41:18Z</time>
      </trkpt>
      <trkpt lat="62.642105677766" lon="17.886378563091">
        <ele>38</ele>
        <time>2018-03-20T11:41:19Z</time>
      </trkpt>
      <trkpt lat="62.642098134056" lon="17.886355512866">
        <ele>38.4</ele>
        <time>2018-03-20T11:41:20Z</time>
      </trkpt>
      <trkpt lat="62.64209193145" lon="17.886321733809">
        <ele>38.6</ele>
        <time>2018-03-20T11:41:21Z</time>
      </trkpt>
      <trkpt lat="62.642080029152" lon="17.886295498462">
        <ele>38.8</ele>
        <time>2018-03-20T11:41:22Z</time>
      </trkpt>
      <trkpt lat="62.642068629768" lon="17.886267419097">
        <ele>38.8</ele>
        <time>2018-03-20T11:41:23Z</time>
      </trkpt>
      <trkpt lat="62.642057733298" lon="17.886239926465">
        <ele>39</ele>
        <time>2018-03-20T11:41:24Z</time>
      </trkpt>
      <trkpt lat="62.642045244267" lon="17.886210422177">
        <ele>39.2</ele>
        <time>2018-03-20T11:41:25Z</time>
      </trkpt>
      <trkpt lat="62.642033425788" lon="17.886178822414">
        <ele>39.4</ele>
        <time>2018-03-20T11:41:26Z</time>
      </trkpt>
      <trkpt lat="62.642023283689" lon="17.886158538216">
        <ele>39.8</ele>
        <time>2018-03-20T11:41:27Z</time>
      </trkpt>
      <trkpt lat="62.642007358079" lon="17.88612635172">
        <ele>40</ele>
        <time>2018-03-20T11:41:28Z</time>
      </trkpt>
      <trkpt lat="62.641990678098" lon="17.886091483016">
        <ele>40.2</ele>
        <time>2018-03-20T11:41:29Z</time>
      </trkpt>
      <trkpt lat="62.64197626123" lon="17.88605510557">
        <ele>40.4</ele>
        <time>2018-03-20T11:41:30Z</time>
      </trkpt>
      <trkpt lat="62.64196285019" lon="17.886036497752">
        <ele>40.8</ele>
        <time>2018-03-20T11:41:31Z</time>
      </trkpt>
      <trkpt lat="62.641949942064" lon="17.88600481417">
        <ele>41</ele>
        <time>2018-03-20T11:41:32Z</time>
      </trkpt>
      <trkpt lat="62.641928232943" lon="17.885968436724">
        <ele>41.2</ele>
        <time>2018-03-20T11:41:33Z</time>
      </trkpt>
      <trkpt lat="62.641913061704" lon="17.885944883585">
        <ele>41.2</ele>
        <time>2018-03-20T11:41:34Z</time>
      </trkpt>
      <trkpt lat="62.641895040619" lon="17.885901213886">
        <ele>41.4</ele>
        <time>2018-03-20T11:41:35Z</time>
      </trkpt>
      <trkpt lat="62.641872158032" lon="17.885876906376">
        <ele>41.4</ele>
        <time>2018-03-20T11:41:36Z</time>
      </trkpt>
      <trkpt lat="62.641855142775" lon="17.885844216966">
        <ele>41.4</ele>
        <time>2018-03-20T11:41:37Z</time>
      </trkpt>
      <trkpt lat="62.64183712169" lon="17.885812533384">
        <ele>41.6</ele>
        <time>2018-03-20T11:41:38Z</time>
      </trkpt>
      <trkpt lat="62.641817591863" lon="17.885767271124">
        <ele>41.4</ele>
        <time>2018-03-20T11:41:39Z</time>
      </trkpt>
      <trkpt lat="62.64179856495" lon="17.885743634166">
        <ele>41.6</ele>
        <time>2018-03-20T11:41:40Z</time>
      </trkpt>
      <trkpt lat="62.641775682363" lon="17.885707424358">
        <ele>41.6</ele>
        <time>2018-03-20T11:41:41Z</time>
      </trkpt>
      <trkpt lat="62.641748189731" lon="17.88566367084">
        <ele>41.6</ele>
        <time>2018-03-20T11:41:42Z</time>
      </trkpt>
      <trkpt lat="62.641732515578" lon="17.885638860416">
        <ele>41.6</ele>
        <time>2018-03-20T11:41:43Z</time>
      </trkpt>
      <trkpt lat="62.641716841425" lon="17.885603488798">
        <ele>41.6</ele>
        <time>2018-03-20T11:41:44Z</time>
      </trkpt>
      <trkpt lat="62.641702424557" lon="17.885562668945">
        <ele>41.6</ele>
        <time>2018-03-20T11:41:45Z</time>
      </trkpt>
      <trkpt lat="62.641681302169" lon="17.885528219336">
        <ele>41.4</ele>
        <time>2018-03-20T11:41:46Z</time>
      </trkpt>
      <trkpt lat="62.641665376559" lon="17.885494021184">
        <ele>41.4</ele>
        <time>2018-03-20T11:41:47Z</time>
      </trkpt>
      <trkpt lat="62.641653474261" lon="17.885469462217">
        <ele>41.6</ele>
        <time>2018-03-20T11:41:49Z</time>
      </trkpt>
      <trkpt lat="62.641639811764" lon="17.885436856626">
        <ele>41.6</ele>
        <time>2018-03-20T11:41:50Z</time>
      </trkpt>
      <trkpt lat="62.641624640525" lon="17.885402826112">
        <ele>41.8</ele>
        <time>2018-03-20T11:41:51Z</time>
      </trkpt>
      <trkpt lat="62.641611313304" lon="17.88537281891">
        <ele>42</ele>
        <time>2018-03-20T11:41:52Z</time>
      </trkpt>
      <trkpt lat="62.641597231712" lon="17.885339794224">
        <ele>42.4</ele>
        <time>2018-03-20T11:41:53Z</time>
      </trkpt>
      <trkpt lat="62.64158147374" lon="17.88530241095">
        <ele>42.6</ele>
        <time>2018-03-20T11:41:54Z</time>
      </trkpt>
      <trkpt lat="62.641565464311" lon="17.885268631893">
        <ele>43</ele>
        <time>2018-03-20T11:41:55Z</time>
      </trkpt>
      <trkpt lat="62.641550963624" lon="17.885239127605">
        <ele>43.4</ele>
        <time>2018-03-20T11:41:56Z</time>
      </trkpt>
      <trkpt lat="62.641539145145" lon="17.885211970249">
        <ele>43.6</ele>
        <time>2018-03-20T11:41:57Z</time>
      </trkpt>
      <trkpt lat="62.641529003046" lon="17.885190596404">
        <ele>43.8</ele>
        <time>2018-03-20T11:41:58Z</time>
      </trkpt>
      <trkpt lat="62.641514586178" lon="17.885160002469">
        <ele>43.8</ele>
        <time>2018-03-20T11:41:59Z</time>
      </trkpt>
      <trkpt lat="62.641501510414" lon="17.885134856769">
        <ele>44</ele>
        <time>2018-03-20T11:42:00Z</time>
      </trkpt>
      <trkpt lat="62.641487931736" lon="17.885099988065">
        <ele>44.2</ele>
        <time>2018-03-20T11:42:01Z</time>
      </trkpt>
      <trkpt lat="62.641473850144" lon="17.885068472121">
        <ele>44.4</ele>
        <time>2018-03-20T11:42:02Z</time>
      </trkpt>
      <trkpt lat="62.641458846543" lon="17.885044667525">
        <ele>44.6</ele>
        <time>2018-03-20T11:42:03Z</time>
      </trkpt>
      <trkpt lat="62.641443088571" lon="17.885018348359">
        <ele>44.8</ele>
        <time>2018-03-20T11:42:04Z</time>
      </trkpt>
      <trkpt lat="62.641428252608" lon="17.884995801048">
        <ele>44.8</ele>
        <time>2018-03-20T11:42:05Z</time>
      </trkpt>
      <trkpt lat="62.641411237351" lon="17.884959926516">
        <ele>45</ele>
        <time>2018-03-20T11:42:06Z</time>
      </trkpt>
      <trkpt lat="62.641395144103" lon="17.884927237106">
        <ele>45.2</ele>
        <time>2018-03-20T11:42:07Z</time>
      </trkpt>
      <trkpt lat="62.641382990348" lon="17.884904941252">
        <ele>45.4</ele>
        <time>2018-03-20T11:42:08Z</time>
      </trkpt>
      <trkpt lat="62.64136773529" lon="17.884872084204">
        <ele>45.4</ele>
        <time>2018-03-20T11:42:09Z</time>
      </trkpt>
      <trkpt lat="62.641354659526" lon="17.88484643559">
        <ele>45.4</ele>
        <time>2018-03-20T11:42:10Z</time>
      </trkpt>
      <trkpt lat="62.641337392812" lon="17.884813662361">
        <ele>45.8</ele>
        <time>2018-03-20T11:42:11Z</time>
      </trkpt>
      <trkpt lat="62.641320293736" lon="17.884782146417">
        <ele>46</ele>
        <time>2018-03-20T11:42:12Z</time>
      </trkpt>
      <trkpt lat="62.641307972343" lon="17.884758174183">
        <ele>46</ele>
        <time>2018-03-20T11:42:13Z</time>
      </trkpt>
      <trkpt lat="62.641292801104" lon="17.884732609388">
        <ele>46.2</ele>
        <time>2018-03-20T11:42:14Z</time>
      </trkpt>
      <trkpt lat="62.641279809159" lon="17.884702769824">
        <ele>46.2</ele>
        <time>2018-03-20T11:42:15Z</time>
      </trkpt>
      <trkpt lat="62.641267320128" lon="17.884670248052">
        <ele>46.4</ele>
        <time>2018-03-20T11:42:16Z</time>
      </trkpt>
      <trkpt lat="62.641253489993" lon="17.884634038244">
        <ele>46.6</ele>
        <time>2018-03-20T11:42:17Z</time>
      </trkpt>
      <trkpt lat="62.64124200679" lon="17.884608221992">
        <ele>46.6</ele>
        <time>2018-03-20T11:42:18Z</time>
      </trkpt>
      <trkpt lat="62.641228763388" lon="17.884575784039">
        <ele>47</ele>
        <time>2018-03-20T11:42:19Z</time>
      </trkpt>
      <trkpt lat="62.641217028728" lon="17.884548207588">
        <ele>47.2</ele>
        <time>2018-03-20T11:42:20Z</time>
      </trkpt>
      <trkpt lat="62.64120512643" lon="17.884523816259">
        <ele>47.4</ele>
        <time>2018-03-20T11:42:21Z</time>
      </trkpt>
      <trkpt lat="62.641189955191" lon="17.884494060514">
        <ele>47.4</ele>
        <time>2018-03-20T11:42:22Z</time>
      </trkpt>
      <trkpt lat="62.641172353201" lon="17.884461790199">
        <ele>47.6</ele>
        <time>2018-03-20T11:42:23Z</time>
      </trkpt>
      <trkpt lat="62.6411573496" lon="17.884433040282">
        <ele>47.6</ele>
        <time>2018-03-20T11:42:24Z</time>
      </trkpt>
      <trkpt lat="62.641142597456" lon="17.884398506854">
        <ele>47.8</ele>
        <time>2018-03-20T11:42:25Z</time>
      </trkpt>
      <trkpt lat="62.641127845312" lon="17.884359698657">
        <ele>47.8</ele>
        <time>2018-03-20T11:42:26Z</time>
      </trkpt>
      <trkpt lat="62.641113428444" lon="17.884323572668">
        <ele>48</ele>
        <time>2018-03-20T11:42:27Z</time>
      </trkpt>
      <trkpt lat="62.641100185042" lon="17.884287446679">
        <ele>48</ele>
        <time>2018-03-20T11:42:28Z</time>
      </trkpt>
      <trkpt lat="62.641086354907" lon="17.88426137897">
        <ele>48.2</ele>
        <time>2018-03-20T11:42:29Z</time>
      </trkpt>
      <trkpt lat="62.64107101603" lon="17.884229276293">
        <ele>48.4</ele>
        <time>2018-03-20T11:42:30Z</time>
      </trkpt>
      <trkpt lat="62.641056263886" lon="17.884194156132">
        <ele>48.6</ele>
        <time>2018-03-20T11:42:31Z</time>
      </trkpt>
      <trkpt lat="62.641038578077" lon="17.884148810053">
        <ele>48.8</ele>
        <time>2018-03-20T11:42:32Z</time>
      </trkpt>
      <trkpt lat="62.641025669951" lon="17.884118635213">
        <ele>48.8</ele>
        <time>2018-03-20T11:42:33Z</time>
      </trkpt>
      <trkpt lat="62.641010414893" lon="17.884077480084">
        <ele>49</ele>
        <time>2018-03-20T11:42:34Z</time>
      </trkpt>
      <trkpt lat="62.640997674405" lon="17.884032385462">
        <ele>49</ele>
        <time>2018-03-20T11:42:35Z</time>
      </trkpt>
      <trkpt lat="62.640985688288" lon="17.88399315817">
        <ele>49.2</ele>
        <time>2018-03-20T11:42:36Z</time>
      </trkpt>
      <trkpt lat="62.640963811529" lon="17.883953679421">
        <ele>49.4</ele>
        <time>2018-03-20T11:42:37Z</time>
      </trkpt>
      <trkpt lat="62.640949981394" lon="17.883922917848">
        <ele>49.4</ele>
        <time>2018-03-20T11:42:38Z</time>
      </trkpt>
      <trkpt lat="62.640937827639" lon="17.88387832614">
        <ele>49.6</ele>
        <time>2018-03-20T11:42:39Z</time>
      </trkpt>
      <trkpt lat="62.640930283929" lon="17.883830633129">
        <ele>49.6</ele>
        <time>2018-03-20T11:42:40Z</time>
      </trkpt>
      <trkpt lat="62.640915280328" lon="17.883783694489">
        <ele>49.8</ele>
        <time>2018-03-20T11:42:41Z</time>
      </trkpt>
      <trkpt lat="62.640903797125" lon="17.883735917659">
        <ele>49.8</ele>
        <time>2018-03-20T11:42:42Z</time>
      </trkpt>
      <trkpt lat="62.640899522356" lon="17.883699959308">
        <ele>49.8</ele>
        <time>2018-03-20T11:42:43Z</time>
      </trkpt>
      <trkpt lat="62.640894409397" lon="17.883657295437">
        <ele>49.8</ele>
        <time>2018-03-20T11:42:44Z</time>
      </trkpt>
      <trkpt lat="62.640890302266" lon="17.883616978498">
        <ele>50</ele>
        <time>2018-03-20T11:42:45Z</time>
      </trkpt>
      <trkpt lat="62.640888206791" lon="17.883584624364">
        <ele>50.2</ele>
        <time>2018-03-20T11:42:46Z</time>
      </trkpt>
      <trkpt lat="62.640885943678" lon="17.883549671841">
        <ele>50.4</ele>
        <time>2018-03-20T11:42:47Z</time>
      </trkpt>
      <trkpt lat="62.640883512927" lon="17.883520167553">
        <ele>50.4</ele>
        <time>2018-03-20T11:42:48Z</time>
      </trkpt>
      <trkpt lat="62.640882842375" lon="17.883483622469">
        <ele>50.6</ele>
        <time>2018-03-20T11:42:49Z</time>
      </trkpt>
      <trkpt lat="62.64087823233" lon="17.8834458201">
        <ele>51</ele>
        <time>2018-03-20T11:42:50Z</time>
      </trkpt>
      <trkpt lat="62.640873370828" lon="17.88340726336">
        <ele>51</ele>
        <time>2018-03-20T11:42:51Z</time>
      </trkpt>
      <trkpt lat="62.640870604801" lon="17.883374322493">
        <ele>51.4</ele>
        <time>2018-03-20T11:42:52Z</time>
      </trkpt>
      <trkpt lat="62.640865156566" lon="17.883338447961">
        <ele>51.6</ele>
        <time>2018-03-20T11:42:53Z</time>
      </trkpt>
      <trkpt lat="62.640862474358" lon="17.883298969212">
        <ele>51.8</ele>
        <time>2018-03-20T11:42:54Z</time>
      </trkpt>
      <trkpt lat="62.640860546521" lon="17.883266028345">
        <ele>52.2</ele>
        <time>2018-03-20T11:42:55Z</time>
      </trkpt>
      <trkpt lat="62.640859540693" lon="17.883227555424">
        <ele>52.4</ele>
        <time>2018-03-20T11:42:56Z</time>
      </trkpt>
      <trkpt lat="62.640855517381" lon="17.88319184853">
        <ele>52.6</ele>
        <time>2018-03-20T11:42:57Z</time>
      </trkpt>
      <trkpt lat="62.640854260096" lon="17.883157985654">
        <ele>52.8</ele>
        <time>2018-03-20T11:42:58Z</time>
      </trkpt>
      <trkpt lat="62.640849230956" lon="17.883110963195">
        <ele>53.2</ele>
        <time>2018-03-20T11:42:59Z</time>
      </trkpt>
      <trkpt lat="62.640846129653" lon="17.88307031098">
        <ele>53.4</ele>
        <time>2018-03-20T11:43:00Z</time>
      </trkpt>
      <trkpt lat="62.640842693074" lon="17.883034017353">
        <ele>53.4</ele>
        <time>2018-03-20T11:43:01Z</time>
      </trkpt>
      <trkpt lat="62.640845794377" lon="17.882989090369">
        <ele>53.6</ele>
        <time>2018-03-20T11:43:02Z</time>
      </trkpt>
      <trkpt lat="62.640848141309" lon="17.882949443982">
        <ele>53.8</ele>
        <time>2018-03-20T11:43:03Z</time>
      </trkpt>
      <trkpt lat="62.640850739698" lon="17.882913401812">
        <ele>54</ele>
        <time>2018-03-20T11:43:04Z</time>
      </trkpt>
      <trkpt lat="62.640854511553" lon="17.882873587787">
        <ele>54</ele>
        <time>2018-03-20T11:43:05Z</time>
      </trkpt>
      <trkpt lat="62.640860211245" lon="17.882830504821">
        <ele>54.2</ele>
        <time>2018-03-20T11:43:06Z</time>
      </trkpt>
      <trkpt lat="62.640865910937" lon="17.882793373004">
        <ele>54.4</ele>
        <time>2018-03-20T11:43:07Z</time>
      </trkpt>
      <trkpt lat="62.640876220674" lon="17.882746937278">
        <ele>54.4</ele>
        <time>2018-03-20T11:43:08Z</time>
      </trkpt>
      <trkpt lat="62.640890302266" lon="17.88269312548">
        <ele>54.6</ele>
        <time>2018-03-20T11:43:09Z</time>
      </trkpt>
      <trkpt lat="62.640897762157" lon="17.882631769972">
        <ele>54.8</ele>
        <time>2018-03-20T11:43:10Z</time>
      </trkpt>
      <trkpt lat="62.64091008355" lon="17.882564128039">
        <ele>55</ele>
        <time>2018-03-20T11:43:11Z</time>
      </trkpt>
      <trkpt lat="62.640920728563" lon="17.882500760875">
        <ele>55</ele>
        <time>2018-03-20T11:43:12Z</time>
      </trkpt>
      <trkpt lat="62.640923159314" lon="17.882449044552">
        <ele>54.8</ele>
        <time>2018-03-20T11:43:13Z</time>
      </trkpt>
      <trkpt lat="62.640920477106" lon="17.88239053889">
        <ele>54.8</ele>
        <time>2018-03-20T11:43:14Z</time>
      </trkpt>
      <trkpt lat="62.640916369975" lon="17.882338906386">
        <ele>54.8</ele>
        <time>2018-03-20T11:43:15Z</time>
      </trkpt>
      <trkpt lat="62.640910586464" lon="17.882291716289">
        <ele>54.6</ele>
        <time>2018-03-20T11:43:16Z</time>
      </trkpt>
      <trkpt lat="62.640907233704" lon="17.882237904491">
        <ele>54.6</ele>
        <time>2018-03-20T11:43:17Z</time>
      </trkpt>
      <trkpt lat="62.640900947279" lon="17.882198677199">
        <ele>54.8</ele>
        <time>2018-03-20T11:43:18Z</time>
      </trkpt>
      <trkpt lat="62.640889631714" lon="17.882154839862">
        <ele>54.8</ele>
        <time>2018-03-20T11:43:19Z</time>
      </trkpt>
      <trkpt lat="62.640877980873" lon="17.882117037493">
        <ele>55</ele>
        <time>2018-03-20T11:43:20Z</time>
      </trkpt>
      <trkpt lat="62.640872616457" lon="17.882080743866">
        <ele>55.2</ele>
        <time>2018-03-20T11:43:21Z</time>
      </trkpt>
      <trkpt lat="62.640865575661" lon="17.882049982293">
        <ele>55.4</ele>
        <time>2018-03-20T11:43:22Z</time>
      </trkpt>
      <trkpt lat="62.640852751354" lon="17.882014945951">
        <ele>55.4</ele>
        <time>2018-03-20T11:43:23Z</time>
      </trkpt>
      <trkpt lat="62.640840849056" lon="17.881974209917">
        <ele>55.6</ele>
        <time>2018-03-20T11:43:24Z</time>
      </trkpt>
      <trkpt lat="62.64083297007" lon="17.881943280706">
        <ele>55.8</ele>
        <time>2018-03-20T11:43:25Z</time>
      </trkpt>
      <trkpt lat="62.640823414704" lon="17.881919392291">
        <ele>56</ele>
        <time>2018-03-20T11:43:26Z</time>
      </trkpt>
      <trkpt lat="62.640813775519" lon="17.881898102265">
        <ele>56.2</ele>
        <time>2018-03-20T11:43:27Z</time>
      </trkpt>
      <trkpt lat="62.640808243465" lon="17.881877650429">
        <ele>56.2</ele>
        <time>2018-03-20T11:43:28Z</time>
      </trkpt>
      <trkpt lat="62.640803130506" lon="17.881846637399">
        <ele>56.6</ele>
        <time>2018-03-20T11:43:29Z</time>
      </trkpt>
      <trkpt lat="62.640798520461" lon="17.881816797835">
        <ele>56.8</ele>
        <time>2018-03-20T11:43:30Z</time>
      </trkpt>
      <trkpt lat="62.640793994235" lon="17.881785533348">
        <ele>57.2</ele>
        <time>2018-03-20T11:43:31Z</time>
      </trkpt>
      <trkpt lat="62.640787875448" lon="17.881741612192">
        <ele>57.4</ele>
        <time>2018-03-20T11:43:32Z</time>
      </trkpt>
      <trkpt lat="62.64077848772" lon="17.881702803995">
        <ele>57.6</ele>
        <time>2018-03-20T11:43:33Z</time>
      </trkpt>
      <trkpt lat="62.640769938182" lon="17.88166634273">
        <ele>57.6</ele>
        <time>2018-03-20T11:43:34Z</time>
      </trkpt>
      <trkpt lat="62.640758706436" lon="17.881624852325">
        <ele>57.8</ele>
        <time>2018-03-20T11:43:35Z</time>
      </trkpt>
      <trkpt lat="62.640748815794" lon="17.881572968364">
        <ele>58</ele>
        <time>2018-03-20T11:43:36Z</time>
      </trkpt>
      <trkpt lat="62.64074076917" lon="17.88152804138">
        <ele>58</ele>
        <time>2018-03-20T11:43:37Z</time>
      </trkpt>
      <trkpt lat="62.640732890184" lon="17.881492502124">
        <ele>58</ele>
        <time>2018-03-20T11:43:38Z</time>
      </trkpt>
      <trkpt lat="62.640726017026" lon="17.881451346995">
        <ele>58.2</ele>
        <time>2018-03-20T11:43:39Z</time>
      </trkpt>
      <trkpt lat="62.640711600158" lon="17.881412035884">
        <ele>58.4</ele>
        <time>2018-03-20T11:43:40Z</time>
      </trkpt>
      <trkpt lat="62.640697770023" lon="17.881367779452">
        <ele>58.4</ele>
        <time>2018-03-20T11:43:41Z</time>
      </trkpt>
      <trkpt lat="62.64069047777" lon="17.881331569644">
        <ele>58.6</ele>
        <time>2018-03-20T11:43:42Z</time>
      </trkpt>
      <trkpt lat="62.640682682603" lon="17.881293431999">
        <ele>58.6</ele>
        <time>2018-03-20T11:43:43Z</time>
      </trkpt>
      <trkpt lat="62.640670696486" lon="17.881247331549">
        <ele>58.8</ele>
        <time>2018-03-20T11:43:44Z</time>
      </trkpt>
      <trkpt lat="62.640665583527" lon="17.881212295207">
        <ele>58.8</ele>
        <time>2018-03-20T11:43:45Z</time>
      </trkpt>
      <trkpt lat="62.640659883835" lon="17.881163344911">
        <ele>59</ele>
        <time>2018-03-20T11:43:46Z</time>
      </trkpt>
      <trkpt lat="62.640660470568" lon="17.881116070995">
        <ele>59</ele>
        <time>2018-03-20T11:43:47Z</time>
      </trkpt>
      <trkpt lat="62.64065862655" lon="17.881086399069">
        <ele>59</ele>
        <time>2018-03-20T11:43:48Z</time>
      </trkpt>
      <trkpt lat="62.640653513591" lon="17.881044321931">
        <ele>59.2</ele>
        <time>2018-03-20T11:43:49Z</time>
      </trkpt>
      <trkpt lat="62.640660554387" lon="17.880987744106">
        <ele>59.4</ele>
        <time>2018-03-20T11:43:50Z</time>
      </trkpt>
      <trkpt lat="62.64065946474" lon="17.880939715819">
        <ele>59.6</ele>
        <time>2018-03-20T11:43:51Z</time>
      </trkpt>
      <trkpt lat="62.640657201627" lon="17.880903841287">
        <ele>59.6</ele>
        <time>2018-03-20T11:43:52Z</time>
      </trkpt>
      <trkpt lat="62.640661057301" lon="17.880851957326">
        <ele>59.8</ele>
        <time>2018-03-20T11:43:53Z</time>
      </trkpt>
      <trkpt lat="62.640663488052" lon="17.880797055881">
        <ele>60</ele>
        <time>2018-03-20T11:43:54Z</time>
      </trkpt>
      <trkpt lat="62.640670025934" lon="17.880754643467">
        <ele>60.2</ele>
        <time>2018-03-20T11:43:55Z</time>
      </trkpt>
      <trkpt lat="62.64068041949" lon="17.880716086727">
        <ele>60.2</ele>
        <time>2018-03-20T11:43:56Z</time>
      </trkpt>
      <trkpt lat="62.640697434747" lon="17.880669567182">
        <ele>60.4</ele>
        <time>2018-03-20T11:43:57Z</time>
      </trkpt>
      <trkpt lat="62.64071059433" lon="17.880636123401">
        <ele>60.4</ele>
        <time>2018-03-20T11:43:58Z</time>
      </trkpt>
      <trkpt lat="62.640727525768" lon="17.880585999639">
        <ele>60.6</ele>
        <time>2018-03-20T11:43:59Z</time>
      </trkpt>
      <trkpt lat="62.640739763342" lon="17.880547610537">
        <ele>60.8</ele>
        <time>2018-03-20T11:44:00Z</time>
      </trkpt>
      <trkpt lat="62.640754934581" lon="17.880508718521">
        <ele>61</ele>
        <time>2018-03-20T11:44:01Z</time>
      </trkpt>
      <trkpt lat="62.640767675069" lon="17.880467060478">
        <ele>61</ele>
        <time>2018-03-20T11:44:02Z</time>
      </trkpt>
      <trkpt lat="62.640777398073" lon="17.880434119611">
        <ele>61.2</ele>
        <time>2018-03-20T11:44:03Z</time>
      </trkpt>
      <trkpt lat="62.640791312027" lon="17.880391204283">
        <ele>61.2</ele>
        <time>2018-03-20T11:44:04Z</time>
      </trkpt>
      <trkpt lat="62.640805393619" lon="17.88034116434">
        <ele>61.4</ele>
        <time>2018-03-20T11:44:05Z</time>
      </trkpt>
      <trkpt lat="62.64081285351" lon="17.880309816034">
        <ele>61.4</ele>
        <time>2018-03-20T11:44:06Z</time>
      </trkpt>
      <trkpt lat="62.640827018921" lon="17.880265643421">
        <ele>61.4</ele>
        <time>2018-03-20T11:44:07Z</time>
      </trkpt>
      <trkpt lat="62.640836741925" lon="17.880229852708">
        <ele>61.6</ele>
        <time>2018-03-20T11:44:08Z</time>
      </trkpt>
      <trkpt lat="62.640853002811" lon="17.880179728946">
        <ele>61.6</ele>
        <time>2018-03-20T11:44:09Z</time>
      </trkpt>
      <trkpt lat="62.64086565948" lon="17.880139328188">
        <ele>61.8</ele>
        <time>2018-03-20T11:44:10Z</time>
      </trkpt>
      <trkpt lat="62.640876472131" lon="17.880098508335">
        <ele>62</ele>
        <time>2018-03-20T11:44:11Z</time>
      </trkpt>
      <trkpt lat="62.640892649198" lon="17.880046624374">
        <ele>62</ele>
        <time>2018-03-20T11:44:12Z</time>
      </trkpt>
      <trkpt lat="62.640905557324" lon="17.880007480901">
        <ele>62.2</ele>
        <time>2018-03-20T11:44:13Z</time>
      </trkpt>
      <trkpt lat="62.640924081323" lon="17.87995308237">
        <ele>62.2</ele>
        <time>2018-03-20T11:44:14Z</time>
      </trkpt>
      <trkpt lat="62.640932211766" lon="17.879906395187">
        <ele>62.4</ele>
        <time>2018-03-20T11:44:15Z</time>
      </trkpt>
      <trkpt lat="62.640943359693" lon="17.879868173723">
        <ele>62.2</ele>
        <time>2018-03-20T11:44:16Z</time>
      </trkpt>
      <trkpt lat="62.640954759077" lon="17.879827186232">
        <ele>62.4</ele>
        <time>2018-03-20T11:44:17Z</time>
      </trkpt>
      <trkpt lat="62.640963308615" lon="17.879785695827">
        <ele>62.4</ele>
        <time>2018-03-20T11:44:18Z</time>
      </trkpt>
      <trkpt lat="62.640972025791" lon="17.879742109947">
        <ele>62.4</ele>
        <time>2018-03-20T11:44:19Z</time>
      </trkpt>
      <trkpt lat="62.640983173718" lon="17.879700368085">
        <ele>62.4</ele>
        <time>2018-03-20T11:44:20Z</time>
      </trkpt>
      <trkpt lat="62.640989879238" lon="17.879649154676">
        <ele>62.6</ele>
        <time>2018-03-20T11:44:21Z</time>
      </trkpt>
      <trkpt lat="62.640995243654" lon="17.879611687583">
        <ele>62.6</ele>
        <time>2018-03-20T11:44:22Z</time>
      </trkpt>
      <trkpt lat="62.641007565047" lon="17.879567766427">
        <ele>62.8</ele>
        <time>2018-03-20T11:44:23Z</time>
      </trkpt>
      <trkpt lat="62.641013013282" lon="17.879517558846">
        <ele>63</ele>
        <time>2018-03-20T11:44:24Z</time>
      </trkpt>
      <trkpt lat="62.641019467345" lon="17.879479169744">
        <ele>63</ele>
        <time>2018-03-20T11:44:25Z</time>
      </trkpt>
      <trkpt lat="62.641032207833" lon="17.879437344063">
        <ele>63</ele>
        <time>2018-03-20T11:44:26Z</time>
      </trkpt>
      <trkpt lat="62.641040505914" lon="17.879388561405">
        <ele>63.2</ele>
        <time>2018-03-20T11:44:27Z</time>
      </trkpt>
      <trkpt lat="62.641044361588" lon="17.879355369081">
        <ele>63.2</ele>
        <time>2018-03-20T11:44:28Z</time>
      </trkpt>
      <trkpt lat="62.641052492031" lon="17.879307592251">
        <ele>63.4</ele>
        <time>2018-03-20T11:44:29Z</time>
      </trkpt>
      <trkpt lat="62.641060706293" lon="17.879256630299">
        <ele>63.6</ele>
        <time>2018-03-20T11:44:30Z</time>
      </trkpt>
      <trkpt lat="62.641072273315" lon="17.879213547333">
        <ele>63.6</ele>
        <time>2018-03-20T11:44:31Z</time>
      </trkpt>
      <trkpt lat="62.641082415414" lon="17.879178175715">
        <ele>63.8</ele>
        <time>2018-03-20T11:44:32Z</time>
      </trkpt>
      <trkpt lat="62.641088534201" lon="17.879145570124">
        <ele>64.2</ele>
        <time>2018-03-20T11:44:33Z</time>
      </trkpt>
      <trkpt lat="62.641100101223" lon="17.879102235701">
        <ele>64.4</ele>
        <time>2018-03-20T11:44:34Z</time>
      </trkpt>
      <trkpt lat="62.6411070582" lon="17.879056302889">
        <ele>64.4</ele>
        <time>2018-03-20T11:44:35Z</time>
      </trkpt>
      <trkpt lat="62.641117870851" lon="17.87901430957">
        <ele>64.6</ele>
        <time>2018-03-20T11:44:36Z</time>
      </trkpt>
      <trkpt lat="62.64112466019" lon="17.87896569455">
        <ele>64.6</ele>
        <time>2018-03-20T11:44:37Z</time>
      </trkpt>
      <trkpt lat="62.641129018778" lon="17.878932418407">
        <ele>64.8</ele>
        <time>2018-03-20T11:44:38Z</time>
      </trkpt>
      <trkpt lat="62.641143435646" lon="17.878876092039">
        <ele>64.6</ele>
        <time>2018-03-20T11:44:39Z</time>
      </trkpt>
      <trkpt lat="62.641152571917" lon="17.878839463136">
        <ele>64.6</ele>
        <time>2018-03-20T11:44:40Z</time>
      </trkpt>
      <trkpt lat="62.641162294921" lon="17.878804091518">
        <ele>64.8</ele>
        <time>2018-03-20T11:44:41Z</time>
      </trkpt>
      <trkpt lat="62.641175957418" lon="17.878760840914">
        <ele>64.8</ele>
        <time>2018-03-20T11:44:42Z</time>
      </trkpt>
      <trkpt lat="62.641186770069" lon="17.878728067685">
        <ele>64.8</ele>
        <time>2018-03-20T11:44:43Z</time>
      </trkpt>
      <trkpt lat="62.641201689851" lon="17.878674591163">
        <ele>65</ele>
        <time>2018-03-20T11:44:44Z</time>
      </trkpt>
      <trkpt lat="62.641216777271" lon="17.878639387183">
        <ele>65</ele>
        <time>2018-03-20T11:44:45Z</time>
      </trkpt>
      <trkpt lat="62.641227506103" lon="17.878607116868">
        <ele>65.2</ele>
        <time>2018-03-20T11:44:46Z</time>
      </trkpt>
      <trkpt lat="62.641244437541" lon="17.87855162869">
        <ele>65.2</ele>
        <time>2018-03-20T11:44:47Z</time>
      </trkpt>
      <trkpt lat="62.641255166373" lon="17.878515502701">
        <ele>65.4</ele>
        <time>2018-03-20T11:44:48Z</time>
      </trkpt>
      <trkpt lat="62.641273522734" lon="17.878473509382">
        <ele>65.8</ele>
        <time>2018-03-20T11:44:49Z</time>
      </trkpt>
      <trkpt lat="62.641284167747" lon="17.878436126108">
        <ele>66</ele>
        <time>2018-03-20T11:44:50Z</time>
      </trkpt>
      <trkpt lat="62.641296572959" lon="17.878394635703">
        <ele>66.2</ele>
        <time>2018-03-20T11:44:51Z</time>
      </trkpt>
      <trkpt lat="62.641312079474" lon="17.878353145298">
        <ele>66.4</ele>
        <time>2018-03-20T11:44:52Z</time>
      </trkpt>
      <trkpt lat="62.641326580161" lon="17.878314337101">
        <ele>66.4</ele>
        <time>2018-03-20T11:44:53Z</time>
      </trkpt>
      <trkpt lat="62.641345187979" lon="17.878280474225">
        <ele>66.6</ele>
        <time>2018-03-20T11:44:54Z</time>
      </trkpt>
      <trkpt lat="62.64136102977" lon="17.878243677684">
        <ele>66.6</ele>
        <time>2018-03-20T11:44:55Z</time>
      </trkpt>
      <trkpt lat="62.641372596792" lon="17.878209395713">
        <ele>66.6</ele>
        <time>2018-03-20T11:44:56Z</time>
      </trkpt>
      <trkpt lat="62.641390953153" lon="17.878170168421">
        <ele>66.6</ele>
        <time>2018-03-20T11:44:57Z</time>
      </trkpt>
      <trkpt lat="62.641404280374" lon="17.878139406848">
        <ele>66.6</ele>
        <time>2018-03-20T11:44:58Z</time>
      </trkpt>
      <trkpt lat="62.641419535432" lon="17.878099341366">
        <ele>66.8</ele>
        <time>2018-03-20T11:44:59Z</time>
      </trkpt>
      <trkpt lat="62.641439903449" lon="17.878053995287">
        <ele>66.8</ele>
        <time>2018-03-20T11:45:00Z</time>
      </trkpt>
      <trkpt lat="62.641456331973" lon="17.878013259253">
        <ele>66.8</ele>
        <time>2018-03-20T11:45:01Z</time>
      </trkpt>
      <trkpt lat="62.641469575375" lon="17.877977384721">
        <ele>66.8</ele>
        <time>2018-03-20T11:45:02Z</time>
      </trkpt>
      <trkpt lat="62.641485584804" lon="17.877941007275">
        <ele>66.8</ele>
        <time>2018-03-20T11:45:03Z</time>
      </trkpt>
      <trkpt lat="62.641502935337" lon="17.87789616411">
        <ele>66.8</ele>
        <time>2018-03-20T11:45:04Z</time>
      </trkpt>
      <trkpt lat="62.641519615318" lon="17.87785006366">
        <ele>67</ele>
        <time>2018-03-20T11:45:05Z</time>
      </trkpt>
      <trkpt lat="62.641535708566" lon="17.877813686214">
        <ele>67.2</ele>
        <time>2018-03-20T11:45:06Z</time>
      </trkpt>
      <trkpt lat="62.641552556185" lon="17.877778985148">
        <ele>67.4</ele>
        <time>2018-03-20T11:45:07Z</time>
      </trkpt>
      <trkpt lat="62.641560938085" lon="17.877755012914">
        <ele>67.4</ele>
        <time>2018-03-20T11:45:08Z</time>
      </trkpt>
      <trkpt lat="62.641572169831" lon="17.877713019595">
        <ele>67.6</ele>
        <time>2018-03-20T11:45:09Z</time>
      </trkpt>
      <trkpt lat="62.64158147374" lon="17.877676223054">
        <ele>68</ele>
        <time>2018-03-20T11:45:10Z</time>
      </trkpt>
      <trkpt lat="62.641603099042" lon="17.877633391545">
        <ele>68.4</ele>
        <time>2018-03-20T11:45:11Z</time>
      </trkpt>
      <trkpt lat="62.641617767367" lon="17.877597349375">
        <ele>68.4</ele>
        <time>2018-03-20T11:45:12Z</time>
      </trkpt>
      <trkpt lat="62.641627071276" lon="17.877570359657">
        <ele>68.6</ele>
        <time>2018-03-20T11:45:13Z</time>
      </trkpt>
      <trkpt lat="62.641647774569" lon="17.877532892564">
        <ele>69</ele>
        <time>2018-03-20T11:45:14Z</time>
      </trkpt>
      <trkpt lat="62.641662107618" lon="17.877503807371">
        <ele>69</ele>
        <time>2018-03-20T11:45:15Z</time>
      </trkpt>
      <trkpt lat="62.641673339364" lon="17.877481092422">
        <ele>69.2</ele>
        <time>2018-03-20T11:45:16Z</time>
      </trkpt>
      <trkpt lat="62.641688426784" lon="17.877445301709">
        <ele>69.4</ele>
        <time>2018-03-20T11:45:17Z</time>
      </trkpt>
      <trkpt lat="62.641696892503" lon="17.877424095502">
        <ele>69.8</ele>
        <time>2018-03-20T11:45:18Z</time>
      </trkpt>
      <trkpt lat="62.641705693498" lon="17.877393585386">
        <ele>70</ele>
        <time>2018-03-20T11:45:19Z</time>
      </trkpt>
      <trkpt lat="62.641717847253" lon="17.877360728338">
        <ele>70</ele>
        <time>2018-03-20T11:45:20Z</time>
      </trkpt>
      <trkpt lat="62.641730587741" lon="17.877328458023">
        <ele>70.2</ele>
        <time>2018-03-20T11:45:21Z</time>
      </trkpt>
      <trkpt lat="62.641741903306" lon="17.877305743074">
        <ele>70.4</ele>
        <time>2018-03-20T11:45:22Z</time>
      </trkpt>
      <trkpt lat="62.641752548319" lon="17.87727087437">
        <ele>70.4</ele>
        <time>2018-03-20T11:45:23Z</time>
      </trkpt>
      <trkpt lat="62.641766043178" lon="17.877225360653">
        <ele>70.6</ele>
        <time>2018-03-20T11:45:24Z</time>
      </trkpt>
      <trkpt lat="62.641776269096" lon="17.877193677071">
        <ele>70.8</ele>
        <time>2018-03-20T11:45:25Z</time>
      </trkpt>
      <trkpt lat="62.641784483358" lon="17.877163166955">
        <ele>70.8</ele>
        <time>2018-03-20T11:45:26Z</time>
      </trkpt>
      <trkpt lat="62.641796218018" lon="17.877132321563">
        <ele>70.8</ele>
        <time>2018-03-20T11:45:27Z</time>
      </trkpt>
      <trkpt lat="62.641808874687" lon="17.877102146723">
        <ele>71</ele>
        <time>2018-03-20T11:45:28Z</time>
      </trkpt>
      <trkpt lat="62.641825722306" lon="17.877067780933">
        <ele>71</ele>
        <time>2018-03-20T11:45:29Z</time>
      </trkpt>
      <trkpt lat="62.641849275445" lon="17.877010616375">
        <ele>71.2</ele>
        <time>2018-03-20T11:45:30Z</time>
      </trkpt>
      <trkpt lat="62.641861848295" lon="17.876968371599">
        <ele>71.2</ele>
        <time>2018-03-20T11:45:31Z</time>
      </trkpt>
      <trkpt lat="62.641871403661" lon="17.876930485411">
        <ele>71.4</ele>
        <time>2018-03-20T11:45:32Z</time>
      </trkpt>
      <trkpt lat="62.641880959027" lon="17.876901567856">
        <ele>71.4</ele>
        <time>2018-03-20T11:45:33Z</time>
      </trkpt>
      <trkpt lat="62.641890849669" lon="17.876875835423">
        <ele>71.6</ele>
        <time>2018-03-20T11:45:34Z</time>
      </trkpt>
      <trkpt lat="62.641901327044" lon="17.876842475461">
        <ele>71.8</ele>
        <time>2018-03-20T11:45:35Z</time>
      </trkpt>
      <trkpt lat="62.641911050048" lon="17.876797045563">
        <ele>72.2</ele>
        <time>2018-03-20T11:45:36Z</time>
      </trkpt>
      <trkpt lat="62.641923287622" lon="17.876763015049">
        <ele>72.4</ele>
        <time>2018-03-20T11:45:37Z</time>
      </trkpt>
      <trkpt lat="62.64193854268" lon="17.876725967051">
        <ele>72.4</ele>
        <time>2018-03-20T11:45:38Z</time>
      </trkpt>
      <trkpt lat="62.641953881557" lon="17.876691852718">
        <ele>72.6</ele>
        <time>2018-03-20T11:45:39Z</time>
      </trkpt>
      <trkpt lat="62.64196368838" lon="17.876657989842">
        <ele>72.6</ele>
        <time>2018-03-20T11:45:40Z</time>
      </trkpt>
      <trkpt lat="62.641980619818" lon="17.876609877736">
        <ele>72.6</ele>
        <time>2018-03-20T11:45:41Z</time>
      </trkpt>
      <trkpt lat="62.64198464313" lon="17.876580876362">
        <ele>72.8</ele>
        <time>2018-03-20T11:45:42Z</time>
      </trkpt>
      <trkpt lat="62.641994366134" lon="17.876549779513">
        <ele>72.8</ele>
        <time>2018-03-20T11:45:43Z</time>
      </trkpt>
      <trkpt lat="62.64200475969" lon="17.876500913036">
        <ele>72.8</ele>
        <time>2018-03-20T11:45:44Z</time>
      </trkpt>
      <trkpt lat="62.642014147418" lon="17.876458919717">
        <ele>72.8</ele>
        <time>2018-03-20T11:45:45Z</time>
      </trkpt>
      <trkpt lat="62.642024121879" lon="17.876427487592">
        <ele>72.8</ele>
        <time>2018-03-20T11:45:46Z</time>
      </trkpt>
      <trkpt lat="62.642039460756" lon="17.876378369658">
        <ele>72.8</ele>
        <time>2018-03-20T11:45:47Z</time>
      </trkpt>
      <trkpt lat="62.642054296719" lon="17.87634132166">
        <ele>72.8</ele>
        <time>2018-03-20T11:45:48Z</time>
      </trkpt>
      <trkpt lat="62.64207516765" lon="17.876305530947">
        <ele>72.8</ele>
        <time>2018-03-20T11:45:49Z</time>
      </trkpt>
      <trkpt lat="62.64210031335" lon="17.876277032487">
        <ele>72.8</ele>
        <time>2018-03-20T11:45:50Z</time>
      </trkpt>
      <trkpt lat="62.642124788498" lon="17.876242666697">
        <ele>73</ele>
        <time>2018-03-20T11:45:51Z</time>
      </trkpt>
      <trkpt lat="62.642137948081" lon="17.876212324219">
        <ele>73.4</ele>
        <time>2018-03-20T11:45:52Z</time>
      </trkpt>
      <trkpt lat="62.642159405745" lon="17.8761787128">
        <ele>73.4</ele>
        <time>2018-03-20T11:45:53Z</time>
      </trkpt>
      <trkpt lat="62.642183713255" lon="17.876138228223">
        <ele>73.8</ele>
        <time>2018-03-20T11:45:54Z</time>
      </trkpt>
      <trkpt lat="62.642205338557" lon="17.876103108062">
        <ele>73.8</ele>
        <time>2018-03-20T11:45:55Z</time>
      </trkpt>
      <trkpt lat="62.64222855642" lon="17.876078632914">
        <ele>74</ele>
        <time>2018-03-20T11:45:56Z</time>
      </trkpt>
      <trkpt lat="62.64225286393" lon="17.876047787522">
        <ele>74</ele>
        <time>2018-03-20T11:45:57Z</time>
      </trkpt>
      <trkpt lat="62.642265017685" lon="17.876026832772">
        <ele>74</ele>
        <time>2018-03-20T11:45:58Z</time>
      </trkpt>
      <trkpt lat="62.642289157557" lon="17.875987186385">
        <ele>74</ele>
        <time>2018-03-20T11:45:59Z</time>
      </trkpt>
      <trkpt lat="62.642311956325" lon="17.875950222206">
        <ele>74.2</ele>
        <time>2018-03-20T11:46:00Z</time>
      </trkpt>
      <trkpt lat="62.642328636306" lon="17.875926166153">
        <ele>74.2</ele>
        <time>2018-03-20T11:46:01Z</time>
      </trkpt>
      <trkpt lat="62.642349088142" lon="17.875902529195">
        <ele>74.2</ele>
        <time>2018-03-20T11:46:02Z</time>
      </trkpt>
      <trkpt lat="62.642366773951" lon="17.875881574445">
        <ele>74.2</ele>
        <time>2018-03-20T11:46:03Z</time>
      </trkpt>
      <trkpt lat="62.642382448104" lon="17.875856344926">
        <ele>74.4</ele>
        <time>2018-03-20T11:46:04Z</time>
      </trkpt>
      <trkpt lat="62.642399798637" lon="17.875827846466">
        <ele>74.4</ele>
        <time>2018-03-20T11:46:05Z</time>
      </trkpt>
      <trkpt lat="62.642422262129" lon="17.875797587807">
        <ele>74.4</ele>
        <time>2018-03-20T11:46:06Z</time>
      </trkpt>
      <trkpt lat="62.642442881603" lon="17.875768754071">
        <ele>74.6</ele>
        <time>2018-03-20T11:46:07Z</time>
      </trkpt>
      <trkpt lat="62.642462243792" lon="17.875741512896">
        <ele>74.8</ele>
        <time>2018-03-20T11:46:08Z</time>
      </trkpt>
      <trkpt lat="62.642485713112" lon="17.875702872337">
        <ele>75</ele>
        <time>2018-03-20T11:46:09Z</time>
      </trkpt>
      <trkpt lat="62.642512032278" lon="17.875669177099">
        <ele>75</ele>
        <time>2018-03-20T11:46:10Z</time>
      </trkpt>
      <trkpt lat="62.64254790681" lon="17.875617376957">
        <ele>75.2</ele>
        <time>2018-03-20T11:46:11Z</time>
      </trkpt>
      <trkpt lat="62.642580177125" lon="17.875573958715">
        <ele>75.2</ele>
        <time>2018-03-20T11:46:12Z</time>
      </trkpt>
      <trkpt lat="62.642607083024" lon="17.875535401975">
        <ele>75</ele>
        <time>2018-03-20T11:46:13Z</time>
      </trkpt>
      <trkpt lat="62.642641616452" lon="17.875495085036">
        <ele>74.8</ele>
        <time>2018-03-20T11:46:14Z</time>
      </trkpt>
      <trkpt lat="62.642676736613" lon="17.875463401454">
        <ele>74</ele>
        <time>2018-03-20T11:46:15Z</time>
      </trkpt>
      <trkpt lat="62.642710431851" lon="17.875426353456">
        <ele>73.8</ele>
        <time>2018-03-20T11:46:16Z</time>
      </trkpt>
      <trkpt lat="62.642746725478" lon="17.875373715124">
        <ele>73.2</ele>
        <time>2018-03-20T11:46:17Z</time>
      </trkpt>
      <trkpt lat="62.642778241422" lon="17.875333649642">
        <ele>73</ele>
        <time>2018-03-20T11:46:18Z</time>
      </trkpt>
      <trkpt lat="62.642815121782" lon="17.875284196432">
        <ele>73.2</ele>
        <time>2018-03-20T11:46:19Z</time>
      </trkpt>
      <trkpt lat="62.64284881702" lon="17.875238347439">
        <ele>73.2</ele>
        <time>2018-03-20T11:46:20Z</time>
      </trkpt>
      <trkpt lat="62.642882763715" lon="17.875193336636">
        <ele>73</ele>
        <time>2018-03-20T11:46:21Z</time>
      </trkpt>
      <trkpt lat="62.642913106193" lon="17.875148074376">
        <ele>72.8</ele>
        <time>2018-03-20T11:46:22Z</time>
      </trkpt>
      <trkpt lat="62.642948310173" lon="17.875096358053">
        <ele>72.6</ele>
        <time>2018-03-20T11:46:23Z</time>
      </trkpt>
      <trkpt lat="62.642998098659" lon="17.875040115504">
        <ele>72.2</ele>
        <time>2018-03-20T11:46:24Z</time>
      </trkpt>
      <trkpt lat="62.643040846349" lon="17.874981023109">
        <ele>72.2</ele>
        <time>2018-03-20T11:46:25Z</time>
      </trkpt>
      <trkpt lat="62.643084180772" lon="17.874914135547">
        <ele>71.6</ele>
        <time>2018-03-20T11:46:26Z</time>
      </trkpt>
      <trkpt lat="62.643130616498" lon="17.87484012337">
        <ele>71.2</ele>
        <time>2018-03-20T11:46:27Z</time>
      </trkpt>
      <trkpt lat="62.643170933437" lon="17.874777594396">
        <ele>71</ele>
        <time>2018-03-20T11:46:28Z</time>
      </trkpt>
      <trkpt lat="62.643230025832" lon="17.874683884754">
        <ele>70.4</ele>
        <time>2018-03-20T11:46:29Z</time>
      </trkpt>
      <trkpt lat="62.643276796834" lon="17.874607693283">
        <ele>69.4</ele>
        <time>2018-03-20T11:46:30Z</time>
      </trkpt>
      <trkpt lat="62.64331904161" lon="17.874536530952">
        <ele>68.8</ele>
        <time>2018-03-20T11:46:31Z</time>
      </trkpt>
      <trkpt lat="62.643361621662" lon="17.874466793544">
        <ele>68.4</ele>
        <time>2018-03-20T11:46:32Z</time>
      </trkpt>
      <trkpt lat="62.643396490366" lon="17.874409126072">
        <ele>68</ele>
        <time>2018-03-20T11:46:33Z</time>
      </trkpt>
      <trkpt lat="62.643434208916" lon="17.874347016193">
        <ele>67.8</ele>
        <time>2018-03-20T11:46:34Z</time>
      </trkpt>
      <trkpt lat="62.643475447864" lon="17.874291611834">
        <ele>67.6</ele>
        <time>2018-03-20T11:46:35Z</time>
      </trkpt>
      <trkpt lat="62.64350931074" lon="17.874244505556">
        <ele>67.6</ele>
        <time>2018-03-20T11:46:36Z</time>
      </trkpt>
      <trkpt lat="62.64353864739" lon="17.874199830029">
        <ele>67.8</ele>
        <time>2018-03-20T11:46:37Z</time>
      </trkpt>
      <trkpt lat="62.643559266864" lon="17.874158423443">
        <ele>68.2</ele>
        <time>2018-03-20T11:46:38Z</time>
      </trkpt>
      <trkpt lat="62.643589441704" lon="17.874107461491">
        <ele>68.6</ele>
        <time>2018-03-20T11:46:39Z</time>
      </trkpt>
      <trkpt lat="62.643610983187" lon="17.874072173692">
        <ele>68.8</ele>
        <time>2018-03-20T11:46:40Z</time>
      </trkpt>
      <trkpt lat="62.64363252467" lon="17.874036466798">
        <ele>69</ele>
        <time>2018-03-20T11:46:41Z</time>
      </trkpt>
      <trkpt lat="62.643653311782" lon="17.873998664429">
        <ele>69.2</ele>
        <time>2018-03-20T11:46:42Z</time>
      </trkpt>
      <trkpt lat="62.643669824125" lon="17.873963460449">
        <ele>69.2</ele>
        <time>2018-03-20T11:46:43Z</time>
      </trkpt>
      <trkpt lat="62.643677870749" lon="17.873921970044">
        <ele>69.4</ele>
        <time>2018-03-20T11:46:44Z</time>
      </trkpt>
      <trkpt lat="62.643693125807" lon="17.873883832399">
        <ele>69.4</ele>
        <time>2018-03-20T11:46:45Z</time>
      </trkpt>
      <trkpt lat="62.643708716141" lon="17.873846365306">
        <ele>69.4</ele>
        <time>2018-03-20T11:46:46Z</time>
      </trkpt>
      <trkpt lat="62.643721624267" lon="17.873800600132">
        <ele>69.6</ele>
        <time>2018-03-20T11:46:47Z</time>
      </trkpt>
      <trkpt lat="62.643740902637" lon="17.873755337872">
        <ele>69.6</ele>
        <time>2018-03-20T11:46:48Z</time>
      </trkpt>
      <trkpt lat="62.643764371957" lon="17.873700352608">
        <ele>69.8</ele>
        <time>2018-03-20T11:46:49Z</time>
      </trkpt>
      <trkpt lat="62.643775771341" lon="17.873661795868">
        <ele>69.8</ele>
        <time>2018-03-20T11:46:50Z</time>
      </trkpt>
      <trkpt lat="62.643791948408" lon="17.87361301321">
        <ele>69.8</ele>
        <time>2018-03-20T11:46:51Z</time>
      </trkpt>
      <trkpt lat="62.643803683068" lon="17.873570600796">
        <ele>69.8</ele>
        <time>2018-03-20T11:46:52Z</time>
      </trkpt>
      <trkpt lat="62.643812148787" lon="17.873528942753">
        <ele>70</ele>
        <time>2018-03-20T11:46:53Z</time>
      </trkpt>
      <trkpt lat="62.643827906759" lon="17.873481249742">
        <ele>70</ele>
        <time>2018-03-20T11:46:54Z</time>
      </trkpt>
      <trkpt lat="62.643843077998" lon="17.873427857039">
        <ele>70</ele>
        <time>2018-03-20T11:46:55Z</time>
      </trkpt>
      <trkpt lat="62.64385380683" lon="17.87338083458">
        <ele>70</ele>
        <time>2018-03-20T11:46:56Z</time>
      </trkpt>
      <trkpt lat="62.643865792947" lon="17.873327860972">
        <ele>70.2</ele>
        <time>2018-03-20T11:46:57Z</time>
      </trkpt>
      <trkpt lat="62.643879120168" lon="17.873284778006">
        <ele>70.4</ele>
        <time>2018-03-20T11:46:58Z</time>
      </trkpt>
      <trkpt lat="62.643897308891" lon="17.873232307312">
        <ele>70.4</ele>
        <time>2018-03-20T11:46:59Z</time>
      </trkpt>
      <trkpt lat="62.643907953904" lon="17.873193499115">
        <ele>70.6</ele>
        <time>2018-03-20T11:47:00Z</time>
      </trkpt>
      <trkpt lat="62.64392086203" lon="17.873142285706">
        <ele>70.6</ele>
        <time>2018-03-20T11:47:01Z</time>
      </trkpt>
      <trkpt lat="62.643925388256" lon="17.873094676514">
        <ele>70.8</ele>
        <time>2018-03-20T11:47:02Z</time>
      </trkpt>
      <trkpt lat="62.643931674681" lon="17.873056622688">
        <ele>70.8</ele>
        <time>2018-03-20T11:47:03Z</time>
      </trkpt>
      <trkpt lat="62.643945337178" lon="17.873004738727">
        <ele>71</ele>
        <time>2018-03-20T11:47:04Z</time>
      </trkpt>
      <trkpt lat="62.643958077666" lon="17.872955620793">
        <ele>71.2</ele>
        <time>2018-03-20T11:47:05Z</time>
      </trkpt>
      <trkpt lat="62.643969896145" lon="17.87290390447">
        <ele>71.4</ele>
        <time>2018-03-20T11:47:06Z</time>
      </trkpt>
      <trkpt lat="62.643977272217" lon="17.872868029938">
        <ele>71.6</ele>
        <time>2018-03-20T11:47:07Z</time>
      </trkpt>
      <trkpt lat="62.643984061556" lon="17.872832993596">
        <ele>71.8</ele>
        <time>2018-03-20T11:47:08Z</time>
      </trkpt>
      <trkpt lat="62.643986995221" lon="17.872771051355">
        <ele>72</ele>
        <time>2018-03-20T11:47:09Z</time>
      </trkpt>
      <trkpt lat="62.643991521447" lon="17.872727381656">
        <ele>72</ele>
        <time>2018-03-20T11:47:10Z</time>
      </trkpt>
      <trkpt lat="62.643995796216" lon="17.872685891251">
        <ele>72.2</ele>
        <time>2018-03-20T11:47:11Z</time>
      </trkpt>
      <trkpt lat="62.643998729881" lon="17.872634174928">
        <ele>72.2</ele>
        <time>2018-03-20T11:47:12Z</time>
      </trkpt>
      <trkpt lat="62.644000322442" lon="17.872586649555">
        <ele>72.4</ele>
        <time>2018-03-20T11:47:13Z</time>
      </trkpt>
      <trkpt lat="62.644003088469" lon="17.872530574644">
        <ele>72.6</ele>
        <time>2018-03-20T11:47:14Z</time>
      </trkpt>
      <trkpt lat="62.644004010478" lon="17.872490928257">
        <ele>72.6</ele>
        <time>2018-03-20T11:47:15Z</time>
      </trkpt>
      <trkpt lat="62.644001495908" lon="17.872441055952">
        <ele>73</ele>
        <time>2018-03-20T11:47:16Z</time>
      </trkpt>
      <trkpt lat="62.643994371293" lon="17.872384981041">
        <ele>73</ele>
        <time>2018-03-20T11:47:17Z</time>
      </trkpt>
      <trkpt lat="62.643995209483" lon="17.872327984121">
        <ele>73.4</ele>
        <time>2018-03-20T11:47:18Z</time>
      </trkpt>
      <trkpt lat="62.64399378456" lon="17.872257995256">
        <ele>73.4</ele>
        <time>2018-03-20T11:47:19Z</time>
      </trkpt>
      <trkpt lat="62.643995712397" lon="17.872212732996">
        <ele>73.6</ele>
        <time>2018-03-20T11:47:20Z</time>
      </trkpt>
      <trkpt lat="62.643993700741" lon="17.872142492674">
        <ele>73.4</ele>
        <time>2018-03-20T11:47:21Z</time>
      </trkpt>
      <trkpt lat="62.643990096524" lon="17.872075353655">
        <ele>73.4</ele>
        <time>2018-03-20T11:47:22Z</time>
      </trkpt>
      <trkpt lat="62.643986324669" lon="17.872012154129">
        <ele>73.6</ele>
        <time>2018-03-20T11:47:23Z</time>
      </trkpt>
      <trkpt lat="62.643976266389" lon="17.871923557446">
        <ele>73.6</ele>
        <time>2018-03-20T11:47:24Z</time>
      </trkpt>
      <trkpt lat="62.64397115343" lon="17.871846192509">
        <ele>73.6</ele>
        <time>2018-03-20T11:47:25Z</time>
      </trkpt>
      <trkpt lat="62.643970650516" lon="17.871771593599">
        <ele>73.6</ele>
        <time>2018-03-20T11:47:26Z</time>
      </trkpt>
      <trkpt lat="62.643957910028" lon="17.871716021602">
        <ele>73.4</ele>
        <time>2018-03-20T11:47:27Z</time>
      </trkpt>
      <trkpt lat="62.643941146228" lon="17.8716608687">
        <ele>73.4</ele>
        <time>2018-03-20T11:47:28Z</time>
      </trkpt>
      <trkpt lat="62.643919856202" lon="17.871589706369">
        <ele>73.2</ele>
        <time>2018-03-20T11:47:29Z</time>
      </trkpt>
      <trkpt lat="62.643907367171" lon="17.871531703621">
        <ele>73.2</ele>
        <time>2018-03-20T11:47:30Z</time>
      </trkpt>
      <trkpt lat="62.643898063262" lon="17.871468755552">
        <ele>73.2</ele>
        <time>2018-03-20T11:47:31Z</time>
      </trkpt>
      <trkpt lat="62.643886580059" lon="17.871425504948">
        <ele>73.2</ele>
        <time>2018-03-20T11:47:32Z</time>
      </trkpt>
      <trkpt lat="62.643873001381" lon="17.871375129729">
        <ele>73.4</ele>
        <time>2018-03-20T11:47:33Z</time>
      </trkpt>
      <trkpt lat="62.643860428531" lon="17.871324083958">
        <ele>73.4</ele>
        <time>2018-03-20T11:47:34Z</time>
      </trkpt>
      <trkpt lat="62.643848693871" lon="17.871268931056">
        <ele>73.4</ele>
        <time>2018-03-20T11:47:35Z</time>
      </trkpt>
      <trkpt lat="62.64383536665" lon="17.87119483506">
        <ele>73.4</ele>
        <time>2018-03-20T11:47:36Z</time>
      </trkpt>
      <trkpt lat="62.64382866113" lon="17.871139682158">
        <ele>73.4</ele>
        <time>2018-03-20T11:47:37Z</time>
      </trkpt>
      <trkpt lat="62.643817597022" lon="17.871086205636">
        <ele>73.4</ele>
        <time>2018-03-20T11:47:38Z</time>
      </trkpt>
      <trkpt lat="62.643800414127" lon="17.871022251739">
        <ele>73.4</ele>
        <time>2018-03-20T11:47:39Z</time>
      </trkpt>
      <trkpt lat="62.643788930924" lon="17.870970451597">
        <ele>73.2</ele>
        <time>2018-03-20T11:47:40Z</time>
      </trkpt>
      <trkpt lat="62.643771580391" lon="17.870899456904">
        <ele>73.4</ele>
        <time>2018-03-20T11:47:41Z</time>
      </trkpt>
      <trkpt lat="62.643765461604" lon="17.870843298174">
        <ele>73.2</ele>
        <time>2018-03-20T11:47:42Z</time>
      </trkpt>
      <trkpt lat="62.643746937605" lon="17.870785463064">
        <ele>73.2</ele>
        <time>2018-03-20T11:47:43Z</time>
      </trkpt>
      <trkpt lat="62.64372975471" lon="17.870722514995">
        <ele>73.2</ele>
        <time>2018-03-20T11:47:44Z</time>
      </trkpt>
      <trkpt lat="62.643717014222" lon="17.870660572754">
        <ele>73.2</ele>
        <time>2018-03-20T11:47:45Z</time>
      </trkpt>
      <trkpt lat="62.64370041806" lon="17.870598462875">
        <ele>73</ele>
        <time>2018-03-20T11:47:46Z</time>
      </trkpt>
      <trkpt lat="62.643692371436" lon="17.870518667187">
        <ele>73.2</ele>
        <time>2018-03-20T11:47:47Z</time>
      </trkpt>
      <trkpt lat="62.643682899889" lon="17.870451863444">
        <ele>73.2</ele>
        <time>2018-03-20T11:47:48Z</time>
      </trkpt>
      <trkpt lat="62.643677870749" lon="17.870376845439">
        <ele>73.2</ele>
        <time>2018-03-20T11:47:49Z</time>
      </trkpt>
      <trkpt lat="62.64367527236" lon="17.870311550438">
        <ele>73.2</ele>
        <time>2018-03-20T11:47:50Z</time>
      </trkpt>
      <trkpt lat="62.643673428342" lon="17.870225133049">
        <ele>73.2</ele>
        <time>2018-03-20T11:47:51Z</time>
      </trkpt>
      <trkpt lat="62.643668985935" lon="17.870167884672">
        <ele>73.2</ele>
        <time>2018-03-20T11:47:52Z</time>
      </trkpt>
      <trkpt lat="62.643665716994" lon="17.870093118124">
        <ele>73.2</ele>
        <time>2018-03-20T11:47:53Z</time>
      </trkpt>
      <trkpt lat="62.64366689046" lon="17.870007790382">
        <ele>73.2</ele>
        <time>2018-03-20T11:47:54Z</time>
      </trkpt>
      <trkpt lat="62.643672673971" lon="17.869949368539">
        <ele>73.2</ele>
        <time>2018-03-20T11:47:55Z</time>
      </trkpt>
      <trkpt lat="62.643675439998" lon="17.869886504289">
        <ele>73.2</ele>
        <time>2018-03-20T11:47:56Z</time>
      </trkpt>
      <trkpt lat="62.643684827726" lon="17.869831351387">
        <ele>73.2</ele>
        <time>2018-03-20T11:47:57Z</time>
      </trkpt>
      <trkpt lat="62.643690275961" lon="17.869774857381">
        <ele>73</ele>
        <time>2018-03-20T11:47:58Z</time>
      </trkpt>
      <trkpt lat="62.643697568214" lon="17.86969531315">
        <ele>73</ele>
        <time>2018-03-20T11:47:59Z</time>
      </trkpt>
      <trkpt lat="62.643707375037" lon="17.869630688701">
        <ele>73</ele>
        <time>2018-03-20T11:48:00Z</time>
      </trkpt>
      <trkpt lat="62.643712907091" lon="17.869563046768">
        <ele>73.2</ele>
        <time>2018-03-20T11:48:01Z</time>
      </trkpt>
      <trkpt lat="62.643712571815" lon="17.869490459514">
        <ele>73.2</ele>
        <time>2018-03-20T11:48:02Z</time>
      </trkpt>
      <trkpt lat="62.643714751109" lon="17.869423488133">
        <ele>73.2</ele>
        <time>2018-03-20T11:48:03Z</time>
      </trkpt>
      <trkpt lat="62.643718187688" lon="17.86934578792">
        <ele>73.2</ele>
        <time>2018-03-20T11:48:04Z</time>
      </trkpt>
      <trkpt lat="62.643721875724" lon="17.869280492919">
        <ele>73.2</ele>
        <time>2018-03-20T11:48:05Z</time>
      </trkpt>
      <trkpt lat="62.643723468285" lon="17.869209246769">
        <ele>73.2</ele>
        <time>2018-03-20T11:48:06Z</time>
      </trkpt>
      <trkpt lat="62.64372891652" lon="17.869139844637">
        <ele>73.2</ele>
        <time>2018-03-20T11:48:07Z</time>
      </trkpt>
      <trkpt lat="62.64373143109" lon="17.869089469418">
        <ele>73.2</ele>
        <time>2018-03-20T11:48:08Z</time>
      </trkpt>
      <trkpt lat="62.643732856013" lon="17.869029622652">
        <ele>73.2</ele>
        <time>2018-03-20T11:48:09Z</time>
      </trkpt>
      <trkpt lat="62.643730509081" lon="17.86896944061">
        <ele>73.4</ele>
        <time>2018-03-20T11:48:10Z</time>
      </trkpt>
      <trkpt lat="62.643722043362" lon="17.868894757881">
        <ele>73.4</ele>
        <time>2018-03-20T11:48:11Z</time>
      </trkpt>
      <trkpt lat="62.64371550548" lon="17.868827283586">
        <ele>73.6</ele>
        <time>2018-03-20T11:48:12Z</time>
      </trkpt>
      <trkpt lat="62.643704189915" lon="17.868771963046">
        <ele>73.8</ele>
        <time>2018-03-20T11:48:13Z</time>
      </trkpt>
      <trkpt lat="62.643692203798" lon="17.868686719123">
        <ele>73.8</ele>
        <time>2018-03-20T11:48:14Z</time>
      </trkpt>
      <trkpt lat="62.643679547129" lon="17.868624776882">
        <ele>74</ele>
        <time>2018-03-20T11:48:15Z</time>
      </trkpt>
      <trkpt lat="62.643665884632" lon="17.868556799673">
        <ele>74</ele>
        <time>2018-03-20T11:48:16Z</time>
      </trkpt>
      <trkpt lat="62.643647360633" lon="17.868475411424">
        <ele>74</ele>
        <time>2018-03-20T11:48:17Z</time>
      </trkpt>
      <trkpt lat="62.643638894914" lon="17.868401902161">
        <ele>73.8</ele>
        <time>2018-03-20T11:48:18Z</time>
      </trkpt>
      <trkpt lat="62.643627830806" lon="17.868320430093">
        <ele>73.8</ele>
        <time>2018-03-20T11:48:19Z</time>
      </trkpt>
      <trkpt lat="62.643619784182" lon="17.868218673827">
        <ele>73.8</ele>
        <time>2018-03-20T11:48:20Z</time>
      </trkpt>
      <trkpt lat="62.643639649285" lon="17.868128149307">
        <ele>73.6</ele>
        <time>2018-03-20T11:48:21Z</time>
      </trkpt>
      <trkpt lat="62.643632692308" lon="17.86803737333">
        <ele>73.4</ele>
        <time>2018-03-20T11:48:22Z</time>
      </trkpt>
      <trkpt lat="62.643631015928" lon="17.867954141063">
        <ele>73.2</ele>
        <time>2018-03-20T11:48:23Z</time>
      </trkpt>
      <trkpt lat="62.643621460562" lon="17.867879039239">
        <ele>73</ele>
        <time>2018-03-20T11:48:24Z</time>
      </trkpt>
      <trkpt lat="62.643610061178" lon="17.86781609117">
        <ele>72.8</ele>
        <time>2018-03-20T11:48:25Z</time>
      </trkpt>
      <trkpt lat="62.643611402282" lon="17.867767643788">
        <ele>72.6</ele>
        <time>2018-03-20T11:48:26Z</time>
      </trkpt>
      <trkpt lat="62.64359564431" lon="17.867689021566">
        <ele>72.4</ele>
        <time>2018-03-20T11:48:27Z</time>
      </trkpt>
      <trkpt lat="62.643573767551" lon="17.86763420394">
        <ele>72.4</ele>
        <time>2018-03-20T11:48:28Z</time>
      </trkpt>
      <trkpt lat="62.643550046774" lon="17.867571591147">
        <ele>72.4</ele>
        <time>2018-03-20T11:48:29Z</time>
      </trkpt>
      <trkpt lat="62.643525906902" lon="17.867518868996">
        <ele>72.2</ele>
        <time>2018-03-20T11:48:30Z</time>
      </trkpt>
      <trkpt lat="62.643509562197" lon="17.867475702211">
        <ele>72.2</ele>
        <time>2018-03-20T11:48:31Z</time>
      </trkpt>
      <trkpt lat="62.643505035971" lon="17.867411496857">
        <ele>72.4</ele>
        <time>2018-03-20T11:48:32Z</time>
      </trkpt>
      <trkpt lat="62.643507299084" lon="17.867353494109">
        <ele>72.4</ele>
        <time>2018-03-20T11:48:33Z</time>
      </trkpt>
      <trkpt lat="62.643515010432" lon="17.867285181624">
        <ele>72.2</ele>
        <time>2018-03-20T11:48:34Z</time>
      </trkpt>
      <trkpt lat="62.643522218866" lon="17.867211420904">
        <ele>72.4</ele>
        <time>2018-03-20T11:48:35Z</time>
      </trkpt>
      <trkpt lat="62.643540407589" lon="17.867127769542">
        <ele>72.4</ele>
        <time>2018-03-20T11:48:36Z</time>
      </trkpt>
      <trkpt lat="62.643566726755" lon="17.867053002994">
        <ele>72</ele>
        <time>2018-03-20T11:48:37Z</time>
      </trkpt>
      <trkpt lat="62.643591369541" lon="17.866986199251">
        <ele>71.8</ele>
        <time>2018-03-20T11:48:38Z</time>
      </trkpt>
      <trkpt lat="62.643616934336" lon="17.86691336054">
        <ele>71.2</ele>
        <time>2018-03-20T11:48:39Z</time>
      </trkpt>
      <trkpt lat="62.643636128887" lon="17.866886287003">
        <ele>70.8</ele>
        <time>2018-03-20T11:48:40Z</time>
      </trkpt>
      <trkpt lat="62.643661609863" lon="17.866837671983">
        <ele>70.2</ele>
        <time>2018-03-20T11:48:41Z</time>
      </trkpt>
      <trkpt lat="62.643688264305" lon="17.866782435262">
        <ele>69.8</ele>
        <time>2018-03-20T11:48:42Z</time>
      </trkpt>
      <trkpt lat="62.643716176032" lon="17.866724013419">
        <ele>69.2</ele>
        <time>2018-03-20T11:48:43Z</time>
      </trkpt>
      <trkpt lat="62.643732185461" lon="17.866684367032">
        <ele>69</ele>
        <time>2018-03-20T11:48:44Z</time>
      </trkpt>
      <trkpt lat="62.64374148937" lon="17.866659724246">
        <ele>69</ele>
        <time>2018-03-20T11:48:45Z</time>
      </trkpt>
      <trkpt lat="62.643759761912" lon="17.86662753775">
        <ele>69</ele>
        <time>2018-03-20T11:48:46Z</time>
      </trkpt>
      <trkpt lat="62.643780716662" lon="17.866594513064">
        <ele>69.2</ele>
        <time>2018-03-20T11:48:47Z</time>
      </trkpt>
      <trkpt lat="62.643791445494" lon="17.866577162531">
        <ele>69.8</ele>
        <time>2018-03-20T11:48:48Z</time>
      </trkpt>
      <trkpt lat="62.643800665584" lon="17.866546317139">
        <ele>70.4</ele>
        <time>2018-03-20T11:48:49Z</time>
      </trkpt>
      <trkpt lat="62.643810556226" lon="17.86652444038">
        <ele>70.8</ele>
        <time>2018-03-20T11:48:50Z</time>
      </trkpt>
      <trkpt lat="62.643828996406" lon="17.866499629956">
        <ele>71.2</ele>
        <time>2018-03-20T11:48:51Z</time>
      </trkpt>
      <trkpt lat="62.643837797401" lon="17.866466940546">
        <ele>71.4</ele>
        <time>2018-03-20T11:48:52Z</time>
      </trkpt>
      <trkpt lat="62.643849112966" lon="17.86644648871">
        <ele>71.6</ele>
        <time>2018-03-20T11:48:53Z</time>
      </trkpt>
      <trkpt lat="62.643860009436" lon="17.866425785417">
        <ele>72</ele>
        <time>2018-03-20T11:48:54Z</time>
      </trkpt>
      <trkpt lat="62.643872582286" lon="17.866400136803">
        <ele>72.2</ele>
        <time>2018-03-20T11:48:55Z</time>
      </trkpt>
      <trkpt lat="62.643883227299" lon="17.866380020243">
        <ele>72.4</ele>
        <time>2018-03-20T11:48:56Z</time>
      </trkpt>
      <trkpt lat="62.643896051606" lon="17.866351857059">
        <ele>72.8</ele>
        <time>2018-03-20T11:48:57Z</time>
      </trkpt>
      <trkpt lat="62.643904684963" lon="17.866331908137">
        <ele>73</ele>
        <time>2018-03-20T11:48:58Z</time>
      </trkpt>
      <trkpt lat="62.643919101831" lon="17.866298212899">
        <ele>72.8</ele>
        <time>2018-03-20T11:48:59Z</time>
      </trkpt>
      <trkpt lat="62.643927148455" lon="17.8662796889">
        <ele>73.2</ele>
        <time>2018-03-20T11:49:00Z</time>
      </trkpt>
      <trkpt lat="62.643930249758" lon="17.866259237064">
        <ele>73.4</ele>
        <time>2018-03-20T11:49:01Z</time>
      </trkpt>
      <trkpt lat="62.643943409341" lon="17.866233169355">
        <ele>73.6</ele>
        <time>2018-03-20T11:49:02Z</time>
      </trkpt>
      <trkpt lat="62.643950785413" lon="17.86620592818">
        <ele>73.8</ele>
        <time>2018-03-20T11:49:03Z</time>
      </trkpt>
      <trkpt lat="62.643959167313" lon="17.866172232942">
        <ele>74.2</ele>
        <time>2018-03-20T11:49:04Z</time>
      </trkpt>
      <trkpt lat="62.643959837865" lon="17.866138286247">
        <ele>74.4</ele>
        <time>2018-03-20T11:49:05Z</time>
      </trkpt>
      <trkpt lat="62.643969393231" lon="17.866103669">
        <ele>74.6</ele>
        <time>2018-03-20T11:49:06Z</time>
      </trkpt>
      <trkpt lat="62.643975679656" lon="17.866069889943">
        <ele>74.8</ele>
        <time>2018-03-20T11:49:07Z</time>
      </trkpt>
      <trkpt lat="62.643979032416" lon="17.86603409923">
        <ele>75.2</ele>
        <time>2018-03-20T11:49:08Z</time>
      </trkpt>
      <trkpt lat="62.643985821755" lon="17.865986238581">
        <ele>75.4</ele>
        <time>2018-03-20T11:49:09Z</time>
      </trkpt>
      <trkpt lat="62.64399378456" lon="17.865954638818">
        <ele>75.6</ele>
        <time>2018-03-20T11:49:10Z</time>
      </trkpt>
      <trkpt lat="62.644001998822" lon="17.865912226404">
        <ele>75.8</ele>
        <time>2018-03-20T11:49:11Z</time>
      </trkpt>
      <trkpt lat="62.644018678803" lon="17.865867550877">
        <ele>76</ele>
        <time>2018-03-20T11:49:12Z</time>
      </trkpt>
      <trkpt lat="62.644026306332" lon="17.865815415459">
        <ele>76</ele>
        <time>2018-03-20T11:49:13Z</time>
      </trkpt>
      <trkpt lat="62.644036029336" lon="17.865774763244">
        <ele>76</ele>
        <time>2018-03-20T11:49:14Z</time>
      </trkpt>
      <trkpt lat="62.644051200575" lon="17.865736290323">
        <ele>76.2</ele>
        <time>2018-03-20T11:49:15Z</time>
      </trkpt>
      <trkpt lat="62.644060336846" lon="17.865701840714">
        <ele>76.6</ele>
        <time>2018-03-20T11:49:16Z</time>
      </trkpt>
      <trkpt lat="62.644074837533" lon="17.865655153531">
        <ele>76.8</ele>
        <time>2018-03-20T11:49:17Z</time>
      </trkpt>
      <trkpt lat="62.644080621044" lon="17.865622631759">
        <ele>77</ele>
        <time>2018-03-20T11:49:18Z</time>
      </trkpt>
      <trkpt lat="62.644099983233" lon="17.865580973716">
        <ele>77.2</ele>
        <time>2018-03-20T11:49:19Z</time>
      </trkpt>
      <trkpt lat="62.644108029857" lon="17.865545602098">
        <ele>77.2</ele>
        <time>2018-03-20T11:49:20Z</time>
      </trkpt>
      <trkpt lat="62.644135019575" lon="17.865509811385">
        <ele>77</ele>
        <time>2018-03-20T11:49:21Z</time>
      </trkpt>
      <trkpt lat="62.644149101167" lon="17.865478463079">
        <ele>77</ele>
        <time>2018-03-20T11:49:22Z</time>
      </trkpt>
      <trkpt lat="62.644164691501" lon="17.865456251044">
        <ele>77</ele>
        <time>2018-03-20T11:49:23Z</time>
      </trkpt>
      <trkpt lat="62.644188160821" lon="17.865406211101">
        <ele>77</ele>
        <time>2018-03-20T11:49:24Z</time>
      </trkpt>
      <trkpt lat="62.644209031752" lon="17.865368408732">
        <ele>77</ele>
        <time>2018-03-20T11:49:25Z</time>
      </trkpt>
      <trkpt lat="62.644233339262" lon="17.865326918327">
        <ele>77</ele>
        <time>2018-03-20T11:49:26Z</time>
      </trkpt>
      <trkpt lat="62.644252952908" lon="17.865285679379">
        <ele>77</ele>
        <time>2018-03-20T11:49:27Z</time>
      </trkpt>
      <trkpt lat="62.644266280129" lon="17.865256845643">
        <ele>77</ele>
        <time>2018-03-20T11:49:28Z</time>
      </trkpt>
      <trkpt lat="62.644289162716" lon="17.865217618351">
        <ele>77</ele>
        <time>2018-03-20T11:49:29Z</time>
      </trkpt>
      <trkpt lat="62.64430140029" lon="17.865183587837">
        <ele>77</ele>
        <time>2018-03-20T11:49:30Z</time>
      </trkpt>
      <trkpt lat="62.644317912633" lon="17.86514897059">
        <ele>77</ele>
        <time>2018-03-20T11:49:31Z</time>
      </trkpt>
      <trkpt lat="62.644326713628" lon="17.865110581488">
        <ele>77.4</ele>
        <time>2018-03-20T11:49:32Z</time>
      </trkpt>
      <trkpt lat="62.644330066388" lon="17.865072443843">
        <ele>77.6</ele>
        <time>2018-03-20T11:49:33Z</time>
      </trkpt>
      <trkpt lat="62.644337191003" lon="17.865020392244">
        <ele>78</ele>
        <time>2018-03-20T11:49:34Z</time>
      </trkpt>
      <trkpt lat="62.64433241332" lon="17.864982925151">
        <ele>78</ele>
        <time>2018-03-20T11:49:35Z</time>
      </trkpt>
      <trkpt lat="62.644333419148" lon="17.864938501081">
        <ele>78.2</ele>
        <time>2018-03-20T11:49:36Z</time>
      </trkpt>
      <trkpt lat="62.64433157513" lon="17.864890975708">
        <ele>78.2</ele>
        <time>2018-03-20T11:49:37Z</time>
      </trkpt>
      <trkpt lat="62.644325875438" lon="17.864842276869">
        <ele>78</ele>
        <time>2018-03-20T11:49:38Z</time>
      </trkpt>
      <trkpt lat="62.644319421375" lon="17.864794332401">
        <ele>78</ele>
        <time>2018-03-20T11:49:39Z</time>
      </trkpt>
      <trkpt lat="62.644308944" lon="17.864750159788">
        <ele>78.2</ele>
        <time>2018-03-20T11:49:40Z</time>
      </trkpt>
      <trkpt lat="62.644302825213" lon="17.864706238632">
        <ele>78.2</ele>
        <time>2018-03-20T11:49:41Z</time>
      </trkpt>
      <trkpt lat="62.644294359494" lon="17.864658126526">
        <ele>78.2</ele>
        <time>2018-03-20T11:49:42Z</time>
      </trkpt>
      <trkpt lat="62.64428882744" lon="17.864622503451">
        <ele>78.2</ele>
        <time>2018-03-20T11:49:43Z</time>
      </trkpt>
      <trkpt lat="62.644277344237" lon="17.864571038585">
        <ele>78</ele>
        <time>2018-03-20T11:49:44Z</time>
      </trkpt>
      <trkpt lat="62.644270722536" lon="17.86453206275">
        <ele>78</ele>
        <time>2018-03-20T11:49:45Z</time>
      </trkpt>
      <trkpt lat="62.644265022844" lon="17.864489734155">
        <ele>77.8</ele>
        <time>2018-03-20T11:49:46Z</time>
      </trkpt>
      <trkpt lat="62.644266699224" lon="17.864462576799">
        <ele>77.8</ele>
        <time>2018-03-20T11:49:47Z</time>
      </trkpt>
      <trkpt lat="62.644270890174" lon="17.864442879334">
        <ele>77.8</ele>
        <time>2018-03-20T11:49:48Z</time>
      </trkpt>
      <trkpt lat="62.644275835495" lon="17.864415973435">
        <ele>78</ele>
        <time>2018-03-20T11:49:49Z</time>
      </trkpt>
      <trkpt lat="62.644275667857" lon="17.864390492459">
        <ele>78</ele>
        <time>2018-03-20T11:49:50Z</time>
      </trkpt>
      <trkpt lat="62.644287821612" lon="17.864361323447">
        <ele>78.2</ele>
        <time>2018-03-20T11:49:51Z</time>
      </trkpt>
      <trkpt lat="62.644298969539" lon="17.864337937946">
        <ele>78.2</ele>
        <time>2018-03-20T11:49:52Z</time>
      </trkpt>
      <trkpt lat="62.64431229676" lon="17.864314720083">
        <ele>78.4</ele>
        <time>2018-03-20T11:49:53Z</time>
      </trkpt>
      <trkpt lat="62.644322103583" lon="17.864288736193">
        <ele>78.4</ele>
        <time>2018-03-20T11:49:54Z</time>
      </trkpt>
      <trkpt lat="62.644330317845" lon="17.864265602149">
        <ele>78.4</ele>
        <time>2018-03-20T11:49:55Z</time>
      </trkpt>
      <trkpt lat="62.64434163341" lon="17.864241797553">
        <ele>78.6</ele>
        <time>2018-03-20T11:49:56Z</time>
      </trkpt>
      <trkpt lat="62.644353535708" lon="17.864210952161">
        <ele>78.6</ele>
        <time>2018-03-20T11:49:57Z</time>
      </trkpt>
      <trkpt lat="62.644364683635" lon="17.864194439818">
        <ele>78.8</ele>
        <time>2018-03-20T11:49:58Z</time>
      </trkpt>
      <trkpt lat="62.644388069136" lon="17.864184549176">
        <ele>79</ele>
        <time>2018-03-20T11:49:59Z</time>
      </trkpt>
      <trkpt lat="62.644401815452" lon="17.864176502552">
        <ele>79.2</ele>
        <time>2018-03-20T11:50:00Z</time>
      </trkpt>
      <trkpt lat="62.644413214836" lon="17.864170299946">
        <ele>79.4</ele>
        <time>2018-03-20T11:50:01Z</time>
      </trkpt>
      <trkpt lat="62.644433582853" lon="17.864164684073">
        <ele>79.8</ele>
        <time>2018-03-20T11:50:02Z</time>
      </trkpt>
      <trkpt lat="62.644451101024" lon="17.864159403476">
        <ele>80</ele>
        <time>2018-03-20T11:50:03Z</time>
      </trkpt>
      <trkpt lat="62.644465350254" lon="17.864146914445">
        <ele>80</ele>
        <time>2018-03-20T11:50:04Z</time>
      </trkpt>
      <trkpt lat="62.644472810145" lon="17.864134341595">
        <ele>80.4</ele>
        <time>2018-03-20T11:50:05Z</time>
      </trkpt>
      <trkpt lat="62.644483371339" lon="17.864127971351">
        <ele>80.4</ele>
        <time>2018-03-20T11:50:06Z</time>
      </trkpt>
      <trkpt lat="62.644491250325" lon="17.864123361306">
        <ele>80.6</ele>
        <time>2018-03-20T11:50:07Z</time>
      </trkpt>
      <trkpt lat="62.644505164279" lon="17.864117577795">
        <ele>80.8</ele>
        <time>2018-03-20T11:50:08Z</time>
      </trkpt>
      <trkpt lat="62.644515306378" lon="17.86411464413">
        <ele>81</ele>
        <time>2018-03-20T11:50:09Z</time>
      </trkpt>
      <trkpt lat="62.644527460133" lon="17.864108106248">
        <ele>81.2</ele>
        <time>2018-03-20T11:50:10Z</time>
      </trkpt>
      <trkpt lat="62.644536261128" lon="17.864105507859">
        <ele>81.4</ele>
        <time>2018-03-20T11:50:11Z</time>
      </trkpt>
      <trkpt lat="62.644543134286" lon="17.864100311081">
        <ele>81.8</ele>
        <time>2018-03-20T11:50:12Z</time>
      </trkpt>
      <trkpt lat="62.644552186738" lon="17.86409368938">
        <ele>82</ele>
        <time>2018-03-20T11:50:13Z</time>
      </trkpt>
      <trkpt lat="62.644560149543" lon="17.864090252801">
        <ele>82.2</ele>
        <time>2018-03-20T11:50:14Z</time>
      </trkpt>
      <trkpt lat="62.644575656058" lon="17.864088492602">
        <ele>82.4</ele>
        <time>2018-03-20T11:50:15Z</time>
      </trkpt>
      <trkpt lat="62.644581271931" lon="17.864085139842">
        <ele>82.8</ele>
        <time>2018-03-20T11:50:16Z</time>
      </trkpt>
      <trkpt lat="62.644594431514" lon="17.864073656639">
        <ele>82.8</ele>
        <time>2018-03-20T11:50:17Z</time>
      </trkpt>
      <trkpt lat="62.644606417631" lon="17.864069298051">
        <ele>83.2</ele>
        <time>2018-03-20T11:50:18Z</time>
      </trkpt>
      <trkpt lat="62.64461991249" lon="17.864063095445">
        <ele>83.4</ele>
        <time>2018-03-20T11:50:19Z</time>
      </trkpt>
      <trkpt lat="62.64463080896" lon="17.864054462088">
        <ele>83.6</ele>
        <time>2018-03-20T11:50:20Z</time>
      </trkpt>
      <trkpt lat="62.644644387638" lon="17.864047421292">
        <ele>83.8</ele>
        <time>2018-03-20T11:50:21Z</time>
      </trkpt>
      <trkpt lat="62.644653272452" lon="17.864044487627">
        <ele>84</ele>
        <time>2018-03-20T11:50:22Z</time>
      </trkpt>
      <trkpt lat="62.644665342388" lon="17.864032920605">
        <ele>84.2</ele>
        <time>2018-03-20T11:50:23Z</time>
      </trkpt>
      <trkpt lat="62.644677412324" lon="17.864024622524">
        <ele>84.4</ele>
        <time>2018-03-20T11:50:24Z</time>
      </trkpt>
      <trkpt lat="62.64468948226" lon="17.864016911176">
        <ele>84.6</ele>
        <time>2018-03-20T11:50:25Z</time>
      </trkpt>
      <trkpt lat="62.644702306567" lon="17.864013809873">
        <ele>84.8</ele>
        <time>2018-03-20T11:50:26Z</time>
      </trkpt>
      <trkpt lat="62.644717729263" lon="17.864003081041">
        <ele>85.2</ele>
        <time>2018-03-20T11:50:27Z</time>
      </trkpt>
      <trkpt lat="62.644729463923" lon="17.864003081041">
        <ele>85.4</ele>
        <time>2018-03-20T11:50:28Z</time>
      </trkpt>
      <trkpt lat="62.644752933243" lon="17.863986736336">
        <ele>85.4</ele>
        <time>2018-03-20T11:50:29Z</time>
      </trkpt>
      <trkpt lat="62.64476743393" lon="17.863981707196">
        <ele>85.6</ele>
        <time>2018-03-20T11:50:30Z</time>
      </trkpt>
      <trkpt lat="62.644780677332" lon="17.863978522074">
        <ele>85.8</ele>
        <time>2018-03-20T11:50:31Z</time>
      </trkpt>
      <trkpt lat="62.644794088372" lon="17.863965781586">
        <ele>86</ele>
        <time>2018-03-20T11:50:32Z</time>
      </trkpt>
      <trkpt lat="62.644800710073" lon="17.863958154057">
        <ele>86</ele>
        <time>2018-03-20T11:50:33Z</time>
      </trkpt>
      <trkpt lat="62.644818479701" lon="17.863945413569">
        <ele>86.2</ele>
        <time>2018-03-20T11:50:34Z</time>
      </trkpt>
      <trkpt lat="62.644831890741" lon="17.863931834891">
        <ele>86.6</ele>
        <time>2018-03-20T11:50:35Z</time>
      </trkpt>
      <trkpt lat="62.644844882686" lon="17.863923620629">
        <ele>87</ele>
        <time>2018-03-20T11:50:36Z</time>
      </trkpt>
      <trkpt lat="62.644857539355" lon="17.863919597317">
        <ele>87.2</ele>
        <time>2018-03-20T11:50:37Z</time>
      </trkpt>
      <trkpt lat="62.644878158829" lon="17.863905012811">
        <ele>87.4</ele>
        <time>2018-03-20T11:50:38Z</time>
      </trkpt>
      <trkpt lat="62.644898945941" lon="17.863903168793">
        <ele>87.6</ele>
        <time>2018-03-20T11:50:39Z</time>
      </trkpt>
      <trkpt lat="62.644910010049" lon="17.863892691418">
        <ele>87.6</ele>
        <time>2018-03-20T11:50:40Z</time>
      </trkpt>
      <trkpt lat="62.644922415261" lon="17.863887662278">
        <ele>87.8</ele>
        <time>2018-03-20T11:50:41Z</time>
      </trkpt>
      <trkpt lat="62.644935742482" lon="17.863877352541">
        <ele>88</ele>
        <time>2018-03-20T11:50:42Z</time>
      </trkpt>
      <trkpt lat="62.644951919549" lon="17.863875173247">
        <ele>88.2</ele>
        <time>2018-03-20T11:50:43Z</time>
      </trkpt>
      <trkpt lat="62.644967174607" lon="17.863862516578">
        <ele>88.4</ele>
        <time>2018-03-20T11:50:44Z</time>
      </trkpt>
      <trkpt lat="62.644978406353" lon="17.863855308144">
        <ele>88.6</ele>
        <time>2018-03-20T11:50:45Z</time>
      </trkpt>
      <trkpt lat="62.64498536333" lon="17.863855727239">
        <ele>88.8</ele>
        <time>2018-03-20T11:50:46Z</time>
      </trkpt>
      <trkpt lat="62.644991901212" lon="17.863847429158">
        <ele>89.4</ele>
        <time>2018-03-20T11:50:47Z</time>
      </trkpt>
      <trkpt lat="62.644995505429" lon="17.86382798315">
        <ele>89.6</ele>
        <time>2018-03-20T11:50:48Z</time>
      </trkpt>
      <trkpt lat="62.645003300596" lon="17.863814488291">
        <ele>89.8</ele>
        <time>2018-03-20T11:50:49Z</time>
      </trkpt>
      <trkpt lat="62.645013945609" lon="17.863804849106">
        <ele>90</ele>
        <time>2018-03-20T11:50:50Z</time>
      </trkpt>
      <trkpt lat="62.645022411328" lon="17.863795629016">
        <ele>90.2</ele>
        <time>2018-03-20T11:50:51Z</time>
      </trkpt>
      <trkpt lat="62.645031966694" lon="17.863784313451">
        <ele>90.6</ele>
        <time>2018-03-20T11:50:52Z</time>
      </trkpt>
      <trkpt lat="62.645042695526" lon="17.863777021198">
        <ele>90.4</ele>
        <time>2018-03-20T11:50:53Z</time>
      </trkpt>
      <trkpt lat="62.645057028575" lon="17.863766124728">
        <ele>90.6</ele>
        <time>2018-03-20T11:50:54Z</time>
      </trkpt>
      <trkpt lat="62.645070523434" lon="17.863756150267">
        <ele>90.8</ele>
        <time>2018-03-20T11:50:55Z</time>
      </trkpt>
      <trkpt lat="62.645085694673" lon="17.863745756711">
        <ele>91.2</ele>
        <time>2018-03-20T11:50:56Z</time>
      </trkpt>
      <trkpt lat="62.645093322202" lon="17.863743745055">
        <ele>91.4</ele>
        <time>2018-03-20T11:50:57Z</time>
      </trkpt>
      <trkpt lat="62.645106984699" lon="17.863723293219">
        <ele>91.8</ele>
        <time>2018-03-20T11:50:58Z</time>
      </trkpt>
      <trkpt lat="62.64512701744" lon="17.863707451428">
        <ele>92</ele>
        <time>2018-03-20T11:50:59Z</time>
      </trkpt>
      <trkpt lat="62.645144535611" lon="17.863691609637">
        <ele>92.4</ele>
        <time>2018-03-20T11:51:00Z</time>
      </trkpt>
      <trkpt lat="62.64515886866" lon="17.863680713167">
        <ele>92.6</ele>
        <time>2018-03-20T11:51:01Z</time>
      </trkpt>
      <trkpt lat="62.645171944424" lon="17.863674007647">
        <ele>92.8</ele>
        <time>2018-03-20T11:51:02Z</time>
      </trkpt>
      <trkpt lat="62.64518736712" lon="17.863667721222">
        <ele>93</ele>
        <time>2018-03-20T11:51:03Z</time>
      </trkpt>
      <trkpt lat="62.645199604694" lon="17.863659087865">
        <ele>93.2</ele>
        <time>2018-03-20T11:51:04Z</time>
      </trkpt>
      <trkpt lat="62.645214440657" lon="17.863651292698">
        <ele>93.2</ele>
        <time>2018-03-20T11:51:05Z</time>
      </trkpt>
      <trkpt lat="62.645226510593" lon="17.863649364861">
        <ele>93.4</ele>
        <time>2018-03-20T11:51:06Z</time>
      </trkpt>
      <trkpt lat="62.645239837814" lon="17.863647017929">
        <ele>93.4</ele>
        <time>2018-03-20T11:51:07Z</time>
      </trkpt>
      <trkpt lat="62.645254841415" lon="17.863645006273">
        <ele>93.4</ele>
        <time>2018-03-20T11:51:08Z</time>
      </trkpt>
      <trkpt lat="62.645270515568" lon="17.863635618545">
        <ele>93.6</ele>
        <time>2018-03-20T11:51:09Z</time>
      </trkpt>
      <trkpt lat="62.64528375897" lon="17.863620363487">
        <ele>93.6</ele>
        <time>2018-03-20T11:51:10Z</time>
      </trkpt>
      <trkpt lat="62.645296583277" lon="17.863602593859">
        <ele>93.8</ele>
        <time>2018-03-20T11:51:11Z</time>
      </trkpt>
      <trkpt lat="62.64530722829" lon="17.863585075688">
        <ele>94</ele>
        <time>2018-03-20T11:51:12Z</time>
      </trkpt>
      <trkpt lat="62.645324327366" lon="17.863565294404">
        <ele>94.2</ele>
        <time>2018-03-20T11:51:13Z</time>
      </trkpt>
      <trkpt lat="62.645339247148" lon="17.863530928614">
        <ele>94.4</ele>
        <time>2018-03-20T11:51:14Z</time>
      </trkpt>
      <trkpt lat="62.645349221609" lon="17.863501424326">
        <ele>94.6</ele>
        <time>2018-03-20T11:51:15Z</time>
      </trkpt>
      <trkpt lat="62.645358609337" lon="17.863468232002">
        <ele>94.8</ele>
        <time>2018-03-20T11:51:16Z</time>
      </trkpt>
      <trkpt lat="62.645367494151" lon="17.863437638067">
        <ele>95.2</ele>
        <time>2018-03-20T11:51:17Z</time>
      </trkpt>
      <trkpt lat="62.645377300974" lon="17.863386843753">
        <ele>95.4</ele>
        <time>2018-03-20T11:51:18Z</time>
      </trkpt>
      <trkpt lat="62.645383419761" lon="17.863348454651">
        <ele>95.6</ele>
        <time>2018-03-20T11:51:19Z</time>
      </trkpt>
      <trkpt lat="62.645392807489" lon="17.863296905966">
        <ele>95.6</ele>
        <time>2018-03-20T11:51:20Z</time>
      </trkpt>
      <trkpt lat="62.64540613471" lon="17.86322448635">
        <ele>95.4</ele>
        <time>2018-03-20T11:51:21Z</time>
      </trkpt>
      <trkpt lat="62.645409068375" lon="17.863170758371">
        <ele>95.6</ele>
        <time>2018-03-20T11:51:22Z</time>
      </trkpt>
      <trkpt lat="62.645409655108" lon="17.863121137523">
        <ele>95.4</ele>
        <time>2018-03-20T11:51:23Z</time>
      </trkpt>
      <trkpt lat="62.64541619299" lon="17.863058105635">
        <ele>95.4</ele>
        <time>2018-03-20T11:51:24Z</time>
      </trkpt>
      <trkpt lat="62.645414684248" lon="17.863006054036">
        <ele>95.4</ele>
        <time>2018-03-20T11:51:25Z</time>
      </trkpt>
      <trkpt lat="62.645424071976" lon="17.862954253894">
        <ele>95.4</ele>
        <time>2018-03-20T11:51:26Z</time>
      </trkpt>
      <trkpt lat="62.645441171052" lon="17.862910416557">
        <ele>95.2</ele>
        <time>2018-03-20T11:51:27Z</time>
      </trkpt>
      <trkpt lat="62.64545474973" lon="17.862878062423">
        <ele>95.2</ele>
        <time>2018-03-20T11:51:28Z</time>
      </trkpt>
      <trkpt lat="62.64546983715" lon="17.862845289194">
        <ele>95.2</ele>
        <time>2018-03-20T11:51:29Z</time>
      </trkpt>
      <trkpt lat="62.645479476335" lon="17.86281461144">
        <ele>95.4</ele>
        <time>2018-03-20T11:51:30Z</time>
      </trkpt>
      <trkpt lat="62.645495234307" lon="17.862783514591">
        <ele>95.6</ele>
        <time>2018-03-20T11:51:31Z</time>
      </trkpt>
      <trkpt lat="62.645510321727" lon="17.862751076638">
        <ele>95.6</ele>
        <time>2018-03-20T11:51:32Z</time>
      </trkpt>
      <trkpt lat="62.645527923717" lon="17.862707071663">
        <ele>95.8</ele>
        <time>2018-03-20T11:51:33Z</time>
      </trkpt>
      <trkpt lat="62.64554275968" lon="17.862674046977">
        <ele>96.2</ele>
        <time>2018-03-20T11:51:34Z</time>
      </trkpt>
      <trkpt lat="62.645548962286" lon="17.862644039775">
        <ele>96.4</ele>
        <time>2018-03-20T11:51:35Z</time>
      </trkpt>
      <trkpt lat="62.645557930919" lon="17.862607913786">
        <ele>96.6</ele>
        <time>2018-03-20T11:51:36Z</time>
      </trkpt>
      <trkpt lat="62.645566564276" lon="17.862572458349">
        <ele>97</ele>
        <time>2018-03-20T11:51:37Z</time>
      </trkpt>
      <trkpt lat="62.645575868185" lon="17.862532644324">
        <ele>97</ele>
        <time>2018-03-20T11:51:38Z</time>
      </trkpt>
      <trkpt lat="62.645580645868" lon="17.862488387892">
        <ele>97.2</ele>
        <time>2018-03-20T11:51:39Z</time>
      </trkpt>
      <trkpt lat="62.64558634556" lon="17.862449328238">
        <ele>97.4</ele>
        <time>2018-03-20T11:51:40Z</time>
      </trkpt>
      <trkpt lat="62.645591290881" lon="17.862386547807">
        <ele>97.4</ele>
        <time>2018-03-20T11:51:41Z</time>
      </trkpt>
      <trkpt lat="62.645590117415" lon="17.862336759321">
        <ele>97.4</ele>
        <time>2018-03-20T11:51:42Z</time>
      </trkpt>
      <trkpt lat="62.645591961433" lon="17.862291329423">
        <ele>97.6</ele>
        <time>2018-03-20T11:51:43Z</time>
      </trkpt>
      <trkpt lat="62.645590704148" lon="17.862238020539">
        <ele>97.8</ele>
        <time>2018-03-20T11:51:44Z</time>
      </trkpt>
      <trkpt lat="62.645592631985" lon="17.862189656976">
        <ele>98</ele>
        <time>2018-03-20T11:51:45Z</time>
      </trkpt>
      <trkpt lat="62.645603612274" lon="17.862155123548">
        <ele>98.2</ele>
        <time>2018-03-20T11:51:46Z</time>
      </trkpt>
      <trkpt lat="62.645629177069" lon="17.862123607604">
        <ele>98.4</ele>
        <time>2018-03-20T11:51:47Z</time>
      </trkpt>
      <trkpt lat="62.645654071312" lon="17.862104748329">
        <ele>98.6</ele>
        <time>2018-03-20T11:51:48Z</time>
      </trkpt>
      <trkpt lat="62.645681312487" lon="17.862101647026">
        <ele>98.6</ele>
        <time>2018-03-20T11:51:49Z</time>
      </trkpt>
      <trkpt lat="62.645710230042" lon="17.862105251243">
        <ele>98.6</ele>
        <time>2018-03-20T11:51:50Z</time>
      </trkpt>
      <trkpt lat="62.645731771525" lon="17.862105921795">
        <ele>98.6</ele>
        <time>2018-03-20T11:51:51Z</time>
      </trkpt>
      <trkpt lat="62.645753480646" lon="17.862108436365">
        <ele>98.8</ele>
        <time>2018-03-20T11:51:52Z</time>
      </trkpt>
      <trkpt lat="62.645772004645" lon="17.862113716962">
        <ele>98.8</ele>
        <time>2018-03-20T11:51:53Z</time>
      </trkpt>
      <trkpt lat="62.645797737078" lon="17.862113800781">
        <ele>98.8</ele>
        <time>2018-03-20T11:51:54Z</time>
      </trkpt>
      <trkpt lat="62.645824810615" lon="17.862104413053">
        <ele>99</ele>
        <time>2018-03-20T11:51:55Z</time>
      </trkpt>
      <trkpt lat="62.645846771193" lon="17.862075830774">
        <ele>99.2</ele>
        <time>2018-03-20T11:51:56Z</time>
      </trkpt>
      <trkpt lat="62.645864205545" lon="17.862055546576">
        <ele>99.4</ele>
        <time>2018-03-20T11:51:57Z</time>
      </trkpt>
      <trkpt lat="62.645877700404" lon="17.862023862994">
        <ele>99.4</ele>
        <time>2018-03-20T11:51:58Z</time>
      </trkpt>
      <trkpt lat="62.645902427009" lon="17.861981702037">
        <ele>99.6</ele>
        <time>2018-03-20T11:51:59Z</time>
      </trkpt>
      <trkpt lat="62.645916927696" lon="17.861950018455">
        <ele>99.6</ele>
        <time>2018-03-20T11:52:00Z</time>
      </trkpt>
      <trkpt lat="62.645931176926" lon="17.861913054276">
        <ele>99.6</ele>
        <time>2018-03-20T11:52:01Z</time>
      </trkpt>
      <trkpt lat="62.645927907985" lon="17.86189763158">
        <ele>99.6</ele>
        <time>2018-03-20T11:52:02Z</time>
      </trkpt>
      <trkpt lat="62.64594257631" lon="17.861872737337">
        <ele>99.4</ele>
        <time>2018-03-20T11:52:03Z</time>
      </trkpt>
      <trkpt lat="62.645954813884" lon="17.861838203909">
        <ele>99.6</ele>
        <time>2018-03-20T11:52:04Z</time>
      </trkpt>
      <trkpt lat="62.645968308743" lon="17.861800066264">
        <ele>99.4</ele>
        <time>2018-03-20T11:52:05Z</time>
      </trkpt>
      <trkpt lat="62.645987251837" lon="17.861740806231">
        <ele>99.4</ele>
        <time>2018-03-20T11:52:06Z</time>
      </trkpt>
      <trkpt lat="62.646011140252" lon="17.86168892227">
        <ele>99.6</ele>
        <time>2018-03-20T11:52:07Z</time>
      </trkpt>
      <trkpt lat="62.646024299835" lon="17.861650197892">
        <ele>99.6</ele>
        <time>2018-03-20T11:52:08Z</time>
      </trkpt>
      <trkpt lat="62.646041231273" lon="17.861606863469">
        <ele>99.6</ele>
        <time>2018-03-20T11:52:09Z</time>
      </trkpt>
      <trkpt lat="62.646054977589" lon="17.861570402204">
        <ele>99.6</ele>
        <time>2018-03-20T11:52:10Z</time>
      </trkpt>
      <trkpt lat="62.646072328122" lon="17.861526061953">
        <ele>99.6</ele>
        <time>2018-03-20T11:52:11Z</time>
      </trkpt>
      <trkpt lat="62.646087834637" lon="17.86148943305">
        <ele>99.8</ele>
        <time>2018-03-20T11:52:12Z</time>
      </trkpt>
      <trkpt lat="62.646108957025" lon="17.861441153306">
        <ele>99.8</ele>
        <time>2018-03-20T11:52:13Z</time>
      </trkpt>
      <trkpt lat="62.646129408861" lon="17.861395388132">
        <ele>99.8</ele>
        <time>2018-03-20T11:52:14Z</time>
      </trkpt>
      <trkpt lat="62.646144496281" lon="17.861364961835">
        <ele>100</ele>
        <time>2018-03-20T11:52:15Z</time>
      </trkpt>
      <trkpt lat="62.646161260081" lon="17.861330931321">
        <ele>100.2</ele>
        <time>2018-03-20T11:52:16Z</time>
      </trkpt>
      <trkpt lat="62.646188752713" lon="17.861287261622">
        <ele>100.4</ele>
        <time>2018-03-20T11:52:17Z</time>
      </trkpt>
      <trkpt lat="62.646221190666" lon="17.861236634946">
        <ele>100.6</ele>
        <time>2018-03-20T11:52:18Z</time>
      </trkpt>
      <trkpt lat="62.646272404075" lon="17.8611918756">
        <ele>100.6</ele>
        <time>2018-03-20T11:52:19Z</time>
      </trkpt>
      <trkpt lat="62.646311631367" lon="17.861141919476">
        <ele>100.8</ele>
        <time>2018-03-20T11:52:20Z</time>
      </trkpt>
      <trkpt lat="62.646352199763" lon="17.861098585053">
        <ele>100.4</ele>
        <time>2018-03-20T11:52:21Z</time>
      </trkpt>
      <trkpt lat="62.646384972992" lon="17.861065895643">
        <ele>99.8</ele>
        <time>2018-03-20T11:52:22Z</time>
      </trkpt>
      <trkpt lat="62.646427636863" lon="17.861020717202">
        <ele>99</ele>
        <time>2018-03-20T11:52:23Z</time>
      </trkpt>
      <trkpt lat="62.646463595214" lon="17.860974700571">
        <ele>98.8</ele>
        <time>2018-03-20T11:52:24Z</time>
      </trkpt>
      <trkpt lat="62.646498883013" lon="17.860934802727">
        <ele>98.4</ele>
        <time>2018-03-20T11:52:25Z</time>
      </trkpt>
      <trkpt lat="62.646536517744" lon="17.86088677444">
        <ele>98.6</ele>
        <time>2018-03-20T11:52:26Z</time>
      </trkpt>
      <trkpt lat="62.646573398104" lon="17.860829274606">
        <ele>98.8</ele>
        <time>2018-03-20T11:52:27Z</time>
      </trkpt>
      <trkpt lat="62.64659887908" lon="17.860787113649">
        <ele>98.8</ele>
        <time>2018-03-20T11:52:28Z</time>
      </trkpt>
      <trkpt lat="62.646643554607" lon="17.860719220259">
        <ele>98.6</ele>
        <time>2018-03-20T11:52:29Z</time>
      </trkpt>
      <trkpt lat="62.646675741103" lon="17.86067974151">
        <ele>98.6</ele>
        <time>2018-03-20T11:52:30Z</time>
      </trkpt>
      <trkpt lat="62.646706754133" lon="17.860636071811">
        <ele>98.6</ele>
        <time>2018-03-20T11:52:31Z</time>
      </trkpt>
      <trkpt lat="62.646739024448" lon="17.860594329949">
        <ele>98.6</ele>
        <time>2018-03-20T11:52:32Z</time>
      </trkpt>
      <trkpt lat="62.646768612555" lon="17.860568178421">
        <ele>98.6</ele>
        <time>2018-03-20T11:52:33Z</time>
      </trkpt>
      <trkpt lat="62.646802391612" lon="17.86052802912">
        <ele>98.6</ele>
        <time>2018-03-20T11:52:34Z</time>
      </trkpt>
      <trkpt lat="62.646835667755" lon="17.86050120704">
        <ele>98.6</ele>
        <time>2018-03-20T11:52:35Z</time>
      </trkpt>
      <trkpt lat="62.64687045264" lon="17.860472876218">
        <ele>98.6</ele>
        <time>2018-03-20T11:52:36Z</time>
      </trkpt>
      <trkpt lat="62.64691152395" lon="17.860443288111">
        <ele>98.6</ele>
        <time>2018-03-20T11:52:37Z</time>
      </trkpt>
      <trkpt lat="62.646938848944" lon="17.860417639497">
        <ele>98.8</ele>
        <time>2018-03-20T11:52:38Z</time>
      </trkpt>
      <trkpt lat="62.646970448707" lon="17.860392912892">
        <ele>98.8</ele>
        <time>2018-03-20T11:52:39Z</time>
      </trkpt>
      <trkpt lat="62.646994420941" lon="17.860373299246">
        <ele>98.8</ele>
        <time>2018-03-20T11:52:40Z</time>
      </trkpt>
      <trkpt lat="62.647021578297" lon="17.860344968424">
        <ele>99</ele>
        <time>2018-03-20T11:52:41Z</time>
      </trkpt>
      <trkpt lat="62.647054351526" lon="17.860306160227">
        <ele>99</ele>
        <time>2018-03-20T11:52:42Z</time>
      </trkpt>
      <trkpt lat="62.647083520538" lon="17.860263412537">
        <ele>99.2</ele>
        <time>2018-03-20T11:52:43Z</time>
      </trkpt>
      <trkpt lat="62.647114282111" lon="17.860201218839">
        <ele>99.4</ele>
        <time>2018-03-20T11:52:44Z</time>
      </trkpt>
      <trkpt lat="62.647149066996" lon="17.860147407041">
        <ele>99.2</ele>
        <time>2018-03-20T11:52:45Z</time>
      </trkpt>
      <trkpt lat="62.647172703954" lon="17.860103653523">
        <ele>99.2</ele>
        <time>2018-03-20T11:52:46Z</time>
      </trkpt>
      <trkpt lat="62.647198017292" lon="17.860048668259">
        <ele>99</ele>
        <time>2018-03-20T11:52:47Z</time>
      </trkpt>
      <trkpt lat="62.647214278178" lon="17.859997706307">
        <ele>98.8</ele>
        <time>2018-03-20T11:52:48Z</time>
      </trkpt>
      <trkpt lat="62.647236406394" lon="17.859963172879">
        <ele>98.8</ele>
        <time>2018-03-20T11:52:49Z</time>
      </trkpt>
      <trkpt lat="62.647246883769" lon="17.8599262087">
        <ele>99</ele>
        <time>2018-03-20T11:52:50Z</time>
      </trkpt>
      <trkpt lat="62.647252164366" lon="17.859882455182">
        <ele>99</ele>
        <time>2018-03-20T11:52:51Z</time>
      </trkpt>
      <trkpt lat="62.64726104918" lon="17.859830403583">
        <ele>99</ele>
        <time>2018-03-20T11:52:52Z</time>
      </trkpt>
      <trkpt lat="62.647277142428" lon="17.859775585957">
        <ele>99</ele>
        <time>2018-03-20T11:52:53Z</time>
      </trkpt>
      <trkpt lat="62.647300779386" lon="17.859707105834">
        <ele>99</ele>
        <time>2018-03-20T11:52:54Z</time>
      </trkpt>
      <trkpt lat="62.647325505991" lon="17.85964206229">
        <ele>99</ele>
        <time>2018-03-20T11:52:55Z</time>
      </trkpt>
      <trkpt lat="62.647352830985" lon="17.859595794202">
        <ele>99</ele>
        <time>2018-03-20T11:52:56Z</time>
      </trkpt>
      <trkpt lat="62.6473767194" lon="17.859525302423">
        <ele>99.2</ele>
        <time>2018-03-20T11:52:57Z</time>
      </trkpt>
      <trkpt lat="62.64739683596" lon="17.859493618841">
        <ele>99.2</ele>
        <time>2018-03-20T11:52:58Z</time>
      </trkpt>
      <trkpt lat="62.647414270312" lon="17.859402256131">
        <ele>99</ele>
        <time>2018-03-20T11:52:59Z</time>
      </trkpt>
      <trkpt lat="62.64743287813" lon="17.859319107683">
        <ele>99</ele>
        <time>2018-03-20T11:53:00Z</time>
      </trkpt>
      <trkpt lat="62.647443523143" lon="17.859231768285">
        <ele>98.8</ele>
        <time>2018-03-20T11:53:01Z</time>
      </trkpt>
      <trkpt lat="62.647459784029" lon="17.859147362552">
        <ele>98.6</ele>
        <time>2018-03-20T11:53:02Z</time>
      </trkpt>
      <trkpt lat="62.647459532572" lon="17.859081480818">
        <ele>98.4</ele>
        <time>2018-03-20T11:53:03Z</time>
      </trkpt>
      <trkpt lat="62.647462717694" lon="17.858993554687">
        <ele>98.2</ele>
        <time>2018-03-20T11:53:04Z</time>
      </trkpt>
      <trkpt lat="62.647460873676" lon="17.858913172266">
        <ele>98</ele>
        <time>2018-03-20T11:53:05Z</time>
      </trkpt>
      <trkpt lat="62.647456095993" lon="17.858812421828">
        <ele>97.8</ele>
        <time>2018-03-20T11:53:06Z</time>
      </trkpt>
      <trkpt lat="62.647453078509" lon="17.858727094086">
        <ele>97.8</ele>
        <time>2018-03-20T11:53:07Z</time>
      </trkpt>
      <trkpt lat="62.647454922527" lon="17.858660877076">
        <ele>98</ele>
        <time>2018-03-20T11:53:08Z</time>
      </trkpt>
      <trkpt lat="62.647455844536" lon="17.858576219886">
        <ele>97.8</ele>
        <time>2018-03-20T11:53:09Z</time>
      </trkpt>
      <trkpt lat="62.647451066853" lon="17.85851469674">
        <ele>97.8</ele>
        <time>2018-03-20T11:53:10Z</time>
      </trkpt>
      <trkpt lat="62.647454000518" lon="17.85842249584">
        <ele>97.8</ele>
        <time>2018-03-20T11:53:11Z</time>
      </trkpt>
      <trkpt lat="62.647458610563" lon="17.858356614106">
        <ele>97.8</ele>
        <time>2018-03-20T11:53:12Z</time>
      </trkpt>
      <trkpt lat="62.64745802383" lon="17.858295593874">
        <ele>97.6</ele>
        <time>2018-03-20T11:53:13Z</time>
      </trkpt>
      <trkpt lat="62.647463807341" lon="17.858227616665">
        <ele>97.6</ele>
        <time>2018-03-20T11:53:14Z</time>
      </trkpt>
      <trkpt lat="62.647464980807" lon="17.85816349513">
        <ele>97.6</ele>
        <time>2018-03-20T11:53:15Z</time>
      </trkpt>
      <trkpt lat="62.647473530345" lon="17.858096942844">
        <ele>97.8</ele>
        <time>2018-03-20T11:53:16Z</time>
      </trkpt>
      <trkpt lat="62.64748736048" lon="17.858016476604">
        <ele>97.8</ele>
        <time>2018-03-20T11:53:17Z</time>
      </trkpt>
      <trkpt lat="62.647497083484" lon="17.857939195486">
        <ele>97.8</ele>
        <time>2018-03-20T11:53:18Z</time>
      </trkpt>
      <trkpt lat="62.647505968298" lon="17.857860154169">
        <ele>97.8</ele>
        <time>2018-03-20T11:53:19Z</time>
      </trkpt>
      <trkpt lat="62.647509823972" lon="17.857807515837">
        <ele>97.8</ele>
        <time>2018-03-20T11:53:20Z</time>
      </trkpt>
      <trkpt lat="62.647519966071" lon="17.857717745688">
        <ele>97.8</ele>
        <time>2018-03-20T11:53:21Z</time>
      </trkpt>
      <trkpt lat="62.647522983555" lon="17.857665023537">
        <ele>97.6</ele>
        <time>2018-03-20T11:53:22Z</time>
      </trkpt>
      <trkpt lat="62.647531030179" lon="17.857587407143">
        <ele>97.6</ele>
        <time>2018-03-20T11:53:23Z</time>
      </trkpt>
      <trkpt lat="62.647539747355" lon="17.857504510152">
        <ele>97.6</ele>
        <time>2018-03-20T11:53:24Z</time>
      </trkpt>
      <trkpt lat="62.647542513382" lon="17.857432090536">
        <ele>97.6</ele>
        <time>2018-03-20T11:53:25Z</time>
      </trkpt>
      <trkpt lat="62.647554164223" lon="17.857362856042">
        <ele>97.6</ele>
        <time>2018-03-20T11:53:26Z</time>
      </trkpt>
      <trkpt lat="62.647554164223" lon="17.85730770314">
        <ele>97.6</ele>
        <time>2018-03-20T11:53:27Z</time>
      </trkpt>
      <trkpt lat="62.647563216675" lon="17.85726495545">
        <ele>97.6</ele>
        <time>2018-03-20T11:53:28Z</time>
      </trkpt>
      <trkpt lat="62.647578220276" lon="17.857197145879">
        <ele>97.6</ele>
        <time>2018-03-20T11:53:29Z</time>
      </trkpt>
      <trkpt lat="62.64759297242" lon="17.857143166443">
        <ele>97.6</ele>
        <time>2018-03-20T11:53:30Z</time>
      </trkpt>
      <trkpt lat="62.647596911913" lon="17.857098742373">
        <ele>97.6</ele>
        <time>2018-03-20T11:53:31Z</time>
      </trkpt>
      <trkpt lat="62.647600097035" lon="17.857050546448">
        <ele>97.6</ele>
        <time>2018-03-20T11:53:32Z</time>
      </trkpt>
      <trkpt lat="62.647608478935" lon="17.856991202596">
        <ele>97.8</ele>
        <time>2018-03-20T11:53:33Z</time>
      </trkpt>
      <trkpt lat="62.647616022645" lon="17.856941497929">
        <ele>97.8</ele>
        <time>2018-03-20T11:53:34Z</time>
      </trkpt>
      <trkpt lat="62.647616357921" lon="17.856901683904">
        <ele>97.8</ele>
        <time>2018-03-20T11:53:35Z</time>
      </trkpt>
      <trkpt lat="62.647617615206" lon="17.856841837138">
        <ele>98</ele>
        <time>2018-03-20T11:53:36Z</time>
      </trkpt>
      <trkpt lat="62.647616860835" lon="17.856790707548">
        <ele>98</ele>
        <time>2018-03-20T11:53:37Z</time>
      </trkpt>
      <trkpt lat="62.64761644174" lon="17.856752486084">
        <ele>98.4</ele>
        <time>2018-03-20T11:53:38Z</time>
      </trkpt>
      <trkpt lat="62.647615855007" lon="17.856695405345">
        <ele>98.4</ele>
        <time>2018-03-20T11:53:39Z</time>
      </trkpt>
      <trkpt lat="62.647607724564" lon="17.856641677366">
        <ele>98.6</ele>
        <time>2018-03-20T11:53:40Z</time>
      </trkpt>
      <trkpt lat="62.647610658229" lon="17.856553667416">
        <ele>98.6</ele>
        <time>2018-03-20T11:53:41Z</time>
      </trkpt>
      <trkpt lat="62.64761057441" lon="17.85650136436">
        <ele>98.8</ele>
        <time>2018-03-20T11:53:42Z</time>
      </trkpt>
      <trkpt lat="62.647622644346" lon="17.856435817902">
        <ele>98.8</ele>
        <time>2018-03-20T11:53:43Z</time>
      </trkpt>
      <trkpt lat="62.647631780617" lon="17.856376557869">
        <ele>98.8</ele>
        <time>2018-03-20T11:53:44Z</time>
      </trkpt>
      <trkpt lat="62.647650136978" lon="17.856285027521">
        <ele>98.8</ele>
        <time>2018-03-20T11:53:45Z</time>
      </trkpt>
      <trkpt lat="62.647668493339" lon="17.856197688123">
        <ele>98.4</ele>
        <time>2018-03-20T11:53:46Z</time>
      </trkpt>
      <trkpt lat="62.647691627383" lon="17.856111270734">
        <ele>97.6</ele>
        <time>2018-03-20T11:53:47Z</time>
      </trkpt>
      <trkpt lat="62.647716102531" lon="17.856033151426">
        <ele>96.8</ele>
        <time>2018-03-20T11:53:48Z</time>
      </trkpt>
      <trkpt lat="62.647743762801" lon="17.855942626906">
        <ele>96</ele>
        <time>2018-03-20T11:53:49Z</time>
      </trkpt>
      <trkpt lat="62.647779218238" lon="17.85586350177">
        <ele>95.4</ele>
        <time>2018-03-20T11:53:50Z</time>
      </trkpt>
      <trkpt lat="62.647826156878" lon="17.85576794811">
        <ele>95</ele>
        <time>2018-03-20T11:53:51Z</time>
      </trkpt>
      <trkpt lat="62.647864378342" lon="17.855693768295">
        <ele>94.8</ele>
        <time>2018-03-20T11:53:52Z</time>
      </trkpt>
      <trkpt lat="62.64791399919" lon="17.855611038942">
        <ele>94.8</ele>
        <time>2018-03-20T11:53:53Z</time>
      </trkpt>
      <trkpt lat="62.64796931973" lon="17.855540379525">
        <ele>94.6</ele>
        <time>2018-03-20T11:53:54Z</time>
      </trkpt>
      <trkpt lat="62.648023969718" lon="17.855508863581">
        <ele>94.2</ele>
        <time>2018-03-20T11:53:55Z</time>
      </trkpt>
      <trkpt lat="62.648075434584" lon="17.855502409518">
        <ele>93.8</ele>
        <time>2018-03-20T11:53:56Z</time>
      </trkpt>
      <trkpt lat="62.648124552518" lon="17.855509450314">
        <ele>93.2</ele>
        <time>2018-03-20T11:53:57Z</time>
      </trkpt>
      <trkpt lat="62.648174341004" lon="17.855514982368">
        <ele>92.8</ele>
        <time>2018-03-20T11:53:58Z</time>
      </trkpt>
      <trkpt lat="62.648239300729" lon="17.855519340956">
        <ele>92.2</ele>
        <time>2018-03-20T11:53:59Z</time>
      </trkpt>
      <trkpt lat="62.648288753939" lon="17.855502912432">
        <ele>92.2</ele>
        <time>2018-03-20T11:54:00Z</time>
      </trkpt>
      <trkpt lat="62.64832135953" lon="17.855474665429">
        <ele>92.2</ele>
        <time>2018-03-20T11:54:01Z</time>
      </trkpt>
      <trkpt lat="62.648355054768" lon="17.855448178625">
        <ele>92.2</ele>
        <time>2018-03-20T11:54:02Z</time>
      </trkpt>
      <trkpt lat="62.648386486893" lon="17.855418925794">
        <ele>92.2</ele>
        <time>2018-03-20T11:54:03Z</time>
      </trkpt>
      <trkpt lat="62.64841439862" lon="17.855383051262">
        <ele>92.2</ele>
        <time>2018-03-20T11:54:04Z</time>
      </trkpt>
      <trkpt lat="62.648443986727" lon="17.855349272205">
        <ele>92.4</ele>
        <time>2018-03-20T11:54:05Z</time>
      </trkpt>
      <trkpt lat="62.648474413024" lon="17.855319935555">
        <ele>92.4</ele>
        <time>2018-03-20T11:54:06Z</time>
      </trkpt>
      <trkpt lat="62.648498971991" lon="17.85528850343">
        <ele>92.4</ele>
        <time>2018-03-20T11:54:07Z</time>
      </trkpt>
      <trkpt lat="62.648527889546" lon="17.855259669694">
        <ele>92.2</ele>
        <time>2018-03-20T11:54:08Z</time>
      </trkpt>
      <trkpt lat="62.648554711626" lon="17.855227231741">
        <ele>92.6</ele>
        <time>2018-03-20T11:54:09Z</time>
      </trkpt>
      <trkpt lat="62.648576253109" lon="17.855202672774">
        <ele>92.4</ele>
        <time>2018-03-20T11:54:10Z</time>
      </trkpt>
      <trkpt lat="62.648605422121" lon="17.855174677228">
        <ele>92.4</ele>
        <time>2018-03-20T11:54:11Z</time>
      </trkpt>
      <trkpt lat="62.648631238373" lon="17.855145005302">
        <ele>92.6</ele>
        <time>2018-03-20T11:54:12Z</time>
      </trkpt>
      <trkpt lat="62.648648337449" lon="17.855136539583">
        <ele>92.6</ele>
        <time>2018-03-20T11:54:13Z</time>
      </trkpt>
      <trkpt lat="62.648667532" lon="17.855114662824">
        <ele>92.6</ele>
        <time>2018-03-20T11:54:14Z</time>
      </trkpt>
      <trkpt lat="62.648689241121" lon="17.855084404165">
        <ele>92.8</ele>
        <time>2018-03-20T11:54:15Z</time>
      </trkpt>
      <trkpt lat="62.648708770948" lon="17.855050122194">
        <ele>93</ele>
        <time>2018-03-20T11:54:16Z</time>
      </trkpt>
      <trkpt lat="62.648726289119" lon="17.855004021744">
        <ele>93.2</ele>
        <time>2018-03-20T11:54:17Z</time>
      </trkpt>
      <trkpt lat="62.648741963272" lon="17.85494652191">
        <ele>93.2</ele>
        <time>2018-03-20T11:54:18Z</time>
      </trkpt>
      <trkpt lat="62.648754117027" lon="17.854860858892">
        <ele>93.4</ele>
        <time>2018-03-20T11:54:19Z</time>
      </trkpt>
      <trkpt lat="62.648757469787" lon="17.854766897793">
        <ele>93.4</ele>
        <time>2018-03-20T11:54:20Z</time>
      </trkpt>
      <trkpt lat="62.648758140339" lon="17.854646952804">
        <ele>93.2</ele>
        <time>2018-03-20T11:54:21Z</time>
      </trkpt>
      <trkpt lat="62.648756715416" lon="17.854532539869">
        <ele>92.8</ele>
        <time>2018-03-20T11:54:22Z</time>
      </trkpt>
      <trkpt lat="62.648765348773" lon="17.854414019803">
        <ele>92.4</ele>
        <time>2018-03-20T11:54:23Z</time>
      </trkpt>
      <trkpt lat="62.64878990774" lon="17.85431704122">
        <ele>91.8</ele>
        <time>2018-03-20T11:54:24Z</time>
      </trkpt>
      <trkpt lat="62.64882594991" lon="17.854261804499">
        <ele>91</ele>
        <time>2018-03-20T11:54:25Z</time>
      </trkpt>
      <trkpt lat="62.648868194686" lon="17.854245040699">
        <ele>90.4</ele>
        <time>2018-03-20T11:54:26Z</time>
      </trkpt>
      <trkpt lat="62.648906667607" lon="17.854266079268">
        <ele>89.8</ele>
        <time>2018-03-20T11:54:27Z</time>
      </trkpt>
      <trkpt lat="62.648936758628" lon="17.854313437003">
        <ele>89.4</ele>
        <time>2018-03-20T11:54:28Z</time>
      </trkpt>
      <trkpt lat="62.648965592364" lon="17.854377307081">
        <ele>89.2</ele>
        <time>2018-03-20T11:54:29Z</time>
      </trkpt>
      <trkpt lat="62.648993001177" lon="17.854442099168">
        <ele>89</ele>
        <time>2018-03-20T11:54:30Z</time>
      </trkpt>
      <trkpt lat="62.649026612596" lon="17.854490295093">
        <ele>89</ele>
        <time>2018-03-20T11:54:31Z</time>
      </trkpt>
      <trkpt lat="62.64905393759" lon="17.854557517931">
        <ele>89</ele>
        <time>2018-03-20T11:54:32Z</time>
      </trkpt>
      <trkpt lat="62.649082603688" lon="17.854625243683">
        <ele>88.6</ele>
        <time>2018-03-20T11:54:33Z</time>
      </trkpt>
      <trkpt lat="62.649107246474" lon="17.854679055481">
        <ele>88.6</ele>
        <time>2018-03-20T11:54:34Z</time>
      </trkpt>
      <trkpt lat="62.649135325839" lon="17.854744937215">
        <ele>88.4</ele>
        <time>2018-03-20T11:54:35Z</time>
      </trkpt>
      <trkpt lat="62.649166422688" lon="17.854798497556">
        <ele>88.2</ele>
        <time>2018-03-20T11:54:36Z</time>
      </trkpt>
      <trkpt lat="62.649193412406" lon="17.854865720394">
        <ele>88</ele>
        <time>2018-03-20T11:54:37Z</time>
      </trkpt>
      <trkpt lat="62.649220653581" lon="17.854922717314">
        <ele>88</ele>
        <time>2018-03-20T11:54:38Z</time>
      </trkpt>
      <trkpt lat="62.649253175353" lon="17.854972841076">
        <ele>88</ele>
        <time>2018-03-20T11:54:39Z</time>
      </trkpt>
      <trkpt lat="62.64928611622" lon="17.854992789998">
        <ele>87.8</ele>
        <time>2018-03-20T11:54:40Z</time>
      </trkpt>
      <trkpt lat="62.649323164218" lon="17.855024054485">
        <ele>88</ele>
        <time>2018-03-20T11:54:41Z</time>
      </trkpt>
      <trkpt lat="62.649357194732" lon="17.855032101109">
        <ele>87.8</ele>
        <time>2018-03-20T11:54:42Z</time>
      </trkpt>
      <trkpt lat="62.6493967573" lon="17.855025479408">
        <ele>87.8</ele>
        <time>2018-03-20T11:54:43Z</time>
      </trkpt>
      <trkpt lat="62.649438834438" lon="17.855004608477">
        <ele>87.6</ele>
        <time>2018-03-20T11:54:44Z</time>
      </trkpt>
      <trkpt lat="62.649475882436" lon="17.854978121673">
        <ele>87.2</ele>
        <time>2018-03-20T11:54:45Z</time>
      </trkpt>
      <trkpt lat="62.649510080588" lon="17.854951215774">
        <ele>87</ele>
        <time>2018-03-20T11:54:46Z</time>
      </trkpt>
      <trkpt lat="62.649552073907" lon="17.854917855812">
        <ele>86.4</ele>
        <time>2018-03-20T11:54:47Z</time>
      </trkpt>
      <trkpt lat="62.64959205557" lon="17.854884998764">
        <ele>86.2</ele>
        <time>2018-03-20T11:54:48Z</time>
      </trkpt>
      <trkpt lat="62.649641173504" lon="17.854852057897">
        <ele>85.8</ele>
        <time>2018-03-20T11:54:49Z</time>
      </trkpt>
      <trkpt lat="62.649690878171" lon="17.854822805066">
        <ele>85.2</ele>
        <time>2018-03-20T11:54:50Z</time>
      </trkpt>
      <trkpt lat="62.64974712072" lon="17.854800173936">
        <ele>84.6</ele>
        <time>2018-03-20T11:54:51Z</time>
      </trkpt>
      <trkpt lat="62.64979992669" lon="17.854791708217">
        <ele>84</ele>
        <time>2018-03-20T11:54:52Z</time>
      </trkpt>
      <trkpt lat="62.649856336877" lon="17.854791372941">
        <ele>83.2</ele>
        <time>2018-03-20T11:54:53Z</time>
      </trkpt>
      <trkpt lat="62.649914674901" lon="17.85479564771">
        <ele>82.6</ele>
        <time>2018-03-20T11:54:54Z</time>
      </trkpt>
      <trkpt lat="62.649968989613" lon="17.854791037665">
        <ele>82</ele>
        <time>2018-03-20T11:54:55Z</time>
      </trkpt>
      <trkpt lat="62.650028668741" lon="17.854766227241">
        <ele>81.4</ele>
        <time>2018-03-20T11:54:56Z</time>
      </trkpt>
      <trkpt lat="62.650081893806" lon="17.854721551714">
        <ele>81</ele>
        <time>2018-03-20T11:54:57Z</time>
      </trkpt>
      <trkpt lat="62.650122210745" lon="17.854647455718">
        <ele>80.8</ele>
        <time>2018-03-20T11:54:58Z</time>
      </trkpt>
      <trkpt lat="62.650160264571" lon="17.854536898457">
        <ele>80.4</ele>
        <time>2018-03-20T11:54:59Z</time>
      </trkpt>
      <trkpt lat="62.650183650072" lon="17.854448134136">
        <ele>79.8</ele>
        <time>2018-03-20T11:55:00Z</time>
      </trkpt>
      <trkpt lat="62.650205862107" lon="17.85436230348">
        <ele>79.2</ele>
        <time>2018-03-20T11:55:01Z</time>
      </trkpt>
      <trkpt lat="62.650227822685" lon="17.854279155032">
        <ele>78.8</ele>
        <time>2018-03-20T11:55:02Z</time>
      </trkpt>
      <trkpt lat="62.65023410911" lon="17.854213357117">
        <ele>78.6</ele>
        <time>2018-03-20T11:55:03Z</time>
      </trkpt>
      <trkpt lat="62.650242574829" lon="17.854155019093">
        <ele>78.2</ele>
        <time>2018-03-20T11:55:04Z</time>
      </trkpt>
      <trkpt lat="62.650248525978" lon="17.854104392417">
        <ele>77.8</ele>
        <time>2018-03-20T11:55:05Z</time>
      </trkpt>
      <trkpt lat="62.65025506386" lon="17.854067428238">
        <ele>77.8</ele>
        <time>2018-03-20T11:55:06Z</time>
      </trkpt>
      <trkpt lat="62.650251375824" lon="17.854044797108">
        <ele>77.8</ele>
        <time>2018-03-20T11:55:07Z</time>
      </trkpt>
      <trkpt lat="62.650251124367" lon="17.854024345272">
        <ele>78.2</ele>
        <time>2018-03-20T11:55:08Z</time>
      </trkpt>
      <trkpt lat="62.650256404964" lon="17.853995846812">
        <ele>78.4</ele>
        <time>2018-03-20T11:55:09Z</time>
      </trkpt>
      <trkpt lat="62.650259757724" lon="17.853967851266">
        <ele>79</ele>
        <time>2018-03-20T11:55:10Z</time>
      </trkpt>
      <trkpt lat="62.650274426049" lon="17.853927450508">
        <ele>79.6</ele>
        <time>2018-03-20T11:55:11Z</time>
      </trkpt>
      <trkpt lat="62.650288759098" lon="17.853889480501">
        <ele>80</ele>
        <time>2018-03-20T11:55:12Z</time>
      </trkpt>
      <trkpt lat="62.650295464618" lon="17.853858216014">
        <ele>80.2</ele>
        <time>2018-03-20T11:55:13Z</time>
      </trkpt>
      <trkpt lat="62.650311809323" lon="17.853806248234">
        <ele>80.4</ele>
        <time>2018-03-20T11:55:14Z</time>
      </trkpt>
      <trkpt lat="62.650331925883" lon="17.853758136128">
        <ele>80.4</ele>
        <time>2018-03-20T11:55:15Z</time>
      </trkpt>
      <trkpt lat="62.650348522045" lon="17.853721255768">
        <ele>80.4</ele>
        <time>2018-03-20T11:55:16Z</time>
      </trkpt>
      <trkpt lat="62.650368554786" lon="17.853674484766">
        <ele>80.2</ele>
        <time>2018-03-20T11:55:17Z</time>
      </trkpt>
      <trkpt lat="62.650390263907" lon="17.853646153944">
        <ele>80.2</ele>
        <time>2018-03-20T11:55:18Z</time>
      </trkpt>
      <trkpt lat="62.650407949716" lon="17.853617320208">
        <ele>80.2</ele>
        <time>2018-03-20T11:55:19Z</time>
      </trkpt>
      <trkpt lat="62.650433346873" lon="17.853579266382">
        <ele>80.4</ele>
        <time>2018-03-20T11:55:20Z</time>
      </trkpt>
      <trkpt lat="62.650454301623" lon="17.853550013551">
        <ele>80.4</ele>
        <time>2018-03-20T11:55:21Z</time>
      </trkpt>
      <trkpt lat="62.650473663812" lon="17.853523442928">
        <ele>80.6</ele>
        <time>2018-03-20T11:55:22Z</time>
      </trkpt>
      <trkpt lat="62.650494031829" lon="17.853495447382">
        <ele>80.8</ele>
        <time>2018-03-20T11:55:23Z</time>
      </trkpt>
      <trkpt lat="62.650519680443" lon="17.853464015257">
        <ele>80.8</ele>
        <time>2018-03-20T11:55:24Z</time>
      </trkpt>
      <trkpt lat="62.650540132279" lon="17.853433337503">
        <ele>81</ele>
        <time>2018-03-20T11:55:25Z</time>
      </trkpt>
      <trkpt lat="62.650551364025" lon="17.853404336129">
        <ele>80.8</ele>
        <time>2018-03-20T11:55:26Z</time>
      </trkpt>
      <trkpt lat="62.650563601599" lon="17.853382124094">
        <ele>81</ele>
        <time>2018-03-20T11:55:27Z</time>
      </trkpt>
      <trkpt lat="62.65057692882" lon="17.853356978394">
        <ele>81</ele>
        <time>2018-03-20T11:55:28Z</time>
      </trkpt>
      <trkpt lat="62.65059201624" lon="17.853323283156">
        <ele>81.4</ele>
        <time>2018-03-20T11:55:29Z</time>
      </trkpt>
      <trkpt lat="62.650612635714" lon="17.85329361123">
        <ele>81.6</ele>
        <time>2018-03-20T11:55:30Z</time>
      </trkpt>
      <trkpt lat="62.650628561324" lon="17.853261676191">
        <ele>81.8</ele>
        <time>2018-03-20T11:55:31Z</time>
      </trkpt>
      <trkpt lat="62.650645911857" lon="17.853234854111">
        <ele>82</ele>
        <time>2018-03-20T11:55:32Z</time>
      </trkpt>
      <trkpt lat="62.650657562698" lon="17.853207026203">
        <ele>82.4</ele>
        <time>2018-03-20T11:55:33Z</time>
      </trkpt>
      <trkpt lat="62.650670135548" lon="17.853176096992">
        <ele>82.4</ele>
        <time>2018-03-20T11:55:34Z</time>
      </trkpt>
      <trkpt lat="62.650697795818" lon="17.853136450605">
        <ele>82.6</ele>
        <time>2018-03-20T11:55:35Z</time>
      </trkpt>
      <trkpt lat="62.650704836614" lon="17.853101498082">
        <ele>82.6</ele>
        <time>2018-03-20T11:55:36Z</time>
      </trkpt>
      <trkpt lat="62.650720007853" lon="17.853075095097">
        <ele>82.6</ele>
        <time>2018-03-20T11:55:37Z</time>
      </trkpt>
      <trkpt lat="62.650735933463" lon="17.853038047099">
        <ele>82.6</ele>
        <time>2018-03-20T11:55:38Z</time>
      </trkpt>
      <trkpt lat="62.650749679779" lon="17.853006195879">
        <ele>82.8</ele>
        <time>2018-03-20T11:55:39Z</time>
      </trkpt>
      <trkpt lat="62.650765689208" lon="17.852981553093">
        <ele>82.8</ele>
        <time>2018-03-20T11:55:40Z</time>
      </trkpt>
      <trkpt lat="62.650783626474" lon="17.852951042977">
        <ele>82.8</ele>
        <time>2018-03-20T11:55:41Z</time>
      </trkpt>
      <trkpt lat="62.650795612591" lon="17.852921538689">
        <ele>83</ele>
        <time>2018-03-20T11:55:42Z</time>
      </trkpt>
      <trkpt lat="62.65081832754" lon="17.852888597822">
        <ele>83.2</ele>
        <time>2018-03-20T11:55:43Z</time>
      </trkpt>
      <trkpt lat="62.650847999466" lon="17.852851549824">
        <ele>83.2</ele>
        <time>2018-03-20T11:55:44Z</time>
      </trkpt>
      <trkpt lat="62.65087951541" lon="17.852817770767">
        <ele>83.4</ele>
        <time>2018-03-20T11:55:45Z</time>
      </trkpt>
      <trkpt lat="62.650915389942" lon="17.852780387493">
        <ele>83.4</ele>
        <time>2018-03-20T11:55:46Z</time>
      </trkpt>
      <trkpt lat="62.650951180655" lon="17.852742585124">
        <ele>83.6</ele>
        <time>2018-03-20T11:55:47Z</time>
      </trkpt>
      <trkpt lat="62.650984624436" lon="17.852727497704">
        <ele>83.6</ele>
        <time>2018-03-20T11:55:48Z</time>
      </trkpt>
      <trkpt lat="62.651028042678" lon="17.852720708365">
        <ele>83.4</ele>
        <time>2018-03-20T11:55:49Z</time>
      </trkpt>
      <trkpt lat="62.651058636613" lon="17.852718445252">
        <ele>83.4</ele>
        <time>2018-03-20T11:55:50Z</time>
      </trkpt>
      <trkpt lat="62.651095181697" lon="17.852723977306">
        <ele>83.2</ele>
        <time>2018-03-20T11:55:51Z</time>
      </trkpt>
      <trkpt lat="62.651114962981" lon="17.852726743333">
        <ele>83</ele>
        <time>2018-03-20T11:55:52Z</time>
      </trkpt>
      <trkpt lat="62.651141533604" lon="17.85273034755">
        <ele>83</ele>
        <time>2018-03-20T11:55:53Z</time>
      </trkpt>
      <trkpt lat="62.651176150851" lon="17.852735041414">
        <ele>83</ele>
        <time>2018-03-20T11:55:54Z</time>
      </trkpt>
      <trkpt lat="62.651195932135" lon="17.852730850464">
        <ele>83.2</ele>
        <time>2018-03-20T11:55:55Z</time>
      </trkpt>
      <trkpt lat="62.651224598233" lon="17.85273118574">
        <ele>83.2</ele>
        <time>2018-03-20T11:55:56Z</time>
      </trkpt>
      <trkpt lat="62.651245972078" lon="17.85273118574">
        <ele>83.2</ele>
        <time>2018-03-20T11:55:57Z</time>
      </trkpt>
      <trkpt lat="62.651262735878" lon="17.852720876003">
        <ele>83.4</ele>
        <time>2018-03-20T11:55:58Z</time>
      </trkpt>
      <trkpt lat="62.651287294845" lon="17.852709728076">
        <ele>83.4</ele>
        <time>2018-03-20T11:55:59Z</time>
      </trkpt>
      <trkpt lat="62.65130866869" lon="17.852696652312">
        <ele>83.4</ele>
        <time>2018-03-20T11:56:00Z</time>
      </trkpt>
      <trkpt lat="62.6513329762" lon="17.852679888512">
        <ele>83.6</ele>
        <time>2018-03-20T11:56:01Z</time>
      </trkpt>
      <trkpt lat="62.651361055565" lon="17.852661196875">
        <ele>83.6</ele>
        <time>2018-03-20T11:56:02Z</time>
      </trkpt>
      <trkpt lat="62.651386368903" lon="17.852637979012">
        <ele>83.8</ele>
        <time>2018-03-20T11:56:03Z</time>
      </trkpt>
      <trkpt lat="62.651403803255" lon="17.852612833312">
        <ele>83.8</ele>
        <time>2018-03-20T11:56:04Z</time>
      </trkpt>
      <trkpt lat="62.651427859308" lon="17.85258450249">
        <ele>83.8</ele>
        <time>2018-03-20T11:56:05Z</time>
      </trkpt>
      <trkpt lat="62.651447975868" lon="17.852563631559">
        <ele>83.8</ele>
        <time>2018-03-20T11:56:06Z</time>
      </trkpt>
      <trkpt lat="62.651462979469" lon="17.852538066764">
        <ele>84</ele>
        <time>2018-03-20T11:56:07Z</time>
      </trkpt>
      <trkpt lat="62.651489382454" lon="17.852515184177">
        <ele>84</ele>
        <time>2018-03-20T11:56:08Z</time>
      </trkpt>
      <trkpt lat="62.651515198706" lon="17.852491631038">
        <ele>84</ele>
        <time>2018-03-20T11:56:09Z</time>
      </trkpt>
      <trkpt lat="62.651541182596" lon="17.852470089555">
        <ele>84</ele>
        <time>2018-03-20T11:56:10Z</time>
      </trkpt>
      <trkpt lat="62.651564651916" lon="17.852453158117">
        <ele>84.2</ele>
        <time>2018-03-20T11:56:11Z</time>
      </trkpt>
      <trkpt lat="62.651585019933" lon="17.85243781924">
        <ele>84.2</ele>
        <time>2018-03-20T11:56:12Z</time>
      </trkpt>
      <trkpt lat="62.65160454976" lon="17.852424827295">
        <ele>84.4</ele>
        <time>2018-03-20T11:56:13Z</time>
      </trkpt>
      <trkpt lat="62.651630785107" lon="17.852407141486">
        <ele>84.4</ele>
        <time>2018-03-20T11:56:14Z</time>
      </trkpt>
      <trkpt lat="62.651643022681" lon="17.852393227532">
        <ele>84.6</ele>
        <time>2018-03-20T11:56:15Z</time>
      </trkpt>
      <trkpt lat="62.651664564164" lon="17.852385097089">
        <ele>84.8</ele>
        <time>2018-03-20T11:56:16Z</time>
      </trkpt>
      <trkpt lat="62.651684010172" lon="17.852371350773">
        <ele>84.8</ele>
        <time>2018-03-20T11:56:17Z</time>
      </trkpt>
      <trkpt lat="62.651703204723" lon="17.852355006068">
        <ele>85</ele>
        <time>2018-03-20T11:56:18Z</time>
      </trkpt>
      <trkpt lat="62.651734301572" lon="17.85234645653">
        <ele>85.2</ele>
        <time>2018-03-20T11:56:19Z</time>
      </trkpt>
      <trkpt lat="62.65174955663" lon="17.852333548404">
        <ele>85.2</ele>
        <time>2018-03-20T11:56:20Z</time>
      </trkpt>
      <trkpt lat="62.651773277407" lon="17.852321394649">
        <ele>85.4</ele>
        <time>2018-03-20T11:56:21Z</time>
      </trkpt>
      <trkpt lat="62.651799177478" lon="17.852318209527">
        <ele>85.4</ele>
        <time>2018-03-20T11:56:22Z</time>
      </trkpt>
      <trkpt lat="62.651820718961" lon="17.852310749636">
        <ele>85.4</ele>
        <time>2018-03-20T11:56:23Z</time>
      </trkpt>
      <trkpt lat="62.65184259572" lon="17.852299601709">
        <ele>85.2</ele>
        <time>2018-03-20T11:56:24Z</time>
      </trkpt>
      <trkpt lat="62.65186271228" lon="17.852292728551">
        <ele>85.4</ele>
        <time>2018-03-20T11:56:25Z</time>
      </trkpt>
      <trkpt lat="62.651883164116" lon="17.852282083538">
        <ele>85.4</ele>
        <time>2018-03-20T11:56:26Z</time>
      </trkpt>
      <trkpt lat="62.651905711427" lon="17.852269594507">
        <ele>85.6</ele>
        <time>2018-03-20T11:56:27Z</time>
      </trkpt>
      <trkpt lat="62.651920463571" lon="17.852264146272">
        <ele>85.8</ele>
        <time>2018-03-20T11:56:28Z</time>
      </trkpt>
      <trkpt lat="62.651939322846" lon="17.852256015829">
        <ele>86</ele>
        <time>2018-03-20T11:56:29Z</time>
      </trkpt>
      <trkpt lat="62.651952817705" lon="17.852242269513">
        <ele>86.2</ele>
        <time>2018-03-20T11:56:30Z</time>
      </trkpt>
      <trkpt lat="62.651965893469" lon="17.852215950347">
        <ele>86.2</ele>
        <time>2018-03-20T11:56:31Z</time>
      </trkpt>
      <trkpt lat="62.651978801595" lon="17.852193486855">
        <ele>86.4</ele>
        <time>2018-03-20T11:56:32Z</time>
      </trkpt>
      <trkpt lat="62.651984752744" lon="17.852183428575">
        <ele>86.4</ele>
        <time>2018-03-20T11:56:33Z</time>
      </trkpt>
      <trkpt lat="62.651996068309" lon="17.85216540749">
        <ele>86.6</ele>
        <time>2018-03-20T11:56:34Z</time>
      </trkpt>
      <trkpt lat="62.652003192924" lon="17.852153337554">
        <ele>86.8</ele>
        <time>2018-03-20T11:56:35Z</time>
      </trkpt>
      <trkpt lat="62.652008054426" lon="17.852139255962">
        <ele>87</ele>
        <time>2018-03-20T11:56:36Z</time>
      </trkpt>
      <trkpt lat="62.652034792687" lon="17.852113272072">
        <ele>87</ele>
        <time>2018-03-20T11:56:37Z</time>
      </trkpt>
      <trkpt lat="62.652061950043" lon="17.852080582662">
        <ele>87.2</ele>
        <time>2018-03-20T11:56:38Z</time>
      </trkpt>
      <trkpt lat="62.652076031635" lon="17.852060466102">
        <ele>87.4</ele>
        <time>2018-03-20T11:56:39Z</time>
      </trkpt>
      <trkpt lat="62.652102350801" lon="17.8520556046">
        <ele>87.4</ele>
        <time>2018-03-20T11:56:40Z</time>
      </trkpt>
      <trkpt lat="62.652103356629" lon="17.85204303175">
        <ele>87.6</ele>
        <time>2018-03-20T11:56:41Z</time>
      </trkpt>
      <trkpt lat="62.652107799036" lon="17.852024759208">
        <ele>87.8</ele>
        <time>2018-03-20T11:56:42Z</time>
      </trkpt>
      <trkpt lat="62.65212003661" lon="17.851992237436">
        <ele>88</ele>
        <time>2018-03-20T11:56:43Z</time>
      </trkpt>
      <trkpt lat="62.652131603632" lon="17.851967510831">
        <ele>88.2</ele>
        <time>2018-03-20T11:56:44Z</time>
      </trkpt>
      <trkpt lat="62.652141326636" lon="17.851937922724">
        <ele>88.4</ele>
        <time>2018-03-20T11:56:45Z</time>
      </trkpt>
      <trkpt lat="62.65215691697" lon="17.851913279938">
        <ele>88.6</ele>
        <time>2018-03-20T11:56:46Z</time>
      </trkpt>
      <trkpt lat="62.652173848408" lon="17.851897857242">
        <ele>88.8</ele>
        <time>2018-03-20T11:56:47Z</time>
      </trkpt>
      <trkpt lat="62.652191115122" lon="17.851884446202">
        <ele>88.8</ele>
        <time>2018-03-20T11:56:48Z</time>
      </trkpt>
      <trkpt lat="62.652210477311" lon="17.851869358782">
        <ele>89</ele>
        <time>2018-03-20T11:56:49Z</time>
      </trkpt>
      <trkpt lat="62.652228079301" lon="17.851852008249">
        <ele>89.2</ele>
        <time>2018-03-20T11:56:50Z</time>
      </trkpt>
      <trkpt lat="62.652246687119" lon="17.851832562241">
        <ele>89.4</ele>
        <time>2018-03-20T11:56:51Z</time>
      </trkpt>
      <trkpt lat="62.652258002684" lon="17.851810936939">
        <ele>89.6</ele>
        <time>2018-03-20T11:56:52Z</time>
      </trkpt>
      <trkpt lat="62.652271749" lon="17.851784533954">
        <ele>90</ele>
        <time>2018-03-20T11:56:53Z</time>
      </trkpt>
      <trkpt lat="62.652282561651" lon="17.851751593087">
        <ele>90.4</ele>
        <time>2018-03-20T11:56:54Z</time>
      </trkpt>
      <trkpt lat="62.652299157813" lon="17.851725273921">
        <ele>90.6</ele>
        <time>2018-03-20T11:56:55Z</time>
      </trkpt>
      <trkpt lat="62.652320280201" lon="17.851700379678">
        <ele>91</ele>
        <time>2018-03-20T11:56:56Z</time>
      </trkpt>
      <trkpt lat="62.652333020689" lon="17.851679844023">
        <ele>91.2</ele>
        <time>2018-03-20T11:56:57Z</time>
      </trkpt>
      <trkpt lat="62.65234383334" lon="17.851648914812">
        <ele>91.4</ele>
        <time>2018-03-20T11:56:58Z</time>
      </trkpt>
      <trkpt lat="62.652356070914" lon="17.851614968117">
        <ele>91.6</ele>
        <time>2018-03-20T11:56:59Z</time>
      </trkpt>
      <trkpt lat="62.6523723318" lon="17.85158286544">
        <ele>91.8</ele>
        <time>2018-03-20T11:57:00Z</time>
      </trkpt>
      <trkpt lat="62.652385575202" lon="17.851557468283">
        <ele>92.2</ele>
        <time>2018-03-20T11:57:01Z</time>
      </trkpt>
      <trkpt lat="62.652403093373" lon="17.851527628719">
        <ele>92.4</ele>
        <time>2018-03-20T11:57:02Z</time>
      </trkpt>
      <trkpt lat="62.652416923508" lon="17.851496448051">
        <ele>92.4</ele>
        <time>2018-03-20T11:57:03Z</time>
      </trkpt>
      <trkpt lat="62.652430502186" lon="17.851468117229">
        <ele>92.6</ele>
        <time>2018-03-20T11:57:04Z</time>
      </trkpt>
      <trkpt lat="62.652442404484" lon="17.851437104199">
        <ele>92.8</ele>
        <time>2018-03-20T11:57:05Z</time>
      </trkpt>
      <trkpt lat="62.652452965678" lon="17.851410365938">
        <ele>92.8</ele>
        <time>2018-03-20T11:57:06Z</time>
      </trkpt>
      <trkpt lat="62.652460593207" lon="17.851377257433">
        <ele>92.8</ele>
        <time>2018-03-20T11:57:07Z</time>
      </trkpt>
      <trkpt lat="62.65247542917" lon="17.851356386502">
        <ele>93</ele>
        <time>2018-03-20T11:57:08Z</time>
      </trkpt>
      <trkpt lat="62.652492276789" lon="17.851328139499">
        <ele>93</ele>
        <time>2018-03-20T11:57:09Z</time>
      </trkpt>
      <trkpt lat="62.652516919575" lon="17.851303496713">
        <ele>93.2</ele>
        <time>2018-03-20T11:57:10Z</time>
      </trkpt>
      <trkpt lat="62.652535862669" lon="17.851274662977">
        <ele>93.2</ele>
        <time>2018-03-20T11:57:11Z</time>
      </trkpt>
      <trkpt lat="62.652547932605" lon="17.851252953856">
        <ele>93.4</ele>
        <time>2018-03-20T11:57:12Z</time>
      </trkpt>
      <trkpt lat="62.652571485744" lon="17.851223198111">
        <ele>93.4</ele>
        <time>2018-03-20T11:57:13Z</time>
      </trkpt>
      <trkpt lat="62.652581376386" lon="17.851192687995">
        <ele>93.6</ele>
        <time>2018-03-20T11:57:14Z</time>
      </trkpt>
      <trkpt lat="62.652603923697" lon="17.851170140684">
        <ele>93.6</ele>
        <time>2018-03-20T11:57:15Z</time>
      </trkpt>
      <trkpt lat="62.652618340565" lon="17.851154215074">
        <ele>93.6</ele>
        <time>2018-03-20T11:57:16Z</time>
      </trkpt>
      <trkpt lat="62.652633679442" lon="17.851131751582">
        <ele>93.6</ele>
        <time>2018-03-20T11:57:17Z</time>
      </trkpt>
      <trkpt lat="62.652645665559" lon="17.851122363854">
        <ele>93.8</ele>
        <time>2018-03-20T11:57:18Z</time>
      </trkpt>
      <trkpt lat="62.65265480183" lon="17.851109539547">
        <ele>93.8</ele>
        <time>2018-03-20T11:57:19Z</time>
      </trkpt>
      <trkpt lat="62.652662010264" lon="17.851096799059">
        <ele>94.2</ele>
        <time>2018-03-20T11:57:20Z</time>
      </trkpt>
      <trkpt lat="62.652675253666" lon="17.851084729123">
        <ele>94.4</ele>
        <time>2018-03-20T11:57:21Z</time>
      </trkpt>
      <trkpt lat="62.65269671133" lon="17.851072240092">
        <ele>94.6</ele>
        <time>2018-03-20T11:57:22Z</time>
      </trkpt>
      <trkpt lat="62.652714061863" lon="17.851047178211">
        <ele>94.6</ele>
        <time>2018-03-20T11:57:23Z</time>
      </trkpt>
      <trkpt lat="62.652723868686" lon="17.851023122158">
        <ele>94.6</ele>
        <time>2018-03-20T11:57:24Z</time>
      </trkpt>
      <trkpt lat="62.652730490387" lon="17.851007950919">
        <ele>94.6</ele>
        <time>2018-03-20T11:57:25Z</time>
      </trkpt>
      <trkpt lat="62.65274197359" lon="17.850992528223">
        <ele>94.6</ele>
        <time>2018-03-20T11:57:26Z</time>
      </trkpt>
      <trkpt lat="62.652755468449" lon="17.850962101926">
        <ele>94.6</ele>
        <time>2018-03-20T11:57:27Z</time>
      </trkpt>
      <trkpt lat="62.652765862005" lon="17.850917761675">
        <ele>94.8</ele>
        <time>2018-03-20T11:57:28Z</time>
      </trkpt>
      <trkpt lat="62.652783631633" lon="17.850885910455">
        <ele>94.8</ele>
        <time>2018-03-20T11:57:29Z</time>
      </trkpt>
      <trkpt lat="62.652798216139" lon="17.850835116141">
        <ele>94.8</ele>
        <time>2018-03-20T11:57:30Z</time>
      </trkpt>
      <trkpt lat="62.652797545587" lon="17.85078909951">
        <ele>94.8</ele>
        <time>2018-03-20T11:57:31Z</time>
      </trkpt>
      <trkpt lat="62.652803748193" lon="17.850743418155">
        <ele>94.8</ele>
        <time>2018-03-20T11:57:32Z</time>
      </trkpt>
      <trkpt lat="62.652810034618" lon="17.850673094014">
        <ele>94.8</ele>
        <time>2018-03-20T11:57:33Z</time>
      </trkpt>
      <trkpt lat="62.652815985767" lon="17.85061475599">
        <ele>94.8</ele>
        <time>2018-03-20T11:57:34Z</time>
      </trkpt>
      <trkpt lat="62.652823864753" lon="17.850540743813">
        <ele>94.8</ele>
        <time>2018-03-20T11:57:35Z</time>
      </trkpt>
      <trkpt lat="62.652828139522" lon="17.850502270892">
        <ele>94.8</ele>
        <time>2018-03-20T11:57:36Z</time>
      </trkpt>
      <trkpt lat="62.652839455087" lon="17.850406549594">
        <ele>94.8</ele>
        <time>2018-03-20T11:57:37Z</time>
      </trkpt>
      <trkpt lat="62.652849597186" lon="17.850342847154">
        <ele>94.6</ele>
        <time>2018-03-20T11:57:38Z</time>
      </trkpt>
      <trkpt lat="62.652851105928" lon="17.850275372859">
        <ele>94.6</ele>
        <time>2018-03-20T11:57:39Z</time>
      </trkpt>
      <trkpt lat="62.652859487828" lon="17.850203707614">
        <ele>94.6</ele>
        <time>2018-03-20T11:57:40Z</time>
      </trkpt>
      <trkpt lat="62.652878347103" lon="17.850129779256">
        <ele>94.4</ele>
        <time>2018-03-20T11:57:41Z</time>
      </trkpt>
      <trkpt lat="62.652888237745" lon="17.850059958029">
        <ele>94.4</ele>
        <time>2018-03-20T11:57:42Z</time>
      </trkpt>
      <trkpt lat="62.652896954921" lon="17.849975552296">
        <ele>94.2</ele>
        <time>2018-03-20T11:57:43Z</time>
      </trkpt>
      <trkpt lat="62.652904917726" lon="17.849917884824">
        <ele>94.2</ele>
        <time>2018-03-20T11:57:44Z</time>
      </trkpt>
      <trkpt lat="62.652912461436" lon="17.849859630619">
        <ele>94</ele>
        <time>2018-03-20T11:57:45Z</time>
      </trkpt>
      <trkpt lat="62.65292218444" lon="17.8498008735">
        <ele>94</ele>
        <time>2018-03-20T11:57:46Z</time>
      </trkpt>
      <trkpt lat="62.652927967951" lon="17.849745469141">
        <ele>94</ele>
        <time>2018-03-20T11:57:47Z</time>
      </trkpt>
      <trkpt lat="62.65294146281" lon="17.849680425597">
        <ele>94.2</ele>
        <time>2018-03-20T11:57:48Z</time>
      </trkpt>
      <trkpt lat="62.65295235928" lon="17.849610352913">
        <ele>94.2</ele>
        <time>2018-03-20T11:57:49Z</time>
      </trkpt>
      <trkpt lat="62.652967362881" lon="17.849545477007">
        <ele>94.2</ele>
        <time>2018-03-20T11:57:50Z</time>
      </trkpt>
      <trkpt lat="62.652973481668" lon="17.849499208919">
        <ele>94.2</ele>
        <time>2018-03-20T11:57:51Z</time>
      </trkpt>
      <trkpt lat="62.65298923964" lon="17.849430477339">
        <ele>94.2</ele>
        <time>2018-03-20T11:57:52Z</time>
      </trkpt>
      <trkpt lat="62.652992843857" lon="17.849375575894">
        <ele>94.2</ele>
        <time>2018-03-20T11:57:53Z</time>
      </trkpt>
      <trkpt lat="62.652999633196" lon="17.849325787408">
        <ele>94.4</ele>
        <time>2018-03-20T11:57:54Z</time>
      </trkpt>
      <trkpt lat="62.653012457503" lon="17.84925688819">
        <ele>94.4</ele>
        <time>2018-03-20T11:57:55Z</time>
      </trkpt>
      <trkpt lat="62.653015055892" lon="17.84920240584">
        <ele>94.4</ele>
        <time>2018-03-20T11:57:56Z</time>
      </trkpt>
      <trkpt lat="62.653017989557" lon="17.84915630539">
        <ele>94.4</ele>
        <time>2018-03-20T11:57:57Z</time>
      </trkpt>
      <trkpt lat="62.653024695077" lon="17.849087741448">
        <ele>94.4</ele>
        <time>2018-03-20T11:57:58Z</time>
      </trkpt>
      <trkpt lat="62.653019246842" lon="17.8490213568">
        <ele>94.6</ele>
        <time>2018-03-20T11:57:59Z</time>
      </trkpt>
      <trkpt lat="62.653021174679" lon="17.848942986035">
        <ele>94.6</ele>
        <time>2018-03-20T11:58:00Z</time>
      </trkpt>
      <trkpt lat="62.653018743928" lon="17.848879618871">
        <ele>94.6</ele>
        <time>2018-03-20T11:58:01Z</time>
      </trkpt>
      <trkpt lat="62.653017821919" lon="17.848811054929">
        <ele>94.8</ele>
        <time>2018-03-20T11:58:02Z</time>
      </trkpt>
      <trkpt lat="62.653015810263" lon="17.848750956706">
        <ele>94.6</ele>
        <time>2018-03-20T11:58:03Z</time>
      </trkpt>
      <trkpt lat="62.653008434191" lon="17.848694378881">
        <ele>94.6</ele>
        <time>2018-03-20T11:58:04Z</time>
      </trkpt>
      <trkpt lat="62.653008350372" lon="17.848600753058">
        <ele>94.4</ele>
        <time>2018-03-20T11:58:05Z</time>
      </trkpt>
      <trkpt lat="62.653010445847" lon="17.848529590727">
        <ele>94.2</ele>
        <time>2018-03-20T11:58:06Z</time>
      </trkpt>
      <trkpt lat="62.653022264326" lon="17.848458344577">
        <ele>94</ele>
        <time>2018-03-20T11:58:07Z</time>
      </trkpt>
      <trkpt lat="62.653025030353" lon="17.848371675731">
        <ele>93.8</ele>
        <time>2018-03-20T11:58:08Z</time>
      </trkpt>
      <trkpt lat="62.653020420308" lon="17.848276708804">
        <ele>93.4</ele>
        <time>2018-03-20T11:58:09Z</time>
      </trkpt>
      <trkpt lat="62.653018492471" lon="17.848186771017">
        <ele>93.2</ele>
        <time>2018-03-20T11:58:10Z</time>
      </trkpt>
      <trkpt lat="62.653010948761" lon="17.84809012771">
        <ele>92.8</ele>
        <time>2018-03-20T11:58:11Z</time>
      </trkpt>
      <trkpt lat="62.65300432706" lon="17.847995998973">
        <ele>92.6</ele>
        <time>2018-03-20T11:58:12Z</time>
      </trkpt>
      <trkpt lat="62.653000052291" lon="17.847899188028">
        <ele>92.4</ele>
        <time>2018-03-20T11:58:13Z</time>
      </trkpt>
      <trkpt lat="62.65299175421" lon="17.847786870568">
        <ele>92</ele>
        <time>2018-03-20T11:58:14Z</time>
      </trkpt>
      <trkpt lat="62.652989072002" lon="17.847675475117">
        <ele>91.8</ele>
        <time>2018-03-20T11:58:15Z</time>
      </trkpt>
      <trkpt lat="62.652983204672" lon="17.847573886489">
        <ele>91.4</ele>
        <time>2018-03-20T11:58:16Z</time>
      </trkpt>
      <trkpt lat="62.65298169593" lon="17.847464167418">
        <ele>91.2</ele>
        <time>2018-03-20T11:58:17Z</time>
      </trkpt>
      <trkpt lat="62.652978510808" lon="17.847360315677">
        <ele>90.6</ele>
        <time>2018-03-20T11:58:18Z</time>
      </trkpt>
      <trkpt lat="62.652976834428" lon="17.847256631574">
        <ele>90.2</ele>
        <time>2018-03-20T11:58:19Z</time>
      </trkpt>
      <trkpt lat="62.652957975153" lon="17.847163173389">
        <ele>89.8</ele>
        <time>2018-03-20T11:58:20Z</time>
      </trkpt>
      <trkpt lat="62.652954790031" lon="17.847064518426">
        <ele>89.6</ele>
        <time>2018-03-20T11:58:21Z</time>
      </trkpt>
      <trkpt lat="62.652956801687" lon="17.846977514304">
        <ele>89.8</ele>
        <time>2018-03-20T11:58:22Z</time>
      </trkpt>
      <trkpt lat="62.652964764492" lon="17.846914482416">
        <ele>90</ele>
        <time>2018-03-20T11:58:23Z</time>
      </trkpt>
      <trkpt lat="62.65297247584" lon="17.846839632049">
        <ele>90.2</ele>
        <time>2018-03-20T11:58:24Z</time>
      </trkpt>
      <trkpt lat="62.652977337342" lon="17.846781126387">
        <ele>90.4</ele>
        <time>2018-03-20T11:58:25Z</time>
      </trkpt>
      <trkpt lat="62.652987144165" lon="17.846725973485">
        <ele>90.6</ele>
        <time>2018-03-20T11:58:26Z</time>
      </trkpt>
      <trkpt lat="62.652998878825" lon="17.846675682085">
        <ele>90.6</ele>
        <time>2018-03-20T11:58:27Z</time>
      </trkpt>
      <trkpt lat="62.653020587946" lon="17.846629749273">
        <ele>90.6</ele>
        <time>2018-03-20T11:58:28Z</time>
      </trkpt>
      <trkpt lat="62.653040620687" lon="17.846568393765">
        <ele>90.6</ele>
        <time>2018-03-20T11:58:29Z</time>
      </trkpt>
      <trkpt lat="62.653060904885" lon="17.846486167326">
        <ele>90.6</ele>
        <time>2018-03-20T11:58:30Z</time>
      </trkpt>
      <trkpt lat="62.653080769988" lon="17.846406958371">
        <ele>90.6</ele>
        <time>2018-03-20T11:58:31Z</time>
      </trkpt>
      <trkpt lat="62.653106670059" lon="17.84634250156">
        <ele>90.8</ele>
        <time>2018-03-20T11:58:32Z</time>
      </trkpt>
      <trkpt lat="62.653125529334" lon="17.846297742214">
        <ele>90.8</ele>
        <time>2018-03-20T11:58:33Z</time>
      </trkpt>
      <trkpt lat="62.653149669206" lon="17.84624191876">
        <ele>90.8</ele>
        <time>2018-03-20T11:58:34Z</time>
      </trkpt>
      <trkpt lat="62.653172048879" lon="17.846190118618">
        <ele>90.8</ele>
        <time>2018-03-20T11:58:35Z</time>
      </trkpt>
      <trkpt lat="62.653191494887" lon="17.846156926294">
        <ele>90.6</ele>
        <time>2018-03-20T11:58:36Z</time>
      </trkpt>
      <trkpt lat="62.653228459066" lon="17.846096828071">
        <ele>90.8</ele>
        <time>2018-03-20T11:58:37Z</time>
      </trkpt>
      <trkpt lat="62.653241953925" lon="17.846041758988">
        <ele>90.8</ele>
        <time>2018-03-20T11:58:38Z</time>
      </trkpt>
      <trkpt lat="62.653273050774" lon="17.845971351028">
        <ele>90.8</ele>
        <time>2018-03-20T11:58:39Z</time>
      </trkpt>
      <trkpt lat="62.653300375768" lon="17.845913432099">
        <ele>90.6</ele>
        <time>2018-03-20T11:58:40Z</time>
      </trkpt>
      <trkpt lat="62.653331640255" lon="17.845854339704">
        <ele>90.6</ele>
        <time>2018-03-20T11:58:41Z</time>
      </trkpt>
      <trkpt lat="62.65336307238" lon="17.84580522177">
        <ele>90.4</ele>
        <time>2018-03-20T11:58:42Z</time>
      </trkpt>
      <trkpt lat="62.653392828125" lon="17.845747470479">
        <ele>90</ele>
        <time>2018-03-20T11:58:43Z</time>
      </trkpt>
      <trkpt lat="62.653430798132" lon="17.845686701704">
        <ele>89.8</ele>
        <time>2018-03-20T11:58:44Z</time>
      </trkpt>
      <trkpt lat="62.653471701804" lon="17.845636661761">
        <ele>89.6</ele>
        <time>2018-03-20T11:58:45Z</time>
      </trkpt>
      <trkpt lat="62.653513276028" lon="17.845588801112">
        <ele>89.4</ele>
        <time>2018-03-20T11:58:46Z</time>
      </trkpt>
      <trkpt lat="62.65355501789" lon="17.845538174436">
        <ele>89.2</ele>
        <time>2018-03-20T11:58:47Z</time>
      </trkpt>
      <trkpt lat="62.653594161363" lon="17.845482686258">
        <ele>88.8</ele>
        <time>2018-03-20T11:58:48Z</time>
      </trkpt>
      <trkpt lat="62.653635316492" lon="17.845402555294">
        <ele>88.4</ele>
        <time>2018-03-20T11:58:49Z</time>
      </trkpt>
      <trkpt lat="62.653666832436" lon="17.845309348566">
        <ele>88.2</ele>
        <time>2018-03-20T11:58:50Z</time>
      </trkpt>
      <trkpt lat="62.653692900145" lon="17.845205245368">
        <ele>88</ele>
        <time>2018-03-20T11:58:51Z</time>
      </trkpt>
      <trkpt lat="62.653713603438" lon="17.845113044468">
        <ele>87.8</ele>
        <time>2018-03-20T11:58:52Z</time>
      </trkpt>
      <trkpt lat="62.653739922604" lon="17.845016149704">
        <ele>87.4</ele>
        <time>2018-03-20T11:58:53Z</time>
      </trkpt>
      <trkpt lat="62.653766828503" lon="17.844919841673">
        <ele>86.8</ele>
        <time>2018-03-20T11:58:54Z</time>
      </trkpt>
      <trkpt lat="62.653793818221" lon="17.844837615234">
        <ele>86.4</ele>
        <time>2018-03-20T11:58:55Z</time>
      </trkpt>
      <trkpt lat="62.653817874274" lon="17.844768045464">
        <ele>85.6</ele>
        <time>2018-03-20T11:58:56Z</time>
      </trkpt>
      <trkpt lat="62.653840924499" lon="17.844703588653">
        <ele>85.2</ele>
        <time>2018-03-20T11:58:57Z</time>
      </trkpt>
      <trkpt lat="62.653863639448" lon="17.844638880385">
        <ele>85</ele>
        <time>2018-03-20T11:58:58Z</time>
      </trkpt>
      <trkpt lat="62.653890042433" lon="17.844565874036">
        <ele>84.8</ele>
        <time>2018-03-20T11:58:59Z</time>
      </trkpt>
      <trkpt lat="62.653913930848" lon="17.844502171596">
        <ele>84.6</ele>
        <time>2018-03-20T11:59:00Z</time>
      </trkpt>
      <trkpt lat="62.653938489815" lon="17.844448527436">
        <ele>84.6</ele>
        <time>2018-03-20T11:59:01Z</time>
      </trkpt>
      <trkpt lat="62.653966317723" lon="17.844398236036">
        <ele>84.4</ele>
        <time>2018-03-20T11:59:02Z</time>
      </trkpt>
      <trkpt lat="62.653992636889" lon="17.844355404527">
        <ele>84</ele>
        <time>2018-03-20T11:59:03Z</time>
      </trkpt>
      <trkpt lat="62.654018872236" lon="17.844319865271">
        <ele>83.6</ele>
        <time>2018-03-20T11:59:04Z</time>
      </trkpt>
      <trkpt lat="62.654046783963" lon="17.844287511137">
        <ele>83</ele>
        <time>2018-03-20T11:59:05Z</time>
      </trkpt>
      <trkpt lat="62.654071929663" lon="17.844260353781">
        <ele>82.4</ele>
        <time>2018-03-20T11:59:06Z</time>
      </trkpt>
      <trkpt lat="62.654095985716" lon="17.844235710995">
        <ele>82.2</ele>
        <time>2018-03-20T11:59:07Z</time>
      </trkpt>
      <trkpt lat="62.654120628502" lon="17.844211906399">
        <ele>81.6</ele>
        <time>2018-03-20T11:59:08Z</time>
      </trkpt>
      <trkpt lat="62.65415180917" lon="17.844183491758">
        <ele>81.2</ele>
        <time>2018-03-20T11:59:09Z</time>
      </trkpt>
      <trkpt lat="62.654181648734" lon="17.84416069299">
        <ele>80.8</ele>
        <time>2018-03-20T11:59:10Z</time>
      </trkpt>
      <trkpt lat="62.654214505782" lon="17.844139151507">
        <ele>80.4</ele>
        <time>2018-03-20T11:59:11Z</time>
      </trkpt>
      <trkpt lat="62.65424401007" lon="17.844124231725">
        <ele>79.8</ele>
        <time>2018-03-20T11:59:12Z</time>
      </trkpt>
      <trkpt lat="62.654280974249" lon="17.844108306115">
        <ele>79.2</ele>
        <time>2018-03-20T11:59:13Z</time>
      </trkpt>
      <trkpt lat="62.654322548473" lon="17.844091374677">
        <ele>78.8</ele>
        <time>2018-03-20T11:59:14Z</time>
      </trkpt>
      <trkpt lat="62.654360350842" lon="17.844078131275">
        <ele>78.2</ele>
        <time>2018-03-20T11:59:15Z</time>
      </trkpt>
      <trkpt lat="62.654391363872" lon="17.844066983348">
        <ele>77.4</ele>
        <time>2018-03-20T11:59:16Z</time>
      </trkpt>
      <trkpt lat="62.654431429354" lon="17.844055583964">
        <ele>76.8</ele>
        <time>2018-03-20T11:59:17Z</time>
      </trkpt>
      <trkpt lat="62.654474847596" lon="17.844045944779">
        <ele>76.4</ele>
        <time>2018-03-20T11:59:18Z</time>
      </trkpt>
      <trkpt lat="62.654525893367" lon="17.844039071621">
        <ele>75.6</ele>
        <time>2018-03-20T11:59:19Z</time>
      </trkpt>
      <trkpt lat="62.654571407084" lon="17.844031024997">
        <ele>74.8</ele>
        <time>2018-03-20T11:59:20Z</time>
      </trkpt>
      <trkpt lat="62.65461365186" lon="17.844031695549">
        <ele>73.8</ele>
        <time>2018-03-20T11:59:21Z</time>
      </trkpt>
      <trkpt lat="62.654655980455" lon="17.844024151839">
        <ele>72.8</ele>
        <time>2018-03-20T11:59:22Z</time>
      </trkpt>
      <trkpt lat="62.654698979602" lon="17.844011830446">
        <ele>72</ele>
        <time>2018-03-20T11:59:23Z</time>
      </trkpt>
      <trkpt lat="62.654728567709" lon="17.84400478965">
        <ele>71.4</ele>
        <time>2018-03-20T11:59:24Z</time>
      </trkpt>
      <trkpt lat="62.654772488865" lon="17.843995234284">
        <ele>70.6</ele>
        <time>2018-03-20T11:59:25Z</time>
      </trkpt>
      <trkpt lat="62.654808279578" lon="17.843981739425">
        <ele>70</ele>
        <time>2018-03-20T11:59:26Z</time>
      </trkpt>
      <trkpt lat="62.654839544065" lon="17.843977464656">
        <ele>69.6</ele>
        <time>2018-03-20T11:59:27Z</time>
      </trkpt>
      <trkpt lat="62.654874748045" lon="17.843968160747">
        <ele>69.2</ele>
        <time>2018-03-20T11:59:28Z</time>
      </trkpt>
      <trkpt lat="62.654921016133" lon="17.843953492422">
        <ele>69</ele>
        <time>2018-03-20T11:59:29Z</time>
      </trkpt>
      <trkpt lat="62.654964266737" lon="17.843943685599">
        <ele>68.6</ele>
        <time>2018-03-20T11:59:30Z</time>
      </trkpt>
      <trkpt lat="62.655012127386" lon="17.843921725021">
        <ele>68.2</ele>
        <time>2018-03-20T11:59:31Z</time>
      </trkpt>
      <trkpt lat="62.655060155673" lon="17.843897920425">
        <ele>67.6</ele>
        <time>2018-03-20T11:59:32Z</time>
      </trkpt>
      <trkpt lat="62.655104663562" lon="17.843870846888">
        <ele>67</ele>
        <time>2018-03-20T11:59:33Z</time>
      </trkpt>
      <trkpt lat="62.655150009641" lon="17.843849473043">
        <ele>66.4</ele>
        <time>2018-03-20T11:59:34Z</time>
      </trkpt>
      <trkpt lat="62.655199798127" lon="17.843830949044">
        <ele>65.8</ele>
        <time>2018-03-20T11:59:35Z</time>
      </trkpt>
      <trkpt lat="62.655242964912" lon="17.843824075886">
        <ele>65.2</ele>
        <time>2018-03-20T11:59:36Z</time>
      </trkpt>
      <trkpt lat="62.655283700946" lon="17.843821477497">
        <ele>64.6</ele>
        <time>2018-03-20T11:59:37Z</time>
      </trkpt>
      <trkpt lat="62.655325610446" lon="17.843831619596">
        <ele>64.4</ele>
        <time>2018-03-20T11:59:38Z</time>
      </trkpt>
      <trkpt lat="62.655377829683" lon="17.843829021207">
        <ele>64.4</ele>
        <time>2018-03-20T11:59:39Z</time>
      </trkpt>
      <trkpt lat="62.655414626224" lon="17.843832876881">
        <ele>64.4</ele>
        <time>2018-03-20T11:59:40Z</time>
      </trkpt>
      <trkpt lat="62.655477993388" lon="17.843880653711">
        <ele>64.4</ele>
        <time>2018-03-20T11:59:41Z</time>
      </trkpt>
      <trkpt lat="62.655529961168" lon="17.843921557383">
        <ele>64.4</ele>
        <time>2018-03-20T11:59:42Z</time>
      </trkpt>
      <trkpt lat="62.655584359699" lon="17.843970675317">
        <ele>63.8</ele>
        <time>2018-03-20T11:59:43Z</time>
      </trkpt>
      <trkpt lat="62.655644960836" lon="17.844030438264">
        <ele>62.8</ele>
        <time>2018-03-20T11:59:44Z</time>
      </trkpt>
      <trkpt lat="62.655704472326" lon="17.844097661102">
        <ele>61.8</ele>
        <time>2018-03-20T11:59:45Z</time>
      </trkpt>
      <trkpt lat="62.655751494785" lon="17.844159519524">
        <ele>60.6</ele>
        <time>2018-03-20T11:59:46Z</time>
      </trkpt>
      <trkpt lat="62.655817879433" lon="17.844253648261">
        <ele>59.4</ele>
        <time>2018-03-20T11:59:47Z</time>
      </trkpt>
      <trkpt lat="62.655869092842" lon="17.844331767569">
        <ele>58.4</ele>
        <time>2018-03-20T11:59:48Z</time>
      </trkpt>
      <trkpt lat="62.655923575192" lon="17.844417849682">
        <ele>57.8</ele>
        <time>2018-03-20T11:59:49Z</time>
      </trkpt>
      <trkpt lat="62.655972106393" lon="17.844494963162">
        <ele>57.2</ele>
        <time>2018-03-20T11:59:50Z</time>
      </trkpt>
      <trkpt lat="62.656018877395" lon="17.844571992823">
        <ele>56.8</ele>
        <time>2018-03-20T11:59:51Z</time>
      </trkpt>
      <trkpt lat="62.65606204418" lon="17.84463678491">
        <ele>56.6</ele>
        <time>2018-03-20T11:59:52Z</time>
      </trkpt>
      <trkpt lat="62.656106552069" lon="17.844704343024">
        <ele>56.4</ele>
        <time>2018-03-20T11:59:53Z</time>
      </trkpt>
      <trkpt lat="62.656150305587" lon="17.844772320233">
        <ele>56.4</ele>
        <time>2018-03-20T11:59:54Z</time>
      </trkpt>
      <trkpt lat="62.656193723829" lon="17.844840381261">
        <ele>56.6</ele>
        <time>2018-03-20T11:59:55Z</time>
      </trkpt>
      <trkpt lat="62.656237142071" lon="17.844899054561">
        <ele>56.8</ele>
        <time>2018-03-20T11:59:56Z</time>
      </trkpt>
      <trkpt lat="62.656276201725" lon="17.844956470576">
        <ele>57</ele>
        <time>2018-03-20T11:59:57Z</time>
      </trkpt>
      <trkpt lat="62.65631853032" lon="17.845012796944">
        <ele>57.2</ele>
        <time>2018-03-20T11:59:58Z</time>
      </trkpt>
      <trkpt lat="62.656369156996" lon="17.845046827458">
        <ele>57.2</ele>
        <time>2018-03-20T11:59:59Z</time>
      </trkpt>
      <trkpt lat="62.656412994333" lon="17.845109943165">
        <ele>57.2</ele>
        <time>2018-03-20T12:00:00Z</time>
      </trkpt>
      <trkpt lat="62.656453814186" lon="17.845158306728">
        <ele>57</ele>
        <time>2018-03-20T12:00:01Z</time>
      </trkpt>
      <trkpt lat="62.656494801677" lon="17.845189906491">
        <ele>56.8</ele>
        <time>2018-03-20T12:00:02Z</time>
      </trkpt>
      <trkpt lat="62.656530927666" lon="17.845223601729">
        <ele>56.6</ele>
        <time>2018-03-20T12:00:03Z</time>
      </trkpt>
      <trkpt lat="62.656573591537" lon="17.845264673039">
        <ele>56.4</ele>
        <time>2018-03-20T12:00:04Z</time>
      </trkpt>
      <trkpt lat="62.656614159933" lon="17.845312785145">
        <ele>56.4</ele>
        <time>2018-03-20T12:00:05Z</time>
      </trkpt>
      <trkpt lat="62.656655231243" lon="17.845359807604">
        <ele>56.2</ele>
        <time>2018-03-20T12:00:06Z</time>
      </trkpt>
      <trkpt lat="62.656686747187" lon="17.845379924164">
        <ele>56.2</ele>
        <time>2018-03-20T12:00:07Z</time>
      </trkpt>
      <trkpt lat="62.656726309755" lon="17.845437507817">
        <ele>55.8</ele>
        <time>2018-03-20T12:00:08Z</time>
      </trkpt>
      <trkpt lat="62.65677785844" lon="17.845476818928">
        <ele>55.6</ele>
        <time>2018-03-20T12:00:09Z</time>
      </trkpt>
      <trkpt lat="62.656812643325" lon="17.845508083415">
        <ele>55.6</ele>
        <time>2018-03-20T12:00:10Z</time>
      </trkpt>
      <trkpt lat="62.656848769314" lon="17.845580335393">
        <ele>55.8</ele>
        <time>2018-03-20T12:00:11Z</time>
      </trkpt>
      <trkpt lat="62.656882380733" lon="17.845633309001">
        <ele>55.6</ele>
        <time>2018-03-20T12:00:12Z</time>
      </trkpt>
      <trkpt lat="62.656916327428" lon="17.845667171877">
        <ele>55.6</ele>
        <time>2018-03-20T12:00:13Z</time>
      </trkpt>
      <trkpt lat="62.656955722358" lon="17.845700196563">
        <ele>55.6</ele>
        <time>2018-03-20T12:00:14Z</time>
      </trkpt>
      <trkpt lat="62.656993608546" lon="17.845708243187">
        <ele>55.4</ele>
        <time>2018-03-20T12:00:15Z</time>
      </trkpt>
      <trkpt lat="62.657017496961" lon="17.845704890427">
        <ele>55.2</ele>
        <time>2018-03-20T12:00:16Z</time>
      </trkpt>
      <trkpt lat="62.657061585755" lon="17.845709500472">
        <ele>55</ele>
        <time>2018-03-20T12:00:17Z</time>
      </trkpt>
      <trkpt lat="62.65708882693" lon="17.845713691422">
        <ele>55</ele>
        <time>2018-03-20T12:00:18Z</time>
      </trkpt>
      <trkpt lat="62.657119672322" lon="17.845723414426">
        <ele>55.2</ele>
        <time>2018-03-20T12:00:19Z</time>
      </trkpt>
      <trkpt lat="62.657157390872" lon="17.84573900476">
        <ele>55.2</ele>
        <time>2018-03-20T12:00:20Z</time>
      </trkpt>
      <trkpt lat="62.657181279287" lon="17.845752583438">
        <ele>55.2</ele>
        <time>2018-03-20T12:00:21Z</time>
      </trkpt>
      <trkpt lat="62.657210615937" lon="17.845788374151">
        <ele>55.2</ele>
        <time>2018-03-20T12:00:22Z</time>
      </trkpt>
      <trkpt lat="62.657228972298" lon="17.845810167091">
        <ele>55.2</ele>
        <time>2018-03-20T12:00:23Z</time>
      </trkpt>
      <trkpt lat="62.657255375283" lon="17.84586221869">
        <ele>55.2</ele>
        <time>2018-03-20T12:00:24Z</time>
      </trkpt>
      <trkpt lat="62.657281275354" lon="17.845889292227">
        <ele>55.2</ele>
        <time>2018-03-20T12:00:25Z</time>
      </trkpt>
      <trkpt lat="62.657297787697" lon="17.845921562542">
        <ele>55.2</ele>
        <time>2018-03-20T12:00:26Z</time>
      </trkpt>
      <trkpt lat="62.657322011388" lon="17.845946372966">
        <ele>55.4</ele>
        <time>2018-03-20T12:00:27Z</time>
      </trkpt>
      <trkpt lat="62.657342547043" lon="17.845981409308">
        <ele>55.4</ele>
        <time>2018-03-20T12:00:28Z</time>
      </trkpt>
      <trkpt lat="62.657363250336" lon="17.846049051241">
        <ele>55.6</ele>
        <time>2018-03-20T12:00:29Z</time>
      </trkpt>
      <trkpt lat="62.657377415747" lon="17.846093475311">
        <ele>55.8</ele>
        <time>2018-03-20T12:00:30Z</time>
      </trkpt>
      <trkpt lat="62.657398035221" lon="17.846151980973">
        <ele>56</ele>
        <time>2018-03-20T12:00:31Z</time>
      </trkpt>
      <trkpt lat="62.657409686062" lon="17.846213001205">
        <ele>56.2</ele>
        <time>2018-03-20T12:00:32Z</time>
      </trkpt>
      <trkpt lat="62.657428210061" lon="17.846267483555">
        <ele>56.4</ele>
        <time>2018-03-20T12:00:33Z</time>
      </trkpt>
      <trkpt lat="62.657445728232" lon="17.84634669251">
        <ele>56.4</ele>
        <time>2018-03-20T12:00:34Z</time>
      </trkpt>
      <trkpt lat="62.657453858675" lon="17.846437803763">
        <ele>56.2</ele>
        <time>2018-03-20T12:00:35Z</time>
      </trkpt>
      <trkpt lat="62.65746936519" lon="17.846505026601">
        <ele>56.2</ele>
        <time>2018-03-20T12:00:36Z</time>
      </trkpt>
      <trkpt lat="62.657483027687" lon="17.846576021294">
        <ele>56.2</ele>
        <time>2018-03-20T12:00:37Z</time>
      </trkpt>
      <trkpt lat="62.657498869478" lon="17.846644669055">
        <ele>56</ele>
        <time>2018-03-20T12:00:38Z</time>
      </trkpt>
      <trkpt lat="62.65751211288" lon="17.846729577702">
        <ele>55.8</ele>
        <time>2018-03-20T12:00:39Z</time>
      </trkpt>
      <trkpt lat="62.657535163105" lon="17.846811552684">
        <ele>55.8</ele>
        <time>2018-03-20T12:00:40Z</time>
      </trkpt>
      <trkpt lat="62.65756575704" lon="17.846883637024">
        <ele>55.8</ele>
        <time>2018-03-20T12:00:41Z</time>
      </trkpt>
      <trkpt lat="62.657586041238" lon="17.846962007789">
        <ele>55.6</ele>
        <time>2018-03-20T12:00:42Z</time>
      </trkpt>
      <trkpt lat="62.657603810866" lon="17.847048089902">
        <ele>55.6</ele>
        <time>2018-03-20T12:00:43Z</time>
      </trkpt>
      <trkpt lat="62.657620658485" lon="17.84713878206">
        <ele>55.4</ele>
        <time>2018-03-20T12:00:44Z</time>
      </trkpt>
      <trkpt lat="62.65763951776" lon="17.847225283268">
        <ele>55.4</ele>
        <time>2018-03-20T12:00:45Z</time>
      </trkpt>
      <trkpt lat="62.657666172202" lon="17.847277670143">
        <ele>55.2</ele>
        <time>2018-03-20T12:00:46Z</time>
      </trkpt>
      <trkpt lat="62.657683355097" lon="17.847369451948">
        <ele>54.8</ele>
        <time>2018-03-20T12:00:47Z</time>
      </trkpt>
      <trkpt lat="62.657702046734" lon="17.847439440813">
        <ele>54.6</ele>
        <time>2018-03-20T12:00:48Z</time>
      </trkpt>
      <trkpt lat="62.657715625412" lon="17.847513033895">
        <ele>54.4</ele>
        <time>2018-03-20T12:00:49Z</time>
      </trkpt>
      <trkpt lat="62.657731802479" lon="17.84759727199">
        <ele>54.4</ele>
        <time>2018-03-20T12:00:50Z</time>
      </trkpt>
      <trkpt lat="62.657746722261" lon="17.847675810393">
        <ele>54.2</ele>
        <time>2018-03-20T12:00:51Z</time>
      </trkpt>
      <trkpt lat="62.657757367274" lon="17.847731130933">
        <ele>54.2</ele>
        <time>2018-03-20T12:00:52Z</time>
      </trkpt>
      <trkpt lat="62.657769688667" lon="17.847799946332">
        <ele>54.2</ele>
        <time>2018-03-20T12:00:53Z</time>
      </trkpt>
      <trkpt lat="62.657790056684" lon="17.847876724536">
        <ele>54.2</ele>
        <time>2018-03-20T12:00:54Z</time>
      </trkpt>
      <trkpt lat="62.657802042801" lon="17.847966746142">
        <ele>54</ele>
        <time>2018-03-20T12:00:55Z</time>
      </trkpt>
      <trkpt lat="62.657823751922" lon="17.848040171586">
        <ele>54</ele>
        <time>2018-03-20T12:00:56Z</time>
      </trkpt>
      <trkpt lat="62.657841605369" lon="17.84809515685">
        <ele>53.8</ele>
        <time>2018-03-20T12:00:57Z</time>
      </trkpt>
      <trkpt lat="62.657866164336" lon="17.848165313353">
        <ele>53.8</ele>
        <time>2018-03-20T12:00:58Z</time>
      </trkpt>
      <trkpt lat="62.657907403284" lon="17.848229351069">
        <ele>53.8</ele>
        <time>2018-03-20T12:00:59Z</time>
      </trkpt>
      <trkpt lat="62.65793456064" lon="17.848291628586">
        <ele>53.6</ele>
        <time>2018-03-20T12:01:00Z</time>
      </trkpt>
      <trkpt lat="62.657960376892" lon="17.84834996661">
        <ele>53.4</ele>
        <time>2018-03-20T12:01:01Z</time>
      </trkpt>
      <trkpt lat="62.657983594755" lon="17.848383158934">
        <ele>53.4</ele>
        <time>2018-03-20T12:01:02Z</time>
      </trkpt>
      <trkpt lat="62.658004800962" lon="17.848434539981">
        <ele>53.2</ele>
        <time>2018-03-20T12:01:03Z</time>
      </trkpt>
      <trkpt lat="62.658028857015" lon="17.848483993191">
        <ele>53.2</ele>
        <time>2018-03-20T12:01:04Z</time>
      </trkpt>
      <trkpt lat="62.658054086534" lon="17.848548450002">
        <ele>53.2</ele>
        <time>2018-03-20T12:01:05Z</time>
      </trkpt>
      <trkpt lat="62.658079399872" lon="17.84860561456">
        <ele>53.2</ele>
        <time>2018-03-20T12:01:06Z</time>
      </trkpt>
      <trkpt lat="62.658106724866" lon="17.848678117995">
        <ele>53</ele>
        <time>2018-03-20T12:01:07Z</time>
      </trkpt>
      <trkpt lat="62.65813404986" lon="17.848743412996">
        <ele>52.8</ele>
        <time>2018-03-20T12:01:08Z</time>
      </trkpt>
      <trkpt lat="62.658167996555" lon="17.848825471797">
        <ele>52.4</ele>
        <time>2018-03-20T12:01:09Z</time>
      </trkpt>
      <trkpt lat="62.658192555522" lon="17.848886743486">
        <ele>52.2</ele>
        <time>2018-03-20T12:01:10Z</time>
      </trkpt>
      <trkpt lat="62.658226083122" lon="17.848957151446">
        <ele>51.8</ele>
        <time>2018-03-20T12:01:11Z</time>
      </trkpt>
      <trkpt lat="62.658255922686" lon="17.849021692076">
        <ele>51.6</ele>
        <time>2018-03-20T12:01:12Z</time>
      </trkpt>
      <trkpt lat="62.658278805273" lon="17.849082963765">
        <ele>51.6</ele>
        <time>2018-03-20T12:01:13Z</time>
      </trkpt>
      <trkpt lat="62.658302190774" lon="17.849146163291">
        <ele>51.6</ele>
        <time>2018-03-20T12:01:14Z</time>
      </trkpt>
      <trkpt lat="62.658324486628" lon="17.849188408067">
        <ele>51.6</ele>
        <time>2018-03-20T12:01:15Z</time>
      </trkpt>
      <trkpt lat="62.658346363387" lon="17.849237023087">
        <ele>51.6</ele>
        <time>2018-03-20T12:01:16Z</time>
      </trkpt>
      <trkpt lat="62.658366647585" lon="17.849284297003">
        <ele>51.6</ele>
        <time>2018-03-20T12:01:17Z</time>
      </trkpt>
      <trkpt lat="62.658391793285" lon="17.849318578974">
        <ele>51.8</ele>
        <time>2018-03-20T12:01:18Z</time>
      </trkpt>
      <trkpt lat="62.658410233465" lon="17.849383371061">
        <ele>52</ele>
        <time>2018-03-20T12:01:19Z</time>
      </trkpt>
      <trkpt lat="62.65842657817" lon="17.849447492596">
        <ele>51.8</ele>
        <time>2018-03-20T12:01:20Z</time>
      </trkpt>
      <trkpt lat="62.65844585654" lon="17.849509015742">
        <ele>52</ele>
        <time>2018-03-20T12:01:21Z</time>
      </trkpt>
      <trkpt lat="62.65846345853" lon="17.849569113965">
        <ele>51.8</ele>
        <time>2018-03-20T12:01:22Z</time>
      </trkpt>
      <trkpt lat="62.658471337516" lon="17.849639270468">
        <ele>51.8</ele>
        <time>2018-03-20T12:01:23Z</time>
      </trkpt>
      <trkpt lat="62.658472930077" lon="17.849720323441">
        <ele>51.6</ele>
        <time>2018-03-20T12:01:24Z</time>
      </trkpt>
      <trkpt lat="62.658464548177" lon="17.849798861844">
        <ele>51.4</ele>
        <time>2018-03-20T12:01:25Z</time>
      </trkpt>
      <trkpt lat="62.658450215128" lon="17.849855942583">
        <ele>51.4</ele>
        <time>2018-03-20T12:01:26Z</time>
      </trkpt>
      <trkpt lat="62.6584324455" lon="17.849881423559">
        <ele>51</ele>
        <time>2018-03-20T12:01:27Z</time>
      </trkpt>
      <trkpt lat="62.6584156817" lon="17.849891733296">
        <ele>50.8</ele>
        <time>2018-03-20T12:01:28Z</time>
      </trkpt>
      <trkpt lat="62.658393469665" lon="17.849900115196">
        <ele>50.8</ele>
        <time>2018-03-20T12:01:29Z</time>
      </trkpt>
      <trkpt lat="62.65837796315" lon="17.849905731069">
        <ele>50.8</ele>
        <time>2018-03-20T12:01:30Z</time>
      </trkpt>
      <trkpt lat="62.658365222662" lon="17.849902545947">
        <ele>51</ele>
        <time>2018-03-20T12:01:31Z</time>
      </trkpt>
      <trkpt lat="62.658349129414" lon="17.849901875395">
        <ele>51.2</ele>
        <time>2018-03-20T12:01:32Z</time>
      </trkpt>
      <trkpt lat="62.658336472745" lon="17.849899696101">
        <ele>51.4</ele>
        <time>2018-03-20T12:01:33Z</time>
      </trkpt>
      <trkpt lat="62.658323816076" lon="17.849894415504">
        <ele>51.6</ele>
        <time>2018-03-20T12:01:34Z</time>
      </trkpt>
      <trkpt lat="62.658308309561" lon="17.84989139802">
        <ele>51.8</ele>
        <time>2018-03-20T12:01:35Z</time>
      </trkpt>
      <trkpt lat="62.658288528277" lon="17.84989223621">
        <ele>52</ele>
        <time>2018-03-20T12:01:36Z</time>
      </trkpt>
      <trkpt lat="62.658270758649" lon="17.8498930744">
        <ele>52</ele>
        <time>2018-03-20T12:01:37Z</time>
      </trkpt>
      <trkpt lat="62.658243685112" lon="17.849892822943">
        <ele>52.2</ele>
        <time>2018-03-20T12:01:38Z</time>
      </trkpt>
      <trkpt lat="62.658223568552" lon="17.849903216499">
        <ele>52.4</ele>
        <time>2018-03-20T12:01:39Z</time>
      </trkpt>
      <trkpt lat="62.658196327377" lon="17.849905982526">
        <ele>52.6</ele>
        <time>2018-03-20T12:01:40Z</time>
      </trkpt>
      <trkpt lat="62.658164140881" lon="17.849912939503">
        <ele>52.6</ele>
        <time>2018-03-20T12:01:41Z</time>
      </trkpt>
      <trkpt lat="62.658149221099" lon="17.849916208444">
        <ele>52.6</ele>
        <time>2018-03-20T12:01:42Z</time>
      </trkpt>
      <trkpt lat="62.658117034603" lon="17.849915286435">
        <ele>52.8</ele>
        <time>2018-03-20T12:01:43Z</time>
      </trkpt>
      <trkpt lat="62.658089374333" lon="17.849927607828">
        <ele>52.8</ele>
        <time>2018-03-20T12:01:44Z</time>
      </trkpt>
      <trkpt lat="62.658067916669" lon="17.84993163114">
        <ele>52.8</ele>
        <time>2018-03-20T12:01:45Z</time>
      </trkpt>
      <trkpt lat="62.658034053793" lon="17.849932888425">
        <ele>52.8</ele>
        <time>2018-03-20T12:01:46Z</time>
      </trkpt>
      <trkpt lat="62.658011003568" lon="17.849941605601">
        <ele>52.8</ele>
        <time>2018-03-20T12:01:47Z</time>
      </trkpt>
      <trkpt lat="62.657983846212" lon="17.849940515954">
        <ele>52.8</ele>
        <time>2018-03-20T12:01:48Z</time>
      </trkpt>
      <trkpt lat="62.657952833182" lon="17.849939929221">
        <ele>52.8</ele>
        <time>2018-03-20T12:01:49Z</time>
      </trkpt>
      <trkpt lat="62.657926346378" lon="17.849945125999">
        <ele>52.8</ele>
        <time>2018-03-20T12:01:50Z</time>
      </trkpt>
      <trkpt lat="62.657906648913" lon="17.849944120171">
        <ele>52.8</ele>
        <time>2018-03-20T12:01:51Z</time>
      </trkpt>
      <trkpt lat="62.657886280896" lon="17.849937666108">
        <ele>53</ele>
        <time>2018-03-20T12:01:52Z</time>
      </trkpt>
      <trkpt lat="62.657868259811" lon="17.849930122398">
        <ele>53</ele>
        <time>2018-03-20T12:01:53Z</time>
      </trkpt>
      <trkpt lat="62.657848897622" lon="17.849919812661">
        <ele>53.2</ele>
        <time>2018-03-20T12:01:54Z</time>
      </trkpt>
      <trkpt lat="62.657832050003" lon="17.849906569259">
        <ele>53.6</ele>
        <time>2018-03-20T12:01:55Z</time>
      </trkpt>
      <trkpt lat="62.657816543488" lon="17.849898857911">
        <ele>53.8</ele>
        <time>2018-03-20T12:01:56Z</time>
      </trkpt>
      <trkpt lat="62.657801120792" lon="17.849888631993">
        <ele>54.2</ele>
        <time>2018-03-20T12:01:57Z</time>
      </trkpt>
      <trkpt lat="62.657785530458" lon="17.849879411903">
        <ele>54.6</ele>
        <time>2018-03-20T12:01:58Z</time>
      </trkpt>
      <trkpt lat="62.657767593192" lon="17.849866084682">
        <ele>54.8</ele>
        <time>2018-03-20T12:01:59Z</time>
      </trkpt>
      <trkpt lat="62.657750410297" lon="17.84986289956">
        <ele>55</ele>
        <time>2018-03-20T12:02:00Z</time>
      </trkpt>
      <trkpt lat="62.657728784995" lon="17.849854685298">
        <ele>55.2</ele>
        <time>2018-03-20T12:02:01Z</time>
      </trkpt>
      <trkpt lat="62.657703304019" lon="17.849855104393">
        <ele>55.4</ele>
        <time>2018-03-20T12:02:02Z</time>
      </trkpt>
      <trkpt lat="62.657686707857" lon="17.849860301171">
        <ele>55.4</ele>
        <time>2018-03-20T12:02:03Z</time>
      </trkpt>
      <trkpt lat="62.657663489994" lon="17.84986038499">
        <ele>55.6</ele>
        <time>2018-03-20T12:02:04Z</time>
      </trkpt>
      <trkpt lat="62.657637170828" lon="17.849862480465">
        <ele>55.6</ele>
        <time>2018-03-20T12:02:05Z</time>
      </trkpt>
      <trkpt lat="62.657617138087" lon="17.849866839053">
        <ele>55.6</ele>
        <time>2018-03-20T12:02:06Z</time>
      </trkpt>
      <trkpt lat="62.657600206649" lon="17.849872035831">
        <ele>55.6</ele>
        <time>2018-03-20T12:02:07Z</time>
      </trkpt>
      <trkpt lat="62.657575480044" lon="17.849875640048">
        <ele>55.6</ele>
        <time>2018-03-20T12:02:08Z</time>
      </trkpt>
      <trkpt lat="62.65755402238" lon="17.849881926473">
        <ele>55.8</ele>
        <time>2018-03-20T12:02:09Z</time>
      </trkpt>
      <trkpt lat="62.657535079286" lon="17.849886285061">
        <ele>55.8</ele>
        <time>2018-03-20T12:02:10Z</time>
      </trkpt>
      <trkpt lat="62.657516471468" lon="17.849896008065">
        <ele>56</ele>
        <time>2018-03-20T12:02:11Z</time>
      </trkpt>
      <trkpt lat="62.657499959125" lon="17.849903551775">
        <ele>56.2</ele>
        <time>2018-03-20T12:02:12Z</time>
      </trkpt>
      <trkpt lat="62.657483195325" lon="17.849909083829">
        <ele>56.6</ele>
        <time>2018-03-20T12:02:13Z</time>
      </trkpt>
      <trkpt lat="62.657468694638" lon="17.849911179304">
        <ele>56.8</ele>
        <time>2018-03-20T12:02:14Z</time>
      </trkpt>
      <trkpt lat="62.657457127616" lon="17.849919225928">
        <ele>57</ele>
        <time>2018-03-20T12:02:15Z</time>
      </trkpt>
      <trkpt lat="62.657449751544" lon="17.849919561204">
        <ele>57.2</ele>
        <time>2018-03-20T12:02:16Z</time>
      </trkpt>
      <trkpt lat="62.657434664124" lon="17.849922662507">
        <ele>57.4</ele>
        <time>2018-03-20T12:02:17Z</time>
      </trkpt>
      <trkpt lat="62.657424522025" lon="17.84992157286">
        <ele>57.8</ele>
        <time>2018-03-20T12:02:18Z</time>
      </trkpt>
      <trkpt lat="62.657411781537" lon="17.849926937276">
        <ele>58</ele>
        <time>2018-03-20T12:02:19Z</time>
      </trkpt>
      <trkpt lat="62.657404740741" lon="17.849930457674">
        <ele>58.2</ele>
        <time>2018-03-20T12:02:20Z</time>
      </trkpt>
      <trkpt lat="62.657394347185" lon="17.849934313348">
        <ele>58.4</ele>
        <time>2018-03-20T12:02:21Z</time>
      </trkpt>
      <trkpt lat="62.657380768507" lon="17.849938839574">
        <ele>58.8</ele>
        <time>2018-03-20T12:02:22Z</time>
      </trkpt>
      <trkpt lat="62.657367273648" lon="17.8499433658">
        <ele>59</ele>
        <time>2018-03-20T12:02:23Z</time>
      </trkpt>
      <trkpt lat="62.657351348038" lon="17.849951831519">
        <ele>59.2</ele>
        <time>2018-03-20T12:02:24Z</time>
      </trkpt>
      <trkpt lat="62.657336176799" lon="17.849962057437">
        <ele>59.6</ele>
        <time>2018-03-20T12:02:25Z</time>
      </trkpt>
      <trkpt lat="62.657321340836" lon="17.84997102607">
        <ele>59.8</ele>
        <time>2018-03-20T12:02:26Z</time>
      </trkpt>
      <trkpt lat="62.657308348891" lon="17.849978234504">
        <ele>60</ele>
        <time>2018-03-20T12:02:27Z</time>
      </trkpt>
      <trkpt lat="62.657296027498" lon="17.849984101834">
        <ele>60</ele>
        <time>2018-03-20T12:02:28Z</time>
      </trkpt>
      <trkpt lat="62.657283957562" lon="17.849991477906">
        <ele>60.2</ele>
        <time>2018-03-20T12:02:29Z</time>
      </trkpt>
      <trkpt lat="62.657271049436" lon="17.849998267245">
        <ele>60.4</ele>
        <time>2018-03-20T12:02:30Z</time>
      </trkpt>
      <trkpt lat="62.657257386939" lon="17.850004721308">
        <ele>60.4</ele>
        <time>2018-03-20T12:02:31Z</time>
      </trkpt>
      <trkpt lat="62.657242718614" lon="17.850013522303">
        <ele>60.6</ele>
        <time>2018-03-20T12:02:32Z</time>
      </trkpt>
      <trkpt lat="62.657229810488" lon="17.850026178972">
        <ele>60.8</ele>
        <time>2018-03-20T12:02:33Z</time>
      </trkpt>
      <trkpt lat="62.65721790819" lon="17.850036991623">
        <ele>61.2</ele>
        <time>2018-03-20T12:02:34Z</time>
      </trkpt>
      <trkpt lat="62.657206592625" lon="17.850049480654">
        <ele>61.4</ele>
        <time>2018-03-20T12:02:35Z</time>
      </trkpt>
      <trkpt lat="62.657194522689" lon="17.85005987421">
        <ele>61.8</ele>
        <time>2018-03-20T12:02:36Z</time>
      </trkpt>
      <trkpt lat="62.65718018964" lon="17.850070603042">
        <ele>62.2</ele>
        <time>2018-03-20T12:02:37Z</time>
      </trkpt>
      <trkpt lat="62.657166862419" lon="17.850081331874">
        <ele>62.2</ele>
        <time>2018-03-20T12:02:38Z</time>
      </trkpt>
      <trkpt lat="62.657152697008" lon="17.850095581104">
        <ele>62.6</ele>
        <time>2018-03-20T12:02:39Z</time>
      </trkpt>
      <trkpt lat="62.657138196321" lon="17.850108992144">
        <ele>62.8</ele>
        <time>2018-03-20T12:02:40Z</time>
      </trkpt>
      <trkpt lat="62.657128892412" lon="17.850118631329">
        <ele>62.8</ele>
        <time>2018-03-20T12:02:41Z</time>
      </trkpt>
      <trkpt lat="62.65712235453" lon="17.850140843364">
        <ele>62.8</ele>
        <time>2018-03-20T12:02:42Z</time>
      </trkpt>
      <trkpt lat="62.657114475544" lon="17.850152829481">
        <ele>63.2</ele>
        <time>2018-03-20T12:02:43Z</time>
      </trkpt>
      <trkpt lat="62.657105926006" lon="17.850165067055">
        <ele>63.4</ele>
        <time>2018-03-20T12:02:44Z</time>
      </trkpt>
      <trkpt lat="62.657097125011" lon="17.850174790059">
        <ele>63.6</ele>
        <time>2018-03-20T12:02:45Z</time>
      </trkpt>
      <trkpt lat="62.657087569645" lon="17.850185015977">
        <ele>64</ele>
        <time>2018-03-20T12:02:46Z</time>
      </trkpt>
      <trkpt lat="62.657073907148" lon="17.850190464212">
        <ele>64.2</ele>
        <time>2018-03-20T12:02:47Z</time>
      </trkpt>
      <trkpt lat="62.65706451942" lon="17.850204126709">
        <ele>64.4</ele>
        <time>2018-03-20T12:02:48Z</time>
      </trkpt>
      <trkpt lat="62.657051778932" lon="17.850209239668">
        <ele>64.8</ele>
        <time>2018-03-20T12:02:49Z</time>
      </trkpt>
      <trkpt lat="62.657035518046" lon="17.850210999867">
        <ele>65</ele>
        <time>2018-03-20T12:02:50Z</time>
      </trkpt>
      <trkpt lat="62.657021939368" lon="17.850214017351">
        <ele>65.2</ele>
        <time>2018-03-20T12:02:51Z</time>
      </trkpt>
      <trkpt lat="62.657005762301" lon="17.850213933532">
        <ele>65.6</ele>
        <time>2018-03-20T12:02:52Z</time>
      </trkpt>
      <trkpt lat="62.656991261614" lon="17.850211418962">
        <ele>65.6</ele>
        <time>2018-03-20T12:02:53Z</time>
      </trkpt>
      <trkpt lat="62.656977850574" lon="17.850210916048">
        <ele>65.8</ele>
        <time>2018-03-20T12:02:54Z</time>
      </trkpt>
      <trkpt lat="62.656962008783" lon="17.850212508609">
        <ele>66.2</ele>
        <time>2018-03-20T12:02:55Z</time>
      </trkpt>
      <trkpt lat="62.656948933019" lon="17.850216280464">
        <ele>66.2</ele>
        <time>2018-03-20T12:02:56Z</time>
      </trkpt>
      <trkpt lat="62.65693543816" lon="17.850214017351">
        <ele>66.6</ele>
        <time>2018-03-20T12:02:57Z</time>
      </trkpt>
      <trkpt lat="62.656919093455" lon="17.850210329315">
        <ele>66.8</ele>
        <time>2018-03-20T12:02:58Z</time>
      </trkpt>
      <trkpt lat="62.656897971067" lon="17.8502032047">
        <ele>67</ele>
        <time>2018-03-20T12:02:59Z</time>
      </trkpt>
      <trkpt lat="62.656884057113" lon="17.850198259379">
        <ele>67</ele>
        <time>2018-03-20T12:03:00Z</time>
      </trkpt>
      <trkpt lat="62.656869891702" lon="17.85019649918">
        <ele>67.2</ele>
        <time>2018-03-20T12:03:01Z</time>
      </trkpt>
      <trkpt lat="62.656850948608" lon="17.850188284918">
        <ele>67</ele>
        <time>2018-03-20T12:03:02Z</time>
      </trkpt>
      <trkpt lat="62.656832927523" lon="17.850180657389">
        <ele>67.2</ele>
        <time>2018-03-20T12:03:03Z</time>
      </trkpt>
      <trkpt lat="62.656817421008" lon="17.850174370964">
        <ele>67.2</ele>
        <time>2018-03-20T12:03:04Z</time>
      </trkpt>
      <trkpt lat="62.656802249769" lon="17.850172443127">
        <ele>67.4</ele>
        <time>2018-03-20T12:03:05Z</time>
      </trkpt>
      <trkpt lat="62.656789509281" lon="17.850172778403">
        <ele>67.6</ele>
        <time>2018-03-20T12:03:06Z</time>
      </trkpt>
      <trkpt lat="62.656771488196" lon="17.850167078711">
        <ele>67.8</ele>
        <time>2018-03-20T12:03:07Z</time>
      </trkpt>
      <trkpt lat="62.656745252849" lon="17.850160540829">
        <ele>68</ele>
        <time>2018-03-20T12:03:08Z</time>
      </trkpt>
      <trkpt lat="62.656723795185" lon="17.85015878063">
        <ele>68.2</ele>
        <time>2018-03-20T12:03:09Z</time>
      </trkpt>
      <trkpt lat="62.656706360833" lon="17.850158529173">
        <ele>68.2</ele>
        <time>2018-03-20T12:03:10Z</time>
      </trkpt>
      <trkpt lat="62.656675431622" lon="17.850158529173">
        <ele>68.4</ele>
        <time>2018-03-20T12:03:11Z</time>
      </trkpt>
      <trkpt lat="62.656659841288" lon="17.850160876105">
        <ele>68.2</ele>
        <time>2018-03-20T12:03:12Z</time>
      </trkpt>
      <trkpt lat="62.65664039528" lon="17.850163725951">
        <ele>68.2</ele>
        <time>2018-03-20T12:03:13Z</time>
      </trkpt>
      <trkpt lat="62.656619189073" lon="17.850159786458">
        <ele>68.4</ele>
        <time>2018-03-20T12:03:14Z</time>
      </trkpt>
      <trkpt lat="62.656600497436" lon="17.850159115906">
        <ele>68.4</ele>
        <time>2018-03-20T12:03:15Z</time>
      </trkpt>
      <trkpt lat="62.656585242378" lon="17.850159283544">
        <ele>68.6</ele>
        <time>2018-03-20T12:03:16Z</time>
      </trkpt>
      <trkpt lat="62.65656831094" lon="17.850165150874">
        <ele>68.8</ele>
        <time>2018-03-20T12:03:17Z</time>
      </trkpt>
      <trkpt lat="62.656546350362" lon="17.850166072883">
        <ele>69</ele>
        <time>2018-03-20T12:03:18Z</time>
      </trkpt>
      <trkpt lat="62.656519444463" lon="17.850169760919">
        <ele>69.2</ele>
        <time>2018-03-20T12:03:19Z</time>
      </trkpt>
      <trkpt lat="62.656500249912" lon="17.850179064828">
        <ele>69.4</ele>
        <time>2018-03-20T12:03:20Z</time>
      </trkpt>
      <trkpt lat="62.656472086728" lon="17.850191972954">
        <ele>69.2</ele>
        <time>2018-03-20T12:03:21Z</time>
      </trkpt>
      <trkpt lat="62.656445264648" lon="17.850203372338">
        <ele>69.2</ele>
        <time>2018-03-20T12:03:22Z</time>
      </trkpt>
      <trkpt lat="62.656433027074" lon="17.850220219957">
        <ele>69.2</ele>
        <time>2018-03-20T12:03:23Z</time>
      </trkpt>
      <trkpt lat="62.65640486389" lon="17.850237486671">
        <ele>69.2</ele>
        <time>2018-03-20T12:03:24Z</time>
      </trkpt>
      <trkpt lat="62.656387513357" lon="17.850250897711">
        <ele>69.2</ele>
        <time>2018-03-20T12:03:25Z</time>
      </trkpt>
      <trkpt lat="62.656367396797" lon="17.85026858352">
        <ele>69.2</ele>
        <time>2018-03-20T12:03:26Z</time>
      </trkpt>
      <trkpt lat="62.656348453703" lon="17.850285850234">
        <ele>69.4</ele>
        <time>2018-03-20T12:03:27Z</time>
      </trkpt>
      <trkpt lat="62.65633194136" lon="17.850309738649">
        <ele>69.4</ele>
        <time>2018-03-20T12:03:28Z</time>
      </trkpt>
      <trkpt lat="62.656314758465" lon="17.850322395318">
        <ele>69.8</ele>
        <time>2018-03-20T12:03:29Z</time>
      </trkpt>
      <trkpt lat="62.656302520891" lon="17.850332202141">
        <ele>70</ele>
        <time>2018-03-20T12:03:30Z</time>
      </trkpt>
      <trkpt lat="62.656293719896" lon="17.850343014792">
        <ele>70.2</ele>
        <time>2018-03-20T12:03:31Z</time>
      </trkpt>
      <trkpt lat="62.656280979408" lon="17.850358018393">
        <ele>70.6</ele>
        <time>2018-03-20T12:03:32Z</time>
      </trkpt>
      <trkpt lat="62.656269999119" lon="17.850363801904">
        <ele>70.8</ele>
        <time>2018-03-20T12:03:33Z</time>
      </trkpt>
      <trkpt lat="62.656257761545" lon="17.85037587184">
        <ele>71</ele>
        <time>2018-03-20T12:03:34Z</time>
      </trkpt>
      <trkpt lat="62.656240913926" lon="17.850390037251">
        <ele>71.2</ele>
        <time>2018-03-20T12:03:35Z</time>
      </trkpt>
      <trkpt lat="62.656225826506" lon="17.850405459947">
        <ele>71.4</ele>
        <time>2018-03-20T12:03:36Z</time>
      </trkpt>
      <trkpt lat="62.656214846217" lon="17.850417026969">
        <ele>71.8</ele>
        <time>2018-03-20T12:03:37Z</time>
      </trkpt>
      <trkpt lat="62.656205626127" lon="17.850431779113">
        <ele>71.8</ele>
        <time>2018-03-20T12:03:38Z</time>
      </trkpt>
      <trkpt lat="62.656193472372" lon="17.850447788542">
        <ele>72.2</ele>
        <time>2018-03-20T12:03:39Z</time>
      </trkpt>
      <trkpt lat="62.656182240626" lon="17.850459523202">
        <ele>72.6</ele>
        <time>2018-03-20T12:03:40Z</time>
      </trkpt>
      <trkpt lat="62.656167069387" lon="17.850473856251">
        <ele>73</ele>
        <time>2018-03-20T12:03:41Z</time>
      </trkpt>
      <trkpt lat="62.656153323071" lon="17.850487770205">
        <ele>73.4</ele>
        <time>2018-03-20T12:03:42Z</time>
      </trkpt>
      <trkpt lat="62.656139912031" lon="17.850501013607">
        <ele>73.8</ele>
        <time>2018-03-20T12:03:43Z</time>
      </trkpt>
      <trkpt lat="62.656126668629" lon="17.850518447959">
        <ele>74</ele>
        <time>2018-03-20T12:03:44Z</time>
      </trkpt>
      <trkpt lat="62.656113592865" lon="17.850534373569">
        <ele>74.2</ele>
        <time>2018-03-20T12:03:45Z</time>
      </trkpt>
      <trkpt lat="62.656100852377" lon="17.850549544808">
        <ele>74.4</ele>
        <time>2018-03-20T12:03:46Z</time>
      </trkpt>
      <trkpt lat="62.656086519328" lon="17.850563458762">
        <ele>74.6</ele>
        <time>2018-03-20T12:03:47Z</time>
      </trkpt>
      <trkpt lat="62.656072773012" lon="17.850581815123">
        <ele>74.6</ele>
        <time>2018-03-20T12:03:48Z</time>
      </trkpt>
      <trkpt lat="62.656056595945" lon="17.850605200624">
        <ele>74.8</ele>
        <time>2018-03-20T12:03:49Z</time>
      </trkpt>
      <trkpt lat="62.656042262896" lon="17.850613833981">
        <ele>75</ele>
        <time>2018-03-20T12:03:50Z</time>
      </trkpt>
      <trkpt lat="62.656028265123" lon="17.850631435971">
        <ele>75.2</ele>
        <time>2018-03-20T12:03:51Z</time>
      </trkpt>
      <trkpt lat="62.656011585142" lon="17.850646355753">
        <ele>75.2</ele>
        <time>2018-03-20T12:03:52Z</time>
      </trkpt>
      <trkpt lat="62.655996330084" lon="17.850664628295">
        <ele>75.4</ele>
        <time>2018-03-20T12:03:53Z</time>
      </trkpt>
      <trkpt lat="62.65597990156" lon="17.850684409579">
        <ele>75.6</ele>
        <time>2018-03-20T12:03:54Z</time>
      </trkpt>
      <trkpt lat="62.65596481414" lon="17.850711315478">
        <ele>75.8</ele>
        <time>2018-03-20T12:03:55Z</time>
      </trkpt>
      <trkpt lat="62.655950397272" lon="17.850729839477">
        <ele>75.8</ele>
        <time>2018-03-20T12:03:56Z</time>
      </trkpt>
      <trkpt lat="62.655938411155" lon="17.850744256345">
        <ele>76</ele>
        <time>2018-03-20T12:03:57Z</time>
      </trkpt>
      <trkpt lat="62.655926173581" lon="17.850760936326">
        <ele>76.2</ele>
        <time>2018-03-20T12:03:58Z</time>
      </trkpt>
      <trkpt lat="62.655910667066" lon="17.850779292687">
        <ele>76.4</ele>
        <time>2018-03-20T12:03:59Z</time>
      </trkpt>
      <trkpt lat="62.655898513311" lon="17.850797397591">
        <ele>76.8</ele>
        <time>2018-03-20T12:04:00Z</time>
      </trkpt>
      <trkpt lat="62.655885269909" lon="17.850813909934">
        <ele>77</ele>
        <time>2018-03-20T12:04:01Z</time>
      </trkpt>
      <trkpt lat="62.655872948516" lon="17.850827740069">
        <ele>77.2</ele>
        <time>2018-03-20T12:04:02Z</time>
      </trkpt>
      <trkpt lat="62.655861213856" lon="17.850838720358">
        <ele>77.4</ele>
        <time>2018-03-20T12:04:03Z</time>
      </trkpt>
      <trkpt lat="62.655849898291" lon="17.85085447833">
        <ele>77.6</ele>
        <time>2018-03-20T12:04:04Z</time>
      </trkpt>
      <trkpt lat="62.655840007649" lon="17.850875516899">
        <ele>77.8</ele>
        <time>2018-03-20T12:04:05Z</time>
      </trkpt>
      <trkpt lat="62.655828859722" lon="17.850890101405">
        <ele>78</ele>
        <time>2018-03-20T12:04:06Z</time>
      </trkpt>
      <trkpt lat="62.655818382347" lon="17.850907368119">
        <ele>78.2</ele>
        <time>2018-03-20T12:04:07Z</time>
      </trkpt>
      <trkpt lat="62.655809246076" lon="17.850925137747">
        <ele>78.4</ele>
        <time>2018-03-20T12:04:08Z</time>
      </trkpt>
      <trkpt lat="62.655799523072" lon="17.850943745565">
        <ele>78.8</ele>
        <time>2018-03-20T12:04:09Z</time>
      </trkpt>
      <trkpt lat="62.655792063181" lon="17.850960341727">
        <ele>79</ele>
        <time>2018-03-20T12:04:10Z</time>
      </trkpt>
      <trkpt lat="62.655781921082" lon="17.850980123011">
        <ele>79.2</ele>
        <time>2018-03-20T12:04:11Z</time>
      </trkpt>
      <trkpt lat="62.655774042096" lon="17.850997305906">
        <ele>79.4</ele>
        <time>2018-03-20T12:04:12Z</time>
      </trkpt>
      <trkpt lat="62.655757613572" lon="17.851018847389">
        <ele>79.6</ele>
        <time>2018-03-20T12:04:13Z</time>
      </trkpt>
      <trkpt lat="62.65574269379" lon="17.851040807967">
        <ele>79.8</ele>
        <time>2018-03-20T12:04:14Z</time>
      </trkpt>
      <trkpt lat="62.655727271094" lon="17.851062517088">
        <ele>80</ele>
        <time>2018-03-20T12:04:15Z</time>
      </trkpt>
      <trkpt lat="62.655711932217" lon="17.851084645304">
        <ele>80.4</ele>
        <time>2018-03-20T12:04:16Z</time>
      </trkpt>
      <trkpt lat="62.655699191729" lon="17.851106354425">
        <ele>80.6</ele>
        <time>2018-03-20T12:04:17Z</time>
      </trkpt>
      <trkpt lat="62.655686786517" lon="17.851127895908">
        <ele>80.8</ele>
        <time>2018-03-20T12:04:18Z</time>
      </trkpt>
      <trkpt lat="62.655662395188" lon="17.851161758784">
        <ele>81</ele>
        <time>2018-03-20T12:04:19Z</time>
      </trkpt>
      <trkpt lat="62.655644122646" lon="17.851186820665">
        <ele>81</ele>
        <time>2018-03-20T12:04:20Z</time>
      </trkpt>
      <trkpt lat="62.655624928095" lon="17.851209200338">
        <ele>81</ele>
        <time>2018-03-20T12:04:21Z</time>
      </trkpt>
      <trkpt lat="62.655607074648" lon="17.851236357694">
        <ele>81</ele>
        <time>2018-03-20T12:04:22Z</time>
      </trkpt>
      <trkpt lat="62.655593915065" lon="17.851261084299">
        <ele>81</ele>
        <time>2018-03-20T12:04:23Z</time>
      </trkpt>
      <trkpt lat="62.655574720514" lon="17.851280446488">
        <ele>80.8</ele>
        <time>2018-03-20T12:04:24Z</time>
      </trkpt>
      <trkpt lat="62.655547646977" lon="17.85130458636">
        <ele>81</ele>
        <time>2018-03-20T12:04:25Z</time>
      </trkpt>
      <trkpt lat="62.655531134634" lon="17.851316740115">
        <ele>81</ele>
        <time>2018-03-20T12:04:26Z</time>
      </trkpt>
      <trkpt lat="62.655517472137" lon="17.851344065109">
        <ele>81.2</ele>
        <time>2018-03-20T12:04:27Z</time>
      </trkpt>
      <trkpt lat="62.655501211251" lon="17.851362002375">
        <ele>81.2</ele>
        <time>2018-03-20T12:04:28Z</time>
      </trkpt>
      <trkpt lat="62.655484698908" lon="17.851387399532">
        <ele>81.4</ele>
        <time>2018-03-20T12:04:29Z</time>
      </trkpt>
      <trkpt lat="62.655472293696" lon="17.851406594083">
        <ele>81.8</ele>
        <time>2018-03-20T12:04:30Z</time>
      </trkpt>
      <trkpt lat="62.655461564864" lon="17.851423693159">
        <ele>82</ele>
        <time>2018-03-20T12:04:31Z</time>
      </trkpt>
      <trkpt lat="62.655451255127" lon="17.8514437259">
        <ele>82.2</ele>
        <time>2018-03-20T12:04:32Z</time>
      </trkpt>
      <trkpt lat="62.655439939562" lon="17.851459902967">
        <ele>82.4</ele>
        <time>2018-03-20T12:04:33Z</time>
      </trkpt>
      <trkpt lat="62.655425103599" lon="17.851484378115">
        <ele>82.6</ele>
        <time>2018-03-20T12:04:34Z</time>
      </trkpt>
      <trkpt lat="62.655409429446" lon="17.851511870747">
        <ele>82.8</ele>
        <time>2018-03-20T12:04:35Z</time>
      </trkpt>
      <trkpt lat="62.655394761121" lon="17.851529808013">
        <ele>83</ele>
        <time>2018-03-20T12:04:36Z</time>
      </trkpt>
      <trkpt lat="62.655379925158" lon="17.851552020048">
        <ele>83.2</ele>
        <time>2018-03-20T12:04:37Z</time>
      </trkpt>
      <trkpt lat="62.655366011204" lon="17.851569286762">
        <ele>83.2</ele>
        <time>2018-03-20T12:04:38Z</time>
      </trkpt>
      <trkpt lat="62.6553562882" lon="17.851594683919">
        <ele>83.4</ele>
        <time>2018-03-20T12:04:39Z</time>
      </trkpt>
      <trkpt lat="62.655339775857" lon="17.851619997257">
        <ele>83.4</ele>
        <time>2018-03-20T12:04:40Z</time>
      </trkpt>
      <trkpt lat="62.6553227606" lon="17.851647238432">
        <ele>83.6</ele>
        <time>2018-03-20T12:04:41Z</time>
      </trkpt>
      <trkpt lat="62.655309684836" lon="17.851674563426">
        <ele>83.6</ele>
        <time>2018-03-20T12:04:42Z</time>
      </trkpt>
      <trkpt lat="62.655289400638" lon="17.851716305288">
        <ele>83.8</ele>
        <time>2018-03-20T12:04:43Z</time>
      </trkpt>
      <trkpt lat="62.655268110612" lon="17.851754610571">
        <ele>83.8</ele>
        <time>2018-03-20T12:04:44Z</time>
      </trkpt>
      <trkpt lat="62.655251765907" lon="17.851785539782">
        <ele>83.6</ele>
        <time>2018-03-20T12:04:45Z</time>
      </trkpt>
      <trkpt lat="62.655233744822" lon="17.851813451509">
        <ele>83.8</ele>
        <time>2018-03-20T12:04:46Z</time>
      </trkpt>
      <trkpt lat="62.655206168371" lon="17.851856366837">
        <ele>83.6</ele>
        <time>2018-03-20T12:04:47Z</time>
      </trkpt>
      <trkpt lat="62.655189320752" lon="17.851895845586">
        <ele>83.4</ele>
        <time>2018-03-20T12:04:48Z</time>
      </trkpt>
      <trkpt lat="62.655170796753" lon="17.851929205548">
        <ele>83.2</ele>
        <time>2018-03-20T12:04:49Z</time>
      </trkpt>
      <trkpt lat="62.655159481188" lon="17.851954937981">
        <ele>83.4</ele>
        <time>2018-03-20T12:04:50Z</time>
      </trkpt>
      <trkpt lat="62.655141124827" lon="17.851990980151">
        <ele>83.2</ele>
        <time>2018-03-20T12:04:51Z</time>
      </trkpt>
      <trkpt lat="62.655127546149" lon="17.852016880222">
        <ele>83.4</ele>
        <time>2018-03-20T12:04:52Z</time>
      </trkpt>
      <trkpt lat="62.655111285263" lon="17.852060214645">
        <ele>83.6</ele>
        <time>2018-03-20T12:04:53Z</time>
      </trkpt>
      <trkpt lat="62.655083708812" lon="17.852092317322">
        <ele>83.6</ele>
        <time>2018-03-20T12:04:54Z</time>
      </trkpt>
      <trkpt lat="62.655067280288" lon="17.852141686713">
        <ele>83.8</ele>
        <time>2018-03-20T12:04:55Z</time>
      </trkpt>
      <trkpt lat="62.655064430442" lon="17.852183763851">
        <ele>84</ele>
        <time>2018-03-20T12:04:56Z</time>
      </trkpt>
      <trkpt lat="62.655045403529" lon="17.852243191522">
        <ele>83.8</ele>
        <time>2018-03-20T12:04:57Z</time>
      </trkpt>
      <trkpt lat="62.655043391873" lon="17.852292057999">
        <ele>84</ele>
        <time>2018-03-20T12:04:58Z</time>
      </trkpt>
      <trkpt lat="62.655036602534" lon="17.85235651481">
        <ele>84</ele>
        <time>2018-03-20T12:04:59Z</time>
      </trkpt>
      <trkpt lat="62.65502520315" lon="17.852418708508">
        <ele>84</ele>
        <time>2018-03-20T12:05:00Z</time>
      </trkpt>
      <trkpt lat="62.65502017401" lon="17.852482159491">
        <ele>84</ele>
        <time>2018-03-20T12:05:01Z</time>
      </trkpt>
      <trkpt lat="62.655011373015" lon="17.85256019498">
        <ele>84.2</ele>
        <time>2018-03-20T12:05:02Z</time>
      </trkpt>
      <trkpt lat="62.655007852617" lon="17.852630686759">
        <ele>84</ele>
        <time>2018-03-20T12:05:03Z</time>
      </trkpt>
      <trkpt lat="62.65500508659" lon="17.852711655913">
        <ele>84</ele>
        <time>2018-03-20T12:05:04Z</time>
      </trkpt>
      <trkpt lat="62.654997375242" lon="17.852793463257">
        <ele>84</ele>
        <time>2018-03-20T12:05:05Z</time>
      </trkpt>
      <trkpt lat="62.654995447405" lon="17.852851466005">
        <ele>83.8</ele>
        <time>2018-03-20T12:05:06Z</time>
      </trkpt>
      <trkpt lat="62.654984550935" lon="17.85292983677">
        <ele>83.6</ele>
        <time>2018-03-20T12:05:07Z</time>
      </trkpt>
      <trkpt lat="62.654986227315" lon="17.852986079319">
        <ele>83.4</ele>
        <time>2018-03-20T12:05:08Z</time>
      </trkpt>
      <trkpt lat="62.654985472944" lon="17.853048775931">
        <ele>83.2</ele>
        <time>2018-03-20T12:05:09Z</time>
      </trkpt>
      <trkpt lat="62.654975163207" lon="17.853101078987">
        <ele>83</ele>
        <time>2018-03-20T12:05:10Z</time>
      </trkpt>
      <trkpt lat="62.654960913977" lon="17.853154387871">
        <ele>83</ele>
        <time>2018-03-20T12:05:11Z</time>
      </trkpt>
      <trkpt lat="62.654950436602" lon="17.853191100593">
        <ele>83</ele>
        <time>2018-03-20T12:05:12Z</time>
      </trkpt>
      <trkpt lat="62.654942557616" lon="17.853224628193">
        <ele>83</ele>
        <time>2018-03-20T12:05:13Z</time>
      </trkpt>
      <trkpt lat="62.654935013906" lon="17.85325505449">
        <ele>83.4</ele>
        <time>2018-03-20T12:05:14Z</time>
      </trkpt>
      <trkpt lat="62.654925709997" lon="17.853289001185">
        <ele>83.6</ele>
        <time>2018-03-20T12:05:15Z</time>
      </trkpt>
      <trkpt lat="62.654918250106" lon="17.853317583464">
        <ele>83.8</ele>
        <time>2018-03-20T12:05:16Z</time>
      </trkpt>
      <trkpt lat="62.654903917057" lon="17.853363181">
        <ele>84.2</ele>
        <time>2018-03-20T12:05:17Z</time>
      </trkpt>
      <trkpt lat="62.654892182397" lon="17.85339922317">
        <ele>84.4</ele>
        <time>2018-03-20T12:05:18Z</time>
      </trkpt>
      <trkpt lat="62.654878184624" lon="17.853436271168">
        <ele>84.4</ele>
        <time>2018-03-20T12:05:19Z</time>
      </trkpt>
      <trkpt lat="62.654875083321" lon="17.853463679981">
        <ele>84.6</ele>
        <time>2018-03-20T12:05:20Z</time>
      </trkpt>
      <trkpt lat="62.654862175195" lon="17.853501063255">
        <ele>84.8</ele>
        <time>2018-03-20T12:05:21Z</time>
      </trkpt>
      <trkpt lat="62.65484918325" lon="17.853537440701">
        <ele>85</ele>
        <time>2018-03-20T12:05:22Z</time>
      </trkpt>
      <trkpt lat="62.654842226273" lon="17.853564849514">
        <ele>85</ele>
        <time>2018-03-20T12:05:23Z</time>
      </trkpt>
      <trkpt lat="62.654836526581" lon="17.853607429566">
        <ele>85.2</ele>
        <time>2018-03-20T12:05:24Z</time>
      </trkpt>
      <trkpt lat="62.65483074307" lon="17.85365151836">
        <ele>85.2</ele>
        <time>2018-03-20T12:05:25Z</time>
      </trkpt>
      <trkpt lat="62.654814985098" lon="17.853702145036">
        <ele>85.2</ele>
        <time>2018-03-20T12:05:26Z</time>
      </trkpt>
      <trkpt lat="62.654801909334" lon="17.853748413124">
        <ele>85.2</ele>
        <time>2018-03-20T12:05:27Z</time>
      </trkpt>
      <trkpt lat="62.654796209642" lon="17.853802560198">
        <ele>85</ele>
        <time>2018-03-20T12:05:28Z</time>
      </trkpt>
      <trkpt lat="62.654777853281" lon="17.853862323145">
        <ele>85</ele>
        <time>2018-03-20T12:05:29Z</time>
      </trkpt>
      <trkpt lat="62.654772656503" lon="17.853918230418">
        <ele>85.2</ele>
        <time>2018-03-20T12:05:30Z</time>
      </trkpt>
      <trkpt lat="62.65476536425" lon="17.853975814071">
        <ele>85.2</ele>
        <time>2018-03-20T12:05:31Z</time>
      </trkpt>
      <trkpt lat="62.65474860045" lon="17.854031469887">
        <ele>85.2</ele>
        <time>2018-03-20T12:05:32Z</time>
      </trkpt>
      <trkpt lat="62.654732926297" lon="17.854080084907">
        <ele>85.2</ele>
        <time>2018-03-20T12:05:33Z</time>
      </trkpt>
      <trkpt lat="62.654723370931" lon="17.854119898932">
        <ele>85.4</ele>
        <time>2018-03-20T12:05:34Z</time>
      </trkpt>
      <trkpt lat="62.654706104217" lon="17.854158539491">
        <ele>85.2</ele>
        <time>2018-03-20T12:05:35Z</time>
      </trkpt>
      <trkpt lat="62.65468992715" lon="17.85419466548">
        <ele>85.2</ele>
        <time>2018-03-20T12:05:36Z</time>
      </trkpt>
      <trkpt lat="62.654672073703" lon="17.854225762329">
        <ele>85.4</ele>
        <time>2018-03-20T12:05:37Z</time>
      </trkpt>
      <trkpt lat="62.654657405378" lon="17.854252416771">
        <ele>85.4</ele>
        <time>2018-03-20T12:05:38Z</time>
      </trkpt>
      <trkpt lat="62.654635947714" lon="17.854279657946">
        <ele>85.6</ele>
        <time>2018-03-20T12:05:39Z</time>
      </trkpt>
      <trkpt lat="62.654615831154" lon="17.85430446837">
        <ele>85.8</ele>
        <time>2018-03-20T12:05:40Z</time>
      </trkpt>
      <trkpt lat="62.654602168657" lon="17.854331206631">
        <ele>85.8</ele>
        <time>2018-03-20T12:05:41Z</time>
      </trkpt>
      <trkpt lat="62.654580627174" lon="17.854357190521">
        <ele>86</ele>
        <time>2018-03-20T12:05:42Z</time>
      </trkpt>
      <trkpt lat="62.654557828406" lon="17.854391304854">
        <ele>86</ele>
        <time>2018-03-20T12:05:43Z</time>
      </trkpt>
      <trkpt lat="62.654533437077" lon="17.854429274861">
        <ele>86.2</ele>
        <time>2018-03-20T12:05:44Z</time>
      </trkpt>
      <trkpt lat="62.65450887811" lon="17.854471603456">
        <ele>86.2</ele>
        <time>2018-03-20T12:05:45Z</time>
      </trkpt>
      <trkpt lat="62.654487252808" lon="17.854508567635">
        <ele>86.2</ele>
        <time>2018-03-20T12:05:46Z</time>
      </trkpt>
      <trkpt lat="62.654461604194" lon="17.854553913714">
        <ele>86.2</ele>
        <time>2018-03-20T12:05:47Z</time>
      </trkpt>
      <trkpt lat="62.654448025516" lon="17.854590961712">
        <ele>86.2</ele>
        <time>2018-03-20T12:05:48Z</time>
      </trkpt>
      <trkpt lat="62.654423550368" lon="17.854616107412">
        <ele>86</ele>
        <time>2018-03-20T12:05:49Z</time>
      </trkpt>
      <trkpt lat="62.654400164867" lon="17.854656340532">
        <ele>86</ele>
        <time>2018-03-20T12:05:50Z</time>
      </trkpt>
      <trkpt lat="62.654373510425" lon="17.854690454865">
        <ele>86</ele>
        <time>2018-03-20T12:05:51Z</time>
      </trkpt>
      <trkpt lat="62.65435297477" lon="17.8547294307">
        <ele>85.8</ele>
        <time>2018-03-20T12:05:52Z</time>
      </trkpt>
      <trkpt lat="62.654330846554" lon="17.854777039892">
        <ele>86</ele>
        <time>2018-03-20T12:05:53Z</time>
      </trkpt>
      <trkpt lat="62.654308969795" lon="17.854824481446">
        <ele>86</ele>
        <time>2018-03-20T12:05:54Z</time>
      </trkpt>
      <trkpt lat="62.654288098864" lon="17.854858260503">
        <ele>86</ele>
        <time>2018-03-20T12:05:55Z</time>
      </trkpt>
      <trkpt lat="62.65426496482" lon="17.854890614637">
        <ele>85.8</ele>
        <time>2018-03-20T12:05:56Z</time>
      </trkpt>
      <trkpt lat="62.654245518812" lon="17.854923304047">
        <ele>85.8</ele>
        <time>2018-03-20T12:05:57Z</time>
      </trkpt>
      <trkpt lat="62.654227833003" lon="17.854972002886">
        <ele>85.8</ele>
        <time>2018-03-20T12:05:58Z</time>
      </trkpt>
      <trkpt lat="62.654198663991" lon="17.855015169671">
        <ele>85.8</ele>
        <time>2018-03-20T12:05:59Z</time>
      </trkpt>
      <trkpt lat="62.654176200499" lon="17.855049116366">
        <ele>85.8</ele>
        <time>2018-03-20T12:06:00Z</time>
      </trkpt>
      <trkpt lat="62.654155078111" lon="17.855079375025">
        <ele>85.8</ele>
        <time>2018-03-20T12:06:01Z</time>
      </trkpt>
      <trkpt lat="62.654126747289" lon="17.855104688363">
        <ele>85.8</ele>
        <time>2018-03-20T12:06:02Z</time>
      </trkpt>
      <trkpt lat="62.654108893842" lon="17.855128660597">
        <ele>85.8</ele>
        <time>2018-03-20T12:06:03Z</time>
      </trkpt>
      <trkpt lat="62.654091291852" lon="17.855153973935">
        <ele>85.6</ele>
        <time>2018-03-20T12:06:04Z</time>
      </trkpt>
      <trkpt lat="62.654067654894" lon="17.855173168486">
        <ele>85.8</ele>
        <time>2018-03-20T12:06:05Z</time>
      </trkpt>
      <trkpt lat="62.654044939945" lon="17.855189261734">
        <ele>85.6</ele>
        <time>2018-03-20T12:06:06Z</time>
      </trkpt>
      <trkpt lat="62.654022141177" lon="17.855226896465">
        <ele>85.8</ele>
        <time>2018-03-20T12:06:07Z</time>
      </trkpt>
      <trkpt lat="62.654004203911" lon="17.85525329945">
        <ele>85.8</ele>
        <time>2018-03-20T12:06:08Z</time>
      </trkpt>
      <trkpt lat="62.653974280528" lon="17.855280875901">
        <ele>85.8</ele>
        <time>2018-03-20T12:06:09Z</time>
      </trkpt>
      <trkpt lat="62.653947793724" lon="17.855300489547">
        <ele>86</ele>
        <time>2018-03-20T12:06:10Z</time>
      </trkpt>
      <trkpt lat="62.653922815662" lon="17.855325719066">
        <ele>86</ele>
        <time>2018-03-20T12:06:11Z</time>
      </trkpt>
      <trkpt lat="62.653905548948" lon="17.85534633854">
        <ele>86.2</ele>
        <time>2018-03-20T12:06:12Z</time>
      </trkpt>
      <trkpt lat="62.653886019121" lon="17.855364191987">
        <ele>86.2</ele>
        <time>2018-03-20T12:06:13Z</time>
      </trkpt>
      <trkpt lat="62.653869590597" lon="17.855380871968">
        <ele>86.6</ele>
        <time>2018-03-20T12:06:14Z</time>
      </trkpt>
      <trkpt lat="62.653857017747" lon="17.855399731243">
        <ele>86.8</ele>
        <time>2018-03-20T12:06:15Z</time>
      </trkpt>
      <trkpt lat="62.653841846508" lon="17.855421021269">
        <ele>87</ele>
        <time>2018-03-20T12:06:16Z</time>
      </trkpt>
      <trkpt lat="62.653826842907" lon="17.855446502245">
        <ele>87.4</ele>
        <time>2018-03-20T12:06:17Z</time>
      </trkpt>
      <trkpt lat="62.653811923125" lon="17.855468546642">
        <ele>87.6</ele>
        <time>2018-03-20T12:06:18Z</time>
      </trkpt>
      <trkpt lat="62.65379557842" lon="17.85549469817">
        <ele>87.8</ele>
        <time>2018-03-20T12:06:19Z</time>
      </trkpt>
      <trkpt lat="62.653775042765" lon="17.855527639037">
        <ele>88.2</ele>
        <time>2018-03-20T12:06:20Z</time>
      </trkpt>
      <trkpt lat="62.653761464087" lon="17.855559993171">
        <ele>88.2</ele>
        <time>2018-03-20T12:06:21Z</time>
      </trkpt>
      <trkpt lat="62.653748304504" lon="17.855584049224">
        <ele>88.2</ele>
        <time>2018-03-20T12:06:22Z</time>
      </trkpt>
      <trkpt lat="62.653733803817" lon="17.855608105277">
        <ele>88.2</ele>
        <time>2018-03-20T12:06:23Z</time>
      </trkpt>
      <trkpt lat="62.653712932886" lon="17.855640627049">
        <ele>88.4</ele>
        <time>2018-03-20T12:06:24Z</time>
      </trkpt>
      <trkpt lat="62.653695163258" lon="17.855671304803">
        <ele>88.4</ele>
        <time>2018-03-20T12:06:25Z</time>
      </trkpt>
      <trkpt lat="62.653681165485" lon="17.85569754015">
        <ele>88.6</ele>
        <time>2018-03-20T12:06:26Z</time>
      </trkpt>
      <trkpt lat="62.653662725305" lon="17.855733079406">
        <ele>88.6</ele>
        <time>2018-03-20T12:06:27Z</time>
      </trkpt>
      <trkpt lat="62.65364554241" lon="17.855753279785">
        <ele>88.8</ele>
        <time>2018-03-20T12:06:28Z</time>
      </trkpt>
      <trkpt lat="62.65362458766" lon="17.855775324182">
        <ele>89</ele>
        <time>2018-03-20T12:06:29Z</time>
      </trkpt>
      <trkpt lat="62.653608913507" lon="17.8557855501">
        <ele>89.2</ele>
        <time>2018-03-20T12:06:30Z</time>
      </trkpt>
      <trkpt lat="62.653596173019" lon="17.855794937828">
        <ele>89.6</ele>
        <time>2018-03-20T12:06:31Z</time>
      </trkpt>
      <trkpt lat="62.653579409219" lon="17.855802984452">
        <ele>89.8</ele>
        <time>2018-03-20T12:06:32Z</time>
      </trkpt>
      <trkpt lat="62.653560298487" lon="17.855809438515">
        <ele>90</ele>
        <time>2018-03-20T12:06:33Z</time>
      </trkpt>
      <trkpt lat="62.653544875791" lon="17.855815976397">
        <ele>90.2</ele>
        <time>2018-03-20T12:06:34Z</time>
      </trkpt>
      <trkpt lat="62.653525848878" lon="17.855820921718">
        <ele>90.4</ele>
        <time>2018-03-20T12:06:35Z</time>
      </trkpt>
      <trkpt lat="62.653506486689" lon="17.855825447944">
        <ele>90.4</ele>
        <time>2018-03-20T12:06:36Z</time>
      </trkpt>
      <trkpt lat="62.653490058165" lon="17.85583332693">
        <ele>90.6</ele>
        <time>2018-03-20T12:06:37Z</time>
      </trkpt>
      <trkpt lat="62.653475473659" lon="17.855838858984">
        <ele>90.8</ele>
        <time>2018-03-20T12:06:38Z</time>
      </trkpt>
      <trkpt lat="62.653450747054" lon="17.855841876468">
        <ele>90.8</ele>
        <time>2018-03-20T12:06:39Z</time>
      </trkpt>
      <trkpt lat="62.65343180396" lon="17.85583416512">
        <ele>91</ele>
        <time>2018-03-20T12:06:40Z</time>
      </trkpt>
      <trkpt lat="62.653413950513" lon="17.855824442116">
        <ele>91</ele>
        <time>2018-03-20T12:06:41Z</time>
      </trkpt>
      <trkpt lat="62.653396767618" lon="17.855814970569">
        <ele>91.4</ele>
        <time>2018-03-20T12:06:42Z</time>
      </trkpt>
      <trkpt lat="62.653377070153" lon="17.855807762135">
        <ele>91.4</ele>
        <time>2018-03-20T12:06:43Z</time>
      </trkpt>
      <trkpt lat="62.653356031584" lon="17.855796111294">
        <ele>91.6</ele>
        <time>2018-03-20T12:06:44Z</time>
      </trkpt>
      <trkpt lat="62.653339519241" lon="17.855788483765">
        <ele>92</ele>
        <time>2018-03-20T12:06:45Z</time>
      </trkpt>
      <trkpt lat="62.653321581975" lon="17.855770630318">
        <ele>92.2</ele>
        <time>2018-03-20T12:06:46Z</time>
      </trkpt>
      <trkpt lat="62.653303477071" lon="17.855749172654">
        <ele>92.6</ele>
        <time>2018-03-20T12:06:47Z</time>
      </trkpt>
      <trkpt lat="62.653284953072" lon="17.855728972275">
        <ele>92.8</ele>
        <time>2018-03-20T12:06:48Z</time>
      </trkpt>
      <trkpt lat="62.653265590883" lon="17.855706676421">
        <ele>92.8</ele>
        <time>2018-03-20T12:06:49Z</time>
      </trkpt>
      <trkpt lat="62.653250587282" lon="17.855687900965">
        <ele>93</ele>
        <time>2018-03-20T12:06:50Z</time>
      </trkpt>
      <trkpt lat="62.653234494034" lon="17.855664766921">
        <ele>93</ele>
        <time>2018-03-20T12:06:51Z</time>
      </trkpt>
      <trkpt lat="62.653221166813" lon="17.855649930958">
        <ele>93.4</ele>
        <time>2018-03-20T12:06:52Z</time>
      </trkpt>
      <trkpt lat="62.653209264515" lon="17.855633670072">
        <ele>93.6</ele>
        <time>2018-03-20T12:06:53Z</time>
      </trkpt>
      <trkpt lat="62.653197278398" lon="17.8556179121">
        <ele>93.8</ele>
        <time>2018-03-20T12:06:54Z</time>
      </trkpt>
      <trkpt lat="62.653186465747" lon="17.855603998146">
        <ele>94</ele>
        <time>2018-03-20T12:06:55Z</time>
      </trkpt>
      <trkpt lat="62.653176658924" lon="17.855585306509">
        <ele>94.2</ele>
        <time>2018-03-20T12:06:56Z</time>
      </trkpt>
      <trkpt lat="62.653164253712" lon="17.855565189949">
        <ele>94.4</ele>
        <time>2018-03-20T12:06:57Z</time>
      </trkpt>
      <trkpt lat="62.653151513224" lon="17.855549683434">
        <ele>94.6</ele>
        <time>2018-03-20T12:06:58Z</time>
      </trkpt>
      <trkpt lat="62.653140616754" lon="17.855534260738">
        <ele>94.6</ele>
        <time>2018-03-20T12:06:59Z</time>
      </trkpt>
      <trkpt lat="62.653131061388" lon="17.855519340956">
        <ele>94.8</ele>
        <time>2018-03-20T12:07:00Z</time>
      </trkpt>
      <trkpt lat="62.653123517678" lon="17.855511797246">
        <ele>95.2</ele>
        <time>2018-03-20T12:07:01Z</time>
      </trkpt>
      <trkpt lat="62.653113710855" lon="17.85549972731">
        <ele>95.4</ele>
        <time>2018-03-20T12:07:02Z</time>
      </trkpt>
      <trkpt lat="62.653102814385" lon="17.855489082297">
        <ele>95.6</ele>
        <time>2018-03-20T12:07:03Z</time>
      </trkpt>
      <trkpt lat="62.653090492992" lon="17.855475084524">
        <ele>95.8</ele>
        <time>2018-03-20T12:07:04Z</time>
      </trkpt>
      <trkpt lat="62.653077752504" lon="17.855464188054">
        <ele>96.2</ele>
        <time>2018-03-20T12:07:05Z</time>
      </trkpt>
      <trkpt lat="62.653066939853" lon="17.855456895801">
        <ele>96.4</ele>
        <time>2018-03-20T12:07:06Z</time>
      </trkpt>
      <trkpt lat="62.653056127202" lon="17.855446669883">
        <ele>96.8</ele>
        <time>2018-03-20T12:07:07Z</time>
      </trkpt>
      <trkpt lat="62.653044308723" lon="17.855446418426">
        <ele>97</ele>
        <time>2018-03-20T12:07:08Z</time>
      </trkpt>
      <trkpt lat="62.65303114914" lon="17.855441389286">
        <ele>97.4</ele>
        <time>2018-03-20T12:07:09Z</time>
      </trkpt>
      <trkpt lat="62.653017654281" lon="17.855433426481">
        <ele>97.6</ele>
        <time>2018-03-20T12:07:10Z</time>
      </trkpt>
      <trkpt lat="62.65300013611" lon="17.855422110916">
        <ele>97.8</ele>
        <time>2018-03-20T12:07:11Z</time>
      </trkpt>
      <trkpt lat="62.652988485269" lon="17.855417333233">
        <ele>98</ele>
        <time>2018-03-20T12:07:12Z</time>
      </trkpt>
      <trkpt lat="62.652974738953" lon="17.855411549722">
        <ele>98.2</ele>
        <time>2018-03-20T12:07:13Z</time>
      </trkpt>
      <trkpt lat="62.652958897162" lon="17.855406855858">
        <ele>98.2</ele>
        <time>2018-03-20T12:07:14Z</time>
      </trkpt>
      <trkpt lat="62.652942971552" lon="17.855400150338">
        <ele>98.4</ele>
        <time>2018-03-20T12:07:15Z</time>
      </trkpt>
      <trkpt lat="62.652926291571" lon="17.855392271352">
        <ele>98.6</ele>
        <time>2018-03-20T12:07:16Z</time>
      </trkpt>
      <trkpt lat="62.65291128797" lon="17.855382213072">
        <ele>98.8</ele>
        <time>2018-03-20T12:07:17Z</time>
      </trkpt>
      <trkpt lat="62.652897122559" lon="17.855375842828">
        <ele>99</ele>
        <time>2018-03-20T12:07:18Z</time>
      </trkpt>
      <trkpt lat="62.65288195132" lon="17.855363269978">
        <ele>99.2</ele>
        <time>2018-03-20T12:07:19Z</time>
      </trkpt>
      <trkpt lat="62.652866947719" lon="17.855352457327">
        <ele>99.4</ele>
        <time>2018-03-20T12:07:20Z</time>
      </trkpt>
      <trkpt lat="62.652851944118" lon="17.855347763463">
        <ele>99.6</ele>
        <time>2018-03-20T12:07:21Z</time>
      </trkpt>
      <trkpt lat="62.652834006852" lon="17.855348350196">
        <ele>99.8</ele>
        <time>2018-03-20T12:07:22Z</time>
      </trkpt>
      <trkpt lat="62.652817829785" lon="17.855353463155">
        <ele>100</ele>
        <time>2018-03-20T12:07:23Z</time>
      </trkpt>
      <trkpt lat="62.652786732936" lon="17.85535052949">
        <ele>100</ele>
        <time>2018-03-20T12:07:24Z</time>
      </trkpt>
      <trkpt lat="62.652768628032" lon="17.855350026576">
        <ele>100.2</ele>
        <time>2018-03-20T12:07:25Z</time>
      </trkpt>
      <trkpt lat="62.652751277499" lon="17.855355810087">
        <ele>100.2</ele>
        <time>2018-03-20T12:07:26Z</time>
      </trkpt>
      <trkpt lat="62.65272940074" lon="17.855346757635">
        <ele>100.2</ele>
        <time>2018-03-20T12:07:27Z</time>
      </trkpt>
      <trkpt lat="62.652709367999" lon="17.855341896133">
        <ele>100.4</ele>
        <time>2018-03-20T12:07:28Z</time>
      </trkpt>
      <trkpt lat="62.652688497068" lon="17.855339549201">
        <ele>100.4</ele>
        <time>2018-03-20T12:07:29Z</time>
      </trkpt>
      <trkpt lat="62.652666871766" lon="17.85534214759">
        <ele>100.6</ele>
        <time>2018-03-20T12:07:30Z</time>
      </trkpt>
      <trkpt lat="62.652642815713" lon="17.855334352423">
        <ele>100.8</ele>
        <time>2018-03-20T12:07:31Z</time>
      </trkpt>
      <trkpt lat="62.652621190411" lon="17.855338208097">
        <ele>101</ele>
        <time>2018-03-20T12:07:32Z</time>
      </trkpt>
      <trkpt lat="62.652604845706" lon="17.855342818142">
        <ele>101.4</ele>
        <time>2018-03-20T12:07:33Z</time>
      </trkpt>
      <trkpt lat="62.652588920096" lon="17.8553496913">
        <ele>101.4</ele>
        <time>2018-03-20T12:07:34Z</time>
      </trkpt>
      <trkpt lat="62.65255757179" lon="17.855357402648">
        <ele>101.4</ele>
        <time>2018-03-20T12:07:35Z</time>
      </trkpt>
      <trkpt lat="62.652534605384" lon="17.855373747353">
        <ele>101.4</ele>
        <time>2018-03-20T12:07:36Z</time>
      </trkpt>
      <trkpt lat="62.652513902091" lon="17.855389170049">
        <ele>101.4</ele>
        <time>2018-03-20T12:07:37Z</time>
      </trkpt>
      <trkpt lat="62.652491103323" lon="17.855415405396">
        <ele>101.4</ele>
        <time>2018-03-20T12:07:38Z</time>
      </trkpt>
      <trkpt lat="62.652472244048" lon="17.855445664055">
        <ele>101.2</ele>
        <time>2018-03-20T12:07:39Z</time>
      </trkpt>
      <trkpt lat="62.652448187995" lon="17.855479359293">
        <ele>101.4</ele>
        <time>2018-03-20T12:07:40Z</time>
      </trkpt>
      <trkpt lat="62.652431088919" lon="17.855526633209">
        <ele>101.4</ele>
        <time>2018-03-20T12:07:41Z</time>
      </trkpt>
      <trkpt lat="62.652421617372" lon="17.855573655668">
        <ele>101.4</ele>
        <time>2018-03-20T12:07:42Z</time>
      </trkpt>
      <trkpt lat="62.652404434477" lon="17.855627886561">
        <ele>101.4</ele>
        <time>2018-03-20T12:07:43Z</time>
      </trkpt>
      <trkpt lat="62.652387670677" lon="17.855678932332">
        <ele>101.6</ele>
        <time>2018-03-20T12:07:44Z</time>
      </trkpt>
      <trkpt lat="62.652375014008" lon="17.855713968674">
        <ele>101.6</ele>
        <time>2018-03-20T12:07:45Z</time>
      </trkpt>
      <trkpt lat="62.652353723982" lon="17.855759063296">
        <ele>101.6</ele>
        <time>2018-03-20T12:07:46Z</time>
      </trkpt>
      <trkpt lat="62.652331763404" lon="17.855811198714">
        <ele>101.6</ele>
        <time>2018-03-20T12:07:47Z</time>
      </trkpt>
      <trkpt lat="62.652317933269" lon="17.855851348015">
        <ele>101.6</ele>
        <time>2018-03-20T12:07:48Z</time>
      </trkpt>
      <trkpt lat="62.652293961035" lon="17.855913374075">
        <ele>101.6</ele>
        <time>2018-03-20T12:07:49Z</time>
      </trkpt>
      <trkpt lat="62.652278873615" lon="17.855959139249">
        <ele>101.6</ele>
        <time>2018-03-20T12:07:50Z</time>
      </trkpt>
      <trkpt lat="62.652264792023" lon="17.855990571374">
        <ele>101.6</ele>
        <time>2018-03-20T12:07:51Z</time>
      </trkpt>
      <trkpt lat="62.652249201689" lon="17.856023260784">
        <ele>101.6</ele>
        <time>2018-03-20T12:07:52Z</time>
      </trkpt>
      <trkpt lat="62.65223403045" lon="17.856058883859">
        <ele>101.6</ele>
        <time>2018-03-20T12:07:53Z</time>
      </trkpt>
      <trkpt lat="62.652217769564" lon="17.856099368436">
        <ele>101.8</ele>
        <time>2018-03-20T12:07:54Z</time>
      </trkpt>
      <trkpt lat="62.652204777619" lon="17.856129627095">
        <ele>101.8</ele>
        <time>2018-03-20T12:07:55Z</time>
      </trkpt>
      <trkpt lat="62.652192875321" lon="17.856156784451">
        <ele>102</ele>
        <time>2018-03-20T12:07:56Z</time>
      </trkpt>
      <trkpt lat="62.652169992734" lon="17.856199113046">
        <ele>102.2</ele>
        <time>2018-03-20T12:07:57Z</time>
      </trkpt>
      <trkpt lat="62.652147026328" lon="17.856235322854">
        <ele>102.4</ele>
        <time>2018-03-20T12:07:58Z</time>
      </trkpt>
      <trkpt lat="62.652126071578" lon="17.856270107739">
        <ele>102.6</ele>
        <time>2018-03-20T12:07:59Z</time>
      </trkpt>
      <trkpt lat="62.652100842059" lon="17.856303802977">
        <ele>102.6</ele>
        <time>2018-03-20T12:08:00Z</time>
      </trkpt>
      <trkpt lat="62.652075696359" lon="17.856323919537">
        <ele>102.6</ele>
        <time>2018-03-20T12:08:01Z</time>
      </trkpt>
      <trkpt lat="62.652046611166" lon="17.856339258414">
        <ele>102.8</ele>
        <time>2018-03-20T12:08:02Z</time>
      </trkpt>
      <trkpt lat="62.652010736634" lon="17.856354429653">
        <ele>102.6</ele>
        <time>2018-03-20T12:08:03Z</time>
      </trkpt>
      <trkpt lat="62.65197670612" lon="17.856371696367">
        <ele>102.4</ele>
        <time>2018-03-20T12:08:04Z</time>
      </trkpt>
      <trkpt lat="62.651944100529" lon="17.856396758248">
        <ele>102.2</ele>
        <time>2018-03-20T12:08:05Z</time>
      </trkpt>
      <trkpt lat="62.651915434431" lon="17.85642425088">
        <ele>101.6</ele>
        <time>2018-03-20T12:08:06Z</time>
      </trkpt>
      <trkpt lat="62.651882912659" lon="17.856479906696">
        <ele>101.2</ele>
        <time>2018-03-20T12:08:07Z</time>
      </trkpt>
      <trkpt lat="62.651850642344" lon="17.856557858366">
        <ele>100.8</ele>
        <time>2018-03-20T12:08:08Z</time>
      </trkpt>
      <trkpt lat="62.651815354545" lon="17.856646119773">
        <ele>100.4</ele>
        <time>2018-03-20T12:08:09Z</time>
      </trkpt>
      <trkpt lat="62.651791801406" lon="17.856728765307">
        <ele>100</ele>
        <time>2018-03-20T12:08:10Z</time>
      </trkpt>
      <trkpt lat="62.65175458577" lon="17.856831024487">
        <ele>99.4</ele>
        <time>2018-03-20T12:08:11Z</time>
      </trkpt>
      <trkpt lat="62.651731367907" lon="17.856917358057">
        <ele>99</ele>
        <time>2018-03-20T12:08:12Z</time>
      </trkpt>
      <trkpt lat="62.651714101193" lon="17.856983239791">
        <ele>98.8</ele>
        <time>2018-03-20T12:08:13Z</time>
      </trkpt>
      <trkpt lat="62.651686105647" lon="17.857063873669">
        <ele>98.6</ele>
        <time>2018-03-20T12:08:14Z</time>
      </trkpt>
      <trkpt lat="62.651655930807" lon="17.857136209466">
        <ele>98.8</ele>
        <time>2018-03-20T12:08:15Z</time>
      </trkpt>
      <trkpt lat="62.651634808419" lon="17.857201085372">
        <ele>99</ele>
        <time>2018-03-20T12:08:16Z</time>
      </trkpt>
      <trkpt lat="62.651601616095" lon="17.85727836649">
        <ele>99.4</ele>
        <time>2018-03-20T12:08:17Z</time>
      </trkpt>
      <trkpt lat="62.651571608893" lon="17.857339973455">
        <ele>99.4</ele>
        <time>2018-03-20T12:08:18Z</time>
      </trkpt>
      <trkpt lat="62.651547385202" lon="17.857411471062">
        <ele>99.4</ele>
        <time>2018-03-20T12:08:19Z</time>
      </trkpt>
      <trkpt lat="62.651521233674" lon="17.85749042856">
        <ele>99</ele>
        <time>2018-03-20T12:08:20Z</time>
      </trkpt>
      <trkpt lat="62.65149893782" lon="17.857557064665">
        <ele>99</ele>
        <time>2018-03-20T12:08:21Z</time>
      </trkpt>
      <trkpt lat="62.651463398564" lon="17.85762202439">
        <ele>98.8</ele>
        <time>2018-03-20T12:08:22Z</time>
      </trkpt>
      <trkpt lat="62.651432301715" lon="17.857691929436">
        <ele>98.6</ele>
        <time>2018-03-20T12:08:23Z</time>
      </trkpt>
      <trkpt lat="62.651399360848" lon="17.857766025432">
        <ele>98.4</ele>
        <time>2018-03-20T12:08:24Z</time>
      </trkpt>
      <trkpt lat="62.651372287311" lon="17.857839534695">
        <ele>98.2</ele>
        <time>2018-03-20T12:08:25Z</time>
      </trkpt>
      <trkpt lat="62.651348650353" lon="17.857887982077">
        <ele>98</ele>
        <time>2018-03-20T12:08:26Z</time>
      </trkpt>
      <trkpt lat="62.651321828273" lon="17.857926622636">
        <ele>97.8</ele>
        <time>2018-03-20T12:08:27Z</time>
      </trkpt>
      <trkpt lat="62.651292910718" lon="17.857977919864">
        <ele>97.8</ele>
        <time>2018-03-20T12:08:28Z</time>
      </trkpt>
      <trkpt lat="62.651253180512" lon="17.858046232349">
        <ele>97.6</ele>
        <time>2018-03-20T12:08:29Z</time>
      </trkpt>
      <trkpt lat="62.651218730903" lon="17.858104235097">
        <ele>97.6</ele>
        <time>2018-03-20T12:08:30Z</time>
      </trkpt>
      <trkpt lat="62.651186879683" lon="17.858164920053">
        <ele>97.4</ele>
        <time>2018-03-20T12:08:31Z</time>
      </trkpt>
      <trkpt lat="62.651162991268" lon="17.858223090439">
        <ele>97.2</ele>
        <time>2018-03-20T12:08:32Z</time>
      </trkpt>
      <trkpt lat="62.651129128392" lon="17.858276483142">
        <ele>97</ele>
        <time>2018-03-20T12:08:33Z</time>
      </trkpt>
      <trkpt lat="62.651100378475" lon="17.858323673239">
        <ele>97</ele>
        <time>2018-03-20T12:08:34Z</time>
      </trkpt>
      <trkpt lat="62.651073640214" lon="17.858374383734">
        <ele>96.8</ele>
        <time>2018-03-20T12:08:35Z</time>
      </trkpt>
      <trkpt lat="62.651049919437" lon="17.858412018465">
        <ele>96.8</ele>
        <time>2018-03-20T12:08:36Z</time>
      </trkpt>
      <trkpt lat="62.651022175348" lon="17.858465662625">
        <ele>97</ele>
        <time>2018-03-20T12:08:37Z</time>
      </trkpt>
      <trkpt lat="62.650989569757" lon="17.858502291528">
        <ele>96.8</ele>
        <time>2018-03-20T12:08:38Z</time>
      </trkpt>
      <trkpt lat="62.650950007189" lon="17.858542105553">
        <ele>96.8</ele>
        <time>2018-03-20T12:08:39Z</time>
      </trkpt>
      <trkpt lat="62.65091471939" lon="17.858562222113">
        <ele>96.6</ele>
        <time>2018-03-20T12:08:40Z</time>
      </trkpt>
      <trkpt lat="62.650873983356" lon="17.858577141895">
        <ele>96.4</ele>
        <time>2018-03-20T12:08:41Z</time>
      </trkpt>
      <trkpt lat="62.650847580371" lon="17.858580578474">
        <ele>96</ele>
        <time>2018-03-20T12:08:42Z</time>
      </trkpt>
      <trkpt lat="62.650826541802" lon="17.858579069732">
        <ele>95.8</ele>
        <time>2018-03-20T12:08:43Z</time>
      </trkpt>
      <trkpt lat="62.650806509061" lon="17.858571190746">
        <ele>95.8</ele>
        <time>2018-03-20T12:08:44Z</time>
      </trkpt>
      <trkpt lat="62.650781028085" lon="17.858548559616">
        <ele>95.8</ele>
        <time>2018-03-20T12:08:45Z</time>
      </trkpt>
      <trkpt lat="62.650754792738" lon="17.858527688685">
        <ele>95.8</ele>
        <time>2018-03-20T12:08:46Z</time>
      </trkpt>
      <trkpt lat="62.650733837988" lon="17.858516205482">
        <ele>95.8</ele>
        <time>2018-03-20T12:08:47Z</time>
      </trkpt>
      <trkpt lat="62.650712128867" lon="17.858507236849">
        <ele>95.8</ele>
        <time>2018-03-20T12:08:48Z</time>
      </trkpt>
      <trkpt lat="62.650692682859" lon="17.858496424198">
        <ele>95.8</ele>
        <time>2018-03-20T12:08:49Z</time>
      </trkpt>
      <trkpt lat="62.650670722281" lon="17.858471613774">
        <ele>95.8</ele>
        <time>2018-03-20T12:08:50Z</time>
      </trkpt>
      <trkpt lat="62.650644151658" lon="17.858434146681">
        <ele>95.8</ele>
        <time>2018-03-20T12:08:51Z</time>
      </trkpt>
      <trkpt lat="62.650618419225" lon="17.858383603824">
        <ele>95.8</ele>
        <time>2018-03-20T12:08:52Z</time>
      </trkpt>
      <trkpt lat="62.650587573833" lon="17.858308502">
        <ele>95.6</ele>
        <time>2018-03-20T12:08:53Z</time>
      </trkpt>
      <trkpt lat="62.650562009038" lon="17.858205069354">
        <ele>95.2</ele>
        <time>2018-03-20T12:08:54Z</time>
      </trkpt>
      <trkpt lat="62.650537952985" lon="17.85809476355">
        <ele>94.8</ele>
        <time>2018-03-20T12:08:55Z</time>
      </trkpt>
      <trkpt lat="62.650525547773" lon="17.857985715031">
        <ele>94</ele>
        <time>2018-03-20T12:08:56Z</time>
      </trkpt>
      <trkpt lat="62.650513310199" lon="17.857866021499">
        <ele>93.2</ele>
        <time>2018-03-20T12:08:57Z</time>
      </trkpt>
      <trkpt lat="62.650494199467" lon="17.857749932184">
        <ele>92.6</ele>
        <time>2018-03-20T12:08:58Z</time>
      </trkpt>
      <trkpt lat="62.650469808138" lon="17.857595034672">
        <ele>92</ele>
        <time>2018-03-20T12:08:59Z</time>
      </trkpt>
      <trkpt lat="62.650442902239" lon="17.857463355023">
        <ele>91.6</ele>
        <time>2018-03-20T12:09:00Z</time>
      </trkpt>
      <trkpt lat="62.650408955544" lon="17.857338045618">
        <ele>90.6</ele>
        <time>2018-03-20T12:09:01Z</time>
      </trkpt>
      <trkpt lat="62.650368973881" lon="17.857215921335">
        <ele>90</ele>
        <time>2018-03-20T12:09:02Z</time>
      </trkpt>
      <trkpt lat="62.650332931711" lon="17.857108884472">
        <ele>89.6</ele>
        <time>2018-03-20T12:09:03Z</time>
      </trkpt>
      <trkpt lat="62.650294961704" lon="17.857004781274">
        <ele>88.8</ele>
        <time>2018-03-20T12:09:04Z</time>
      </trkpt>
      <trkpt lat="62.650251040548" lon="17.856897660592">
        <ele>88</ele>
        <time>2018-03-20T12:09:05Z</time>
      </trkpt>
      <trkpt lat="62.650208376677" lon="17.856809985918">
        <ele>87.8</ele>
        <time>2018-03-20T12:09:06Z</time>
      </trkpt>
      <trkpt lat="62.650159677838" lon="17.856732453343">
        <ele>87.2</ele>
        <time>2018-03-20T12:09:07Z</time>
      </trkpt>
      <trkpt lat="62.650112068646" lon="17.856676881346">
        <ele>86.8</ele>
        <time>2018-03-20T12:09:08Z</time>
      </trkpt>
      <trkpt lat="62.650062615436" lon="17.856623488643">
        <ele>86.4</ele>
        <time>2018-03-20T12:09:09Z</time>
      </trkpt>
      <trkpt lat="62.650019616289" lon="17.856600689875">
        <ele>86.2</ele>
        <time>2018-03-20T12:09:10Z</time>
      </trkpt>
      <trkpt lat="62.649972258554" lon="17.8565985944">
        <ele>85.8</ele>
        <time>2018-03-20T12:09:11Z</time>
      </trkpt>
      <trkpt lat="62.649931354882" lon="17.856575544175">
        <ele>85.6</ele>
        <time>2018-03-20T12:09:12Z</time>
      </trkpt>
      <trkpt lat="62.649899587481" lon="17.856570766492">
        <ele>85.4</ele>
        <time>2018-03-20T12:09:13Z</time>
      </trkpt>
      <trkpt lat="62.649874693238" lon="17.856567162275">
        <ele>85.4</ele>
        <time>2018-03-20T12:09:14Z</time>
      </trkpt>
      <trkpt lat="62.649851810651" lon="17.85655752309">
        <ele>85.2</ele>
        <time>2018-03-20T12:09:15Z</time>
      </trkpt>
      <trkpt lat="62.64983093972" lon="17.856550733751">
        <ele>85.4</ele>
        <time>2018-03-20T12:09:16Z</time>
      </trkpt>
      <trkpt lat="62.649805877839" lon="17.85654495024">
        <ele>85.8</ele>
        <time>2018-03-20T12:09:17Z</time>
      </trkpt>
      <trkpt lat="62.649789700772" lon="17.856538915272">
        <ele>86</ele>
        <time>2018-03-20T12:09:18Z</time>
      </trkpt>
      <trkpt lat="62.649773020791" lon="17.856536735978">
        <ele>86.4</ele>
        <time>2018-03-20T12:09:19Z</time>
      </trkpt>
      <trkpt lat="62.649750808756" lon="17.856536065426">
        <ele>86.8</ele>
        <time>2018-03-20T12:09:20Z</time>
      </trkpt>
      <trkpt lat="62.649729351092" lon="17.856527180612">
        <ele>87</ele>
        <time>2018-03-20T12:09:21Z</time>
      </trkpt>
      <trkpt lat="62.649708396342" lon="17.856515362133">
        <ele>87.2</ele>
        <time>2018-03-20T12:09:22Z</time>
      </trkpt>
      <trkpt lat="62.649689788524" lon="17.856508656613">
        <ele>87.4</ele>
        <time>2018-03-20T12:09:23Z</time>
      </trkpt>
      <trkpt lat="62.649671096887" lon="17.856501615817">
        <ele>87.6</ele>
        <time>2018-03-20T12:09:24Z</time>
      </trkpt>
      <trkpt lat="62.649652572888" lon="17.856495161754">
        <ele>87.8</ele>
        <time>2018-03-20T12:09:25Z</time>
      </trkpt>
      <trkpt lat="62.649634635622" lon="17.856493150098">
        <ele>88</ele>
        <time>2018-03-20T12:09:26Z</time>
      </trkpt>
      <trkpt lat="62.649620051116" lon="17.856490132614">
        <ele>88.2</ele>
        <time>2018-03-20T12:09:27Z</time>
      </trkpt>
      <trkpt lat="62.649602868221" lon="17.856486360759">
        <ele>88.2</ele>
        <time>2018-03-20T12:09:28Z</time>
      </trkpt>
      <trkpt lat="62.649577554883" lon="17.856491725175">
        <ele>88.4</ele>
        <time>2018-03-20T12:09:29Z</time>
      </trkpt>
      <trkpt lat="62.649548888785" lon="17.856493653012">
        <ele>88.4</ele>
        <time>2018-03-20T12:09:30Z</time>
      </trkpt>
      <trkpt lat="62.6495308677" lon="17.85649298246">
        <ele>88.8</ele>
        <time>2018-03-20T12:09:31Z</time>
      </trkpt>
      <trkpt lat="62.649515947918" lon="17.856490216433">
        <ele>89</ele>
        <time>2018-03-20T12:09:32Z</time>
      </trkpt>
      <trkpt lat="62.649500944317" lon="17.85649214427">
        <ele>89</ele>
        <time>2018-03-20T12:09:33Z</time>
      </trkpt>
      <trkpt lat="62.649478648463" lon="17.856491892813">
        <ele>89.4</ele>
        <time>2018-03-20T12:09:34Z</time>
      </trkpt>
      <trkpt lat="62.64945626879" lon="17.856487701863">
        <ele>89.8</ele>
        <time>2018-03-20T12:09:35Z</time>
      </trkpt>
      <trkpt lat="62.649433721479" lon="17.856484013827">
        <ele>89.8</ele>
        <time>2018-03-20T12:09:36Z</time>
      </trkpt>
      <trkpt lat="62.649413353462" lon="17.856480577248">
        <ele>90</ele>
        <time>2018-03-20T12:09:37Z</time>
      </trkpt>
      <trkpt lat="62.649393572178" lon="17.856483175637">
        <ele>90.2</ele>
        <time>2018-03-20T12:09:38Z</time>
      </trkpt>
      <trkpt lat="62.649372282152" lon="17.856473871728">
        <ele>90.4</ele>
        <time>2018-03-20T12:09:39Z</time>
      </trkpt>
      <trkpt lat="62.649345543891" lon="17.85646029305">
        <ele>90.4</ele>
        <time>2018-03-20T12:09:40Z</time>
      </trkpt>
      <trkpt lat="62.649326181702" lon="17.856442439603">
        <ele>90.6</ele>
        <time>2018-03-20T12:09:41Z</time>
      </trkpt>
      <trkpt lat="62.649306987151" lon="17.856418299731">
        <ele>90.6</ele>
        <time>2018-03-20T12:09:42Z</time>
      </trkpt>
      <trkpt lat="62.649278907786" lon="17.856382928113">
        <ele>90.8</ele>
        <time>2018-03-20T12:09:43Z</time>
      </trkpt>
      <trkpt lat="62.649263233633" lon="17.856356189852">
        <ele>90.8</ele>
        <time>2018-03-20T12:09:44Z</time>
      </trkpt>
      <trkpt lat="62.649251582792" lon="17.856331714704">
        <ele>90.8</ele>
        <time>2018-03-20T12:09:45Z</time>
      </trkpt>
      <trkpt lat="62.64922409016" lon="17.856280417476">
        <ele>91</ele>
        <time>2018-03-20T12:09:46Z</time>
      </trkpt>
      <trkpt lat="62.649207158722" lon="17.856240435813">
        <ele>91.2</ele>
        <time>2018-03-20T12:09:47Z</time>
      </trkpt>
      <trkpt lat="62.649197519537" lon="17.856221660357">
        <ele>91.2</ele>
        <time>2018-03-20T12:09:48Z</time>
      </trkpt>
      <trkpt lat="62.649172373837" lon="17.856168351473">
        <ele>91.4</ele>
        <time>2018-03-20T12:09:49Z</time>
      </trkpt>
      <trkpt lat="62.649152927829" lon="17.856137254624">
        <ele>91.4</ele>
        <time>2018-03-20T12:09:50Z</time>
      </trkpt>
      <trkpt lat="62.649136415486" lon="17.856107079784">
        <ele>91.4</ele>
        <time>2018-03-20T12:09:51Z</time>
      </trkpt>
      <trkpt lat="62.649111353605" lon="17.856037929109">
        <ele>91.2</ele>
        <time>2018-03-20T12:09:52Z</time>
      </trkpt>
      <trkpt lat="62.649090398855" lon="17.856005491156">
        <ele>91.2</ele>
        <time>2018-03-20T12:09:53Z</time>
      </trkpt>
      <trkpt lat="62.649069779381" lon="17.855970454814">
        <ele>91.2</ele>
        <time>2018-03-20T12:09:54Z</time>
      </trkpt>
      <trkpt lat="62.649049579002" lon="17.855938687413">
        <ele>91.2</ele>
        <time>2018-03-20T12:09:55Z</time>
      </trkpt>
      <trkpt lat="62.649031725555" lon="17.855914715179">
        <ele>91.2</ele>
        <time>2018-03-20T12:09:56Z</time>
      </trkpt>
      <trkpt lat="62.649016135221" lon="17.855894430981">
        <ele>91.2</ele>
        <time>2018-03-20T12:09:57Z</time>
      </trkpt>
      <trkpt lat="62.648994174643" lon="17.855859897553">
        <ele>91.2</ele>
        <time>2018-03-20T12:09:58Z</time>
      </trkpt>
      <trkpt lat="62.648979841594" lon="17.855835757681">
        <ele>91.2</ele>
        <time>2018-03-20T12:09:59Z</time>
      </trkpt>
      <trkpt lat="62.648962323423" lon="17.855809606153">
        <ele>91.4</ele>
        <time>2018-03-20T12:10:00Z</time>
      </trkpt>
      <trkpt lat="62.648943128872" lon="17.855779934227">
        <ele>91.4</ele>
        <time>2018-03-20T12:10:01Z</time>
      </trkpt>
      <trkpt lat="62.648924688692" lon="17.855746574265">
        <ele>91.6</ele>
        <time>2018-03-20T12:10:02Z</time>
      </trkpt>
      <trkpt lat="62.64890054882" lon="17.855727463533">
        <ele>91.6</ele>
        <time>2018-03-20T12:10:03Z</time>
      </trkpt>
      <trkpt lat="62.648883533563" lon="17.855697372512">
        <ele>92</ele>
        <time>2018-03-20T12:10:04Z</time>
      </trkpt>
      <trkpt lat="62.648867105039" lon="17.855672813545">
        <ele>92.2</ele>
        <time>2018-03-20T12:10:05Z</time>
      </trkpt>
      <trkpt lat="62.648850089782" lon="17.855645488551">
        <ele>92.4</ele>
        <time>2018-03-20T12:10:06Z</time>
      </trkpt>
      <trkpt lat="62.648833409801" lon="17.855614475521">
        <ele>92.6</ele>
        <time>2018-03-20T12:10:07Z</time>
      </trkpt>
      <trkpt lat="62.648814801983" lon="17.85555253328">
        <ele>92.6</ele>
        <time>2018-03-20T12:10:08Z</time>
      </trkpt>
      <trkpt lat="62.648801474762" lon="17.855508360667">
        <ele>92.8</ele>
        <time>2018-03-20T12:10:09Z</time>
      </trkpt>
      <trkpt lat="62.648783788953" lon="17.855478018189">
        <ele>92.8</ele>
        <time>2018-03-20T12:10:10Z</time>
      </trkpt>
      <trkpt lat="62.648771299922" lon="17.855450357919">
        <ele>93.2</ele>
        <time>2018-03-20T12:10:11Z</time>
      </trkpt>
      <trkpt lat="62.648761660737" lon="17.855425379857">
        <ele>93.4</ele>
        <time>2018-03-20T12:10:12Z</time>
      </trkpt>
      <trkpt lat="62.648741376539" lon="17.855382464529">
        <ele>93.8</ele>
        <time>2018-03-20T12:10:13Z</time>
      </trkpt>
      <trkpt lat="62.648721511436" lon="17.855354385164">
        <ele>94</ele>
        <time>2018-03-20T12:10:14Z</time>
      </trkpt>
      <trkpt lat="62.648701562514" lon="17.855330161473">
        <ele>94.2</ele>
        <time>2018-03-20T12:10:15Z</time>
      </trkpt>
      <trkpt lat="62.648679937212" lon="17.855314990234">
        <ele>94.2</ele>
        <time>2018-03-20T12:10:16Z</time>
      </trkpt>
      <trkpt lat="62.648655964978" lon="17.855298226434">
        <ele>94.2</ele>
        <time>2018-03-20T12:10:17Z</time>
      </trkpt>
      <trkpt lat="62.648636183694" lon="17.855302333565">
        <ele>94.2</ele>
        <time>2018-03-20T12:10:18Z</time>
      </trkpt>
      <trkpt lat="62.648612127641" lon="17.855303004117">
        <ele>93.8</ele>
        <time>2018-03-20T12:10:19Z</time>
      </trkpt>
      <trkpt lat="62.64858790395" lon="17.855313313854">
        <ele>93.8</ele>
        <time>2018-03-20T12:10:20Z</time>
      </trkpt>
      <trkpt lat="62.648561249508" lon="17.855323539772">
        <ele>93.8</ele>
        <time>2018-03-20T12:10:21Z</time>
      </trkpt>
      <trkpt lat="62.648544066613" lon="17.855352038232">
        <ele>93.8</ele>
        <time>2018-03-20T12:10:22Z</time>
      </trkpt>
      <trkpt lat="62.648512131574" lon="17.85538070433">
        <ele>93.8</ele>
        <time>2018-03-20T12:10:23Z</time>
      </trkpt>
      <trkpt lat="62.648487740245" lon="17.855403754555">
        <ele>93.8</ele>
        <time>2018-03-20T12:10:24Z</time>
      </trkpt>
      <trkpt lat="62.648466953133" lon="17.855423200563">
        <ele>93.6</ele>
        <time>2018-03-20T12:10:25Z</time>
      </trkpt>
      <trkpt lat="62.648442477985" lon="17.855443987675">
        <ele>93.8</ele>
        <time>2018-03-20T12:10:26Z</time>
      </trkpt>
      <trkpt lat="62.648414650077" lon="17.855467373176">
        <ele>93.8</ele>
        <time>2018-03-20T12:10:27Z</time>
      </trkpt>
      <trkpt lat="62.648389839653" lon="17.855488998478">
        <ele>93.6</ele>
        <time>2018-03-20T12:10:28Z</time>
      </trkpt>
      <trkpt lat="62.648359664813" lon="17.855499140577">
        <ele>93.6</ele>
        <time>2018-03-20T12:10:29Z</time>
      </trkpt>
      <trkpt lat="62.648335944036" lon="17.855510539961">
        <ele>93.6</ele>
        <time>2018-03-20T12:10:30Z</time>
      </trkpt>
      <trkpt lat="62.648308954318" lon="17.855521268793">
        <ele>93.4</ele>
        <time>2018-03-20T12:10:31Z</time>
      </trkpt>
      <trkpt lat="62.648278444202" lon="17.855528477227">
        <ele>93.2</ele>
        <time>2018-03-20T12:10:32Z</time>
      </trkpt>
      <trkpt lat="62.648254220511" lon="17.855527639037">
        <ele>93.2</ele>
        <time>2018-03-20T12:10:33Z</time>
      </trkpt>
      <trkpt lat="62.648228907173" lon="17.855542977914">
        <ele>93.4</ele>
        <time>2018-03-20T12:10:34Z</time>
      </trkpt>
      <trkpt lat="62.648200324894" lon="17.855546079217">
        <ele>93.4</ele>
        <time>2018-03-20T12:10:35Z</time>
      </trkpt>
      <trkpt lat="62.648175430651" lon="17.85554918052">
        <ele>93.4</ele>
        <time>2018-03-20T12:10:36Z</time>
      </trkpt>
      <trkpt lat="62.648154894996" lon="17.855553120013">
        <ele>93.4</ele>
        <time>2018-03-20T12:10:37Z</time>
      </trkpt>
      <trkpt lat="62.648119607197" lon="17.85555504785">
        <ele>93.4</ele>
        <time>2018-03-20T12:10:38Z</time>
      </trkpt>
      <trkpt lat="62.648092198384" lon="17.85555756242">
        <ele>93.4</ele>
        <time>2018-03-20T12:10:39Z</time>
      </trkpt>
      <trkpt lat="62.648075853679" lon="17.855561418094">
        <ele>93.2</ele>
        <time>2018-03-20T12:10:40Z</time>
      </trkpt>
      <trkpt lat="62.648051378531" lon="17.855567872157">
        <ele>93.2</ele>
        <time>2018-03-20T12:10:41Z</time>
      </trkpt>
      <trkpt lat="62.648029920867" lon="17.855574829134">
        <ele>93.2</ele>
        <time>2018-03-20T12:10:42Z</time>
      </trkpt>
      <trkpt lat="62.648012737972" lon="17.855598130816">
        <ele>93.4</ele>
        <time>2018-03-20T12:10:43Z</time>
      </trkpt>
      <trkpt lat="62.647997985828" lon="17.855621181041">
        <ele>93.6</ele>
        <time>2018-03-20T12:10:44Z</time>
      </trkpt>
      <trkpt lat="62.647985664435" lon="17.855642973981">
        <ele>93.6</ele>
        <time>2018-03-20T12:10:45Z</time>
      </trkpt>
      <trkpt lat="62.647964877323" lon="17.855669544604">
        <ele>94</ele>
        <time>2018-03-20T12:10:46Z</time>
      </trkpt>
      <trkpt lat="62.647947610609" lon="17.855695444675">
        <ele>94.2</ele>
        <time>2018-03-20T12:10:47Z</time>
      </trkpt>
      <trkpt lat="62.647937971424" lon="17.85571095119">
        <ele>94.4</ele>
        <time>2018-03-20T12:10:48Z</time>
      </trkpt>
      <trkpt lat="62.647924979479" lon="17.855731319207">
        <ele>94.8</ele>
        <time>2018-03-20T12:10:49Z</time>
      </trkpt>
      <trkpt lat="62.647912825724" lon="17.85574950793">
        <ele>94.8</ele>
        <time>2018-03-20T12:10:50Z</time>
      </trkpt>
      <trkpt lat="62.647901510159" lon="17.855767445196">
        <ele>95</ele>
        <time>2018-03-20T12:10:51Z</time>
      </trkpt>
      <trkpt lat="62.647888266757" lon="17.855786053014">
        <ele>95.2</ele>
        <time>2018-03-20T12:10:52Z</time>
      </trkpt>
      <trkpt lat="62.647880136314" lon="17.855817988053">
        <ele>95.4</ele>
        <time>2018-03-20T12:10:53Z</time>
      </trkpt>
      <trkpt lat="62.64786035503" lon="17.855847157065">
        <ele>95.6</ele>
        <time>2018-03-20T12:10:54Z</time>
      </trkpt>
      <trkpt lat="62.647848452732" lon="17.855875152611">
        <ele>95.8</ele>
        <time>2018-03-20T12:10:55Z</time>
      </trkpt>
      <trkpt lat="62.647836131339" lon="17.855905327451">
        <ele>96.2</ele>
        <time>2018-03-20T12:10:56Z</time>
      </trkpt>
      <trkpt lat="62.647823642308" lon="17.855931646617">
        <ele>96.2</ele>
        <time>2018-03-20T12:10:57Z</time>
      </trkpt>
      <trkpt lat="62.647813584028" lon="17.85596073181">
        <ele>96.4</ele>
        <time>2018-03-20T12:10:58Z</time>
      </trkpt>
      <trkpt lat="62.647802603739" lon="17.855990487555">
        <ele>96.6</ele>
        <time>2018-03-20T12:10:59Z</time>
      </trkpt>
      <trkpt lat="62.647790030889" lon="17.856024350431">
        <ele>96.6</ele>
        <time>2018-03-20T12:11:00Z</time>
      </trkpt>
      <trkpt lat="62.647775614021" lon="17.856063326266">
        <ele>96.8</ele>
        <time>2018-03-20T12:11:01Z</time>
      </trkpt>
      <trkpt lat="62.647762202981" lon="17.856103140291">
        <ele>96.8</ele>
        <time>2018-03-20T12:11:02Z</time>
      </trkpt>
      <trkpt lat="62.647764549913" lon="17.856100877178">
        <ele>97</ele>
        <time>2018-03-20T12:11:03Z</time>
      </trkpt>
      <trkpt lat="62.647752563796" lon="17.856150246569">
        <ele>97.4</ele>
        <time>2018-03-20T12:11:04Z</time>
      </trkpt>
      <trkpt lat="62.647742756973" lon="17.856187797481">
        <ele>97.8</ele>
        <time>2018-03-20T12:11:05Z</time>
      </trkpt>
      <trkpt lat="62.647733285426" lon="17.856224091108">
        <ele>97.8</ele>
        <time>2018-03-20T12:11:07Z</time>
      </trkpt>
      <trkpt lat="62.647725909354" lon="17.856261474382">
        <ele>97.8</ele>
        <time>2018-03-20T12:11:08Z</time>
      </trkpt>
      <trkpt lat="62.647720796395" lon="17.856305060262">
        <ele>97.8</ele>
        <time>2018-03-20T12:11:09Z</time>
      </trkpt>
      <trkpt lat="62.647714174694" lon="17.856347221219">
        <ele>98</ele>
        <time>2018-03-20T12:11:10Z</time>
      </trkpt>
      <trkpt lat="62.647704284052" lon="17.856394495135">
        <ele>98</ele>
        <time>2018-03-20T12:11:11Z</time>
      </trkpt>
      <trkpt lat="62.647699003455" lon="17.856432381323">
        <ele>98.2</ele>
        <time>2018-03-20T12:11:12Z</time>
      </trkpt>
      <trkpt lat="62.647696153609" lon="17.856466411837">
        <ele>98.4</ele>
        <time>2018-03-20T12:11:13Z</time>
      </trkpt>
      <trkpt lat="62.647692297935" lon="17.856507902242">
        <ele>98.6</ele>
        <time>2018-03-20T12:11:14Z</time>
      </trkpt>
      <trkpt lat="62.647692800849" lon="17.856541681299">
        <ele>98.8</ele>
        <time>2018-03-20T12:11:15Z</time>
      </trkpt>
      <trkpt lat="62.647690370098" lon="17.856587195016">
        <ele>99</ele>
        <time>2018-03-20T12:11:16Z</time>
      </trkpt>
      <trkpt lat="62.647686262967" lon="17.856639330434">
        <ele>99.2</ele>
        <time>2018-03-20T12:11:17Z</time>
      </trkpt>
      <trkpt lat="62.647683664578" lon="17.856681659029">
        <ele>99.2</ele>
        <time>2018-03-20T12:11:18Z</time>
      </trkpt>
      <trkpt lat="62.647679054533" lon="17.856734800275">
        <ele>99.4</ele>
        <time>2018-03-20T12:11:19Z</time>
      </trkpt>
      <trkpt lat="62.647677042877" lon="17.856785007856">
        <ele>99.4</ele>
        <time>2018-03-20T12:11:20Z</time>
      </trkpt>
      <trkpt lat="62.64767343866" lon="17.856842256233">
        <ele>99.4</ele>
        <time>2018-03-20T12:11:21Z</time>
      </trkpt>
      <trkpt lat="62.647675198859" lon="17.856894559289">
        <ele>99.6</ele>
        <time>2018-03-20T12:11:22Z</time>
      </trkpt>
      <trkpt lat="62.647671510823" lon="17.856959519014">
        <ele>99.6</ele>
        <time>2018-03-20T12:11:23Z</time>
      </trkpt>
      <trkpt lat="62.64766757133" lon="17.857028502051">
        <ele>99.6</ele>
        <time>2018-03-20T12:11:24Z</time>
      </trkpt>
      <trkpt lat="62.647657848326" lon="17.857098323278">
        <ele>99.8</ele>
        <time>2018-03-20T12:11:25Z</time>
      </trkpt>
      <trkpt lat="62.647644353467" lon="17.857166468125">
        <ele>99.6</ele>
        <time>2018-03-20T12:11:26Z</time>
      </trkpt>
      <trkpt lat="62.647630774789" lon="17.857232433678">
        <ele>99.6</ele>
        <time>2018-03-20T12:11:27Z</time>
      </trkpt>
      <trkpt lat="62.64762314726" lon="17.857295800842">
        <ele>99.4</ele>
        <time>2018-03-20T12:11:28Z</time>
      </trkpt>
      <trkpt lat="62.647611747876" lon="17.857389678122">
        <ele>99.4</ele>
        <time>2018-03-20T12:11:29Z</time>
      </trkpt>
      <trkpt lat="62.647605293813" lon="17.857473161846">
        <ele>99.2</ele>
        <time>2018-03-20T12:11:30Z</time>
      </trkpt>
      <trkpt lat="62.64759967794" lon="17.857543318349">
        <ele>99</ele>
        <time>2018-03-20T12:11:31Z</time>
      </trkpt>
      <trkpt lat="62.647594145886" lon="17.857616827612">
        <ele>98.8</ele>
        <time>2018-03-20T12:11:32Z</time>
      </trkpt>
      <trkpt lat="62.647593391515" lon="17.85768991778">
        <ele>98.6</ele>
        <time>2018-03-20T12:11:33Z</time>
      </trkpt>
      <trkpt lat="62.647588110918" lon="17.857760493378">
        <ele>98.6</ele>
        <time>2018-03-20T12:11:34Z</time>
      </trkpt>
      <trkpt lat="62.647578807009" lon="17.857843893283">
        <ele>98.4</ele>
        <time>2018-03-20T12:11:35Z</time>
      </trkpt>
      <trkpt lat="62.647571850032" lon="17.857907092809">
        <ele>98.4</ele>
        <time>2018-03-20T12:11:36Z</time>
      </trkpt>
      <trkpt lat="62.647563132856" lon="17.857968951231">
        <ele>98.4</ele>
        <time>2018-03-20T12:11:37Z</time>
      </trkpt>
      <trkpt lat="62.647555756784" lon="17.858017398613">
        <ele>98.4</ele>
        <time>2018-03-20T12:11:38Z</time>
      </trkpt>
      <trkpt lat="62.647548715988" lon="17.858082358338">
        <ele>98.6</ele>
        <time>2018-03-20T12:11:39Z</time>
      </trkpt>
      <trkpt lat="62.647540920821" lon="17.858141366914">
        <ele>98.6</ele>
        <time>2018-03-20T12:11:40Z</time>
      </trkpt>
      <trkpt lat="62.647533628568" lon="17.858196519816">
        <ele>98.8</ele>
        <time>2018-03-20T12:11:41Z</time>
      </trkpt>
      <trkpt lat="62.647525414306" lon="17.858254271107">
        <ele>98.8</ele>
        <time>2018-03-20T12:11:42Z</time>
      </trkpt>
      <trkpt lat="62.64752004989" lon="17.858307999086">
        <ele>98.8</ele>
        <time>2018-03-20T12:11:43Z</time>
      </trkpt>
      <trkpt lat="62.647515188388" lon="17.858368600223">
        <ele>98.8</ele>
        <time>2018-03-20T12:11:44Z</time>
      </trkpt>
      <trkpt lat="62.647513428189" lon="17.858423836944">
        <ele>98.8</ele>
        <time>2018-03-20T12:11:45Z</time>
      </trkpt>
      <trkpt lat="62.647512087085" lon="17.858491395058">
        <ele>99</ele>
        <time>2018-03-20T12:11:46Z</time>
      </trkpt>
      <trkpt lat="62.64751418256" lon="17.858568759995">
        <ele>99</ele>
        <time>2018-03-20T12:11:47Z</time>
      </trkpt>
      <trkpt lat="62.647517116225" lon="17.858624248173">
        <ele>99.2</ele>
        <time>2018-03-20T12:11:48Z</time>
      </trkpt>
      <trkpt lat="62.647512087085" lon="17.85869155483">
        <ele>99.2</ele>
        <time>2018-03-20T12:11:49Z</time>
      </trkpt>
      <trkpt lat="62.6475108298" lon="17.858754335261">
        <ele>99.2</ele>
        <time>2018-03-20T12:11:50Z</time>
      </trkpt>
      <trkpt lat="62.647507728497" lon="17.858823569755">
        <ele>99.2</ele>
        <time>2018-03-20T12:11:51Z</time>
      </trkpt>
      <trkpt lat="62.647503202271" lon="17.85888769129">
        <ele>99.2</ele>
        <time>2018-03-20T12:11:52Z</time>
      </trkpt>
      <trkpt lat="62.647499346597" lon="17.858949382074">
        <ele>99</ele>
        <time>2018-03-20T12:11:53Z</time>
      </trkpt>
      <trkpt lat="62.647493730724" lon="17.859019873853">
        <ele>99</ele>
        <time>2018-03-20T12:11:54Z</time>
      </trkpt>
      <trkpt lat="62.647486941385" lon="17.859076786954">
        <ele>99</ele>
        <time>2018-03-20T12:11:55Z</time>
      </trkpt>
      <trkpt lat="62.64747897858" lon="17.85914250105">
        <ele>98.8</ele>
        <time>2018-03-20T12:11:56Z</time>
      </trkpt>
      <trkpt lat="62.647475709639" lon="17.859201006712">
        <ele>98.8</ele>
        <time>2018-03-20T12:11:57Z</time>
      </trkpt>
      <trkpt lat="62.647471015775" lon="17.859247693895">
        <ele>98.8</ele>
        <time>2018-03-20T12:11:58Z</time>
      </trkpt>
      <trkpt lat="62.647461711866" lon="17.859310474326">
        <ele>99</ele>
        <time>2018-03-20T12:11:59Z</time>
      </trkpt>
      <trkpt lat="62.647458610563" lon="17.859365543409">
        <ele>99.2</ele>
        <time>2018-03-20T12:12:00Z</time>
      </trkpt>
      <trkpt lat="62.647454587251" lon="17.859413320239">
        <ele>99.2</ele>
        <time>2018-03-20T12:12:01Z</time>
      </trkpt>
      <trkpt lat="62.647445702437" lon="17.859463276363">
        <ele>99.2</ele>
        <time>2018-03-20T12:12:02Z</time>
      </trkpt>
      <trkpt lat="62.647432542854" lon="17.859515160324">
        <ele>99.2</ele>
        <time>2018-03-20T12:12:03Z</time>
      </trkpt>
      <trkpt lat="62.647418293624" lon="17.85955489053">
        <ele>99.4</ele>
        <time>2018-03-20T12:12:04Z</time>
      </trkpt>
      <trkpt lat="62.647407061878" lon="17.859599649876">
        <ele>99.4</ele>
        <time>2018-03-20T12:12:05Z</time>
      </trkpt>
      <trkpt lat="62.647390549535" lon="17.859647342887">
        <ele>99.4</ele>
        <time>2018-03-20T12:12:06Z</time>
      </trkpt>
      <trkpt lat="62.647376132667" lon="17.859688414197">
        <ele>99.2</ele>
        <time>2018-03-20T12:12:07Z</time>
      </trkpt>
      <trkpt lat="62.647359368867" lon="17.859738370321">
        <ele>99.4</ele>
        <time>2018-03-20T12:12:08Z</time>
      </trkpt>
      <trkpt lat="62.64733732447" lon="17.859794361413">
        <ele>99.6</ele>
        <time>2018-03-20T12:12:09Z</time>
      </trkpt>
      <trkpt lat="62.647323242878" lon="17.85983903694">
        <ele>99.6</ele>
        <time>2018-03-20T12:12:10Z</time>
      </trkpt>
      <trkpt lat="62.647308155458" lon="17.85988513739">
        <ele>99.8</ele>
        <time>2018-03-20T12:12:11Z</time>
      </trkpt>
      <trkpt lat="62.647288625631" lon="17.859937608084">
        <ele>99.8</ele>
        <time>2018-03-20T12:12:12Z</time>
      </trkpt>
      <trkpt lat="62.647275130772" lon="17.859981361602">
        <ele>100</ele>
        <time>2018-03-20T12:12:13Z</time>
      </trkpt>
      <trkpt lat="62.6472593728" lon="17.860026456224">
        <ele>100</ele>
        <time>2018-03-20T12:12:14Z</time>
      </trkpt>
      <trkpt lat="62.647238334231" lon="17.860075574158">
        <ele>100</ele>
        <time>2018-03-20T12:12:15Z</time>
      </trkpt>
      <trkpt lat="62.647216457472" lon="17.860118824762">
        <ele>100</ele>
        <time>2018-03-20T12:12:16Z</time>
      </trkpt>
      <trkpt lat="62.647190808858" lon="17.860170708723">
        <ele>100</ele>
        <time>2018-03-20T12:12:17Z</time>
      </trkpt>
      <trkpt lat="62.647173625963" lon="17.860216054802">
        <ele>100</ele>
        <time>2018-03-20T12:12:18Z</time>
      </trkpt>
      <trkpt lat="62.647147474435" lon="17.860267268211">
        <ele>100.2</ele>
        <time>2018-03-20T12:12:19Z</time>
      </trkpt>
      <trkpt lat="62.64711520412" lon="17.860320074181">
        <ele>100</ele>
        <time>2018-03-20T12:12:20Z</time>
      </trkpt>
      <trkpt lat="62.647089555506" lon="17.860362738052">
        <ele>100.2</ele>
        <time>2018-03-20T12:12:21Z</time>
      </trkpt>
      <trkpt lat="62.6470665891" lon="17.860392409978">
        <ele>100.2</ele>
        <time>2018-03-20T12:12:22Z</time>
      </trkpt>
      <trkpt lat="62.647040521391" lon="17.860424680293">
        <ele>100</ele>
        <time>2018-03-20T12:12:23Z</time>
      </trkpt>
      <trkpt lat="62.64701294494" lon="17.860455022771">
        <ele>99.8</ele>
        <time>2018-03-20T12:12:24Z</time>
      </trkpt>
      <trkpt lat="62.646989894715" lon="17.860480671385">
        <ele>99.8</ele>
        <time>2018-03-20T12:12:25Z</time>
      </trkpt>
      <trkpt lat="62.646963575549" lon="17.860506655275">
        <ele>99.8</ele>
        <time>2018-03-20T12:12:26Z</time>
      </trkpt>
      <trkpt lat="62.64693750784" lon="17.860537500667">
        <ele>99.8</ele>
        <time>2018-03-20T12:12:27Z</time>
      </trkpt>
      <trkpt lat="62.646910937217" lon="17.860564322747">
        <ele>99.8</ele>
        <time>2018-03-20T12:12:28Z</time>
      </trkpt>
      <trkpt lat="62.646874308314" lon="17.860611512844">
        <ele>100</ele>
        <time>2018-03-20T12:12:29Z</time>
      </trkpt>
      <trkpt lat="62.646843882017" lon="17.860650321041">
        <ele>100.2</ele>
        <time>2018-03-20T12:12:30Z</time>
      </trkpt>
      <trkpt lat="62.646814880643" lon="17.860689464514">
        <ele>100.2</ele>
        <time>2018-03-20T12:12:31Z</time>
      </trkpt>
      <trkpt lat="62.646792081875" lon="17.860724333218">
        <ele>100.2</ele>
        <time>2018-03-20T12:12:32Z</time>
      </trkpt>
      <trkpt lat="62.646762577587" lon="17.860763644329">
        <ele>100.2</ele>
        <time>2018-03-20T12:12:33Z</time>
      </trkpt>
      <trkpt lat="62.646736509878" lon="17.860806643476">
        <ele>100</ele>
        <time>2018-03-20T12:12:34Z</time>
      </trkpt>
      <trkpt lat="62.646710777445" lon="17.860848552976">
        <ele>99.8</ele>
        <time>2018-03-20T12:12:35Z</time>
      </trkpt>
      <trkpt lat="62.646684542098" lon="17.860878811635">
        <ele>99.8</ele>
        <time>2018-03-20T12:12:36Z</time>
      </trkpt>
      <trkpt lat="62.646658474389" lon="17.86091192014">
        <ele>99.6</ele>
        <time>2018-03-20T12:12:37Z</time>
      </trkpt>
      <trkpt lat="62.646633747784" lon="17.860940837695">
        <ele>99.6</ele>
        <time>2018-03-20T12:12:38Z</time>
      </trkpt>
      <trkpt lat="62.646600639279" lon="17.860974952028">
        <ele>99.6</ele>
        <time>2018-03-20T12:12:39Z</time>
      </trkpt>
      <trkpt lat="62.646576499407" lon="17.861003785764">
        <ele>99.6</ele>
        <time>2018-03-20T12:12:40Z</time>
      </trkpt>
      <trkpt lat="62.64655613139" lon="17.861027422722">
        <ele>99.6</ele>
        <time>2018-03-20T12:12:41Z</time>
      </trkpt>
      <trkpt lat="62.646532242975" lon="17.861054244802">
        <ele>99.8</ele>
        <time>2018-03-20T12:12:42Z</time>
      </trkpt>
      <trkpt lat="62.646508606017" lon="17.861083497633">
        <ele>99.8</ele>
        <time>2018-03-20T12:12:43Z</time>
      </trkpt>
      <trkpt lat="62.646485052878" lon="17.86111140936">
        <ele>99.8</ele>
        <time>2018-03-20T12:12:44Z</time>
      </trkpt>
      <trkpt lat="62.646455967685" lon="17.86113990782">
        <ele>99.8</ele>
        <time>2018-03-20T12:12:45Z</time>
      </trkpt>
      <trkpt lat="62.646428894148" lon="17.861168741556">
        <ele>99.8</ele>
        <time>2018-03-20T12:12:46Z</time>
      </trkpt>
      <trkpt lat="62.646403077896" lon="17.861195647455">
        <ele>99.8</ele>
        <time>2018-03-20T12:12:47Z</time>
      </trkpt>
      <trkpt lat="62.64638011149" lon="17.861219703508">
        <ele>99.8</ele>
        <time>2018-03-20T12:12:48Z</time>
      </trkpt>
      <trkpt lat="62.646354546695" lon="17.86124049062">
        <ele>99.8</ele>
        <time>2018-03-20T12:12:49Z</time>
      </trkpt>
      <trkpt lat="62.646330574461" lon="17.861260858637">
        <ele>99.6</ele>
        <time>2018-03-20T12:12:50Z</time>
      </trkpt>
      <trkpt lat="62.646310038806" lon="17.861283070672">
        <ele>99.8</ele>
        <time>2018-03-20T12:12:51Z</time>
      </trkpt>
      <trkpt lat="62.646291430988" lon="17.861307210544">
        <ele>100</ele>
        <time>2018-03-20T12:12:52Z</time>
      </trkpt>
      <trkpt lat="62.646274080455" lon="17.86133352971">
        <ele>100.2</ele>
        <time>2018-03-20T12:12:53Z</time>
      </trkpt>
      <trkpt lat="62.646255472637" lon="17.861358004858">
        <ele>100.6</ele>
        <time>2018-03-20T12:12:54Z</time>
      </trkpt>
      <trkpt lat="62.646242145416" lon="17.861386587137">
        <ele>101</ele>
        <time>2018-03-20T12:12:55Z</time>
      </trkpt>
      <trkpt lat="62.646225297797" lon="17.861419276547">
        <ele>101.2</ele>
        <time>2018-03-20T12:12:56Z</time>
      </trkpt>
      <trkpt lat="62.646209288368" lon="17.861460431676">
        <ele>101.6</ele>
        <time>2018-03-20T12:12:57Z</time>
      </trkpt>
      <trkpt lat="62.646192776025" lon="17.861499407511">
        <ele>101.6</ele>
        <time>2018-03-20T12:12:58Z</time>
      </trkpt>
      <trkpt lat="62.646172994741" lon="17.86154978273">
        <ele>101.8</ele>
        <time>2018-03-20T12:12:59Z</time>
      </trkpt>
      <trkpt lat="62.646152207629" lon="17.861597475741">
        <ele>102</ele>
        <time>2018-03-20T12:13:00Z</time>
      </trkpt>
      <trkpt lat="62.646131504336" lon="17.861652712462">
        <ele>101.8</ele>
        <time>2018-03-20T12:13:01Z</time>
      </trkpt>
      <trkpt lat="62.646110465767" lon="17.861712726866">
        <ele>101.8</ele>
        <time>2018-03-20T12:13:02Z</time>
      </trkpt>
      <trkpt lat="62.646090349207" lon="17.861772489813">
        <ele>101.6</ele>
        <time>2018-03-20T12:13:03Z</time>
      </trkpt>
      <trkpt lat="62.646067969534" lon="17.86183812009">
        <ele>101.6</ele>
        <time>2018-03-20T12:13:04Z</time>
      </trkpt>
      <trkpt lat="62.646046763327" lon="17.861918334873">
        <ele>101.4</ele>
        <time>2018-03-20T12:13:05Z</time>
      </trkpt>
      <trkpt lat="62.646025389482" lon="17.861979941838">
        <ele>101.2</ele>
        <time>2018-03-20T12:13:06Z</time>
      </trkpt>
      <trkpt lat="62.646001668705" lon="17.862039704785">
        <ele>101.2</ele>
        <time>2018-03-20T12:13:07Z</time>
      </trkpt>
      <trkpt lat="62.645975349539" lon="17.862096114972">
        <ele>101</ele>
        <time>2018-03-20T12:13:08Z</time>
      </trkpt>
      <trkpt lat="62.64594844364" lon="17.862165349466">
        <ele>101</ele>
        <time>2018-03-20T12:13:09Z</time>
      </trkpt>
      <trkpt lat="62.645928662356" lon="17.862227124069">
        <ele>100.8</ele>
        <time>2018-03-20T12:13:10Z</time>
      </trkpt>
      <trkpt lat="62.645903432837" lon="17.862285042998">
        <ele>100.8</ele>
        <time>2018-03-20T12:13:11Z</time>
      </trkpt>
      <trkpt lat="62.645882058992" lon="17.862343213384">
        <ele>100.6</ele>
        <time>2018-03-20T12:13:12Z</time>
      </trkpt>
      <trkpt lat="62.645872252169" lon="17.862396438449">
        <ele>100.4</ele>
        <time>2018-03-20T12:13:13Z</time>
      </trkpt>
      <trkpt lat="62.645860768966" lon="17.86245418974">
        <ele>100.4</ele>
        <time>2018-03-20T12:13:14Z</time>
      </trkpt>
      <trkpt lat="62.645854733998" lon="17.862504229683">
        <ele>100.4</ele>
        <time>2018-03-20T12:13:15Z</time>
      </trkpt>
      <trkpt lat="62.645846687374" lon="17.862561058965">
        <ele>100.4</ele>
        <time>2018-03-20T12:13:16Z</time>
      </trkpt>
      <trkpt lat="62.645840903863" lon="17.862634819685">
        <ele>100.4</ele>
        <time>2018-03-20T12:13:17Z</time>
      </trkpt>
      <trkpt lat="62.645835790904" lon="17.862697013383">
        <ele>100.6</ele>
        <time>2018-03-20T12:13:18Z</time>
      </trkpt>
      <trkpt lat="62.645829588298" lon="17.862765661144">
        <ele>100.4</ele>
        <time>2018-03-20T12:13:19Z</time>
      </trkpt>
      <trkpt lat="62.645826151719" lon="17.862831626697">
        <ele>100.2</ele>
        <time>2018-03-20T12:13:20Z</time>
      </trkpt>
      <trkpt lat="62.64582271514" lon="17.86289591587">
        <ele>100</ele>
        <time>2018-03-20T12:13:21Z</time>
      </trkpt>
      <trkpt lat="62.645820871122" lon="17.862959450672">
        <ele>100</ele>
        <time>2018-03-20T12:13:22Z</time>
      </trkpt>
      <trkpt lat="62.645822379864" lon="17.863013933022">
        <ele>99.8</ele>
        <time>2018-03-20T12:13:23Z</time>
      </trkpt>
      <trkpt lat="62.645819027104" lon="17.863079814756">
        <ele>99.8</ele>
        <time>2018-03-20T12:13:24Z</time>
      </trkpt>
      <trkpt lat="62.64582187695" lon="17.863145193576">
        <ele>99.8</ele>
        <time>2018-03-20T12:13:25Z</time>
      </trkpt>
      <trkpt lat="62.645825564986" lon="17.86318844418">
        <ele>99.8</ele>
        <time>2018-03-20T12:13:26Z</time>
      </trkpt>
      <trkpt lat="62.645830929402" lon="17.863236891562">
        <ele>100</ele>
        <time>2018-03-20T12:13:27Z</time>
      </trkpt>
      <trkpt lat="62.645833695429" lon="17.863278717243">
        <ele>100</ele>
        <time>2018-03-20T12:13:28Z</time>
      </trkpt>
      <trkpt lat="62.645843166976" lon="17.863315262327">
        <ele>99.8</ele>
        <time>2018-03-20T12:13:29Z</time>
      </trkpt>
      <trkpt lat="62.6458512136" lon="17.863355914542">
        <ele>100</ele>
        <time>2018-03-20T12:13:30Z</time>
      </trkpt>
      <trkpt lat="62.645856829473" lon="17.863405451571">
        <ele>100</ele>
        <time>2018-03-20T12:13:31Z</time>
      </trkpt>
      <trkpt lat="62.645862780622" lon="17.863463621957">
        <ele>100.2</ele>
        <time>2018-03-20T12:13:32Z</time>
      </trkpt>
      <trkpt lat="62.645869150866" lon="17.863513326624">
        <ele>100.2</ele>
        <time>2018-03-20T12:13:33Z</time>
      </trkpt>
      <trkpt lat="62.645875688748" lon="17.863572838114">
        <ele>100.2</ele>
        <time>2018-03-20T12:13:34Z</time>
      </trkpt>
      <trkpt lat="62.645881556078" lon="17.863653723449">
        <ele>100.4</ele>
        <time>2018-03-20T12:13:35Z</time>
      </trkpt>
      <trkpt lat="62.645886836675" lon="17.863711726197">
        <ele>100.4</ele>
        <time>2018-03-20T12:13:36Z</time>
      </trkpt>
      <trkpt lat="62.645888596874" lon="17.863768639298">
        <ele>100.2</ele>
        <time>2018-03-20T12:13:37Z</time>
      </trkpt>
      <trkpt lat="62.645891865815" lon="17.863828318426">
        <ele>100.2</ele>
        <time>2018-03-20T12:13:38Z</time>
      </trkpt>
      <trkpt lat="62.645900750629" lon="17.863890260667">
        <ele>100.2</ele>
        <time>2018-03-20T12:13:39Z</time>
      </trkpt>
      <trkpt lat="62.645908881072" lon="17.863937366945">
        <ele>100.2</ele>
        <time>2018-03-20T12:13:40Z</time>
      </trkpt>
      <trkpt lat="62.645924303768" lon="17.863993693313">
        <ele>100.2</ele>
        <time>2018-03-20T12:13:41Z</time>
      </trkpt>
      <trkpt lat="62.645940564654" lon="17.8640333397">
        <ele>100.2</ele>
        <time>2018-03-20T12:13:42Z</time>
      </trkpt>
      <trkpt lat="62.64595598735" lon="17.864056306106">
        <ele>100.4</ele>
        <time>2018-03-20T12:13:43Z</time>
      </trkpt>
      <trkpt lat="62.645978534661" lon="17.864080948892">
        <ele>100.4</ele>
        <time>2018-03-20T12:13:44Z</time>
      </trkpt>
      <trkpt lat="62.646000243782" lon="17.864109363533">
        <ele>100.4</ele>
        <time>2018-03-20T12:13:45Z</time>
      </trkpt>
      <trkpt lat="62.646023294007" lon="17.864140041287">
        <ele>100.4</ele>
        <time>2018-03-20T12:13:46Z</time>
      </trkpt>
      <trkpt lat="62.646044500214" lon="17.864151356852">
        <ele>100.6</ele>
        <time>2018-03-20T12:13:47Z</time>
      </trkpt>
      <trkpt lat="62.646063778584" lon="17.864162504779">
        <ele>100.8</ele>
        <time>2018-03-20T12:13:48Z</time>
      </trkpt>
      <trkpt lat="62.646088002275" lon="17.864178849484">
        <ele>100.8</ele>
        <time>2018-03-20T12:13:49Z</time>
      </trkpt>
      <trkpt lat="62.646113399432" lon="17.86419511037">
        <ele>100.8</ele>
        <time>2018-03-20T12:13:50Z</time>
      </trkpt>
      <trkpt lat="62.646134605639" lon="17.864202067347">
        <ele>100.8</ele>
        <time>2018-03-20T12:13:51Z</time>
      </trkpt>
      <trkpt lat="62.646153716371" lon="17.864209862514">
        <ele>101</ele>
        <time>2018-03-20T12:13:52Z</time>
      </trkpt>
      <trkpt lat="62.64618229865" lon="17.864217154767">
        <ele>101</ele>
        <time>2018-03-20T12:13:53Z</time>
      </trkpt>
      <trkpt lat="62.646208198721" lon="17.864222351545">
        <ele>101.2</ele>
        <time>2018-03-20T12:13:54Z</time>
      </trkpt>
      <trkpt lat="62.646233009145" lon="17.864235427309">
        <ele>101.2</ele>
        <time>2018-03-20T12:13:55Z</time>
      </trkpt>
      <trkpt lat="62.646261759062" lon="17.864245234132">
        <ele>101.4</ele>
        <time>2018-03-20T12:13:56Z</time>
      </trkpt>
      <trkpt lat="62.646286988581" lon="17.864247161969">
        <ele>101.6</ele>
        <time>2018-03-20T12:13:57Z</time>
      </trkpt>
      <trkpt lat="62.646300231983" lon="17.864248083978">
        <ele>101.8</ele>
        <time>2018-03-20T12:13:58Z</time>
      </trkpt>
      <trkpt lat="62.646319258896" lon="17.864259231905">
        <ele>102</ele>
        <time>2018-03-20T12:13:59Z</time>
      </trkpt>
      <trkpt lat="62.646343650225" lon="17.864266691796">
        <ele>102</ele>
        <time>2018-03-20T12:14:00Z</time>
      </trkpt>
      <trkpt lat="62.646365694622" lon="17.864270715108">
        <ele>102.2</ele>
        <time>2018-03-20T12:14:01Z</time>
      </trkpt>
      <trkpt lat="62.646393019616" lon="17.864273816411">
        <ele>102.2</ele>
        <time>2018-03-20T12:14:02Z</time>
      </trkpt>
      <trkpt lat="62.646416069841" lon="17.864259734819">
        <ele>102.4</ele>
        <time>2018-03-20T12:14:03Z</time>
      </trkpt>
      <trkpt lat="62.646433588012" lon="17.864249425082">
        <ele>102.4</ele>
        <time>2018-03-20T12:14:04Z</time>
      </trkpt>
      <trkpt lat="62.646460326273" lon="17.864250263272">
        <ele>102.4</ele>
        <time>2018-03-20T12:14:05Z</time>
      </trkpt>
      <trkpt lat="62.646486310163" lon="17.864254118946">
        <ele>102.6</ele>
        <time>2018-03-20T12:14:06Z</time>
      </trkpt>
      <trkpt lat="62.646511539682" lon="17.864255879145">
        <ele>102.6</ele>
        <time>2018-03-20T12:14:07Z</time>
      </trkpt>
      <trkpt lat="62.646537858848" lon="17.864259399543">
        <ele>102.4</ele>
        <time>2018-03-20T12:14:08Z</time>
      </trkpt>
      <trkpt lat="62.646571973181" lon="17.864268535814">
        <ele>102.6</ele>
        <time>2018-03-20T12:14:09Z</time>
      </trkpt>
      <trkpt lat="62.646606841885" lon="17.864283455596">
        <ele>102.6</ele>
        <time>2018-03-20T12:14:10Z</time>
      </trkpt>
      <trkpt lat="62.646648919023" lon="17.86431161878">
        <ele>102.6</ele>
        <time>2018-03-20T12:14:11Z</time>
      </trkpt>
      <trkpt lat="62.646693259274" lon="17.864338524679">
        <ele>102.6</ele>
        <time>2018-03-20T12:14:12Z</time>
      </trkpt>
      <trkpt lat="62.646734498222" lon="17.864361239628">
        <ele>102.4</ele>
        <time>2018-03-20T12:14:13Z</time>
      </trkpt>
      <trkpt lat="62.646778000283" lon="17.864391749744">
        <ele>102.4</ele>
        <time>2018-03-20T12:14:14Z</time>
      </trkpt>
      <trkpt lat="62.646820245059" lon="17.86441639253">
        <ele>102</ele>
        <time>2018-03-20T12:14:15Z</time>
      </trkpt>
      <trkpt lat="62.646858047428" lon="17.864442124963">
        <ele>101.6</ele>
        <time>2018-03-20T12:14:16Z</time>
      </trkpt>
      <trkpt lat="62.646902974412" lon="17.864472718898">
        <ele>101</ele>
        <time>2018-03-20T12:14:17Z</time>
      </trkpt>
      <trkpt lat="62.646942201704" lon="17.864500462987">
        <ele>100.6</ele>
        <time>2018-03-20T12:14:18Z</time>
      </trkpt>
      <trkpt lat="62.646988134516" lon="17.864530218732">
        <ele>100.2</ele>
        <time>2018-03-20T12:14:19Z</time>
      </trkpt>
      <trkpt lat="62.647039012649" lon="17.86456475216">
        <ele>99.6</ele>
        <time>2018-03-20T12:14:20Z</time>
      </trkpt>
      <trkpt lat="62.647094165551" lon="17.86459995614">
        <ele>99</ele>
        <time>2018-03-20T12:14:21Z</time>
      </trkpt>
      <trkpt lat="62.647147306797" lon="17.86463264555">
        <ele>98.4</ele>
        <time>2018-03-20T12:14:22Z</time>
      </trkpt>
      <trkpt lat="62.647203297889" lon="17.864659719087">
        <ele>97.6</ele>
        <time>2018-03-20T12:14:23Z</time>
      </trkpt>
      <trkpt lat="62.647267251786" lon="17.864684194235">
        <ele>96.8</ele>
        <time>2018-03-20T12:14:24Z</time>
      </trkpt>
      <trkpt lat="62.647326260362" lon="17.864705987175">
        <ele>96.2</ele>
        <time>2018-03-20T12:14:25Z</time>
      </trkpt>
      <trkpt lat="62.647383508739" lon="17.864728702124">
        <ele>95.4</ele>
        <time>2018-03-20T12:14:26Z</time>
      </trkpt>
      <trkpt lat="62.647431872302" lon="17.864751417073">
        <ele>94.8</ele>
        <time>2018-03-20T12:14:27Z</time>
      </trkpt>
      <trkpt lat="62.647475458182" lon="17.864770443986">
        <ele>94.4</ele>
        <time>2018-03-20T12:14:28Z</time>
      </trkpt>
      <trkpt lat="62.647530527265" lon="17.864798104256">
        <ele>93.8</ele>
        <time>2018-03-20T12:14:29Z</time>
      </trkpt>
      <trkpt lat="62.647582578864" lon="17.86482626744">
        <ele>93.4</ele>
        <time>2018-03-20T12:14:30Z</time>
      </trkpt>
      <trkpt lat="62.647635636291" lon="17.864867925483">
        <ele>92.8</ele>
        <time>2018-03-20T12:14:31Z</time>
      </trkpt>
      <trkpt lat="62.647684754225" lon="17.864930957371">
        <ele>92.4</ele>
        <time>2018-03-20T12:14:32Z</time>
      </trkpt>
      <trkpt lat="62.64772456825" lon="17.865007400299">
        <ele>92</ele>
        <time>2018-03-20T12:14:33Z</time>
      </trkpt>
      <trkpt lat="62.647758514945" lon="17.865077892078">
        <ele>91.6</ele>
        <time>2018-03-20T12:14:34Z</time>
      </trkpt>
      <trkpt lat="62.64779413802" lon="17.865158358318">
        <ele>91.2</ele>
        <time>2018-03-20T12:14:35Z</time>
      </trkpt>
      <trkpt lat="62.647823139394" lon="17.865224072414">
        <ele>90.6</ele>
        <time>2018-03-20T12:14:36Z</time>
      </trkpt>
      <trkpt lat="62.647853398053" lon="17.865286098474">
        <ele>90.2</ele>
        <time>2018-03-20T12:14:37Z</time>
      </trkpt>
      <trkpt lat="62.647884327264" lon="17.865339072082">
        <ele>89.6</ele>
        <time>2018-03-20T12:14:38Z</time>
      </trkpt>
      <trkpt lat="62.647921961995" lon="17.865387351826">
        <ele>89.6</ele>
        <time>2018-03-20T12:14:39Z</time>
      </trkpt>
      <trkpt lat="62.647949789903" lon="17.865428590774">
        <ele>90</ele>
        <time>2018-03-20T12:14:40Z</time>
      </trkpt>
      <trkpt lat="62.647978204544" lon="17.865480474735">
        <ele>90</ele>
        <time>2018-03-20T12:14:41Z</time>
      </trkpt>
      <trkpt lat="62.64800284733" lon="17.86553034704">
        <ele>90.2</ele>
        <time>2018-03-20T12:14:42Z</time>
      </trkpt>
      <trkpt lat="62.648026987202" lon="17.865562114441">
        <ele>90.4</ele>
        <time>2018-03-20T12:14:43Z</time>
      </trkpt>
      <trkpt lat="62.648051713807" lon="17.865599246258">
        <ele>90.4</ele>
        <time>2018-03-20T12:14:44Z</time>
      </trkpt>
      <trkpt lat="62.648078787344" lon="17.865654566798">
        <ele>90.6</ele>
        <time>2018-03-20T12:14:45Z</time>
      </trkpt>
      <trkpt lat="62.648106196157" lon="17.865695219013">
        <ele>90.6</ele>
        <time>2018-03-20T12:14:46Z</time>
      </trkpt>
      <trkpt lat="62.648142741241" lon="17.865742995843">
        <ele>90.4</ele>
        <time>2018-03-20T12:14:47Z</time>
      </trkpt>
      <trkpt lat="62.648172748443" lon="17.865792197596">
        <ele>90.4</ele>
        <time>2018-03-20T12:14:48Z</time>
      </trkpt>
      <trkpt lat="62.648202001274" lon="17.86582119897">
        <ele>90.2</ele>
        <time>2018-03-20T12:14:49Z</time>
      </trkpt>
      <trkpt lat="62.648238294901" lon="17.865867047963">
        <ele>89.6</ele>
        <time>2018-03-20T12:14:50Z</time>
      </trkpt>
      <trkpt lat="62.648276181089" lon="17.865907783997">
        <ele>89.4</ele>
        <time>2018-03-20T12:14:51Z</time>
      </trkpt>
      <trkpt lat="62.648306188291" lon="17.865944496719">
        <ele>89.2</ele>
        <time>2018-03-20T12:14:52Z</time>
      </trkpt>
      <trkpt lat="62.648336782226" lon="17.865989256065">
        <ele>89.2</ele>
        <time>2018-03-20T12:14:53Z</time>
      </trkpt>
      <trkpt lat="62.648367292342" lon="17.866057736188">
        <ele>89</ele>
        <time>2018-03-20T12:14:54Z</time>
      </trkpt>
      <trkpt lat="62.648394701155" lon="17.866134765849">
        <ele>88.8</ele>
        <time>2018-03-20T12:14:55Z</time>
      </trkpt>
      <trkpt lat="62.64841691319" lon="17.866221183238">
        <ele>88.8</ele>
        <time>2018-03-20T12:14:56Z</time>
      </trkpt>
      <trkpt lat="62.648434934275" lon="17.866308606455">
        <ele>88.6</ele>
        <time>2018-03-20T12:14:57Z</time>
      </trkpt>
      <trkpt lat="62.648447674763" lon="17.866382031899">
        <ele>88</ele>
        <time>2018-03-20T12:14:58Z</time>
      </trkpt>
      <trkpt lat="62.648464187106" lon="17.866463839243">
        <ele>87.6</ele>
        <time>2018-03-20T12:14:59Z</time>
      </trkpt>
      <trkpt lat="62.648479442164" lon="17.866538102877">
        <ele>87</ele>
        <time>2018-03-20T12:15:00Z</time>
      </trkpt>
      <trkpt lat="62.648495786869" lon="17.866622760067">
        <ele>85.8</ele>
        <time>2018-03-20T12:15:01Z</time>
      </trkpt>
      <trkpt lat="62.64851498142" lon="17.866730970396">
        <ele>85</ele>
        <time>2018-03-20T12:15:02Z</time>
      </trkpt>
      <trkpt lat="62.648534175971" lon="17.866839348363">
        <ele>84.4</ele>
        <time>2018-03-20T12:15:03Z</time>
      </trkpt>
      <trkpt lat="62.648555968911" lon="17.866946971959">
        <ele>84</ele>
        <time>2018-03-20T12:15:04Z</time>
      </trkpt>
      <trkpt lat="62.648577426575" lon="17.867073706287">
        <ele>83.8</ele>
        <time>2018-03-20T12:15:05Z</time>
      </trkpt>
      <trkpt lat="62.648601147352" lon="17.867179653503">
        <ele>83.8</ele>
        <time>2018-03-20T12:15:06Z</time>
      </trkpt>
      <trkpt lat="62.648619503713" lon="17.867284846348">
        <ele>83.8</ele>
        <time>2018-03-20T12:15:07Z</time>
      </trkpt>
      <trkpt lat="62.648634088219" lon="17.867383668949">
        <ele>83.6</ele>
        <time>2018-03-20T12:15:08Z</time>
      </trkpt>
      <trkpt lat="62.648656300254" lon="17.867477210953">
        <ele>83.6</ele>
        <time>2018-03-20T12:15:09Z</time>
      </trkpt>
      <trkpt lat="62.648667112905" lon="17.86755122313">
        <ele>83.6</ele>
        <time>2018-03-20T12:15:10Z</time>
      </trkpt>
      <trkpt lat="62.648679853393" lon="17.86763085118">
        <ele>83.4</ele>
        <time>2018-03-20T12:15:11Z</time>
      </trkpt>
      <trkpt lat="62.648686642732" lon="17.867701845873">
        <ele>83.6</ele>
        <time>2018-03-20T12:15:12Z</time>
      </trkpt>
      <trkpt lat="62.648696281917" lon="17.867779965181">
        <ele>83.6</ele>
        <time>2018-03-20T12:15:13Z</time>
      </trkpt>
      <trkpt lat="62.648706675473" lon="17.867856575747">
        <ele>83.6</ele>
        <time>2018-03-20T12:15:14Z</time>
      </trkpt>
      <trkpt lat="62.648717404305" lon="17.867928995363">
        <ele>83.6</ele>
        <time>2018-03-20T12:15:15Z</time>
      </trkpt>
      <trkpt lat="62.648735509209" lon="17.867993116898">
        <ele>83.6</ele>
        <time>2018-03-20T12:15:16Z</time>
      </trkpt>
      <trkpt lat="62.648753530294" lon="17.868061932297">
        <ele>83.6</ele>
        <time>2018-03-20T12:15:17Z</time>
      </trkpt>
      <trkpt lat="62.648769874999" lon="17.868141476528">
        <ele>83.8</ele>
        <time>2018-03-20T12:15:18Z</time>
      </trkpt>
      <trkpt lat="62.648788147541" lon="17.868214985791">
        <ele>83.8</ele>
        <time>2018-03-20T12:15:19Z</time>
      </trkpt>
      <trkpt lat="62.64880750973" lon="17.868302995741">
        <ele>83.8</ele>
        <time>2018-03-20T12:15:20Z</time>
      </trkpt>
      <trkpt lat="62.648829637946" lon="17.868380025402">
        <ele>83.8</ele>
        <time>2018-03-20T12:15:21Z</time>
      </trkpt>
      <trkpt lat="62.648849922144" lon="17.868441045634">
        <ele>83.6</ele>
        <time>2018-03-20T12:15:22Z</time>
      </trkpt>
      <trkpt lat="62.648871966541" lon="17.868509944852">
        <ele>83.4</ele>
        <time>2018-03-20T12:15:23Z</time>
      </trkpt>
      <trkpt lat="62.64889803425" lon="17.868580436631">
        <ele>83</ele>
        <time>2018-03-20T12:15:24Z</time>
      </trkpt>
      <trkpt lat="62.64891312167" lon="17.868632823506">
        <ele>82.8</ele>
        <time>2018-03-20T12:15:25Z</time>
      </trkpt>
      <trkpt lat="62.648930220746" lon="17.868702812371">
        <ele>82.4</ele>
        <time>2018-03-20T12:15:26Z</time>
      </trkpt>
      <trkpt lat="62.648950756401" lon="17.868771963046">
        <ele>82.4</ele>
        <time>2018-03-20T12:15:27Z</time>
      </trkpt>
      <trkpt lat="62.64896676583" lon="17.868830217251">
        <ele>82.4</ele>
        <time>2018-03-20T12:15:28Z</time>
      </trkpt>
      <trkpt lat="62.648992917358" lon="17.868894757881">
        <ele>82.2</ele>
        <time>2018-03-20T12:15:29Z</time>
      </trkpt>
      <trkpt lat="62.649015799945" lon="17.868953095905">
        <ele>82.4</ele>
        <time>2018-03-20T12:15:30Z</time>
      </trkpt>
      <trkpt lat="62.649036922333" lon="17.869020989295">
        <ele>82.2</ele>
        <time>2018-03-20T12:15:31Z</time>
      </trkpt>
      <trkpt lat="62.649058882911" lon="17.869074549636">
        <ele>82</ele>
        <time>2018-03-20T12:15:32Z</time>
      </trkpt>
      <trkpt lat="62.649083022783" lon="17.869138671171">
        <ele>81.8</ele>
        <time>2018-03-20T12:15:33Z</time>
      </trkpt>
      <trkpt lat="62.649107665569" lon="17.869192482969">
        <ele>81.8</ele>
        <time>2018-03-20T12:15:34Z</time>
      </trkpt>
      <trkpt lat="62.649132895088" lon="17.869250569536">
        <ele>81.6</ele>
        <time>2018-03-20T12:15:35Z</time>
      </trkpt>
      <trkpt lat="62.649156615865" lon="17.869325838998">
        <ele>81.4</ele>
        <time>2018-03-20T12:15:36Z</time>
      </trkpt>
      <trkpt lat="62.649181510108" lon="17.869403874487">
        <ele>81.4</ele>
        <time>2018-03-20T12:15:37Z</time>
      </trkpt>
      <trkpt lat="62.649208835102" lon="17.869477132293">
        <ele>81</ele>
        <time>2018-03-20T12:15:38Z</time>
      </trkpt>
      <trkpt lat="62.649230376585" lon="17.869561705664">
        <ele>81.2</ele>
        <time>2018-03-20T12:15:39Z</time>
      </trkpt>
      <trkpt lat="62.649250493145" lon="17.869624402276">
        <ele>81</ele>
        <time>2018-03-20T12:15:40Z</time>
      </trkpt>
      <trkpt lat="62.649281338537" lon="17.869703778869">
        <ele>80.8</ele>
        <time>2018-03-20T12:15:41Z</time>
      </trkpt>
      <trkpt lat="62.64931377649" lon="17.869766391662">
        <ele>80.6</ele>
        <time>2018-03-20T12:15:42Z</time>
      </trkpt>
      <trkpt lat="62.649348729013" lon="17.869835039423">
        <ele>80.6</ele>
        <time>2018-03-20T12:15:43Z</time>
      </trkpt>
      <trkpt lat="62.649392733988" lon="17.869913326369">
        <ele>80.2</ele>
        <time>2018-03-20T12:15:44Z</time>
      </trkpt>
      <trkpt lat="62.649431458366" lon="17.86999622336">
        <ele>79.8</ele>
        <time>2018-03-20T12:15:45Z</time>
      </trkpt>
      <trkpt lat="62.649465991794" lon="17.870072079555">
        <ele>79.6</ele>
        <time>2018-03-20T12:15:46Z</time>
      </trkpt>
      <trkpt lat="62.649505386724" lon="17.870154389813">
        <ele>79.2</ele>
        <time>2018-03-20T12:15:47Z</time>
      </trkpt>
      <trkpt lat="62.64954092598" lon="17.870230748922">
        <ele>78.6</ele>
        <time>2018-03-20T12:15:48Z</time>
      </trkpt>
      <trkpt lat="62.649579231263" lon="17.870315909026">
        <ele>78</ele>
        <time>2018-03-20T12:15:49Z</time>
      </trkpt>
      <trkpt lat="62.64961803946" lon="17.870407858469">
        <ele>77.4</ele>
        <time>2018-03-20T12:15:50Z</time>
      </trkpt>
      <trkpt lat="62.649649806861" lon="17.870491258374">
        <ele>76.6</ele>
        <time>2018-03-20T12:15:51Z</time>
      </trkpt>
      <trkpt lat="62.649675706932" lon="17.870569629139">
        <ele>76.2</ele>
        <time>2018-03-20T12:15:52Z</time>
      </trkpt>
      <trkpt lat="62.649702109917" lon="17.870650514474">
        <ele>76</ele>
        <time>2018-03-20T12:15:53Z</time>
      </trkpt>
      <trkpt lat="62.649727926169" lon="17.87072712504">
        <ele>76</ele>
        <time>2018-03-20T12:15:54Z</time>
      </trkpt>
      <trkpt lat="62.649744522331" lon="17.870809602936">
        <ele>76</ele>
        <time>2018-03-20T12:15:55Z</time>
      </trkpt>
      <trkpt lat="62.649762543416" lon="17.870888141339">
        <ele>76.2</ele>
        <time>2018-03-20T12:15:56Z</time>
      </trkpt>
      <trkpt lat="62.649780313044" lon="17.870964668086">
        <ele>76.4</ele>
        <time>2018-03-20T12:15:57Z</time>
      </trkpt>
      <trkpt lat="62.649793556446" lon="17.87103306439">
        <ele>76.6</ele>
        <time>2018-03-20T12:15:58Z</time>
      </trkpt>
      <trkpt lat="62.649812918635" lon="17.871105316368">
        <ele>76.8</ele>
        <time>2018-03-20T12:15:59Z</time>
      </trkpt>
      <trkpt lat="62.649833035195" lon="17.871184441504">
        <ele>76.6</ele>
        <time>2018-03-20T12:16:00Z</time>
      </trkpt>
      <trkpt lat="62.649852145927" lon="17.871267589952">
        <ele>76.4</ele>
        <time>2018-03-20T12:16:01Z</time>
      </trkpt>
      <trkpt lat="62.649867652442" lon="17.871341769767">
        <ele>76.4</ele>
        <time>2018-03-20T12:16:02Z</time>
      </trkpt>
      <trkpt lat="62.649880812025" lon="17.871415781944">
        <ele>76.4</ele>
        <time>2018-03-20T12:16:03Z</time>
      </trkpt>
      <trkpt lat="62.649903778431" lon="17.871477053633">
        <ele>76.4</ele>
        <time>2018-03-20T12:16:04Z</time>
      </trkpt>
      <trkpt lat="62.649926577199" lon="17.871555172941">
        <ele>76.2</ele>
        <time>2018-03-20T12:16:05Z</time>
      </trkpt>
      <trkpt lat="62.64994074261" lon="17.871625413263">
        <ele>76</ele>
        <time>2018-03-20T12:16:06Z</time>
      </trkpt>
      <trkpt lat="62.649959434247" lon="17.87167511793">
        <ele>75.8</ele>
        <time>2018-03-20T12:16:07Z</time>
      </trkpt>
      <trkpt lat="62.649974940762" lon="17.871734377963">
        <ele>75.8</ele>
        <time>2018-03-20T12:16:08Z</time>
      </trkpt>
      <trkpt lat="62.649990782553" lon="17.871797661308">
        <ele>75.8</ele>
        <time>2018-03-20T12:16:09Z</time>
      </trkpt>
      <trkpt lat="62.650003774498" lon="17.871846695423">
        <ele>76</ele>
        <time>2018-03-20T12:16:10Z</time>
      </trkpt>
      <trkpt lat="62.650016263529" lon="17.871910816958">
        <ele>76</ele>
        <time>2018-03-20T12:16:11Z</time>
      </trkpt>
      <trkpt lat="62.650030512759" lon="17.871972843018">
        <ele>76</ele>
        <time>2018-03-20T12:16:12Z</time>
      </trkpt>
      <trkpt lat="62.650043504704" lon="17.87202045221">
        <ele>76</ele>
        <time>2018-03-20T12:16:13Z</time>
      </trkpt>
      <trkpt lat="62.650055239364" lon="17.872069737782">
        <ele>76</ele>
        <time>2018-03-20T12:16:14Z</time>
      </trkpt>
      <trkpt lat="62.650063872721" lon="17.872121957019">
        <ele>76</ele>
        <time>2018-03-20T12:16:15Z</time>
      </trkpt>
      <trkpt lat="62.650067476938" lon="17.872170572039">
        <ele>76.2</ele>
        <time>2018-03-20T12:16:16Z</time>
      </trkpt>
      <trkpt lat="62.650070410603" lon="17.872231256995">
        <ele>76</ele>
        <time>2018-03-20T12:16:17Z</time>
      </trkpt>
      <trkpt lat="62.650066890205" lon="17.872289762657">
        <ele>76.2</ele>
        <time>2018-03-20T12:16:18Z</time>
      </trkpt>
      <trkpt lat="62.650056664287" lon="17.872340556971">
        <ele>76.2</ele>
        <time>2018-03-20T12:16:19Z</time>
      </trkpt>
      <trkpt lat="62.650041157772" lon="17.872379113711">
        <ele>76.2</ele>
        <time>2018-03-20T12:16:20Z</time>
      </trkpt>
      <trkpt lat="62.6500170179" lon="17.87238925581">
        <ele>76.2</ele>
        <time>2018-03-20T12:16:21Z</time>
      </trkpt>
      <trkpt lat="62.649998493901" lon="17.872376934417">
        <ele>76.2</ele>
        <time>2018-03-20T12:16:22Z</time>
      </trkpt>
      <trkpt lat="62.6499834903" lon="17.872355141477">
        <ele>76.2</ele>
        <time>2018-03-20T12:16:23Z</time>
      </trkpt>
      <trkpt lat="62.649973348201" lon="17.872311639416">
        <ele>76.2</ele>
        <time>2018-03-20T12:16:24Z</time>
      </trkpt>
      <trkpt lat="62.64996840288" lon="17.87226520369">
        <ele>76.2</ele>
        <time>2018-03-20T12:16:25Z</time>
      </trkpt>
      <trkpt lat="62.649957254953" lon="17.872220025249">
        <ele>76.2</ele>
        <time>2018-03-20T12:16:26Z</time>
      </trkpt>
      <trkpt lat="62.649952141994" lon="17.872164034157">
        <ele>76.2</ele>
        <time>2018-03-20T12:16:27Z</time>
      </trkpt>
      <trkpt lat="62.649947951044" lon="17.872114078033">
        <ele>76.2</ele>
        <time>2018-03-20T12:16:28Z</time>
      </trkpt>
      <trkpt lat="62.649938898592" lon="17.872055153276">
        <ele>76.2</ele>
        <time>2018-03-20T12:16:29Z</time>
      </trkpt>
      <trkpt lat="62.649928421217" lon="17.872003520772">
        <ele>76.2</ele>
        <time>2018-03-20T12:16:30Z</time>
      </trkpt>
      <trkpt lat="62.649916686557" lon="17.87195339701">
        <ele>76.2</ele>
        <time>2018-03-20T12:16:31Z</time>
      </trkpt>
      <trkpt lat="62.649904365164" lon="17.871907799474">
        <ele>76.2</ele>
        <time>2018-03-20T12:16:32Z</time>
      </trkpt>
      <trkpt lat="62.649893133418" lon="17.871862118119">
        <ele>76</ele>
        <time>2018-03-20T12:16:33Z</time>
      </trkpt>
      <trkpt lat="62.649880979663" lon="17.871813922194">
        <ele>76</ele>
        <time>2018-03-20T12:16:34Z</time>
      </trkpt>
      <trkpt lat="62.64986195275" lon="17.871768240839">
        <ele>75.8</ele>
        <time>2018-03-20T12:16:35Z</time>
      </trkpt>
      <trkpt lat="62.649844015484" lon="17.871717362706">
        <ele>76</ele>
        <time>2018-03-20T12:16:36Z</time>
      </trkpt>
      <trkpt lat="62.649828257512" lon="17.871656510112">
        <ele>76</ele>
        <time>2018-03-20T12:16:37Z</time>
      </trkpt>
      <trkpt lat="62.649817444861" lon="17.871609068558">
        <ele>76</ele>
        <time>2018-03-20T12:16:38Z</time>
      </trkpt>
      <trkpt lat="62.649805039649" lon="17.8715435221">
        <ele>76</ele>
        <time>2018-03-20T12:16:39Z</time>
      </trkpt>
      <trkpt lat="62.649796238654" lon="17.871490129397">
        <ele>76</ele>
        <time>2018-03-20T12:16:40Z</time>
      </trkpt>
      <trkpt lat="62.64978567746" lon="17.871442771662">
        <ele>76</ele>
        <time>2018-03-20T12:16:41Z</time>
      </trkpt>
      <trkpt lat="62.649778720483" lon="17.871384601276">
        <ele>75.8</ele>
        <time>2018-03-20T12:16:42Z</time>
      </trkpt>
      <trkpt lat="62.649770087126" lon="17.871331711487">
        <ele>75.8</ele>
        <time>2018-03-20T12:16:43Z</time>
      </trkpt>
      <trkpt lat="62.649759106837" lon="17.871283347924">
        <ele>75.8</ele>
        <time>2018-03-20T12:16:44Z</time>
      </trkpt>
      <trkpt lat="62.649749048557" lon="17.871231128687">
        <ele>75.8</ele>
        <time>2018-03-20T12:16:45Z</time>
      </trkpt>
      <trkpt lat="62.649738571182" lon="17.87117639488">
        <ele>75.8</ele>
        <time>2018-03-20T12:16:46Z</time>
      </trkpt>
      <trkpt lat="62.64972784235" lon="17.871117051028">
        <ele>76</ele>
        <time>2018-03-20T12:16:47Z</time>
      </trkpt>
      <trkpt lat="62.649719125174" lon="17.871078661926">
        <ele>76</ele>
        <time>2018-03-20T12:16:48Z</time>
      </trkpt>
      <trkpt lat="62.649706719962" lon="17.871016384409">
        <ele>76.2</ele>
        <time>2018-03-20T12:16:49Z</time>
      </trkpt>
      <trkpt lat="62.649694566207" lon="17.870963913715">
        <ele>76.4</ele>
        <time>2018-03-20T12:16:50Z</time>
      </trkpt>
      <trkpt lat="62.649684591746" lon="17.870918819093">
        <ele>76.4</ele>
        <time>2018-03-20T12:16:51Z</time>
      </trkpt>
      <trkpt lat="62.649674365828" lon="17.870868862969">
        <ele>76.4</ele>
        <time>2018-03-20T12:16:52Z</time>
      </trkpt>
      <trkpt lat="62.649661122426" lon="17.870818823026">
        <ele>76.6</ele>
        <time>2018-03-20T12:16:53Z</time>
      </trkpt>
      <trkpt lat="62.649647711386" lon="17.870778086992">
        <ele>76.4</ele>
        <time>2018-03-20T12:16:54Z</time>
      </trkpt>
      <trkpt lat="62.649638910391" lon="17.870731735085">
        <ele>76.4</ele>
        <time>2018-03-20T12:16:55Z</time>
      </trkpt>
      <trkpt lat="62.649625247894" lon="17.870681946599">
        <ele>76.4</ele>
        <time>2018-03-20T12:16:56Z</time>
      </trkpt>
      <trkpt lat="62.649612758863" lon="17.870646323524">
        <ele>76.4</ele>
        <time>2018-03-20T12:16:57Z</time>
      </trkpt>
      <trkpt lat="62.649601946212" lon="17.870608437336">
        <ele>76.4</ele>
        <time>2018-03-20T12:16:58Z</time>
      </trkpt>
      <trkpt lat="62.649588032258" lon="17.87055781066">
        <ele>76.6</ele>
        <time>2018-03-20T12:16:59Z</time>
      </trkpt>
      <trkpt lat="62.649576800512" lon="17.870521265576">
        <ele>76.6</ele>
        <time>2018-03-20T12:17:00Z</time>
      </trkpt>
      <trkpt lat="62.649565401128" lon="17.87049494641">
        <ele>76.6</ele>
        <time>2018-03-20T12:17:01Z</time>
      </trkpt>
      <trkpt lat="62.649547547681" lon="17.870456054394">
        <ele>76.8</ele>
        <time>2018-03-20T12:17:02Z</time>
      </trkpt>
      <trkpt lat="62.649531370614" lon="17.870421604785">
        <ele>76.8</ele>
        <time>2018-03-20T12:17:03Z</time>
      </trkpt>
      <trkpt lat="62.649517624298" lon="17.870398806017">
        <ele>76.8</ele>
        <time>2018-03-20T12:17:04Z</time>
      </trkpt>
      <trkpt lat="62.649503710344" lon="17.870370475195">
        <ele>76.8</ele>
        <time>2018-03-20T12:17:05Z</time>
      </trkpt>
      <trkpt lat="62.649491221313" lon="17.870330409713">
        <ele>77</ele>
        <time>2018-03-20T12:17:06Z</time>
      </trkpt>
      <trkpt lat="62.649477642635" lon="17.870294702819">
        <ele>77</ele>
        <time>2018-03-20T12:17:07Z</time>
      </trkpt>
      <trkpt lat="62.649463477224" lon="17.870265869083">
        <ele>77.2</ele>
        <time>2018-03-20T12:17:08Z</time>
      </trkpt>
      <trkpt lat="62.649450233822" lon="17.87023929846">
        <ele>77.4</ele>
        <time>2018-03-20T12:17:09Z</time>
      </trkpt>
      <trkpt lat="62.649438415343" lon="17.870210464724">
        <ele>77.6</ele>
        <time>2018-03-20T12:17:10Z</time>
      </trkpt>
      <trkpt lat="62.649421400086" lon="17.8701772724">
        <ele>77.8</ele>
        <time>2018-03-20T12:17:11Z</time>
      </trkpt>
      <trkpt lat="62.64940597739" lon="17.870151120872">
        <ele>78</ele>
        <time>2018-03-20T12:17:12Z</time>
      </trkpt>
      <trkpt lat="62.649391057608" lon="17.87012614281">
        <ele>78.2</ele>
        <time>2018-03-20T12:17:13Z</time>
      </trkpt>
      <trkpt lat="62.649374712903" lon="17.870104014594">
        <ele>78.4</ele>
        <time>2018-03-20T12:17:14Z</time>
      </trkpt>
      <trkpt lat="62.649358535836" lon="17.870072833926">
        <ele>78.4</ele>
        <time>2018-03-20T12:17:15Z</time>
      </trkpt>
      <trkpt lat="62.649341772036" lon="17.870042659086">
        <ele>78.6</ele>
        <time>2018-03-20T12:17:16Z</time>
      </trkpt>
      <trkpt lat="62.649327941901" lon="17.870014160626">
        <ele>78.8</ele>
        <time>2018-03-20T12:17:17Z</time>
      </trkpt>
      <trkpt lat="62.64931461468" lon="17.869994630799">
        <ele>79</ele>
        <time>2018-03-20T12:17:18Z</time>
      </trkpt>
      <trkpt lat="62.649296425957" lon="17.869962947217">
        <ele>79</ele>
        <time>2018-03-20T12:17:19Z</time>
      </trkpt>
      <trkpt lat="62.64927857251" lon="17.869932185644">
        <ele>79.2</ele>
        <time>2018-03-20T12:17:20Z</time>
      </trkpt>
      <trkpt lat="62.64926180871" lon="17.869896897845">
        <ele>79.2</ele>
        <time>2018-03-20T12:17:21Z</time>
      </trkpt>
      <trkpt lat="62.649239680494" lon="17.869856329449">
        <ele>79.4</ele>
        <time>2018-03-20T12:17:22Z</time>
      </trkpt>
      <trkpt lat="62.649223000513" lon="17.869827663351">
        <ele>79.2</ele>
        <time>2018-03-20T12:17:23Z</time>
      </trkpt>
      <trkpt lat="62.649204392695" lon="17.869785670032">
        <ele>79.2</ele>
        <time>2018-03-20T12:17:24Z</time>
      </trkpt>
      <trkpt lat="62.649187712714" lon="17.869745856007">
        <ele>79.2</ele>
        <time>2018-03-20T12:17:25Z</time>
      </trkpt>
      <trkpt lat="62.64917463695" lon="17.869713250416">
        <ele>79.2</ele>
        <time>2018-03-20T12:17:26Z</time>
      </trkpt>
      <trkpt lat="62.649160136263" lon="17.869674274581">
        <ele>79.4</ele>
        <time>2018-03-20T12:17:27Z</time>
      </trkpt>
      <trkpt lat="62.649146473766" lon="17.869640244067">
        <ele>79.4</ele>
        <time>2018-03-20T12:17:28Z</time>
      </trkpt>
      <trkpt lat="62.649131218708" lon="17.869608560485">
        <ele>79.6</ele>
        <time>2018-03-20T12:17:29Z</time>
      </trkpt>
      <trkpt lat="62.649117220935" lon="17.869573607962">
        <ele>80</ele>
        <time>2018-03-20T12:17:30Z</time>
      </trkpt>
      <trkpt lat="62.649100708592" lon="17.869526669322">
        <ele>80.2</ele>
        <time>2018-03-20T12:17:31Z</time>
      </trkpt>
      <trkpt lat="62.649087549009" lon="17.869491800618">
        <ele>80.2</ele>
        <time>2018-03-20T12:17:32Z</time>
      </trkpt>
      <trkpt lat="62.649071455761" lon="17.869452154231">
        <ele>80.4</ele>
        <time>2018-03-20T12:17:33Z</time>
      </trkpt>
      <trkpt lat="62.649054356685" lon="17.869407730161">
        <ele>80.6</ele>
        <time>2018-03-20T12:17:34Z</time>
      </trkpt>
      <trkpt lat="62.649039101627" lon="17.869377052407">
        <ele>80.6</ele>
        <time>2018-03-20T12:17:35Z</time>
      </trkpt>
      <trkpt lat="62.649023343655" lon="17.86934075878">
        <ele>80.8</ele>
        <time>2018-03-20T12:17:36Z</time>
      </trkpt>
      <trkpt lat="62.649004316742" lon="17.869297256719">
        <ele>80.8</ele>
        <time>2018-03-20T12:17:37Z</time>
      </trkpt>
      <trkpt lat="62.648991408616" lon="17.869267500974">
        <ele>81</ele>
        <time>2018-03-20T12:17:38Z</time>
      </trkpt>
      <trkpt lat="62.648973974264" lon="17.86921922123">
        <ele>81</ele>
        <time>2018-03-20T12:17:39Z</time>
      </trkpt>
      <trkpt lat="62.648958467749" lon="17.869178652834">
        <ele>81</ele>
        <time>2018-03-20T12:17:40Z</time>
      </trkpt>
      <trkpt lat="62.648945056709" lon="17.869145963424">
        <ele>81.2</ele>
        <time>2018-03-20T12:17:41Z</time>
      </trkpt>
      <trkpt lat="62.648933992601" lon="17.869107574322">
        <ele>81.2</ele>
        <time>2018-03-20T12:17:42Z</time>
      </trkpt>
      <trkpt lat="62.64891815081" lon="17.869068766125">
        <ele>81.2</ele>
        <time>2018-03-20T12:17:43Z</time>
      </trkpt>
      <trkpt lat="62.648905075046" lon="17.869040267665">
        <ele>81.4</ele>
        <time>2018-03-20T12:17:44Z</time>
      </trkpt>
      <trkpt lat="62.648892921291" lon="17.869003387305">
        <ele>81.4</ele>
        <time>2018-03-20T12:17:45Z</time>
      </trkpt>
      <trkpt lat="62.648879929346" lon="17.868963154185">
        <ele>81.4</ele>
        <time>2018-03-20T12:17:46Z</time>
      </trkpt>
      <trkpt lat="62.648868781419" lon="17.868930548594">
        <ele>81.4</ele>
        <time>2018-03-20T12:17:47Z</time>
      </trkpt>
      <trkpt lat="62.648855621836" lon="17.868891908035">
        <ele>81.6</ele>
        <time>2018-03-20T12:17:48Z</time>
      </trkpt>
      <trkpt lat="62.648843048986" lon="17.868846813413">
        <ele>81.8</ele>
        <time>2018-03-20T12:17:49Z</time>
      </trkpt>
      <trkpt lat="62.648832236335" lon="17.868812950537">
        <ele>81.8</ele>
        <time>2018-03-20T12:17:50Z</time>
      </trkpt>
      <trkpt lat="62.648819663485" lon="17.86876576044">
        <ele>82</ele>
        <time>2018-03-20T12:17:51Z</time>
      </trkpt>
      <trkpt lat="62.648806922997" lon="17.868723934759">
        <ele>82.2</ele>
        <time>2018-03-20T12:17:52Z</time>
      </trkpt>
      <trkpt lat="62.648795858889" lon="17.868690239521">
        <ele>82.2</ele>
        <time>2018-03-20T12:17:53Z</time>
      </trkpt>
      <trkpt lat="62.64878320222" lon="17.868641373044">
        <ele>82.2</ele>
        <time>2018-03-20T12:17:54Z</time>
      </trkpt>
      <trkpt lat="62.648770545551" lon="17.868601223743">
        <ele>82.4</ele>
        <time>2018-03-20T12:17:55Z</time>
      </trkpt>
      <trkpt lat="62.648760403452" lon="17.868560068614">
        <ele>82.4</ele>
        <time>2018-03-20T12:17:56Z</time>
      </trkpt>
      <trkpt lat="62.648746573317" lon="17.868504412798">
        <ele>82.4</ele>
        <time>2018-03-20T12:17:57Z</time>
      </trkpt>
      <trkpt lat="62.648737856141" lon="17.868469124999">
        <ele>82.4</ele>
        <time>2018-03-20T12:17:58Z</time>
      </trkpt>
      <trkpt lat="62.648725115653" lon="17.868411960441">
        <ele>82.4</ele>
        <time>2018-03-20T12:17:59Z</time>
      </trkpt>
      <trkpt lat="62.648712375165" lon="17.868360663213">
        <ele>82.4</ele>
        <time>2018-03-20T12:18:00Z</time>
      </trkpt>
      <trkpt lat="62.648701730152" lon="17.868323615215">
        <ele>82.4</ele>
        <time>2018-03-20T12:18:01Z</time>
      </trkpt>
      <trkpt lat="62.648691252777" lon="17.868278352955">
        <ele>82.6</ele>
        <time>2018-03-20T12:18:02Z</time>
      </trkpt>
      <trkpt lat="62.648681110678" lon="17.868236946369">
        <ele>82.6</ele>
        <time>2018-03-20T12:18:03Z</time>
      </trkpt>
      <trkpt lat="62.648673483149" lon="17.868206520072">
        <ele>82.6</ele>
        <time>2018-03-20T12:18:04Z</time>
      </trkpt>
      <trkpt lat="62.648662083765" lon="17.868153630283">
        <ele>82.6</ele>
        <time>2018-03-20T12:18:05Z</time>
      </trkpt>
      <trkpt lat="62.648652276942" lon="17.868110714955">
        <ele>82.8</ele>
        <time>2018-03-20T12:18:06Z</time>
      </trkpt>
      <trkpt lat="62.648642889214" lon="17.868063189582">
        <ele>82.6</ele>
        <time>2018-03-20T12:18:07Z</time>
      </trkpt>
      <trkpt lat="62.648632076563" lon="17.868012479087">
        <ele>82.8</ele>
        <time>2018-03-20T12:18:08Z</time>
      </trkpt>
      <trkpt lat="62.648620174265" lon="17.867970066673">
        <ele>82.8</ele>
        <time>2018-03-20T12:18:09Z</time>
      </trkpt>
      <trkpt lat="62.648610702718" lon="17.867920278187">
        <ele>82.8</ele>
        <time>2018-03-20T12:18:10Z</time>
      </trkpt>
      <trkpt lat="62.648600895895" lon="17.867864203276">
        <ele>82.8</ele>
        <time>2018-03-20T12:18:11Z</time>
      </trkpt>
      <trkpt lat="62.648591424348" lon="17.867819779206">
        <ele>83</ele>
        <time>2018-03-20T12:18:12Z</time>
      </trkpt>
      <trkpt lat="62.648580863154" lon="17.867767224693">
        <ele>83</ele>
        <time>2018-03-20T12:18:13Z</time>
      </trkpt>
      <trkpt lat="62.648571056331" lon="17.86771550837">
        <ele>83.4</ele>
        <time>2018-03-20T12:18:14Z</time>
      </trkpt>
      <trkpt lat="62.64856275825" lon="17.867665719884">
        <ele>83.4</ele>
        <time>2018-03-20T12:18:15Z</time>
      </trkpt>
      <trkpt lat="62.648553957255" lon="17.867611321353">
        <ele>83.4</ele>
        <time>2018-03-20T12:18:16Z</time>
      </trkpt>
      <trkpt lat="62.648547587011" lon="17.867563712161">
        <ele>83.4</ele>
        <time>2018-03-20T12:18:17Z</time>
      </trkpt>
      <trkpt lat="62.648538953654" lon="17.867514929503">
        <ele>83.4</ele>
        <time>2018-03-20T12:18:18Z</time>
      </trkpt>
      <trkpt lat="62.648527051356" lon="17.867465057198">
        <ele>83.4</ele>
        <time>2018-03-20T12:18:19Z</time>
      </trkpt>
      <trkpt lat="62.648515149058" lon="17.867418118558">
        <ele>83.4</ele>
        <time>2018-03-20T12:18:20Z</time>
      </trkpt>
      <trkpt lat="62.648507856805" lon="17.867359864353">
        <ele>83.2</ele>
        <time>2018-03-20T12:18:21Z</time>
      </trkpt>
      <trkpt lat="62.648498385258" lon="17.867302783614">
        <ele>83.2</ele>
        <time>2018-03-20T12:18:22Z</time>
      </trkpt>
      <trkpt lat="62.64848732115" lon="17.86724863654">
        <ele>83.2</ele>
        <time>2018-03-20T12:18:23Z</time>
      </trkpt>
      <trkpt lat="62.648477095232" lon="17.867184263548">
        <ele>83.2</ele>
        <time>2018-03-20T12:18:24Z</time>
      </trkpt>
      <trkpt lat="62.648466617857" lon="17.867124835877">
        <ele>83.2</ele>
        <time>2018-03-20T12:18:25Z</time>
      </trkpt>
      <trkpt lat="62.648460750527" lon="17.867078567789">
        <ele>83.2</ele>
        <time>2018-03-20T12:18:26Z</time>
      </trkpt>
      <trkpt lat="62.648454967016" lon="17.867030036588">
        <ele>83.4</ele>
        <time>2018-03-20T12:18:27Z</time>
      </trkpt>
      <trkpt lat="62.648444322003" lon="17.866982678853">
        <ele>83.4</ele>
        <time>2018-03-20T12:18:28Z</time>
      </trkpt>
      <trkpt lat="62.648435185732" lon="17.866932806548">
        <ele>83.4</ele>
        <time>2018-03-20T12:18:29Z</time>
      </trkpt>
      <trkpt lat="62.648427642022" lon="17.866893830713">
        <ele>83.4</ele>
        <time>2018-03-20T12:18:30Z</time>
      </trkpt>
      <trkpt lat="62.648418673389" lon="17.866848903729">
        <ele>83.6</ele>
        <time>2018-03-20T12:18:31Z</time>
      </trkpt>
      <trkpt lat="62.648408615109" lon="17.866798193234">
        <ele>83.6</ele>
        <time>2018-03-20T12:18:32Z</time>
      </trkpt>
      <trkpt lat="62.648400568485" lon="17.866757038105">
        <ele>83.8</ele>
        <time>2018-03-20T12:18:33Z</time>
      </trkpt>
      <trkpt lat="62.648395204069" lon="17.866716637347">
        <ele>84</ele>
        <time>2018-03-20T12:18:34Z</time>
      </trkpt>
      <trkpt lat="62.648390426386" lon="17.866670955992">
        <ele>84.2</ele>
        <time>2018-03-20T12:18:35Z</time>
      </trkpt>
      <trkpt lat="62.648386403074" lon="17.866630387596">
        <ele>84.6</ele>
        <time>2018-03-20T12:18:36Z</time>
      </trkpt>
      <trkpt lat="62.648382798857" lon="17.866585041517">
        <ele>85</ele>
        <time>2018-03-20T12:18:37Z</time>
      </trkpt>
      <trkpt lat="62.648377853536" lon="17.866540030714">
        <ele>85.2</ele>
        <time>2018-03-20T12:18:38Z</time>
      </trkpt>
      <trkpt lat="62.648373494948" lon="17.866493092074">
        <ele>85.4</ele>
        <time>2018-03-20T12:18:39Z</time>
      </trkpt>
      <trkpt lat="62.648367795256" lon="17.866452858954">
        <ele>85.6</ele>
        <time>2018-03-20T12:18:40Z</time>
      </trkpt>
      <trkpt lat="62.648360419184" lon="17.866410697997">
        <ele>85.8</ele>
        <time>2018-03-20T12:18:41Z</time>
      </trkpt>
      <trkpt lat="62.648350528542" lon="17.866373649999">
        <ele>86</ele>
        <time>2018-03-20T12:18:42Z</time>
      </trkpt>
      <trkpt lat="62.648342062823" lon="17.866338948933">
        <ele>86.2</ele>
        <time>2018-03-20T12:18:43Z</time>
      </trkpt>
      <trkpt lat="62.648329825249" lon="17.866298631994">
        <ele>86.2</ele>
        <time>2018-03-20T12:18:44Z</time>
      </trkpt>
      <trkpt lat="62.64831716858" lon="17.866264769118">
        <ele>86.6</ele>
        <time>2018-03-20T12:18:45Z</time>
      </trkpt>
      <trkpt lat="62.648305517739" lon="17.86623358845">
        <ele>86.6</ele>
        <time>2018-03-20T12:18:46Z</time>
      </trkpt>
      <trkpt lat="62.648291939061" lon="17.866203162153">
        <ele>87</ele>
        <time>2018-03-20T12:18:47Z</time>
      </trkpt>
      <trkpt lat="62.648278947116" lon="17.866174831331">
        <ele>87</ele>
        <time>2018-03-20T12:18:48Z</time>
      </trkpt>
      <trkpt lat="62.648263692058" lon="17.866147590156">
        <ele>87</ele>
        <time>2018-03-20T12:18:49Z</time>
      </trkpt>
      <trkpt lat="62.648243072584" lon="17.866128563243">
        <ele>87.2</ele>
        <time>2018-03-20T12:18:50Z</time>
      </trkpt>
      <trkpt lat="62.648221447282" lon="17.866118169687">
        <ele>87.4</ele>
        <time>2018-03-20T12:18:51Z</time>
      </trkpt>
      <trkpt lat="62.648204264387" lon="17.866109033416">
        <ele>87.4</ele>
        <time>2018-03-20T12:18:52Z</time>
      </trkpt>
      <trkpt lat="62.648188757872" lon="17.866104171914">
        <ele>87.6</ele>
        <time>2018-03-20T12:18:53Z</time>
      </trkpt>
      <trkpt lat="62.648170150054" lon="17.866105177742">
        <ele>87.8</ele>
        <time>2018-03-20T12:18:54Z</time>
      </trkpt>
      <trkpt lat="62.648150955503" lon="17.866107189398">
        <ele>88</ele>
        <time>2018-03-20T12:18:55Z</time>
      </trkpt>
      <trkpt lat="62.648130587486" lon="17.866112553814">
        <ele>88.2</ele>
        <time>2018-03-20T12:18:56Z</time>
      </trkpt>
      <trkpt lat="62.648113656048" lon="17.866118924058">
        <ele>88.4</ele>
        <time>2018-03-20T12:18:57Z</time>
      </trkpt>
      <trkpt lat="62.648100580284" lon="17.866126970682">
        <ele>88.6</ele>
        <time>2018-03-20T12:18:58Z</time>
      </trkpt>
      <trkpt lat="62.648083984122" lon="17.866139375894">
        <ele>89</ele>
        <time>2018-03-20T12:18:59Z</time>
      </trkpt>
      <trkpt lat="62.64806906434" lon="17.866151697287">
        <ele>89.2</ele>
        <time>2018-03-20T12:19:00Z</time>
      </trkpt>
      <trkpt lat="62.648054731291" lon="17.866163683404">
        <ele>89.4</ele>
        <time>2018-03-20T12:19:01Z</time>
      </trkpt>
      <trkpt lat="62.64804140407" lon="17.866178854643">
        <ele>89.6</ele>
        <time>2018-03-20T12:19:02Z</time>
      </trkpt>
      <trkpt lat="62.64802966941" lon="17.866199390298">
        <ele>90</ele>
        <time>2018-03-20T12:19:03Z</time>
      </trkpt>
      <trkpt lat="62.64801458199" lon="17.866215232089">
        <ele>90.2</ele>
        <time>2018-03-20T12:19:04Z</time>
      </trkpt>
      <trkpt lat="62.64799530362" lon="17.866231492975">
        <ele>90.6</ele>
        <time>2018-03-20T12:19:05Z</time>
      </trkpt>
      <trkpt lat="62.647981305847" lon="17.866247670042">
        <ele>90.8</ele>
        <time>2018-03-20T12:19:06Z</time>
      </trkpt>
      <trkpt lat="62.64796848154" lon="17.866266780774">
        <ele>91</ele>
        <time>2018-03-20T12:19:07Z</time>
      </trkpt>
      <trkpt lat="62.647957165975" lon="17.866286226782">
        <ele>91</ele>
        <time>2018-03-20T12:19:08Z</time>
      </trkpt>
      <trkpt lat="62.647944593125" lon="17.866308857912">
        <ele>91.2</ele>
        <time>2018-03-20T12:19:09Z</time>
      </trkpt>
      <trkpt lat="62.647934199569" lon="17.866334003612">
        <ele>91.4</ele>
        <time>2018-03-20T12:19:10Z</time>
      </trkpt>
      <trkpt lat="62.647922716366" lon="17.866359736045">
        <ele>91.4</ele>
        <time>2018-03-20T12:19:11Z</time>
      </trkpt>
      <trkpt lat="62.647911736077" lon="17.866383037727">
        <ele>91.6</ele>
        <time>2018-03-20T12:19:12Z</time>
      </trkpt>
      <trkpt lat="62.647899414684" lon="17.866403992477">
        <ele>91.6</ele>
        <time>2018-03-20T12:19:13Z</time>
      </trkpt>
      <trkpt lat="62.647884159626" lon="17.86642637215">
        <ele>91.6</ele>
        <time>2018-03-20T12:19:14Z</time>
      </trkpt>
      <trkpt lat="62.647868820749" lon="17.86645906156">
        <ele>92</ele>
        <time>2018-03-20T12:19:15Z</time>
      </trkpt>
      <trkpt lat="62.647857505184" lon="17.866478172292">
        <ele>92</ele>
        <time>2018-03-20T12:19:16Z</time>
      </trkpt>
      <trkpt lat="62.647842417764" lon="17.866505581105">
        <ele>92.6</ele>
        <time>2018-03-20T12:19:17Z</time>
      </trkpt>
      <trkpt lat="62.647831269837" lon="17.866524021285">
        <ele>93</ele>
        <time>2018-03-20T12:19:18Z</time>
      </trkpt>
      <trkpt lat="62.647820624824" lon="17.866541958551">
        <ele>93.4</ele>
        <time>2018-03-20T12:19:19Z</time>
      </trkpt>
      <trkpt lat="62.647803944843" lon="17.866571127563">
        <ele>93.8</ele>
        <time>2018-03-20T12:19:20Z</time>
      </trkpt>
      <trkpt lat="62.647791288174" lon="17.866590825028">
        <ele>94.2</ele>
        <time>2018-03-20T12:19:21Z</time>
      </trkpt>
      <trkpt lat="62.647780643161" lon="17.866610522493">
        <ele>94.4</ele>
        <time>2018-03-20T12:19:22Z</time>
      </trkpt>
      <trkpt lat="62.647773686184" lon="17.86662669956">
        <ele>94.6</ele>
        <time>2018-03-20T12:19:23Z</time>
      </trkpt>
      <trkpt lat="62.64776480137" lon="17.866650587975">
        <ele>95</ele>
        <time>2018-03-20T12:19:24Z</time>
      </trkpt>
      <trkpt lat="62.647754156357" lon="17.866677326236">
        <ele>95.2</ele>
        <time>2018-03-20T12:19:25Z</time>
      </trkpt>
      <trkpt lat="62.647744517172" lon="17.866703310126">
        <ele>95.4</ele>
        <time>2018-03-20T12:19:26Z</time>
      </trkpt>
      <trkpt lat="62.647734207435" lon="17.866743459427">
        <ele>95.6</ele>
        <time>2018-03-20T12:19:27Z</time>
      </trkpt>
      <trkpt lat="62.64772373006" lon="17.866774723914">
        <ele>95.8</ele>
        <time>2018-03-20T12:19:28Z</time>
      </trkpt>
      <trkpt lat="62.647716018712" lon="17.866821411097">
        <ele>96</ele>
        <time>2018-03-20T12:19:29Z</time>
      </trkpt>
      <trkpt lat="62.647710570477" lon="17.866864074968">
        <ele>96</ele>
        <time>2018-03-20T12:19:30Z</time>
      </trkpt>
      <trkpt lat="62.647698081446" lon="17.866911348884">
        <ele>96</ele>
        <time>2018-03-20T12:19:31Z</time>
      </trkpt>
      <trkpt lat="62.6476952316" lon="17.866950324719">
        <ele>96.2</ele>
        <time>2018-03-20T12:19:32Z</time>
      </trkpt>
      <trkpt lat="62.647687101157" lon="17.866988881459">
        <ele>96.2</ele>
        <time>2018-03-20T12:19:33Z</time>
      </trkpt>
      <trkpt lat="62.647680060361" lon="17.867029449855">
        <ele>96.2</ele>
        <time>2018-03-20T12:19:34Z</time>
      </trkpt>
      <trkpt lat="62.647675869411" lon="17.867064905292">
        <ele>96.2</ele>
        <time>2018-03-20T12:19:35Z</time>
      </trkpt>
      <trkpt lat="62.647670002081" lon="17.867103881127">
        <ele>96.4</ele>
        <time>2018-03-20T12:19:36Z</time>
      </trkpt>
      <trkpt lat="62.647666230226" lon="17.867136821994">
        <ele>96.4</ele>
        <time>2018-03-20T12:19:37Z</time>
      </trkpt>
      <trkpt lat="62.647660614353" lon="17.867168002662">
        <ele>96.8</ele>
        <time>2018-03-20T12:19:38Z</time>
      </trkpt>
      <trkpt lat="62.647657429231" lon="17.867208319601">
        <ele>97</ele>
        <time>2018-03-20T12:19:39Z</time>
      </trkpt>
      <trkpt lat="62.647650304616" lon="17.867244780866">
        <ele>97.2</ele>
        <time>2018-03-20T12:19:40Z</time>
      </trkpt>
      <trkpt lat="62.647642760906" lon="17.867281158312">
        <ele>97.6</ele>
        <time>2018-03-20T12:19:41Z</time>
      </trkpt>
      <trkpt lat="62.647636809757" lon="17.8673106626">
        <ele>97.8</ele>
        <time>2018-03-20T12:19:42Z</time>
      </trkpt>
      <trkpt lat="62.647631277703" lon="17.86733916106">
        <ele>98</ele>
        <time>2018-03-20T12:19:43Z</time>
      </trkpt>
      <trkpt lat="62.647619375405" lon="17.867379477999">
        <ele>98.2</ele>
        <time>2018-03-20T12:19:44Z</time>
      </trkpt>
      <trkpt lat="62.647617531387" lon="17.867412837961">
        <ele>98.2</ele>
        <time>2018-03-20T12:19:45Z</time>
      </trkpt>
      <trkpt lat="62.647610155315" lon="17.867447455208">
        <ele>98.4</ele>
        <time>2018-03-20T12:19:46Z</time>
      </trkpt>
      <trkpt lat="62.647602527786" lon="17.867476875677">
        <ele>98.8</ele>
        <time>2018-03-20T12:19:47Z</time>
      </trkpt>
      <trkpt lat="62.64759716337" lon="17.86750512268">
        <ele>98.8</ele>
        <time>2018-03-20T12:19:48Z</time>
      </trkpt>
      <trkpt lat="62.647588194737" lon="17.867540578117">
        <ele>99</ele>
        <time>2018-03-20T12:19:49Z</time>
      </trkpt>
      <trkpt lat="62.647577382086" lon="17.86757133969">
        <ele>99.2</ele>
        <time>2018-03-20T12:19:50Z</time>
      </trkpt>
      <trkpt lat="62.64756866491" lon="17.867596066295">
        <ele>99.4</ele>
        <time>2018-03-20T12:19:51Z</time>
      </trkpt>
      <trkpt lat="62.647560534467" lon="17.867618781244">
        <ele>99.4</ele>
        <time>2018-03-20T12:19:52Z</time>
      </trkpt>
      <trkpt lat="62.647547877798" lon="17.867650045731">
        <ele>99.6</ele>
        <time>2018-03-20T12:19:53Z</time>
      </trkpt>
      <trkpt lat="62.647532119826" lon="17.867684914435">
        <ele>99.8</ele>
        <time>2018-03-20T12:19:54Z</time>
      </trkpt>
      <trkpt lat="62.647524073202" lon="17.8677129938">
        <ele>100</ele>
        <time>2018-03-20T12:19:55Z</time>
      </trkpt>
      <trkpt lat="62.647505046289" lon="17.867746856676">
        <ele>100</ele>
        <time>2018-03-20T12:19:56Z</time>
      </trkpt>
      <trkpt lat="62.64747981677" lon="17.867781976837">
        <ele>100.2</ele>
        <time>2018-03-20T12:19:57Z</time>
      </trkpt>
      <trkpt lat="62.647458107649" lon="17.867805027062">
        <ele>100.4</ele>
        <time>2018-03-20T12:19:58Z</time>
      </trkpt>
      <trkpt lat="62.647437823451" lon="17.867824221613">
        <ele>100.6</ele>
        <time>2018-03-20T12:19:59Z</time>
      </trkpt>
      <trkpt lat="62.647418042167" lon="17.86783369316">
        <ele>100.6</ele>
        <time>2018-03-20T12:20:00Z</time>
      </trkpt>
      <trkpt lat="62.647389795164" lon="17.867842829431">
        <ele>100.8</ele>
        <time>2018-03-20T12:20:01Z</time>
      </trkpt>
      <trkpt lat="62.647367331672" lon="17.867847858571">
        <ele>101</ele>
        <time>2018-03-20T12:20:02Z</time>
      </trkpt>
      <trkpt lat="62.647351154605" lon="17.867846852743">
        <ele>101.2</ele>
        <time>2018-03-20T12:20:03Z</time>
      </trkpt>
      <trkpt lat="62.64732726619" lon="17.867832100599">
        <ele>101.2</ele>
        <time>2018-03-20T12:20:04Z</time>
      </trkpt>
      <trkpt lat="62.647294157685" lon="17.867818438102">
        <ele>101.6</ele>
        <time>2018-03-20T12:20:05Z</time>
      </trkpt>
      <trkpt lat="62.647276220419" lon="17.867812654591">
        <ele>101.6</ele>
        <time>2018-03-20T12:20:06Z</time>
      </trkpt>
      <trkpt lat="62.647258115515" lon="17.86778591633">
        <ele>101.6</ele>
        <time>2018-03-20T12:20:07Z</time>
      </trkpt>
      <trkpt lat="62.647237160765" lon="17.867760854449">
        <ele>101.8</ele>
        <time>2018-03-20T12:20:08Z</time>
      </trkpt>
      <trkpt lat="62.647207740296" lon="17.867739312966">
        <ele>101.8</ele>
        <time>2018-03-20T12:20:09Z</time>
      </trkpt>
      <trkpt lat="62.647193071971" lon="17.867723722632">
        <ele>101.8</ele>
        <time>2018-03-20T12:20:10Z</time>
      </trkpt>
      <trkpt lat="62.64717303923" lon="17.867702432606">
        <ele>101.8</ele>
        <time>2018-03-20T12:20:11Z</time>
      </trkpt>
      <trkpt lat="62.64715124629" lon="17.867669743196">
        <ele>102</ele>
        <time>2018-03-20T12:20:12Z</time>
      </trkpt>
      <trkpt lat="62.647134398671" lon="17.867640993279">
        <ele>102</ele>
        <time>2018-03-20T12:20:13Z</time>
      </trkpt>
      <trkpt lat="62.647112605731" lon="17.867602436539">
        <ele>102.2</ele>
        <time>2018-03-20T12:20:14Z</time>
      </trkpt>
      <trkpt lat="62.647080503054" lon="17.86753865028">
        <ele>102.4</ele>
        <time>2018-03-20T12:20:15Z</time>
      </trkpt>
      <trkpt lat="62.647066505281" lon="17.867511576743">
        <ele>102.4</ele>
        <time>2018-03-20T12:20:16Z</time>
      </trkpt>
      <trkpt lat="62.647050579671" lon="17.867466482121">
        <ele>102.6</ele>
        <time>2018-03-20T12:20:17Z</time>
      </trkpt>
      <trkpt lat="62.647032642405" lon="17.86739615798">
        <ele>102.6</ele>
        <time>2018-03-20T12:20:18Z</time>
      </trkpt>
      <trkpt lat="62.647014118406" lon="17.867353075014">
        <ele>102.6</ele>
        <time>2018-03-20T12:20:19Z</time>
      </trkpt>
      <trkpt lat="62.646994588579" lon="17.867316027016">
        <ele>102.6</ele>
        <time>2018-03-20T12:20:20Z</time>
      </trkpt>
      <trkpt lat="62.646977908598" lon="17.867281828864">
        <ele>102.8</ele>
        <time>2018-03-20T12:20:21Z</time>
      </trkpt>
      <trkpt lat="62.646960558065" lon="17.86723103455">
        <ele>103</ele>
        <time>2018-03-20T12:20:22Z</time>
      </trkpt>
      <trkpt lat="62.646941614971" lon="17.867179988779">
        <ele>103</ele>
        <time>2018-03-20T12:20:23Z</time>
      </trkpt>
      <trkpt lat="62.64692996413" lon="17.867149646301">
        <ele>103.2</ele>
        <time>2018-03-20T12:20:24Z</time>
      </trkpt>
      <trkpt lat="62.646914541434" lon="17.867087787879">
        <ele>103.2</ele>
        <time>2018-03-20T12:20:25Z</time>
      </trkpt>
      <trkpt lat="62.646902555317" lon="17.867057361582">
        <ele>103.2</ele>
        <time>2018-03-20T12:20:26Z</time>
      </trkpt>
      <trkpt lat="62.646884366594" lon="17.867009249476">
        <ele>103.2</ele>
        <time>2018-03-20T12:20:27Z</time>
      </trkpt>
      <trkpt lat="62.646871793744" lon="17.866944960303">
        <ele>103.4</ele>
        <time>2018-03-20T12:20:28Z</time>
      </trkpt>
      <trkpt lat="62.646860059084" lon="17.866893076342">
        <ele>103.4</ele>
        <time>2018-03-20T12:20:29Z</time>
      </trkpt>
      <trkpt lat="62.646852347736" lon="17.866842784942">
        <ele>103.4</ele>
        <time>2018-03-20T12:20:30Z</time>
      </trkpt>
      <trkpt lat="62.646844887845" lon="17.866774891552">
        <ele>103.4</ele>
        <time>2018-03-20T12:20:31Z</time>
      </trkpt>
      <trkpt lat="62.646843965836" lon="17.866729461654">
        <ele>103.6</ele>
        <time>2018-03-20T12:20:32Z</time>
      </trkpt>
      <trkpt lat="62.646841283628" lon="17.866671458906">
        <ele>103.6</ele>
        <time>2018-03-20T12:20:33Z</time>
      </trkpt>
      <trkpt lat="62.646838769058" lon="17.866612869425">
        <ele>103.6</ele>
        <time>2018-03-20T12:20:34Z</time>
      </trkpt>
      <trkpt lat="62.646834242832" lon="17.866547825881">
        <ele>103.8</ele>
        <time>2018-03-20T12:20:35Z</time>
      </trkpt>
      <trkpt lat="62.646829465149" lon="17.866480351586">
        <ele>103.8</ele>
        <time>2018-03-20T12:20:36Z</time>
      </trkpt>
      <trkpt lat="62.646817311394" lon="17.866417487336">
        <ele>103.8</ele>
        <time>2018-03-20T12:20:37Z</time>
      </trkpt>
      <trkpt lat="62.646811946978" lon="17.866369626687">
        <ele>104</ele>
        <time>2018-03-20T12:20:38Z</time>
      </trkpt>
      <trkpt lat="62.646808258942" lon="17.86628890899">
        <ele>103.8</ele>
        <time>2018-03-20T12:20:39Z</time>
      </trkpt>
      <trkpt lat="62.64680088287" lon="17.866209532397">
        <ele>103.8</ele>
        <time>2018-03-20T12:20:40Z</time>
      </trkpt>
      <trkpt lat="62.646795602273" lon="17.866127725053">
        <ele>103.4</ele>
        <time>2018-03-20T12:20:41Z</time>
      </trkpt>
      <trkpt lat="62.646784789622" lon="17.866055808351">
        <ele>103.4</ele>
        <time>2018-03-20T12:20:42Z</time>
      </trkpt>
      <trkpt lat="62.646774479885" lon="17.865995793947">
        <ele>103</ele>
        <time>2018-03-20T12:20:43Z</time>
      </trkpt>
      <trkpt lat="62.646761739397" lon="17.865911136757">
        <ele>103</ele>
        <time>2018-03-20T12:20:44Z</time>
      </trkpt>
      <trkpt lat="62.646745059416" lon="17.865852379638">
        <ele>102.8</ele>
        <time>2018-03-20T12:20:45Z</time>
      </trkpt>
      <trkpt lat="62.646731732195" lon="17.865794125433">
        <ele>102.8</ele>
        <time>2018-03-20T12:20:46Z</time>
      </trkpt>
      <trkpt lat="62.646715974223" lon="17.86571642522">
        <ele>102.6</ele>
        <time>2018-03-20T12:20:47Z</time>
      </trkpt>
      <trkpt lat="62.646694348921" lon="17.865670660046">
        <ele>102.8</ele>
        <time>2018-03-20T12:20:48Z</time>
      </trkpt>
      <trkpt lat="62.646674483818" lon="17.865596144955">
        <ele>102.6</ele>
        <time>2018-03-20T12:20:49Z</time>
      </trkpt>
      <trkpt lat="62.646649589575" lon="17.865522216597">
        <ele>102.6</ele>
        <time>2018-03-20T12:20:50Z</time>
      </trkpt>
      <trkpt lat="62.646634585974" lon="17.865482151115">
        <ele>102.6</ele>
        <time>2018-03-20T12:20:51Z</time>
      </trkpt>
      <trkpt lat="62.646616313432" lon="17.865420041236">
        <ele>102.4</ele>
        <time>2018-03-20T12:20:52Z</time>
      </trkpt>
      <trkpt lat="62.646597621795" lon="17.865363379592">
        <ele>102.4</ele>
        <time>2018-03-20T12:20:53Z</time>
      </trkpt>
      <trkpt lat="62.646574487751" lon="17.865307053224">
        <ele>102.2</ele>
        <time>2018-03-20T12:20:54Z</time>
      </trkpt>
      <trkpt lat="62.646546743662" lon="17.865241590585">
        <ele>102.2</ele>
        <time>2018-03-20T12:20:55Z</time>
      </trkpt>
      <trkpt lat="62.646524112532" lon="17.865193646117">
        <ele>102.2</ele>
        <time>2018-03-20T12:20:56Z</time>
      </trkpt>
      <trkpt lat="62.646504750343" lon="17.865156262843">
        <ele>102</ele>
        <time>2018-03-20T12:20:57Z</time>
      </trkpt>
      <trkpt lat="62.646484214688" lon="17.865112760782">
        <ele>102</ele>
        <time>2018-03-20T12:20:58Z</time>
      </trkpt>
      <trkpt lat="62.64645890135" lon="17.865067247065">
        <ele>102</ele>
        <time>2018-03-20T12:20:59Z</time>
      </trkpt>
      <trkpt lat="62.646442053731" lon="17.865040676442">
        <ele>102</ele>
        <time>2018-03-20T12:21:00Z</time>
      </trkpt>
      <trkpt lat="62.646413387633" lon="17.864998766942">
        <ele>102</ele>
        <time>2018-03-20T12:21:01Z</time>
      </trkpt>
      <trkpt lat="62.646388241933" lon="17.864957779451">
        <ele>102</ele>
        <time>2018-03-20T12:21:02Z</time>
      </trkpt>
      <trkpt lat="62.646369717934" lon="17.864934645407">
        <ele>102</ele>
        <time>2018-03-20T12:21:03Z</time>
      </trkpt>
      <trkpt lat="62.646340046008" lon="17.864892316812">
        <ele>102.2</ele>
        <time>2018-03-20T12:21:04Z</time>
      </trkpt>
      <trkpt lat="62.646304255295" lon="17.864846467819">
        <ele>102.2</ele>
        <time>2018-03-20T12:21:05Z</time>
      </trkpt>
      <trkpt lat="62.646278439043" lon="17.864840013756">
        <ele>102.2</ele>
        <time>2018-03-20T12:21:06Z</time>
      </trkpt>
      <trkpt lat="62.646246084909" lon="17.864794248582">
        <ele>102</ele>
        <time>2018-03-20T12:21:07Z</time>
      </trkpt>
      <trkpt lat="62.646213982232" lon="17.864778071515">
        <ele>102</ele>
        <time>2018-03-20T12:21:08Z</time>
      </trkpt>
      <trkpt lat="62.646180286994" lon="17.864757032946">
        <ele>102</ele>
        <time>2018-03-20T12:21:09Z</time>
      </trkpt>
      <trkpt lat="62.646136617295" lon="17.864763151733">
        <ele>101.8</ele>
        <time>2018-03-20T12:21:10Z</time>
      </trkpt>
      <trkpt lat="62.646094707795" lon="17.86478938708">
        <ele>101.8</ele>
        <time>2018-03-20T12:21:11Z</time>
      </trkpt>
      <trkpt lat="62.646065119688" lon="17.864830206933">
        <ele>101.8</ele>
        <time>2018-03-20T12:21:12Z</time>
      </trkpt>
      <trkpt lat="62.646042823834" lon="17.864888125862">
        <ele>101.6</ele>
        <time>2018-03-20T12:21:13Z</time>
      </trkpt>
      <trkpt lat="62.646016672306" lon="17.864954007596">
        <ele>101.4</ele>
        <time>2018-03-20T12:21:14Z</time>
      </trkpt>
      <trkpt lat="62.645993202986" lon="17.86502491847">
        <ele>101.4</ele>
        <time>2018-03-20T12:21:15Z</time>
      </trkpt>
      <trkpt lat="62.645964704526" lon="17.865092728041">
        <ele>101.4</ele>
        <time>2018-03-20T12:21:16Z</time>
      </trkpt>
      <trkpt lat="62.645929835822" lon="17.865176966136">
        <ele>101.2</ele>
        <time>2018-03-20T12:21:17Z</time>
      </trkpt>
      <trkpt lat="62.645890692349" lon="17.865249385752">
        <ele>101</ele>
        <time>2018-03-20T12:21:18Z</time>
      </trkpt>
      <trkpt lat="62.64584953722" lon="17.865322727377">
        <ele>100.8</ele>
        <time>2018-03-20T12:21:19Z</time>
      </trkpt>
      <trkpt lat="62.64580427496" lon="17.865397577744">
        <ele>100.6</ele>
        <time>2018-03-20T12:21:20Z</time>
      </trkpt>
      <trkpt lat="62.645759264157" lon="17.865473517758">
        <ele>100.2</ele>
        <time>2018-03-20T12:21:21Z</time>
      </trkpt>
      <trkpt lat="62.645716851743" lon="17.865541494967">
        <ele>99.6</ele>
        <time>2018-03-20T12:21:22Z</time>
      </trkpt>
      <trkpt lat="62.645672427673" lon="17.865625733062">
        <ele>99</ele>
        <time>2018-03-20T12:21:23Z</time>
      </trkpt>
      <trkpt lat="62.645626913956" lon="17.865714832659">
        <ele>98.4</ele>
        <time>2018-03-20T12:21:24Z</time>
      </trkpt>
      <trkpt lat="62.645585675008" lon="17.865793790157">
        <ele>98</ele>
        <time>2018-03-20T12:21:25Z</time>
      </trkpt>
      <trkpt lat="62.645546782992" lon="17.865879369356">
        <ele>97.4</ele>
        <time>2018-03-20T12:21:26Z</time>
      </trkpt>
      <trkpt lat="62.645508142433" lon="17.865960841424">
        <ele>97</ele>
        <time>2018-03-20T12:21:27Z</time>
      </trkpt>
      <trkpt lat="62.645473944281" lon="17.866032590488">
        <ele>96.6</ele>
        <time>2018-03-20T12:21:28Z</time>
      </trkpt>
      <trkpt lat="62.645430777496" lon="17.866116577126">
        <ele>96</ele>
        <time>2018-03-20T12:21:29Z</time>
      </trkpt>
      <trkpt lat="62.645386437245" lon="17.866208107474">
        <ele>95.4</ele>
        <time>2018-03-20T12:21:30Z</time>
      </trkpt>
      <trkpt lat="62.645340588252" lon="17.866287567886">
        <ele>94.8</ele>
        <time>2018-03-20T12:21:31Z</time>
      </trkpt>
      <trkpt lat="62.645291470318" lon="17.866379098234">
        <ele>94</ele>
        <time>2018-03-20T12:21:32Z</time>
      </trkpt>
      <trkpt lat="62.64524520223" lon="17.866469455116">
        <ele>93.2</ele>
        <time>2018-03-20T12:21:33Z</time>
      </trkpt>
      <trkpt lat="62.645201364893" lon="17.866556710695">
        <ele>92.6</ele>
        <time>2018-03-20T12:21:34Z</time>
      </trkpt>
      <trkpt lat="62.645147217819" lon="17.866670536897">
        <ele>93</ele>
        <time>2018-03-20T12:21:35Z</time>
      </trkpt>
      <trkpt lat="62.645099524808" lon="17.866787883497">
        <ele>92.8</ele>
        <time>2018-03-20T12:21:36Z</time>
      </trkpt>
      <trkpt lat="62.645058872593" lon="17.866918892594">
        <ele>92.4</ele>
        <time>2018-03-20T12:21:37Z</time>
      </trkpt>
      <trkpt lat="62.64502811102" lon="17.867037580298">
        <ele>92.2</ele>
        <time>2018-03-20T12:21:38Z</time>
      </trkpt>
      <trkpt lat="62.644993912868" lon="17.867179150589">
        <ele>92</ele>
        <time>2018-03-20T12:21:39Z</time>
      </trkpt>
      <trkpt lat="62.644962816019" lon="17.867313428627">
        <ele>91.8</ele>
        <time>2018-03-20T12:21:40Z</time>
      </trkpt>
      <trkpt lat="62.644931635351" lon="17.867441839335">
        <ele>91.8</ele>
        <time>2018-03-20T12:21:41Z</time>
      </trkpt>
      <trkpt lat="62.644897437199" lon="17.867574608631">
        <ele>91.4</ele>
        <time>2018-03-20T12:21:42Z</time>
      </trkpt>
      <trkpt lat="62.644867010902" lon="17.867678879467">
        <ele>91.2</ele>
        <time>2018-03-20T12:21:43Z</time>
      </trkpt>
      <trkpt lat="62.644836249329" lon="17.867792957126">
        <ele>90.4</ele>
        <time>2018-03-20T12:21:44Z</time>
      </trkpt>
      <trkpt lat="62.644804062833" lon="17.867881972904">
        <ele>90</ele>
        <time>2018-03-20T12:21:45Z</time>
      </trkpt>
      <trkpt lat="62.644773049803" lon="17.867972413605">
        <ele>89.8</ele>
        <time>2018-03-20T12:21:46Z</time>
      </trkpt>
      <trkpt lat="62.644752011234" lon="17.868089089653">
        <ele>89.6</ele>
        <time>2018-03-20T12:21:47Z</time>
      </trkpt>
      <trkpt lat="62.644733571054" lon="17.868193360489">
        <ele>89.2</ele>
        <time>2018-03-20T12:21:48Z</time>
      </trkpt>
      <trkpt lat="62.644720998204" lon="17.868285561389">
        <ele>89</ele>
        <time>2018-03-20T12:21:49Z</time>
      </trkpt>
      <trkpt lat="62.64472217167" lon="17.868417660133">
        <ele>88.6</ele>
        <time>2018-03-20T12:21:50Z</time>
      </trkpt>
      <trkpt lat="62.644696020142" lon="17.868522517702">
        <ele>88.4</ele>
        <time>2018-03-20T12:21:51Z</time>
      </trkpt>
      <trkpt lat="62.644697109789" lon="17.868590746368">
        <ele>88.2</ele>
        <time>2018-03-20T12:21:52Z</time>
      </trkpt>
      <trkpt lat="62.644689649898" lon="17.868674146273">
        <ele>88.2</ele>
        <time>2018-03-20T12:21:53Z</time>
      </trkpt>
      <trkpt lat="62.644688224975" lon="17.868768777924">
        <ele>87.8</ele>
        <time>2018-03-20T12:21:54Z</time>
      </trkpt>
      <trkpt lat="62.644685542767" lon="17.86885796134">
        <ele>87.4</ele>
        <time>2018-03-20T12:21:55Z</time>
      </trkpt>
      <trkpt lat="62.644674646297" lon="17.868937170295">
        <ele>87.4</ele>
        <time>2018-03-20T12:21:56Z</time>
      </trkpt>
      <trkpt lat="62.644678669609" lon="17.869032723955">
        <ele>87.4</ele>
        <time>2018-03-20T12:21:57Z</time>
      </trkpt>
      <trkpt lat="62.644675987401" lon="17.869109753616">
        <ele>87.4</ele>
        <time>2018-03-20T12:21:58Z</time>
      </trkpt>
      <trkpt lat="62.64467942398" lon="17.869181921775">
        <ele>87.2</ele>
        <time>2018-03-20T12:21:59Z</time>
      </trkpt>
      <trkpt lat="62.644682190007" lon="17.869257358875">
        <ele>87.2</ele>
        <time>2018-03-20T12:22:00Z</time>
      </trkpt>
      <trkpt lat="62.644676993229" lon="17.86933824421">
        <ele>87.2</ele>
        <time>2018-03-20T12:22:01Z</time>
      </trkpt>
      <trkpt lat="62.644672969917" lon="17.869406305238">
        <ele>87</ele>
        <time>2018-03-20T12:22:02Z</time>
      </trkpt>
      <trkpt lat="62.644674059564" lon="17.869486268564">
        <ele>86.6</ele>
        <time>2018-03-20T12:22:03Z</time>
      </trkpt>
      <trkpt lat="62.644671293537" lon="17.869575619618">
        <ele>86.2</ele>
        <time>2018-03-20T12:22:04Z</time>
      </trkpt>
      <trkpt lat="62.644650841701" lon="17.869662120826">
        <ele>86</ele>
        <time>2018-03-20T12:22:05Z</time>
      </trkpt>
      <trkpt lat="62.644637430661" lon="17.86975733921">
        <ele>85.6</ele>
        <time>2018-03-20T12:22:06Z</time>
      </trkpt>
      <trkpt lat="62.64463667629" lon="17.869866974462">
        <ele>85.4</ele>
        <time>2018-03-20T12:22:07Z</time>
      </trkpt>
      <trkpt lat="62.644616978825" lon="17.869968479271">
        <ele>85.6</ele>
        <time>2018-03-20T12:22:08Z</time>
      </trkpt>
      <trkpt lat="62.644596694627" lon="17.870095716513">
        <ele>85.4</ele>
        <time>2018-03-20T12:22:09Z</time>
      </trkpt>
      <trkpt lat="62.644576578067" lon="17.870188085051">
        <ele>85.6</ele>
        <time>2018-03-20T12:22:10Z</time>
      </trkpt>
      <trkpt lat="62.644563418484" lon="17.870286404738">
        <ele>85.6</ele>
        <time>2018-03-20T12:22:11Z</time>
      </trkpt>
      <trkpt lat="62.644559143715" lon="17.870389502108">
        <ele>85</ele>
        <time>2018-03-20T12:22:12Z</time>
      </trkpt>
      <trkpt lat="62.644549923625" lon="17.87044046406">
        <ele>84.6</ele>
        <time>2018-03-20T12:22:13Z</time>
      </trkpt>
      <trkpt lat="62.644532405454" lon="17.870542304145">
        <ele>84.4</ele>
        <time>2018-03-20T12:22:14Z</time>
      </trkpt>
      <trkpt lat="62.644523604459" lon="17.870647580809">
        <ele>84</ele>
        <time>2018-03-20T12:22:15Z</time>
      </trkpt>
      <trkpt lat="62.644508768496" lon="17.870755791138">
        <ele>83.8</ele>
        <time>2018-03-20T12:22:16Z</time>
      </trkpt>
      <trkpt lat="62.644500302777" lon="17.870879424163">
        <ele>83.6</ele>
        <time>2018-03-20T12:22:17Z</time>
      </trkpt>
      <trkpt lat="62.644492926705" lon="17.870968356122">
        <ele>83.4</ele>
        <time>2018-03-20T12:22:18Z</time>
      </trkpt>
      <trkpt lat="62.644476498181" lon="17.871075225347">
        <ele>83.2</ele>
        <time>2018-03-20T12:22:19Z</time>
      </trkpt>
      <trkpt lat="62.644457974182" lon="17.871196846716">
        <ele>83</ele>
        <time>2018-03-20T12:22:20Z</time>
      </trkpt>
      <trkpt lat="62.644453783232" lon="17.871293238566">
        <ele>83</ele>
        <time>2018-03-20T12:22:21Z</time>
      </trkpt>
      <trkpt lat="62.644449424644" lon="17.87137420772">
        <ele>82.8</ele>
        <time>2018-03-20T12:22:22Z</time>
      </trkpt>
      <trkpt lat="62.64443802526" lon="17.871488453017">
        <ele>82.6</ele>
        <time>2018-03-20T12:22:23Z</time>
      </trkpt>
      <trkpt lat="62.644429894817" lon="17.871583168487">
        <ele>82.4</ele>
        <time>2018-03-20T12:22:24Z</time>
      </trkpt>
      <trkpt lat="62.644411119361" lon="17.871675537025">
        <ele>82.2</ele>
        <time>2018-03-20T12:22:25Z</time>
      </trkpt>
      <trkpt lat="62.644392176267" lon="17.871761619138">
        <ele>82</ele>
        <time>2018-03-20T12:22:26Z</time>
      </trkpt>
      <trkpt lat="62.644378178494" lon="17.871839989903">
        <ele>82</ele>
        <time>2018-03-20T12:22:27Z</time>
      </trkpt>
      <trkpt lat="62.64436174997" lon="17.871930598242">
        <ele>81.6</ele>
        <time>2018-03-20T12:22:28Z</time>
      </trkpt>
      <trkpt lat="62.644338615926" lon="17.872014752518">
        <ele>81.4</ele>
        <time>2018-03-20T12:22:29Z</time>
      </trkpt>
      <trkpt lat="62.644324199058" lon="17.872088010324">
        <ele>81.2</ele>
        <time>2018-03-20T12:22:30Z</time>
      </trkpt>
      <trkpt lat="62.644313051131" lon="17.87216462089">
        <ele>81</ele>
        <time>2018-03-20T12:22:31Z</time>
      </trkpt>
      <trkpt lat="62.644308021991" lon="17.872224802932">
        <ele>81</ele>
        <time>2018-03-20T12:22:32Z</time>
      </trkpt>
      <trkpt lat="62.644291928743" lon="17.872299904756">
        <ele>81</ele>
        <time>2018-03-20T12:22:33Z</time>
      </trkpt>
      <trkpt lat="62.644274494391" lon="17.8723817121">
        <ele>80.8</ele>
        <time>2018-03-20T12:22:34Z</time>
      </trkpt>
      <trkpt lat="62.644260077523" lon="17.872457484476">
        <ele>80.6</ele>
        <time>2018-03-20T12:22:35Z</time>
      </trkpt>
      <trkpt lat="62.64423266871" lon="17.872534849413">
        <ele>80.2</ele>
        <time>2018-03-20T12:22:36Z</time>
      </trkpt>
      <trkpt lat="62.644212468331" lon="17.872616992033">
        <ele>80</ele>
        <time>2018-03-20T12:22:37Z</time>
      </trkpt>
      <trkpt lat="62.64419243559" lon="17.872693602599">
        <ele>79.6</ele>
        <time>2018-03-20T12:22:38Z</time>
      </trkpt>
      <trkpt lat="62.644170977926" lon="17.872792760476">
        <ele>79.4</ele>
        <time>2018-03-20T12:22:39Z</time>
      </trkpt>
      <trkpt lat="62.644147257149" lon="17.872908682153">
        <ele>79.2</ele>
        <time>2018-03-20T12:22:40Z</time>
      </trkpt>
      <trkpt lat="62.644131666815" lon="17.873013288265">
        <ele>79</ele>
        <time>2018-03-20T12:22:41Z</time>
      </trkpt>
      <trkpt lat="62.644116914671" lon="17.87312183387">
        <ele>78.8</ele>
        <time>2018-03-20T12:22:42Z</time>
      </trkpt>
      <trkpt lat="62.644104593278" lon="17.873199869359">
        <ele>78.6</ele>
        <time>2018-03-20T12:22:43Z</time>
      </trkpt>
      <trkpt lat="62.644088164754" lon="17.873307995869">
        <ele>78.4</ele>
        <time>2018-03-20T12:22:44Z</time>
      </trkpt>
      <trkpt lat="62.644070814221" lon="17.87341100942">
        <ele>77.8</ele>
        <time>2018-03-20T12:22:45Z</time>
      </trkpt>
      <trkpt lat="62.644055223887" lon="17.873508071822">
        <ele>77</ele>
        <time>2018-03-20T12:22:46Z</time>
      </trkpt>
      <trkpt lat="62.644037705716" lon="17.873625669879">
        <ele>76.4</ele>
        <time>2018-03-20T12:22:47Z</time>
      </trkpt>
      <trkpt lat="62.644022785934" lon="17.873723738109">
        <ele>75.8</ele>
        <time>2018-03-20T12:22:48Z</time>
      </trkpt>
      <trkpt lat="62.644008285247" lon="17.873808730575">
        <ele>75.4</ele>
        <time>2018-03-20T12:22:49Z</time>
      </trkpt>
      <trkpt lat="62.643987665773" lon="17.87394577464">
        <ele>75</ele>
        <time>2018-03-20T12:22:50Z</time>
      </trkpt>
      <trkpt lat="62.643974254733" lon="17.874024229224">
        <ele>74.6</ele>
        <time>2018-03-20T12:22:51Z</time>
      </trkpt>
      <trkpt lat="62.643953886716" lon="17.874117184495">
        <ele>74.2</ele>
        <time>2018-03-20T12:22:52Z</time>
      </trkpt>
      <trkpt lat="62.643937793468" lon="17.874200668219">
        <ele>73.8</ele>
        <time>2018-03-20T12:22:53Z</time>
      </trkpt>
      <trkpt lat="62.643915246157" lon="17.874297898259">
        <ele>73.4</ele>
        <time>2018-03-20T12:22:54Z</time>
      </trkpt>
      <trkpt lat="62.643895297235" lon="17.874405521855">
        <ele>72.8</ele>
        <time>2018-03-20T12:22:55Z</time>
      </trkpt>
      <trkpt lat="62.643887837344" lon="17.874465955354">
        <ele>72.6</ele>
        <time>2018-03-20T12:22:56Z</time>
      </trkpt>
      <trkpt lat="62.643871241182" lon="17.874572321665">
        <ele>72.4</ele>
        <time>2018-03-20T12:22:57Z</time>
      </trkpt>
      <trkpt lat="62.643854728839" lon="17.874668126782">
        <ele>72</ele>
        <time>2018-03-20T12:22:58Z</time>
      </trkpt>
      <trkpt lat="62.643836707754" lon="17.874761417329">
        <ele>71.6</ele>
        <time>2018-03-20T12:22:59Z</time>
      </trkpt>
      <trkpt lat="62.643817932298" lon="17.874862167767">
        <ele>71.4</ele>
        <time>2018-03-20T12:23:00Z</time>
      </trkpt>
      <trkpt lat="62.643803599249" lon="17.874948668975">
        <ele>71.2</ele>
        <time>2018-03-20T12:23:01Z</time>
      </trkpt>
      <trkpt lat="62.643787170725" lon="17.87504212716">
        <ele>70.8</ele>
        <time>2018-03-20T12:23:02Z</time>
      </trkpt>
      <trkpt lat="62.643773424409" lon="17.875133908965">
        <ele>70.6</ele>
        <time>2018-03-20T12:23:03Z</time>
      </trkpt>
      <trkpt lat="62.643769317278" lon="17.875213369377">
        <ele>70.2</ele>
        <time>2018-03-20T12:23:04Z</time>
      </trkpt>
      <trkpt lat="62.643752302021" lon="17.875314622729">
        <ele>70</ele>
        <time>2018-03-20T12:23:05Z</time>
      </trkpt>
      <trkpt lat="62.643737968972" lon="17.875395927159">
        <ele>69.8</ele>
        <time>2018-03-20T12:23:06Z</time>
      </trkpt>
      <trkpt lat="62.64373143109" lon="17.875459629599">
        <ele>69.6</ele>
        <time>2018-03-20T12:23:07Z</time>
      </trkpt>
      <trkpt lat="62.643722378638" lon="17.875540682572">
        <ele>69.4</ele>
        <time>2018-03-20T12:23:08Z</time>
      </trkpt>
      <trkpt lat="62.643709973426" lon="17.875631626187">
        <ele>69</ele>
        <time>2018-03-20T12:23:09Z</time>
      </trkpt>
      <trkpt lat="62.643694886006" lon="17.875690467125">
        <ele>69</ele>
        <time>2018-03-20T12:23:10Z</time>
      </trkpt>
      <trkpt lat="62.643682564613" lon="17.875782500387">
        <ele>69</ele>
        <time>2018-03-20T12:23:11Z</time>
      </trkpt>
      <trkpt lat="62.643669237392" lon="17.875864223912">
        <ele>69</ele>
        <time>2018-03-20T12:23:12Z</time>
      </trkpt>
      <trkpt lat="62.643656413085" lon="17.875936056795">
        <ele>68.8</ele>
        <time>2018-03-20T12:23:13Z</time>
      </trkpt>
      <trkpt lat="62.643637637629" lon="17.876025072573">
        <ele>68.8</ele>
        <time>2018-03-20T12:23:14Z</time>
      </trkpt>
      <trkpt lat="62.643629255729" lon="17.876093971791">
        <ele>68.6</ele>
        <time>2018-03-20T12:23:15Z</time>
      </trkpt>
      <trkpt lat="62.643616850517" lon="17.876171504366">
        <ele>68.6</ele>
        <time>2018-03-20T12:23:16Z</time>
      </trkpt>
      <trkpt lat="62.643602601287" lon="17.876255742461">
        <ele>68.4</ele>
        <time>2018-03-20T12:23:17Z</time>
      </trkpt>
      <trkpt lat="62.643595309034" lon="17.876324306403">
        <ele>68.2</ele>
        <time>2018-03-20T12:23:18Z</time>
      </trkpt>
      <trkpt lat="62.64358055689" lon="17.876416423484">
        <ele>68.2</ele>
        <time>2018-03-20T12:23:19Z</time>
      </trkpt>
      <trkpt lat="62.64356211671" lon="17.87650141595">
        <ele>68.4</ele>
        <time>2018-03-20T12:23:20Z</time>
      </trkpt>
      <trkpt lat="62.643540659046" lon="17.876574254661">
        <ele>68.2</ele>
        <time>2018-03-20T12:23:21Z</time>
      </trkpt>
      <trkpt lat="62.64351936902" lon="17.876626390079">
        <ele>68.2</ele>
        <time>2018-03-20T12:23:22Z</time>
      </trkpt>
      <trkpt lat="62.643470502543" lon="17.876696378944">
        <ele>68.2</ele>
        <time>2018-03-20T12:23:23Z</time>
      </trkpt>
      <trkpt lat="62.643435969115" lon="17.876726134689">
        <ele>68.2</ele>
        <time>2018-03-20T12:23:24Z</time>
      </trkpt>
      <trkpt lat="62.643398418203" lon="17.876750945113">
        <ele>68</ele>
        <time>2018-03-20T12:23:25Z</time>
      </trkpt>
      <trkpt lat="62.643362795128" lon="17.876756644805">
        <ele>67.6</ele>
        <time>2018-03-20T12:23:26Z</time>
      </trkpt>
      <trkpt lat="62.643324489845" lon="17.876750106923">
        <ele>67.2</ele>
        <time>2018-03-20T12:23:27Z</time>
      </trkpt>
      <trkpt lat="62.643291465159" lon="17.876749687828">
        <ele>67.2</ele>
        <time>2018-03-20T12:23:28Z</time>
      </trkpt>
      <trkpt lat="62.643252573143" lon="17.876739126634">
        <ele>67</ele>
        <time>2018-03-20T12:23:29Z</time>
      </trkpt>
      <trkpt lat="62.643218710267" lon="17.876722949567">
        <ele>67</ele>
        <time>2018-03-20T12:23:30Z</time>
      </trkpt>
      <trkpt lat="62.643179650613" lon="17.876709622346">
        <ele>67</ele>
        <time>2018-03-20T12:23:31Z</time>
      </trkpt>
      <trkpt lat="62.643146458289" lon="17.876702162455">
        <ele>67</ele>
        <time>2018-03-20T12:23:32Z</time>
      </trkpt>
      <trkpt lat="62.643115529078" lon="17.876689841062">
        <ele>67</ele>
        <time>2018-03-20T12:23:33Z</time>
      </trkpt>
      <trkpt lat="62.643098932916" lon="17.876685063379">
        <ele>67</ele>
        <time>2018-03-20T12:23:34Z</time>
      </trkpt>
      <trkpt lat="62.643055682312" lon="17.876676932936">
        <ele>67</ele>
        <time>2018-03-20T12:23:35Z</time>
      </trkpt>
      <trkpt lat="62.643022154712" lon="17.876662013154">
        <ele>67</ele>
        <time>2018-03-20T12:23:36Z</time>
      </trkpt>
      <trkpt lat="62.642991812234" lon="17.876642902422">
        <ele>67</ele>
        <time>2018-03-20T12:23:37Z</time>
      </trkpt>
      <trkpt lat="62.642964654878" lon="17.876630161934">
        <ele>67</ele>
        <time>2018-03-20T12:23:38Z</time>
      </trkpt>
      <trkpt lat="62.642935821142" lon="17.876614906876">
        <ele>67</ele>
        <time>2018-03-20T12:23:39Z</time>
      </trkpt>
      <trkpt lat="62.642911345994" lon="17.8766061897">
        <ele>67.2</ele>
        <time>2018-03-20T12:23:40Z</time>
      </trkpt>
      <trkpt lat="62.642887289941" lon="17.876594035945">
        <ele>67.4</ele>
        <time>2018-03-20T12:23:41Z</time>
      </trkpt>
      <trkpt lat="62.642864239716" lon="17.876587665701">
        <ele>67.8</ele>
        <time>2018-03-20T12:23:42Z</time>
      </trkpt>
      <trkpt lat="62.642843620242" lon="17.876585905502">
        <ele>67.8</ele>
        <time>2018-03-20T12:23:43Z</time>
      </trkpt>
      <trkpt lat="62.642825766795" lon="17.876580708724">
        <ele>68</ele>
        <time>2018-03-20T12:23:44Z</time>
      </trkpt>
      <trkpt lat="62.642802632751" lon="17.876582468923">
        <ele>68.2</ele>
        <time>2018-03-20T12:23:45Z</time>
      </trkpt>
      <trkpt lat="62.64278762915" lon="17.876580541086">
        <ele>68.8</ele>
        <time>2018-03-20T12:23:46Z</time>
      </trkpt>
      <trkpt lat="62.642767596409" lon="17.876577523602">
        <ele>69</ele>
        <time>2018-03-20T12:23:47Z</time>
      </trkpt>
      <trkpt lat="62.64274907241" lon="17.876579619077">
        <ele>69.6</ele>
        <time>2018-03-20T12:23:48Z</time>
      </trkpt>
      <trkpt lat="62.642730716049" lon="17.876584648217">
        <ele>69.8</ele>
        <time>2018-03-20T12:23:49Z</time>
      </trkpt>
      <trkpt lat="62.642707246729" lon="17.876594706497">
        <ele>70.6</ele>
        <time>2018-03-20T12:23:50Z</time>
      </trkpt>
      <trkpt lat="62.642682603943" lon="17.876605686786">
        <ele>71.2</ele>
        <time>2018-03-20T12:23:51Z</time>
      </trkpt>
      <trkpt lat="62.64265938608" lon="17.876625132794">
        <ele>71.4</ele>
        <time>2018-03-20T12:23:52Z</time>
      </trkpt>
      <trkpt lat="62.642641029719" lon="17.876640806947">
        <ele>71.4</ele>
        <time>2018-03-20T12:23:53Z</time>
      </trkpt>
      <trkpt lat="62.642615464924" lon="17.876656984014">
        <ele>71.6</ele>
        <time>2018-03-20T12:23:54Z</time>
      </trkpt>
      <trkpt lat="62.642590403043" lon="17.876674669823">
        <ele>71.2</ele>
        <time>2018-03-20T12:23:55Z</time>
      </trkpt>
      <trkpt lat="62.642567436637" lon="17.87669419965">
        <ele>71.4</ele>
        <time>2018-03-20T12:23:56Z</time>
      </trkpt>
      <trkpt lat="62.642545140783" lon="17.876714819124">
        <ele>71.4</ele>
        <time>2018-03-20T12:23:57Z</time>
      </trkpt>
      <trkpt lat="62.642526365327" lon="17.876733510761">
        <ele>71.6</ele>
        <time>2018-03-20T12:23:58Z</time>
      </trkpt>
      <trkpt lat="62.642503315102" lon="17.876753292045">
        <ele>71.6</ele>
        <time>2018-03-20T12:23:59Z</time>
      </trkpt>
      <trkpt lat="62.642483785275" lon="17.87676460761">
        <ele>71.8</ele>
        <time>2018-03-20T12:24:00Z</time>
      </trkpt>
      <trkpt lat="62.642466770018" lon="17.876790926776">
        <ele>72.2</ele>
        <time>2018-03-20T12:24:01Z</time>
      </trkpt>
      <trkpt lat="62.642443216879" lon="17.876808528766">
        <ele>72.4</ele>
        <time>2018-03-20T12:24:02Z</time>
      </trkpt>
      <trkpt lat="62.642423351776" lon="17.876839290339">
        <ele>72.6</ele>
        <time>2018-03-20T12:24:03Z</time>
      </trkpt>
      <trkpt lat="62.642406168881" lon="17.876873739948">
        <ele>72.6</ele>
        <time>2018-03-20T12:24:04Z</time>
      </trkpt>
      <trkpt lat="62.64238613614" lon="17.876905926444">
        <ele>72.8</ele>
        <time>2018-03-20T12:24:05Z</time>
      </trkpt>
      <trkpt lat="62.642362834458" lon="17.876938196759">
        <ele>72.8</ele>
        <time>2018-03-20T12:24:06Z</time>
      </trkpt>
      <trkpt lat="62.642339951871" lon="17.876982034096">
        <ele>72.8</ele>
        <time>2018-03-20T12:24:07Z</time>
      </trkpt>
      <trkpt lat="62.642327295202" lon="17.877015561696">
        <ele>72.8</ele>
        <time>2018-03-20T12:24:08Z</time>
      </trkpt>
      <trkpt lat="62.642301646588" lon="17.877052609694">
        <ele>72.8</ele>
        <time>2018-03-20T12:24:09Z</time>
      </trkpt>
      <trkpt lat="62.642287900272" lon="17.877101308533">
        <ele>73</ele>
        <time>2018-03-20T12:24:10Z</time>
      </trkpt>
      <trkpt lat="62.642257138699" lon="17.877158724548">
        <ele>73</ele>
        <time>2018-03-20T12:24:11Z</time>
      </trkpt>
      <trkpt lat="62.642237441234" lon="17.877213542174">
        <ele>73.2</ele>
        <time>2018-03-20T12:24:12Z</time>
      </trkpt>
      <trkpt lat="62.642217743769" lon="17.877261486642">
        <ele>73.2</ele>
        <time>2018-03-20T12:24:13Z</time>
      </trkpt>
      <trkpt lat="62.64219251425" lon="17.877329882946">
        <ele>73.2</ele>
        <time>2018-03-20T12:24:14Z</time>
      </trkpt>
      <trkpt lat="62.642168374378" lon="17.87739911744">
        <ele>73</ele>
        <time>2018-03-20T12:24:15Z</time>
      </trkpt>
      <trkpt lat="62.642137109891" lon="17.877449995573">
        <ele>72.8</ele>
        <time>2018-03-20T12:24:16Z</time>
      </trkpt>
      <trkpt lat="62.642108611431" lon="17.877511602538">
        <ele>72.4</ele>
        <time>2018-03-20T12:24:17Z</time>
      </trkpt>
      <trkpt lat="62.642077933677" lon="17.877579412109">
        <ele>72.4</ele>
        <time>2018-03-20T12:24:18Z</time>
      </trkpt>
      <trkpt lat="62.642042813516" lon="17.877653256648">
        <ele>71.8</ele>
        <time>2018-03-20T12:24:19Z</time>
      </trkpt>
      <trkpt lat="62.642009118278" lon="17.877734141983">
        <ele>71.4</ele>
        <time>2018-03-20T12:24:20Z</time>
      </trkpt>
      <trkpt lat="62.641977769972" lon="17.877820056458">
        <ele>70.8</ele>
        <time>2018-03-20T12:24:21Z</time>
      </trkpt>
      <trkpt lat="62.641949606788" lon="17.877897086119">
        <ele>70.6</ele>
        <time>2018-03-20T12:24:22Z</time>
      </trkpt>
      <trkpt lat="62.641919767224" lon="17.878003117154">
        <ele>70.2</ele>
        <time>2018-03-20T12:24:23Z</time>
      </trkpt>
      <trkpt lat="62.641887245452" lon="17.87812750455">
        <ele>69.2</ele>
        <time>2018-03-20T12:24:24Z</time>
      </trkpt>
      <trkpt lat="62.641860758648" lon="17.878249545014">
        <ele>69</ele>
        <time>2018-03-20T12:24:25Z</time>
      </trkpt>
      <trkpt lat="62.641835193853" lon="17.878375860247">
        <ele>68.6</ele>
        <time>2018-03-20T12:24:26Z</time>
      </trkpt>
      <trkpt lat="62.641811808352" lon="17.878511647027">
        <ele>68.2</ele>
        <time>2018-03-20T12:24:27Z</time>
      </trkpt>
      <trkpt lat="62.641792949077" lon="17.878626646695">
        <ele>67.6</ele>
        <time>2018-03-20T12:24:28Z</time>
      </trkpt>
      <trkpt lat="62.64177258106" lon="17.878771737384">
        <ele>67</ele>
        <time>2018-03-20T12:24:29Z</time>
      </trkpt>
      <trkpt lat="62.641761181676" lon="17.878900651006">
        <ele>66.4</ele>
        <time>2018-03-20T12:24:30Z</time>
      </trkpt>
      <trkpt lat="62.641757242183" lon="17.879027050058">
        <ele>66</ele>
        <time>2018-03-20T12:24:31Z</time>
      </trkpt>
      <trkpt lat="62.641759253839" lon="17.879157975336">
        <ele>65</ele>
        <time>2018-03-20T12:24:32Z</time>
      </trkpt>
      <trkpt lat="62.641765121169" lon="17.879291079908">
        <ele>64.4</ele>
        <time>2018-03-20T12:24:33Z</time>
      </trkpt>
      <trkpt lat="62.641772832517" lon="17.879425777041">
        <ele>63.8</ele>
        <time>2018-03-20T12:24:34Z</time>
      </trkpt>
      <trkpt lat="62.641782723159" lon="17.879576902698">
        <ele>63.2</ele>
        <time>2018-03-20T12:24:35Z</time>
      </trkpt>
      <trkpt lat="62.641792949077" lon="17.879705145768">
        <ele>62.8</ele>
        <time>2018-03-20T12:24:36Z</time>
      </trkpt>
      <trkpt lat="62.641802085348" lon="17.879828946431">
        <ele>62.2</ele>
        <time>2018-03-20T12:24:37Z</time>
      </trkpt>
      <trkpt lat="62.641807198307" lon="17.879935061285">
        <ele>61.8</ele>
        <time>2018-03-20T12:24:38Z</time>
      </trkpt>
      <trkpt lat="62.641810131972" lon="17.880051402057">
        <ele>61.4</ele>
        <time>2018-03-20T12:24:39Z</time>
      </trkpt>
      <trkpt lat="62.641809293782" lon="17.880160031481">
        <ele>61.2</ele>
        <time>2018-03-20T12:24:40Z</time>
      </trkpt>
      <trkpt lat="62.641803677909" lon="17.880286179076">
        <ele>61</ele>
        <time>2018-03-20T12:24:41Z</time>
      </trkpt>
      <trkpt lat="62.641795631285" lon="17.880406124065">
        <ele>60.8</ele>
        <time>2018-03-20T12:24:42Z</time>
      </trkpt>
      <trkpt lat="62.641783980444" lon="17.88051718424">
        <ele>60.6</ele>
        <time>2018-03-20T12:24:43Z</time>
      </trkpt>
      <trkpt lat="62.641767300463" lon="17.880631429537">
        <ele>60.4</ele>
        <time>2018-03-20T12:24:44Z</time>
      </trkpt>
      <trkpt lat="62.641752967414" lon="17.88073762821">
        <ele>60</ele>
        <time>2018-03-20T12:24:45Z</time>
      </trkpt>
      <trkpt lat="62.641743412048" lon="17.880814825509">
        <ele>59.8</ele>
        <time>2018-03-20T12:24:46Z</time>
      </trkpt>
      <trkpt lat="62.641729917189" lon="17.880895627025">
        <ele>59.8</ele>
        <time>2018-03-20T12:24:47Z</time>
      </trkpt>
      <trkpt lat="62.641717092882" lon="17.880962849863">
        <ele>60</ele>
        <time>2018-03-20T12:24:48Z</time>
      </trkpt>
      <trkpt lat="62.641701670186" lon="17.881053206745">
        <ele>59.8</ele>
        <time>2018-03-20T12:24:49Z</time>
      </trkpt>
      <trkpt lat="62.641685660757" lon="17.881124452895">
        <ele>60</ele>
        <time>2018-03-20T12:24:50Z</time>
      </trkpt>
      <trkpt lat="62.641678871418" lon="17.88117683977">
        <ele>60.4</ele>
        <time>2018-03-20T12:24:51Z</time>
      </trkpt>
      <trkpt lat="62.641664035455" lon="17.881261245503">
        <ele>60.8</ele>
        <time>2018-03-20T12:24:52Z</time>
      </trkpt>
      <trkpt lat="62.641652887528" lon="17.881342969028">
        <ele>60.8</ele>
        <time>2018-03-20T12:24:53Z</time>
      </trkpt>
      <trkpt lat="62.641644002714" lon="17.881457465782">
        <ele>61</ele>
        <time>2018-03-20T12:24:54Z</time>
      </trkpt>
      <trkpt lat="62.641638554479" lon="17.881551762157">
        <ele>61.2</ele>
        <time>2018-03-20T12:24:55Z</time>
      </trkpt>
      <trkpt lat="62.641624808163" lon="17.881641029392">
        <ele>61</ele>
        <time>2018-03-20T12:24:56Z</time>
      </trkpt>
      <trkpt lat="62.641604272508" lon="17.881708084592">
        <ele>60.6</ele>
        <time>2018-03-20T12:24:57Z</time>
      </trkpt>
      <trkpt lat="62.64158734107" lon="17.881762483123">
        <ele>60.4</ele>
        <time>2018-03-20T12:24:58Z</time>
      </trkpt>
      <trkpt lat="62.641551969452" lon="17.881812271609">
        <ele>59.8</ele>
        <time>2018-03-20T12:24:59Z</time>
      </trkpt>
      <trkpt lat="62.641517352205" lon="17.881831214703">
        <ele>59.6</ele>
        <time>2018-03-20T12:25:00Z</time>
      </trkpt>
      <trkpt lat="62.641486842089" lon="17.881845631571">
        <ele>59.4</ele>
        <time>2018-03-20T12:25:01Z</time>
      </trkpt>
      <trkpt lat="62.64146245076" lon="17.881856192765">
        <ele>59.6</ele>
        <time>2018-03-20T12:25:02Z</time>
      </trkpt>
      <trkpt lat="62.641432611196" lon="17.881865329036">
        <ele>59.6</ele>
        <time>2018-03-20T12:25:03Z</time>
      </trkpt>
      <trkpt lat="62.641410566799" lon="17.881873794755">
        <ele>59.6</ele>
        <time>2018-03-20T12:25:04Z</time>
      </trkpt>
      <trkpt lat="62.641367986747" lon="17.881896928799">
        <ele>59.8</ele>
        <time>2018-03-20T12:25:05Z</time>
      </trkpt>
      <trkpt lat="62.641343763056" lon="17.881915788074">
        <ele>60</ele>
        <time>2018-03-20T12:25:06Z</time>
      </trkpt>
      <trkpt lat="62.641315851329" lon="17.881931881322">
        <ele>60</ele>
        <time>2018-03-20T12:25:07Z</time>
      </trkpt>
      <trkpt lat="62.64128475448" lon="17.881940766136">
        <ele>60.2</ele>
        <time>2018-03-20T12:25:08Z</time>
      </trkpt>
      <trkpt lat="62.641258519133" lon="17.881977814134">
        <ele>60.2</ele>
        <time>2018-03-20T12:25:09Z</time>
      </trkpt>
      <trkpt lat="62.641222979877" lon="17.88200916244">
        <ele>60.4</ele>
        <time>2018-03-20T12:25:10Z</time>
      </trkpt>
      <trkpt lat="62.641186099517" lon="17.882047216266">
        <ele>60.4</ele>
        <time>2018-03-20T12:25:11Z</time>
      </trkpt>
      <trkpt lat="62.641145950216" lon="17.882125084117">
        <ele>60.6</ele>
        <time>2018-03-20T12:25:12Z</time>
      </trkpt>
      <trkpt lat="62.6411154401" lon="17.882197671371">
        <ele>60.4</ele>
        <time>2018-03-20T12:25:13Z</time>
      </trkpt>
      <trkpt lat="62.641081325767" lon="17.882301355474">
        <ele>60</ele>
        <time>2018-03-20T12:25:14Z</time>
      </trkpt>
      <trkpt lat="62.641048217262" lon="17.88244334486">
        <ele>59.2</ele>
        <time>2018-03-20T12:25:15Z</time>
      </trkpt>
      <trkpt lat="62.641027849245" lon="17.882560104727">
        <ele>58.2</ele>
        <time>2018-03-20T12:25:16Z</time>
      </trkpt>
      <trkpt lat="62.641008906151" lon="17.882691868195">
        <ele>57</ele>
        <time>2018-03-20T12:25:17Z</time>
      </trkpt>
      <trkpt lat="62.641002200631" lon="17.882790187882">
        <ele>56</ele>
        <time>2018-03-20T12:25:18Z</time>
      </trkpt>
      <trkpt lat="62.640994154007" lon="17.882893285252">
        <ele>55.2</ele>
        <time>2018-03-20T12:25:19Z</time>
      </trkpt>
      <trkpt lat="62.640986023564" lon="17.882998478097">
        <ele>54.6</ele>
        <time>2018-03-20T12:25:20Z</time>
      </trkpt>
      <trkpt lat="62.64097462418" lon="17.883074166654">
        <ele>54.6</ele>
        <time>2018-03-20T12:25:21Z</time>
      </trkpt>
      <trkpt lat="62.640962973339" lon="17.883153794704">
        <ele>54.6</ele>
        <time>2018-03-20T12:25:22Z</time>
      </trkpt>
      <trkpt lat="62.640949227023" lon="17.883246247061">
        <ele>54.8</ele>
        <time>2018-03-20T12:25:23Z</time>
      </trkpt>
      <trkpt lat="62.64094193477" lon="17.88335278101">
        <ele>54.8</ele>
        <time>2018-03-20T12:25:24Z</time>
      </trkpt>
      <trkpt lat="62.640944114064" lon="17.883452944715">
        <ele>54.8</ele>
        <time>2018-03-20T12:25:25Z</time>
      </trkpt>
      <trkpt lat="62.640965236452" lon="17.883563418157">
        <ele>54.6</ele>
        <time>2018-03-20T12:25:26Z</time>
      </trkpt>
      <trkpt lat="62.640994908378" lon="17.883661318749">
        <ele>54.4</ele>
        <time>2018-03-20T12:25:27Z</time>
      </trkpt>
      <trkpt lat="62.641015192576" lon="17.883737007306">
        <ele>54</ele>
        <time>2018-03-20T12:25:28Z</time>
      </trkpt>
      <trkpt lat="62.641039080991" lon="17.883836919554">
        <ele>53.6</ele>
        <time>2018-03-20T12:25:29Z</time>
      </trkpt>
      <trkpt lat="62.641063388501" lon="17.883940519838">
        <ele>53.4</ele>
        <time>2018-03-20T12:25:30Z</time>
      </trkpt>
      <trkpt lat="62.641085684355" lon="17.884057112067">
        <ele>53.2</ele>
        <time>2018-03-20T12:25:31Z</time>
      </trkpt>
      <trkpt lat="62.641110913874" lon="17.884159371247">
        <ele>53</ele>
        <time>2018-03-20T12:25:32Z</time>
      </trkpt>
      <trkpt lat="62.641133461185" lon="17.884247800292">
        <ele>52.6</ele>
        <time>2018-03-20T12:25:33Z</time>
      </trkpt>
      <trkpt lat="62.641157181962" lon="17.88433513969">
        <ele>52.2</ele>
        <time>2018-03-20T12:25:34Z</time>
      </trkpt>
      <trkpt lat="62.641189787553" lon="17.884434381386">
        <ele>51.8</ele>
        <time>2018-03-20T12:25:35Z</time>
      </trkpt>
      <trkpt lat="62.641219962393" lon="17.884513087427">
        <ele>51.6</ele>
        <time>2018-03-20T12:25:36Z</time>
      </trkpt>
      <trkpt lat="62.641255334011" lon="17.884587686337">
        <ele>51</ele>
        <time>2018-03-20T12:25:37Z</time>
      </trkpt>
      <trkpt lat="62.641289699801" lon="17.884651724053">
        <ele>50.4</ele>
        <time>2018-03-20T12:25:38Z</time>
      </trkpt>
      <trkpt lat="62.641330603473" lon="17.884729424266">
        <ele>50.2</ele>
        <time>2018-03-20T12:25:39Z</time>
      </trkpt>
      <trkpt lat="62.641367902928" lon="17.884801257149">
        <ele>50</ele>
        <time>2018-03-20T12:25:40Z</time>
      </trkpt>
      <trkpt lat="62.641412494636" lon="17.884886501072">
        <ele>49.2</ele>
        <time>2018-03-20T12:25:41Z</time>
      </trkpt>
      <trkpt lat="62.641456331973" lon="17.884963195457">
        <ele>48.6</ele>
        <time>2018-03-20T12:25:42Z</time>
      </trkpt>
      <trkpt lat="62.641491871229" lon="17.885028825734">
        <ele>48.2</ele>
        <time>2018-03-20T12:25:43Z</time>
      </trkpt>
      <trkpt lat="62.64153788786" lon="17.885112393277">
        <ele>47.6</ele>
        <time>2018-03-20T12:25:44Z</time>
      </trkpt>
      <trkpt lat="62.641579294446" lon="17.885188836205">
        <ele>47.2</ele>
        <time>2018-03-20T12:25:45Z</time>
      </trkpt>
      <trkpt lat="62.641618521738" lon="17.885259830898">
        <ele>46.8</ele>
        <time>2018-03-20T12:25:46Z</time>
      </trkpt>
      <trkpt lat="62.641670154242" lon="17.885354043454">
        <ele>46.2</ele>
        <time>2018-03-20T12:25:47Z</time>
      </trkpt>
      <trkpt lat="62.641711979923" lon="17.885431743667">
        <ele>46</ele>
        <time>2018-03-20T12:25:48Z</time>
      </trkpt>
      <trkpt lat="62.641765372626" lon="17.885534673399">
        <ele>45.4</ele>
        <time>2018-03-20T12:25:49Z</time>
      </trkpt>
      <trkpt lat="62.641816586035" lon="17.885631903439">
        <ele>45</ele>
        <time>2018-03-20T12:25:50Z</time>
      </trkpt>
      <trkpt lat="62.641864865779" lon="17.88572150595">
        <ele>44.2</ele>
        <time>2018-03-20T12:25:51Z</time>
      </trkpt>
      <trkpt lat="62.641902332872" lon="17.885788225874">
        <ele>43.8</ele>
        <time>2018-03-20T12:25:52Z</time>
      </trkpt>
      <trkpt lat="62.641937033938" lon="17.885855951626">
        <ele>43.4</ele>
        <time>2018-03-20T12:25:53Z</time>
      </trkpt>
      <trkpt lat="62.641982631474" lon="17.88594111173">
        <ele>43</ele>
        <time>2018-03-20T12:25:54Z</time>
      </trkpt>
      <trkpt lat="62.642019763291" lon="17.886002634876">
        <ele>42.8</ele>
        <time>2018-03-20T12:25:55Z</time>
      </trkpt>
      <trkpt lat="62.642046836828" lon="17.886050244068">
        <ele>42.8</ele>
        <time>2018-03-20T12:25:56Z</time>
      </trkpt>
      <trkpt lat="62.642084471559" lon="17.886127860462">
        <ele>42.8</ele>
        <time>2018-03-20T12:25:57Z</time>
      </trkpt>
      <trkpt lat="62.642110958363" lon="17.886176559301">
        <ele>43.2</ele>
        <time>2018-03-20T12:25:58Z</time>
      </trkpt>
      <trkpt lat="62.642149347465" lon="17.886251828763">
        <ele>43.2</ele>
        <time>2018-03-20T12:25:59Z</time>
      </trkpt>
      <trkpt lat="62.64218580873" lon="17.886316788488">
        <ele>43.2</ele>
        <time>2018-03-20T12:26:00Z</time>
      </trkpt>
      <trkpt lat="62.64222520366" lon="17.886395578348">
        <ele>42.6</ele>
        <time>2018-03-20T12:26:01Z</time>
      </trkpt>
      <trkpt lat="62.642268286626" lon="17.886486941058">
        <ele>42.4</ele>
        <time>2018-03-20T12:26:02Z</time>
      </trkpt>
      <trkpt lat="62.642303742063" lon="17.886576208293">
        <ele>41.6</ele>
        <time>2018-03-20T12:26:03Z</time>
      </trkpt>
      <trkpt lat="62.642330564143" lon="17.886657931818">
        <ele>41.2</ele>
        <time>2018-03-20T12:26:04Z</time>
      </trkpt>
      <trkpt lat="62.642368701788" lon="17.88678516906">
        <ele>40.6</ele>
        <time>2018-03-20T12:26:05Z</time>
      </trkpt>
      <trkpt lat="62.642388483072" lon="17.886887595878">
        <ele>40</ele>
        <time>2018-03-20T12:26:06Z</time>
      </trkpt>
      <trkpt lat="62.642397116429" lon="17.886992537266">
        <ele>39.2</ele>
        <time>2018-03-20T12:26:07Z</time>
      </trkpt>
      <trkpt lat="62.642387980158" lon="17.887088426202">
        <ele>38.4</ele>
        <time>2018-03-20T12:26:08Z</time>
      </trkpt>
      <trkpt lat="62.642367276865" lon="17.887185656242">
        <ele>37.8</ele>
        <time>2018-03-20T12:26:09Z</time>
      </trkpt>
      <trkpt lat="62.642346573572" lon="17.887232846339">
        <ele>37.4</ele>
        <time>2018-03-20T12:26:10Z</time>
      </trkpt>
      <trkpt lat="62.642308603565" lon="17.887318760814">
        <ele>37.2</ele>
        <time>2018-03-20T12:26:11Z</time>
      </trkpt>
      <trkpt lat="62.642270214463" lon="17.887396628665">
        <ele>36.8</ele>
        <time>2018-03-20T12:26:12Z</time>
      </trkpt>
      <trkpt lat="62.642234591388" lon="17.88745991201">
        <ele>36.6</ele>
        <time>2018-03-20T12:26:13Z</time>
      </trkpt>
      <trkpt lat="62.642182623608" lon="17.887541467897">
        <ele>36.2</ele>
        <time>2018-03-20T12:26:14Z</time>
      </trkpt>
      <trkpt lat="62.642126045783" lon="17.887610870029">
        <ele>35.8</ele>
        <time>2018-03-20T12:26:15Z</time>
      </trkpt>
      <trkpt lat="62.642072485442" lon="17.887664849465">
        <ele>35.6</ele>
        <time>2018-03-20T12:26:16Z</time>
      </trkpt>
      <trkpt lat="62.642032503779" lon="17.887737269081">
        <ele>35.4</ele>
        <time>2018-03-20T12:26:17Z</time>
      </trkpt>
      <trkpt lat="62.64200140693" lon="17.88779099706">
        <ele>35</ele>
        <time>2018-03-20T12:26:18Z</time>
      </trkpt>
      <trkpt lat="62.641964945665" lon="17.887851011464">
        <ele>34.8</ele>
        <time>2018-03-20T12:26:19Z</time>
      </trkpt>
      <trkpt lat="62.641933429721" lon="17.887914462447">
        <ele>34.6</ele>
        <time>2018-03-20T12:26:20Z</time>
      </trkpt>
      <trkpt lat="62.641909708944" lon="17.887993503764">
        <ele>34.4</ele>
        <time>2018-03-20T12:26:21Z</time>
      </trkpt>
      <trkpt lat="62.641889508565" lon="17.888065504285">
        <ele>34.4</ele>
        <time>2018-03-20T12:26:22Z</time>
      </trkpt>
      <trkpt lat="62.641868889091" lon="17.888136750435">
        <ele>34.4</ele>
        <time>2018-03-20T12:26:23Z</time>
      </trkpt>
      <trkpt lat="62.641851035644" lon="17.888211433164">
        <ele>34.2</ele>
        <time>2018-03-20T12:26:24Z</time>
      </trkpt>
      <trkpt lat="62.64183125436" lon="17.888279745649">
        <ele>34.2</ele>
        <time>2018-03-20T12:26:25Z</time>
      </trkpt>
      <trkpt lat="62.641817340406" lon="17.888345292107">
        <ele>34.4</ele>
        <time>2018-03-20T12:26:26Z</time>
      </trkpt>
      <trkpt lat="62.641792446163" lon="17.88843472698">
        <ele>34.4</ele>
        <time>2018-03-20T12:26:27Z</time>
      </trkpt>
      <trkpt lat="62.641782220245" lon="17.888489376968">
        <ele>34.6</ele>
        <time>2018-03-20T12:26:28Z</time>
      </trkpt>
      <trkpt lat="62.641764785893" lon="17.888600185686">
        <ele>34.4</ele>
        <time>2018-03-20T12:26:29Z</time>
      </trkpt>
      <trkpt lat="62.641740897478" lon="17.888686435437">
        <ele>34.2</ele>
        <time>2018-03-20T12:26:30Z</time>
      </trkpt>
      <trkpt lat="62.641723379307" lon="17.888758352139">
        <ele>34</ele>
        <time>2018-03-20T12:26:31Z</time>
      </trkpt>
      <trkpt lat="62.641706866964" lon="17.888811493385">
        <ele>33.8</ele>
        <time>2018-03-20T12:26:32Z</time>
      </trkpt>
      <trkpt lat="62.641692366277" lon="17.888850050125">
        <ele>33.6</ele>
        <time>2018-03-20T12:26:33Z</time>
      </trkpt>
      <trkpt lat="62.641680463979" lon="17.888886846666">
        <ele>33.8</ele>
        <time>2018-03-20T12:26:34Z</time>
      </trkpt>
      <trkpt lat="62.641676608305" lon="17.888916770049">
        <ele>33.8</ele>
        <time>2018-03-20T12:26:35Z</time>
      </trkpt>
      <trkpt lat="62.641671495346" lon="17.888947783079">
        <ele>34</ele>
        <time>2018-03-20T12:26:36Z</time>
      </trkpt>
      <trkpt lat="62.641664286912" lon="17.888975191892">
        <ele>34</ele>
        <time>2018-03-20T12:26:37Z</time>
      </trkpt>
      <trkpt lat="62.641661437066" lon="17.888996817194">
        <ele>34.6</ele>
        <time>2018-03-20T12:26:38Z</time>
      </trkpt>
      <trkpt lat="62.64165691084" lon="17.88902481274">
        <ele>35</ele>
        <time>2018-03-20T12:26:39Z</time>
      </trkpt>
      <trkpt lat="62.641648361302" lon="17.889040905988">
        <ele>35.4</ele>
        <time>2018-03-20T12:26:40Z</time>
      </trkpt>
      <trkpt lat="62.641644086533" lon="17.889063034204">
        <ele>35.8</ele>
        <time>2018-03-20T12:26:41Z</time>
      </trkpt>
      <trkpt lat="62.641638554479" lon="17.889092035578">
        <ele>36.4</ele>
        <time>2018-03-20T12:26:42Z</time>
      </trkpt>
      <trkpt lat="62.641633273882" lon="17.889112403595">
        <ele>36.8</ele>
        <time>2018-03-20T12:26:43Z</time>
      </trkpt>
      <trkpt lat="62.641627741828" lon="17.88913377744">
        <ele>37.2</ele>
        <time>2018-03-20T12:26:44Z</time>
      </trkpt>
      <trkpt lat="62.641620952489" lon="17.889152552896">
        <ele>37.4</ele>
        <time>2018-03-20T12:26:45Z</time>
      </trkpt>
      <trkpt lat="62.641619527566" lon="17.889172166542">
        <ele>37.6</ele>
        <time>2018-03-20T12:26:46Z</time>
      </trkpt>
      <trkpt lat="62.641615085159" lon="17.889192199283">
        <ele>38</ele>
        <time>2018-03-20T12:26:47Z</time>
      </trkpt>
      <trkpt lat="62.641613157322" lon="17.88920502359">
        <ele>38.6</ele>
        <time>2018-03-20T12:26:48Z</time>
      </trkpt>
      <trkpt lat="62.641609804562" lon="17.88922849291">
        <ele>39.2</ele>
        <time>2018-03-20T12:26:49Z</time>
      </trkpt>
      <trkpt lat="62.641607206173" lon="17.889249280022">
        <ele>39.4</ele>
        <time>2018-03-20T12:26:50Z</time>
      </trkpt>
      <trkpt lat="62.641605865069" lon="17.889270737686">
        <ele>39.8</ele>
        <time>2018-03-20T12:26:51Z</time>
      </trkpt>
      <trkpt lat="62.641604021051" lon="17.889292530626">
        <ele>40</ele>
        <time>2018-03-20T12:26:52Z</time>
      </trkpt>
      <trkpt lat="62.641599327187" lon="17.889314994118">
        <ele>40.2</ele>
        <time>2018-03-20T12:26:53Z</time>
      </trkpt>
      <trkpt lat="62.641596309703" lon="17.889342738207">
        <ele>40.4</ele>
        <time>2018-03-20T12:26:54Z</time>
      </trkpt>
      <trkpt lat="62.641593292219" lon="17.889367967726">
        <ele>40.4</ele>
        <time>2018-03-20T12:26:55Z</time>
      </trkpt>
      <trkpt lat="62.641591448201" lon="17.889389676847">
        <ele>40.6</ele>
        <time>2018-03-20T12:26:56Z</time>
      </trkpt>
      <trkpt lat="62.641590861468" lon="17.889418007669">
        <ele>41</ele>
        <time>2018-03-20T12:26:57Z</time>
      </trkpt>
      <trkpt lat="62.641588765993" lon="17.88943720222">
        <ele>41.2</ele>
        <time>2018-03-20T12:26:58Z</time>
      </trkpt>
      <trkpt lat="62.641588849812" lon="17.889466957965">
        <ele>41.4</ele>
        <time>2018-03-20T12:26:59Z</time>
      </trkpt>
      <trkpt lat="62.641586754337" lon="17.889490511104">
        <ele>41.8</ele>
        <time>2018-03-20T12:27:00Z</time>
      </trkpt>
      <trkpt lat="62.641586167604" lon="17.889512890777">
        <ele>42.2</ele>
        <time>2018-03-20T12:27:01Z</time>
      </trkpt>
      <trkpt lat="62.641587843984" lon="17.88953443226">
        <ele>42.4</ele>
        <time>2018-03-20T12:27:02Z</time>
      </trkpt>
      <trkpt lat="62.641586670518" lon="17.889555303191">
        <ele>42.8</ele>
        <time>2018-03-20T12:27:03Z</time>
      </trkpt>
      <trkpt lat="62.641584742681" lon="17.889579610701">
        <ele>43.2</ele>
        <time>2018-03-20T12:27:04Z</time>
      </trkpt>
      <trkpt lat="62.641586419061" lon="17.889606348962">
        <ele>43.6</ele>
        <time>2018-03-20T12:27:05Z</time>
      </trkpt>
      <trkpt lat="62.641588514536" lon="17.889631075567">
        <ele>44</ele>
        <time>2018-03-20T12:27:06Z</time>
      </trkpt>
      <trkpt lat="62.641590610011" lon="17.889654125792">
        <ele>44.2</ele>
        <time>2018-03-20T12:27:07Z</time>
      </trkpt>
      <trkpt lat="62.641592789305" lon="17.889680780234">
        <ele>44.4</ele>
        <time>2018-03-20T12:27:08Z</time>
      </trkpt>
      <trkpt lat="62.641595303875" lon="17.889709949246">
        <ele>44.8</ele>
        <time>2018-03-20T12:27:09Z</time>
      </trkpt>
      <trkpt lat="62.641596980255" lon="17.889735094946">
        <ele>45</ele>
        <time>2018-03-20T12:27:10Z</time>
      </trkpt>
      <trkpt lat="62.641598488997" lon="17.889769041641">
        <ele>45.4</ele>
        <time>2018-03-20T12:27:11Z</time>
      </trkpt>
      <trkpt lat="62.641602093214" lon="17.889805335268">
        <ele>45.8</ele>
        <time>2018-03-20T12:27:12Z</time>
      </trkpt>
      <trkpt lat="62.641602847585" lon="17.889837437945">
        <ele>46</ele>
        <time>2018-03-20T12:27:13Z</time>
      </trkpt>
      <trkpt lat="62.641603769594" lon="17.889876078504">
        <ele>46.2</ele>
        <time>2018-03-20T12:27:14Z</time>
      </trkpt>
      <trkpt lat="62.641604607784" lon="17.889909606104">
        <ele>46.4</ele>
        <time>2018-03-20T12:27:15Z</time>
      </trkpt>
      <trkpt lat="62.641608714915" lon="17.889937853107">
        <ele>46.6</ele>
        <time>2018-03-20T12:27:16Z</time>
      </trkpt>
      <trkpt lat="62.641621036308" lon="17.889969285232">
        <ele>47</ele>
        <time>2018-03-20T12:27:17Z</time>
      </trkpt>
      <trkpt lat="62.641630843131" lon="17.889996023493">
        <ele>47</ele>
        <time>2018-03-20T12:27:18Z</time>
      </trkpt>
      <trkpt lat="62.641641907239" lon="17.890038519726">
        <ele>47.2</ele>
        <time>2018-03-20T12:27:19Z</time>
      </trkpt>
      <trkpt lat="62.641656575564" lon="17.890076070638">
        <ele>47.2</ele>
        <time>2018-03-20T12:27:20Z</time>
      </trkpt>
      <trkpt lat="62.641669399871" lon="17.890116806672">
        <ele>47.4</ele>
        <time>2018-03-20T12:27:21Z</time>
      </trkpt>
      <trkpt lat="62.641687504775" lon="17.890165505511">
        <ele>47.4</ele>
        <time>2018-03-20T12:27:22Z</time>
      </trkpt>
      <trkpt lat="62.641706196412" lon="17.890197189093">
        <ele>47.4</ele>
        <time>2018-03-20T12:27:23Z</time>
      </trkpt>
      <trkpt lat="62.641734611053" lon="17.890255778574">
        <ele>47.4</ele>
        <time>2018-03-20T12:27:24Z</time>
      </trkpt>
      <trkpt lat="62.641761097857" lon="17.890299364454">
        <ele>47.4</ele>
        <time>2018-03-20T12:27:25Z</time>
      </trkpt>
      <trkpt lat="62.641799570778" lon="17.890340351945">
        <ele>47.2</ele>
        <time>2018-03-20T12:27:26Z</time>
      </trkpt>
      <trkpt lat="62.641848940169" lon="17.890384524558">
        <ele>47.2</ele>
        <time>2018-03-20T12:27:27Z</time>
      </trkpt>
      <trkpt lat="62.641896800818" lon="17.890419309443">
        <ele>46.8</ele>
        <time>2018-03-20T12:27:28Z</time>
      </trkpt>
      <trkpt lat="62.64196620295" lon="17.890469600843">
        <ele>46.4</ele>
        <time>2018-03-20T12:27:29Z</time>
      </trkpt>
      <trkpt lat="62.642041053317" lon="17.890523161184">
        <ele>45.8</ele>
        <time>2018-03-20T12:27:30Z</time>
      </trkpt>
      <trkpt lat="62.642114059666" lon="17.89057714062">
        <ele>45</ele>
        <time>2018-03-20T12:27:31Z</time>
      </trkpt>
      <trkpt lat="62.642197291933" lon="17.890640088689">
        <ele>43.8</ele>
        <time>2018-03-20T12:27:32Z</time>
      </trkpt>
      <trkpt lat="62.642271471748" lon="17.890698007618">
        <ele>42</ele>
        <time>2018-03-20T12:27:33Z</time>
      </trkpt>
      <trkpt lat="62.642338862224" lon="17.890756010366">
        <ele>40.6</ele>
        <time>2018-03-20T12:27:34Z</time>
      </trkpt>
      <trkpt lat="62.642394266583" lon="17.890805044481">
        <ele>39</ele>
        <time>2018-03-20T12:27:35Z</time>
      </trkpt>
      <trkpt lat="62.642423770871" lon="17.890853575682">
        <ele>38</ele>
        <time>2018-03-20T12:27:36Z</time>
      </trkpt>
      <trkpt lat="62.64245067677" lon="17.890909231498">
        <ele>37.6</ele>
        <time>2018-03-20T12:27:37Z</time>
      </trkpt>
      <trkpt lat="62.642471966796" lon="17.890946447134">
        <ele>38</ele>
        <time>2018-03-20T12:27:38Z</time>
      </trkpt>
      <trkpt lat="62.642488898234" lon="17.89099204467">
        <ele>38.6</ele>
        <time>2018-03-20T12:27:39Z</time>
      </trkpt>
      <trkpt lat="62.642497196315" lon="17.891040240595">
        <ele>39.8</ele>
        <time>2018-03-20T12:27:40Z</time>
      </trkpt>
      <trkpt lat="62.64250432093" lon="17.89109346566">
        <ele>40.4</ele>
        <time>2018-03-20T12:27:41Z</time>
      </trkpt>
      <trkpt lat="62.642505242939" lon="17.891161694326">
        <ele>40.8</ele>
        <time>2018-03-20T12:27:42Z</time>
      </trkpt>
      <trkpt lat="62.642503901835" lon="17.891218439789">
        <ele>41.2</ele>
        <time>2018-03-20T12:27:43Z</time>
      </trkpt>
      <trkpt lat="62.642492083356" lon="17.89127870565">
        <ele>41.4</ele>
        <time>2018-03-20T12:27:44Z</time>
      </trkpt>
      <trkpt lat="62.642482444171" lon="17.8913248061">
        <ele>41.4</ele>
        <time>2018-03-20T12:27:45Z</time>
      </trkpt>
      <trkpt lat="62.642467775846" lon="17.891375265138">
        <ele>41.4</ele>
        <time>2018-03-20T12:27:46Z</time>
      </trkpt>
      <trkpt lat="62.642438020101" lon="17.891450283143">
        <ele>41.6</ele>
        <time>2018-03-20T12:27:47Z</time>
      </trkpt>
      <trkpt lat="62.642412371487" lon="17.89150585514">
        <ele>41.4</ele>
        <time>2018-03-20T12:27:48Z</time>
      </trkpt>
      <trkpt lat="62.642380017353" lon="17.891571066322">
        <ele>41</ele>
        <time>2018-03-20T12:27:49Z</time>
      </trkpt>
      <trkpt lat="62.642360319888" lon="17.891625967767">
        <ele>40.8</ele>
        <time>2018-03-20T12:27:50Z</time>
      </trkpt>
      <trkpt lat="62.642334084541" lon="17.891676342986">
        <ele>40.4</ele>
        <time>2018-03-20T12:27:51Z</time>
      </trkpt>
      <trkpt lat="62.642305083167" lon="17.89172629911">
        <ele>40.4</ele>
        <time>2018-03-20T12:27:52Z</time>
      </trkpt>
      <trkpt lat="62.642291253032" lon="17.891756557769">
        <ele>40.4</ele>
        <time>2018-03-20T12:27:53Z</time>
      </trkpt>
      <trkpt lat="62.642272812852" lon="17.891790672102">
        <ele>40.2</ele>
        <time>2018-03-20T12:27:54Z</time>
      </trkpt>
      <trkpt lat="62.642247750971" lon="17.89180844173">
        <ele>40.2</ele>
        <time>2018-03-20T12:27:55Z</time>
      </trkpt>
      <trkpt lat="62.642231406266" lon="17.891822858598">
        <ele>40.4</ele>
        <time>2018-03-20T12:27:56Z</time>
      </trkpt>
      <trkpt lat="62.642214977742" lon="17.89183442562">
        <ele>40.6</ele>
        <time>2018-03-20T12:27:57Z</time>
      </trkpt>
      <trkpt lat="62.642201063788" lon="17.891843310434">
        <ele>40.8</ele>
        <time>2018-03-20T12:27:58Z</time>
      </trkpt>
      <trkpt lat="62.642184048531" lon="17.891846579375">
        <ele>41.2</ele>
        <time>2018-03-20T12:27:59Z</time>
      </trkpt>
      <trkpt lat="62.642165105437" lon="17.891860996243">
        <ele>41.4</ele>
        <time>2018-03-20T12:28:00Z</time>
      </trkpt>
      <trkpt lat="62.64215060475" lon="17.891862672623">
        <ele>41.8</ele>
        <time>2018-03-20T12:28:01Z</time>
      </trkpt>
      <trkpt lat="62.642138115719" lon="17.891864181365">
        <ele>42</ele>
        <time>2018-03-20T12:28:02Z</time>
      </trkpt>
      <trkpt lat="62.642122693023" lon="17.891861582976">
        <ele>42.2</ele>
        <time>2018-03-20T12:28:03Z</time>
      </trkpt>
      <trkpt lat="62.64210953344" lon="17.891857643483">
        <ele>42.4</ele>
        <time>2018-03-20T12:28:04Z</time>
      </trkpt>
      <trkpt lat="62.642091260898" lon="17.891862504985">
        <ele>42.6</ele>
        <time>2018-03-20T12:28:05Z</time>
      </trkpt>
      <trkpt lat="62.642071731071" lon="17.891871725075">
        <ele>42.8</ele>
        <time>2018-03-20T12:28:06Z</time>
      </trkpt>
      <trkpt lat="62.64205253652" lon="17.89187717331">
        <ele>43</ele>
        <time>2018-03-20T12:28:07Z</time>
      </trkpt>
      <trkpt lat="62.642038957842" lon="17.89188304064">
        <ele>43.2</ele>
        <time>2018-03-20T12:28:08Z</time>
      </trkpt>
      <trkpt lat="62.64202571444" lon="17.891886309581">
        <ele>43.4</ele>
        <time>2018-03-20T12:28:09Z</time>
      </trkpt>
      <trkpt lat="62.642008196269" lon="17.891894188567">
        <ele>43.6</ele>
        <time>2018-03-20T12:28:10Z</time>
      </trkpt>
      <trkpt lat="62.641990929555" lon="17.891900055897">
        <ele>43.8</ele>
        <time>2018-03-20T12:28:11Z</time>
      </trkpt>
      <trkpt lat="62.641974920126" lon="17.891907515788">
        <ele>44</ele>
        <time>2018-03-20T12:28:12Z</time>
      </trkpt>
      <trkpt lat="62.641955725575" lon="17.891909527444">
        <ele>44</ele>
        <time>2018-03-20T12:28:13Z</time>
      </trkpt>
      <trkpt lat="62.641937788309" lon="17.891920843009">
        <ele>44.2</ele>
        <time>2018-03-20T12:28:14Z</time>
      </trkpt>
      <trkpt lat="62.6419201025" lon="17.891932326212">
        <ele>44.6</ele>
        <time>2018-03-20T12:28:15Z</time>
      </trkpt>
      <trkpt lat="62.641904679804" lon="17.891945150519">
        <ele>45</ele>
        <time>2018-03-20T12:28:16Z</time>
      </trkpt>
      <trkpt lat="62.641894202429" lon="17.891962165776">
        <ele>45.2</ele>
        <time>2018-03-20T12:28:17Z</time>
      </trkpt>
      <trkpt lat="62.641880372294" lon="17.891981276508">
        <ele>45.4</ele>
        <time>2018-03-20T12:28:18Z</time>
      </trkpt>
      <trkpt lat="62.641867967082" lon="17.892004242914">
        <ele>45.8</ele>
        <time>2018-03-20T12:28:19Z</time>
      </trkpt>
      <trkpt lat="62.641855897146" lon="17.892026874044">
        <ele>46</ele>
        <time>2018-03-20T12:28:20Z</time>
      </trkpt>
      <trkpt lat="62.641848688712" lon="17.892053612305">
        <ele>46.2</ele>
        <time>2018-03-20T12:28:21Z</time>
      </trkpt>
      <trkpt lat="62.641841061183" lon="17.892079680014">
        <ele>46.4</ele>
        <time>2018-03-20T12:28:22Z</time>
      </trkpt>
      <trkpt lat="62.641837205509" lon="17.892108262293">
        <ele>46.8</ele>
        <time>2018-03-20T12:28:23Z</time>
      </trkpt>
      <trkpt lat="62.641838881889" lon="17.892141370798">
        <ele>47</ele>
        <time>2018-03-20T12:28:24Z</time>
      </trkpt>
      <trkpt lat="62.641843240477" lon="17.892187052153">
        <ele>47.2</ele>
        <time>2018-03-20T12:28:25Z</time>
      </trkpt>
      <trkpt lat="62.641847934341" lon="17.892217310812">
        <ele>47.6</ele>
        <time>2018-03-20T12:28:26Z</time>
      </trkpt>
      <trkpt lat="62.641854220766" lon="17.892264249452">
        <ele>47.8</ele>
        <time>2018-03-20T12:28:27Z</time>
      </trkpt>
      <trkpt lat="62.641859501363" lon="17.892292496455">
        <ele>48</ele>
        <time>2018-03-20T12:28:28Z</time>
      </trkpt>
      <trkpt lat="62.641863692313" lon="17.892353181411">
        <ele>48.2</ele>
        <time>2018-03-20T12:28:29Z</time>
      </trkpt>
      <trkpt lat="62.64186813472" lon="17.892397102567">
        <ele>48.4</ele>
        <time>2018-03-20T12:28:30Z</time>
      </trkpt>
      <trkpt lat="62.641874253507" lon="17.892421912991">
        <ele>48.4</ele>
        <time>2018-03-20T12:28:31Z</time>
      </trkpt>
      <trkpt lat="62.641872828584" lon="17.892462900482">
        <ele>48.4</ele>
        <time>2018-03-20T12:28:32Z</time>
      </trkpt>
      <trkpt lat="62.641868889091" lon="17.892482430309">
        <ele>48.4</ele>
        <time>2018-03-20T12:28:33Z</time>
      </trkpt>
      <trkpt lat="62.641861932114" lon="17.892514952081">
        <ele>48.4</ele>
        <time>2018-03-20T12:28:34Z</time>
      </trkpt>
      <trkpt lat="62.641861596838" lon="17.892545965111">
        <ele>48.6</ele>
        <time>2018-03-20T12:28:35Z</time>
      </trkpt>
      <trkpt lat="62.641866039245" lon="17.892595083045">
        <ele>48.8</ele>
        <time>2018-03-20T12:28:36Z</time>
      </trkpt>
      <trkpt lat="62.641865955426" lon="17.892615451062">
        <ele>48.8</ele>
        <time>2018-03-20T12:28:37Z</time>
      </trkpt>
      <trkpt lat="62.641865955426" lon="17.892634142699">
        <ele>49</ele>
        <time>2018-03-20T12:28:38Z</time>
      </trkpt>
      <trkpt lat="62.641862351209" lon="17.892653672526">
        <ele>49.4</ele>
        <time>2018-03-20T12:28:39Z</time>
      </trkpt>
      <trkpt lat="62.64186059101" lon="17.892674711095">
        <ele>49.4</ele>
        <time>2018-03-20T12:28:40Z</time>
      </trkpt>
      <trkpt lat="62.64186394377" lon="17.892696839311">
        <ele>49.6</ele>
        <time>2018-03-20T12:28:41Z</time>
      </trkpt>
      <trkpt lat="62.641863440856" lon="17.892718045518">
        <ele>49.8</ele>
        <time>2018-03-20T12:28:42Z</time>
      </trkpt>
      <trkpt lat="62.64186478196" lon="17.892734390223">
        <ele>50</ele>
        <time>2018-03-20T12:28:43Z</time>
      </trkpt>
      <trkpt lat="62.641862183571" lon="17.892757943362">
        <ele>50.2</ele>
        <time>2018-03-20T12:28:44Z</time>
      </trkpt>
      <trkpt lat="62.641858160259" lon="17.892785938908">
        <ele>50.6</ele>
        <time>2018-03-20T12:28:45Z</time>
      </trkpt>
      <trkpt lat="62.64185723825" lon="17.892808570038">
        <ele>50.8</ele>
        <time>2018-03-20T12:28:46Z</time>
      </trkpt>
      <trkpt lat="62.641856316241" lon="17.89282097525">
        <ele>51</ele>
        <time>2018-03-20T12:28:47Z</time>
      </trkpt>
      <trkpt lat="62.641855058956" lon="17.89283438629">
        <ele>51.4</ele>
        <time>2018-03-20T12:28:48Z</time>
      </trkpt>
      <trkpt lat="62.641850029816" lon="17.89285450285">
        <ele>51.6</ele>
        <time>2018-03-20T12:28:49Z</time>
      </trkpt>
      <trkpt lat="62.64184717997" lon="17.892874116496">
        <ele>51.8</ele>
        <time>2018-03-20T12:28:50Z</time>
      </trkpt>
      <trkpt lat="62.641843408115" lon="17.89291149977">
        <ele>52.2</ele>
        <time>2018-03-20T12:28:51Z</time>
      </trkpt>
      <trkpt lat="62.641842234649" lon="17.89292910176">
        <ele>52.2</ele>
        <time>2018-03-20T12:28:52Z</time>
      </trkpt>
      <trkpt lat="62.641840725907" lon="17.89295508565">
        <ele>52.4</ele>
        <time>2018-03-20T12:28:53Z</time>
      </trkpt>
      <trkpt lat="62.641840977364" lon="17.892980734264">
        <ele>52.6</ele>
        <time>2018-03-20T12:28:54Z</time>
      </trkpt>
      <trkpt lat="62.641839133346" lon="17.892977130047">
        <ele>53</ele>
        <time>2018-03-20T12:28:55Z</time>
      </trkpt>
      <trkpt lat="62.641837540785" lon="17.893003030118">
        <ele>53.2</ele>
        <time>2018-03-20T12:28:56Z</time>
      </trkpt>
      <trkpt lat="62.641834858577" lon="17.893021218841">
        <ele>53.8</ele>
        <time>2018-03-20T12:28:57Z</time>
      </trkpt>
      <trkpt lat="62.641832008731" lon="17.893046699817">
        <ele>54</ele>
        <time>2018-03-20T12:28:58Z</time>
      </trkpt>
      <trkpt lat="62.641826392858" lon="17.89307913777">
        <ele>54.4</ele>
        <time>2018-03-20T12:28:59Z</time>
      </trkpt>
      <trkpt lat="62.64182706341" lon="17.893094979561">
        <ele>54.6</ele>
        <time>2018-03-20T12:29:00Z</time>
      </trkpt>
      <trkpt lat="62.641820190252" lon="17.893124064754">
        <ele>55</ele>
        <time>2018-03-20T12:29:01Z</time>
      </trkpt>
      <trkpt lat="62.641816837492" lon="17.893157005621">
        <ele>55</ele>
        <time>2018-03-20T12:29:02Z</time>
      </trkpt>
      <trkpt lat="62.641806024841" lon="17.893175026706">
        <ele>55.4</ele>
        <time>2018-03-20T12:29:03Z</time>
      </trkpt>
      <trkpt lat="62.641799989873" lon="17.893204363356">
        <ele>55.6</ele>
        <time>2018-03-20T12:29:04Z</time>
      </trkpt>
      <trkpt lat="62.641793954905" lon="17.893240321707">
        <ele>55.8</ele>
        <time>2018-03-20T12:29:05Z</time>
      </trkpt>
      <trkpt lat="62.641789847774" lon="17.893276866791">
        <ele>56</ele>
        <time>2018-03-20T12:29:06Z</time>
      </trkpt>
      <trkpt lat="62.641769479757" lon="17.893290613107">
        <ele>56.2</ele>
        <time>2018-03-20T12:29:07Z</time>
      </trkpt>
      <trkpt lat="62.641763947703" lon="17.893329421304">
        <ele>56.4</ele>
        <time>2018-03-20T12:29:08Z</time>
      </trkpt>
      <trkpt lat="62.641756487812" lon="17.893367810406">
        <ele>56.6</ele>
        <time>2018-03-20T12:29:09Z</time>
      </trkpt>
      <trkpt lat="62.641749614654" lon="17.89339429721">
        <ele>56.6</ele>
        <time>2018-03-20T12:29:10Z</time>
      </trkpt>
      <trkpt lat="62.641745004609" lon="17.893420448738">
        <ele>56.8</ele>
        <time>2018-03-20T12:29:11Z</time>
      </trkpt>
      <trkpt lat="62.641740562202" lon="17.893454227795">
        <ele>57</ele>
        <time>2018-03-20T12:29:12Z</time>
      </trkpt>
      <trkpt lat="62.641735952157" lon="17.89348565992">
        <ele>57.2</ele>
        <time>2018-03-20T12:29:13Z</time>
      </trkpt>
      <trkpt lat="62.641727989352" lon="17.893521534452">
        <ele>57.2</ele>
        <time>2018-03-20T12:29:14Z</time>
      </trkpt>
      <trkpt lat="62.641723463126" lon="17.893561683753">
        <ele>57.4</ele>
        <time>2018-03-20T12:29:15Z</time>
      </trkpt>
      <trkpt lat="62.641720780918" lon="17.893599989036">
        <ele>57.6</ele>
        <time>2018-03-20T12:29:16Z</time>
      </trkpt>
      <trkpt lat="62.641722038203" lon="17.893648855513">
        <ele>57.8</ele>
        <time>2018-03-20T12:29:17Z</time>
      </trkpt>
      <trkpt lat="62.641727402619" lon="17.893699985103">
        <ele>57.8</ele>
        <time>2018-03-20T12:29:18Z</time>
      </trkpt>
      <trkpt lat="62.641737041804" lon="17.893752539616">
        <ele>58.2</ele>
        <time>2018-03-20T12:29:19Z</time>
      </trkpt>
      <trkpt lat="62.641756403993" lon="17.893796544591">
        <ele>58.4</ele>
        <time>2018-03-20T12:29:20Z</time>
      </trkpt>
      <trkpt lat="62.641782136426" lon="17.893832922037">
        <ele>58.6</ele>
        <time>2018-03-20T12:29:21Z</time>
      </trkpt>
      <trkpt lat="62.64181700513" lon="17.893855720805">
        <ele>58.6</ele>
        <time>2018-03-20T12:29:22Z</time>
      </trkpt>
      <trkpt lat="62.641861932114" lon="17.893866617275">
        <ele>58.6</ele>
        <time>2018-03-20T12:29:23Z</time>
      </trkpt>
      <trkpt lat="62.641917001197" lon="17.893858151556">
        <ele>58.2</ele>
        <time>2018-03-20T12:29:24Z</time>
      </trkpt>
      <trkpt lat="62.641966538226" lon="17.893839292281">
        <ele>57.8</ele>
        <time>2018-03-20T12:29:25Z</time>
      </trkpt>
      <trkpt lat="62.642012554857" lon="17.893832838218">
        <ele>57.2</ele>
        <time>2018-03-20T12:29:26Z</time>
      </trkpt>
      <trkpt lat="62.642066199017" lon="17.893844321421">
        <ele>56.6</ele>
        <time>2018-03-20T12:29:27Z</time>
      </trkpt>
      <trkpt lat="62.64210785706" lon="17.893853792968">
        <ele>56.2</ele>
        <time>2018-03-20T12:29:28Z</time>
      </trkpt>
      <trkpt lat="62.642156555899" lon="17.893895031916">
        <ele>55.4</ele>
        <time>2018-03-20T12:29:29Z</time>
      </trkpt>
      <trkpt lat="62.642182204513" lon="17.893967283894">
        <ele>54.6</ele>
        <time>2018-03-20T12:29:30Z</time>
      </trkpt>
      <trkpt lat="62.642193939173" lon="17.894051857265">
        <ele>54</ele>
        <time>2018-03-20T12:29:31Z</time>
      </trkpt>
      <trkpt lat="62.642199052132" lon="17.894122265225">
        <ele>53.4</ele>
        <time>2018-03-20T12:29:32Z</time>
      </trkpt>
      <trkpt lat="62.642205506195" lon="17.894198540515">
        <ele>53.2</ele>
        <time>2018-03-20T12:29:33Z</time>
      </trkpt>
      <trkpt lat="62.642210032421" lon="17.894286299008">
        <ele>53</ele>
        <time>2018-03-20T12:29:34Z</time>
      </trkpt>
      <trkpt lat="62.642204751824" lon="17.894400460486">
        <ele>52.8</ele>
        <time>2018-03-20T12:29:35Z</time>
      </trkpt>
      <trkpt lat="62.6421967052" lon="17.894555357998">
        <ele>52.8</ele>
        <time>2018-03-20T12:29:36Z</time>
      </trkpt>
      <trkpt lat="62.642172816785" lon="17.894694665176">
        <ele>52.4</ele>
        <time>2018-03-20T12:29:37Z</time>
      </trkpt>
      <trkpt lat="62.642146916714" lon="17.89483766039">
        <ele>51.6</ele>
        <time>2018-03-20T12:29:38Z</time>
      </trkpt>
      <trkpt lat="62.642123363575" lon="17.894965232908">
        <ele>50.6</ele>
        <time>2018-03-20T12:29:39Z</time>
      </trkpt>
      <trkpt lat="62.642111545096" lon="17.895084507345">
        <ele>49.4</ele>
        <time>2018-03-20T12:29:40Z</time>
      </trkpt>
      <trkpt lat="62.642110203992" lon="17.89524921168">
        <ele>48.2</ele>
        <time>2018-03-20T12:29:41Z</time>
      </trkpt>
      <trkpt lat="62.642111880372" lon="17.895430176901">
        <ele>47.4</ele>
        <time>2018-03-20T12:29:42Z</time>
      </trkpt>
      <trkpt lat="62.642104755757" lon="17.895591528476">
        <ele>46.8</ele>
        <time>2018-03-20T12:29:43Z</time>
      </trkpt>
      <trkpt lat="62.64208941688" lon="17.895764866168">
        <ele>45.8</ele>
        <time>2018-03-20T12:29:44Z</time>
      </trkpt>
      <trkpt lat="62.642071898709" lon="17.895917500567">
        <ele>44.8</ele>
        <time>2018-03-20T12:29:45Z</time>
      </trkpt>
      <trkpt lat="62.642052452701" lon="17.896048090569">
        <ele>43.6</ele>
        <time>2018-03-20T12:29:46Z</time>
      </trkpt>
      <trkpt lat="62.642025211526" lon="17.896181781874">
        <ele>42.4</ele>
        <time>2018-03-20T12:29:47Z</time>
      </trkpt>
      <trkpt lat="62.641996713066" lon="17.896287058538">
        <ele>41.4</ele>
        <time>2018-03-20T12:29:48Z</time>
      </trkpt>
      <trkpt lat="62.641968046968" lon="17.896403231672">
        <ele>40.8</ele>
        <time>2018-03-20T12:29:49Z</time>
      </trkpt>
      <trkpt lat="62.641940554336" lon="17.896517225512">
        <ele>40.6</ele>
        <time>2018-03-20T12:29:50Z</time>
      </trkpt>
      <trkpt lat="62.641927227115" lon="17.896617473036">
        <ele>40.2</ele>
        <time>2018-03-20T12:29:51Z</time>
      </trkpt>
      <trkpt lat="62.641912894066" lon="17.896733143256">
        <ele>40.2</ele>
        <time>2018-03-20T12:29:52Z</time>
      </trkpt>
      <trkpt lat="62.641907194374" lon="17.896841437404">
        <ele>40.2</ele>
        <time>2018-03-20T12:29:53Z</time>
      </trkpt>
      <trkpt lat="62.641903171062" lon="17.89695325195">
        <ele>40.4</ele>
        <time>2018-03-20T12:29:54Z</time>
      </trkpt>
      <trkpt lat="62.641894621524" lon="17.897075460052">
        <ele>40.6</ele>
        <time>2018-03-20T12:29:55Z</time>
      </trkpt>
      <trkpt lat="62.641896214085" lon="17.897213342307">
        <ele>40.4</ele>
        <time>2018-03-20T12:29:56Z</time>
      </trkpt>
      <trkpt lat="62.641893028963" lon="17.897345189594">
        <ele>40.2</ele>
        <time>2018-03-20T12:29:57Z</time>
      </trkpt>
      <trkpt lat="62.641885652891" lon="17.897445353299">
        <ele>40</ele>
        <time>2018-03-20T12:29:58Z</time>
      </trkpt>
      <trkpt lat="62.641869978738" lon="17.89760117282">
        <ele>39.2</ele>
        <time>2018-03-20T12:29:59Z</time>
      </trkpt>
      <trkpt lat="62.641859249906" lon="17.897739055075">
        <ele>38.8</ele>
        <time>2018-03-20T12:30:00Z</time>
      </trkpt>
      <trkpt lat="62.641828572152" lon="17.89783838059">
        <ele>38.4</ele>
        <time>2018-03-20T12:30:01Z</time>
      </trkpt>
      <trkpt lat="62.641818262415" lon="17.897947177652">
        <ele>38.4</ele>
        <time>2018-03-20T12:30:02Z</time>
      </trkpt>
      <trkpt lat="62.641815244931" lon="17.898037450715">
        <ele>38</ele>
        <time>2018-03-20T12:30:03Z</time>
      </trkpt>
      <trkpt lat="62.641810802524" lon="17.898131076538">
        <ele>38</ele>
        <time>2018-03-20T12:30:04Z</time>
      </trkpt>
      <trkpt lat="62.64181197599" lon="17.898217074832">
        <ele>38</ele>
        <time>2018-03-20T12:30:05Z</time>
      </trkpt>
      <trkpt lat="62.641807952678" lon="17.898277843607">
        <ele>37.8</ele>
        <time>2018-03-20T12:30:06Z</time>
      </trkpt>
      <trkpt lat="62.641804599918" lon="17.89833626545">
        <ele>37.8</ele>
        <time>2018-03-20T12:30:07Z</time>
      </trkpt>
      <trkpt lat="62.641790518326" lon="17.898407763057">
        <ele>38</ele>
        <time>2018-03-20T12:30:08Z</time>
      </trkpt>
      <trkpt lat="62.641788758127" lon="17.898478338655">
        <ele>38.4</ele>
        <time>2018-03-20T12:30:09Z</time>
      </trkpt>
      <trkpt lat="62.64178347753" lon="17.898539861801">
        <ele>38.4</ele>
        <time>2018-03-20T12:30:10Z</time>
      </trkpt>
      <trkpt lat="62.641787417023" lon="17.898586716622">
        <ele>38.6</ele>
        <time>2018-03-20T12:30:11Z</time>
      </trkpt>
      <trkpt lat="62.641787919937" lon="17.898646144293">
        <ele>38.6</ele>
        <time>2018-03-20T12:30:12Z</time>
      </trkpt>
      <trkpt lat="62.641782723159" lon="17.898705571964">
        <ele>39</ele>
        <time>2018-03-20T12:30:13Z</time>
      </trkpt>
      <trkpt lat="62.641781130598" lon="17.898772375707">
        <ele>39</ele>
        <time>2018-03-20T12:30:14Z</time>
      </trkpt>
      <trkpt lat="62.641779118942" lon="17.898828953532">
        <ele>39.2</ele>
        <time>2018-03-20T12:30:15Z</time>
      </trkpt>
      <trkpt lat="62.64177677201" lon="17.898871952679">
        <ele>39.4</ele>
        <time>2018-03-20T12:30:16Z</time>
      </trkpt>
      <trkpt lat="62.641761936047" lon="17.898936577128">
        <ele>39.4</ele>
        <time>2018-03-20T12:30:17Z</time>
      </trkpt>
      <trkpt lat="62.641746429532" lon="17.898987371442">
        <ele>39.4</ele>
        <time>2018-03-20T12:30:18Z</time>
      </trkpt>
      <trkpt lat="62.641736455071" lon="17.899036740833">
        <ele>39.6</ele>
        <time>2018-03-20T12:30:19Z</time>
      </trkpt>
      <trkpt lat="62.641722792574" lon="17.899081248722">
        <ele>39.6</ele>
        <time>2018-03-20T12:30:20Z</time>
      </trkpt>
      <trkpt lat="62.641685996033" lon="17.899135563434">
        <ele>39.8</ele>
        <time>2018-03-20T12:30:22Z</time>
      </trkpt>
      <trkpt lat="62.641675770115" lon="17.899156099089">
        <ele>39.8</ele>
        <time>2018-03-20T12:30:23Z</time>
      </trkpt>
      <trkpt lat="62.641675015744" lon="17.899167414654">
        <ele>40</ele>
        <time>2018-03-20T12:30:24Z</time>
      </trkpt>
      <trkpt lat="62.641671411527" lon="17.899182753531">
        <ele>39.8</ele>
        <time>2018-03-20T12:30:25Z</time>
      </trkpt>
      <trkpt lat="62.641673758459" lon="17.899182921169">
        <ele>40</ele>
        <time>2018-03-20T12:30:26Z</time>
      </trkpt>
      <trkpt lat="62.641670154242" lon="17.899201696625">
        <ele>40</ele>
        <time>2018-03-20T12:30:27Z</time>
      </trkpt>
      <trkpt lat="62.641672920269" lon="17.899237403519">
        <ele>40.2</ele>
        <time>2018-03-20T12:30:28Z</time>
      </trkpt>
      <trkpt lat="62.641675015744" lon="17.899280402666">
        <ele>40.4</ele>
        <time>2018-03-20T12:30:29Z</time>
      </trkpt>
      <trkpt lat="62.641676943581" lon="17.899317869759">
        <ele>40.4</ele>
        <time>2018-03-20T12:30:30Z</time>
      </trkpt>
      <trkpt lat="62.641679709608" lon="17.89934712259">
        <ele>40.4</ele>
        <time>2018-03-20T12:30:31Z</time>
      </trkpt>
      <trkpt lat="62.64168373292" lon="17.899388445357">
        <ele>40.6</ele>
        <time>2018-03-20T12:30:32Z</time>
      </trkpt>
      <trkpt lat="62.641684068196" lon="17.89940998684">
        <ele>40.4</ele>
        <time>2018-03-20T12:30:33Z</time>
      </trkpt>
      <trkpt lat="62.641683062368" lon="17.899427337373">
        <ele>40.4</ele>
        <time>2018-03-20T12:30:34Z</time>
      </trkpt>
      <trkpt lat="62.641686918042" lon="17.899445023182">
        <ele>40.4</ele>
        <time>2018-03-20T12:30:35Z</time>
      </trkpt>
      <trkpt lat="62.641686163671" lon="17.899460781154">
        <ele>40.6</ele>
        <time>2018-03-20T12:30:36Z</time>
      </trkpt>
      <trkpt lat="62.641687337137" lon="17.899469749787">
        <ele>40.8</ele>
        <time>2018-03-20T12:30:37Z</time>
      </trkpt>
      <trkpt lat="62.641689432612" lon="17.899488106148">
        <ele>40.6</ele>
        <time>2018-03-20T12:30:38Z</time>
      </trkpt>
      <trkpt lat="62.641696724865" lon="17.899506797785">
        <ele>40.8</ele>
        <time>2018-03-20T12:30:39Z</time>
      </trkpt>
      <trkpt lat="62.641698317426" lon="17.899517861893">
        <ele>40.8</ele>
        <time>2018-03-20T12:30:40Z</time>
      </trkpt>
      <trkpt lat="62.641703514204" lon="17.899545522163">
        <ele>40.8</ele>
        <time>2018-03-20T12:30:41Z</time>
      </trkpt>
      <trkpt lat="62.641706447869" lon="17.899566057818">
        <ele>40.8</ele>
        <time>2018-03-20T12:30:42Z</time>
      </trkpt>
      <trkpt lat="62.641707286059" lon="17.899587766939">
        <ele>40.8</ele>
        <time>2018-03-20T12:30:43Z</time>
      </trkpt>
      <trkpt lat="62.641705358222" lon="17.899606039481">
        <ele>40.6</ele>
        <time>2018-03-20T12:30:44Z</time>
      </trkpt>
      <trkpt lat="62.641702759833" lon="17.899623976747">
        <ele>40.6</ele>
        <time>2018-03-20T12:30:45Z</time>
      </trkpt>
      <trkpt lat="62.641698568883" lon="17.899633951208">
        <ele>40.4</ele>
        <time>2018-03-20T12:30:46Z</time>
      </trkpt>
      <trkpt lat="62.641693539743" lon="17.899651972293">
        <ele>40.2</ele>
        <time>2018-03-20T12:30:47Z</time>
      </trkpt>
      <trkpt lat="62.641689516431" lon="17.899666640618">
        <ele>40.2</ele>
        <time>2018-03-20T12:30:48Z</time>
      </trkpt>
      <trkpt lat="62.64168457111" lon="17.899679716382">
        <ele>40.4</ele>
        <time>2018-03-20T12:30:49Z</time>
      </trkpt>
      <trkpt lat="62.641681302169" lon="17.899692037775">
        <ele>40.4</ele>
        <time>2018-03-20T12:30:50Z</time>
      </trkpt>
      <trkpt lat="62.641685493119" lon="17.899708047204">
        <ele>40.4</ele>
        <time>2018-03-20T12:30:51Z</time>
      </trkpt>
      <trkpt lat="62.64167954197" lon="17.899700671132">
        <ele>40.6</ele>
        <time>2018-03-20T12:30:52Z</time>
      </trkpt>
      <trkpt lat="62.64168624749" lon="17.899712657249">
        <ele>40.6</ele>
        <time>2018-03-20T12:30:53Z</time>
      </trkpt>
      <trkpt lat="62.641800828063" lon="17.899856993567">
        <ele>37.4</ele>
        <time>2018-03-20T12:32:23Z</time>
      </trkpt>
      <trkpt lat="62.641840809726" lon="17.899842995794">
        <ele>37.4</ele>
        <time>2018-03-20T12:32:24Z</time>
      </trkpt>
      <trkpt lat="62.641886658719" lon="17.899834865351">
        <ele>37.4</ele>
        <time>2018-03-20T12:32:25Z</time>
      </trkpt>
      <trkpt lat="62.641924041993" lon="17.899833608066">
        <ele>37.4</ele>
        <time>2018-03-20T12:32:26Z</time>
      </trkpt>
      <trkpt lat="62.641964861846" lon="17.899835200627">
        <ele>37.4</ele>
        <time>2018-03-20T12:32:27Z</time>
      </trkpt>
      <trkpt lat="62.642001993663" lon="17.899834027161">
        <ele>37.4</ele>
        <time>2018-03-20T12:32:28Z</time>
      </trkpt>
      <trkpt lat="62.642045495724" lon="17.899824304157">
        <ele>37.4</ele>
        <time>2018-03-20T12:32:29Z</time>
      </trkpt>
      <trkpt lat="62.642081705532" lon="17.899803014131">
        <ele>37.4</ele>
        <time>2018-03-20T12:32:30Z</time>
      </trkpt>
      <trkpt lat="62.642115652227" lon="17.899768229246">
        <ele>37.2</ele>
        <time>2018-03-20T12:32:31Z</time>
      </trkpt>
      <trkpt lat="62.642146078524" lon="17.899723134624">
        <ele>37.2</ele>
        <time>2018-03-20T12:32:32Z</time>
      </trkpt>
      <trkpt lat="62.642173571156" lon="17.899676028346">
        <ele>37</ele>
        <time>2018-03-20T12:32:33Z</time>
      </trkpt>
      <trkpt lat="62.642200309417" lon="17.899625234032">
        <ele>37</ele>
        <time>2018-03-20T12:32:34Z</time>
      </trkpt>
      <trkpt lat="62.642236016311" lon="17.899572763338">
        <ele>36.8</ele>
        <time>2018-03-20T12:32:35Z</time>
      </trkpt>
      <trkpt lat="62.642273483404" lon="17.899531859666">
        <ele>36.8</ele>
        <time>2018-03-20T12:32:36Z</time>
      </trkpt>
      <trkpt lat="62.642316817827" lon="17.899502858292">
        <ele>36.8</ele>
        <time>2018-03-20T12:32:37Z</time>
      </trkpt>
      <trkpt lat="62.642360822802" lon="17.899488022329">
        <ele>36.6</ele>
        <time>2018-03-20T12:32:38Z</time>
      </trkpt>
      <trkpt lat="62.642411365659" lon="17.899482657913">
        <ele>36.4</ele>
        <time>2018-03-20T12:32:39Z</time>
      </trkpt>
      <trkpt lat="62.642457047014" lon="17.899480730076">
        <ele>36.2</ele>
        <time>2018-03-20T12:32:40Z</time>
      </trkpt>
      <trkpt lat="62.642505745853" lon="17.899480646257">
        <ele>36</ele>
        <time>2018-03-20T12:32:41Z</time>
      </trkpt>
      <trkpt lat="62.642552433036" lon="17.899480227162">
        <ele>35.8</ele>
        <time>2018-03-20T12:32:42Z</time>
      </trkpt>
      <trkpt lat="62.642593671984" lon="17.899481819723">
        <ele>35.6</ele>
        <time>2018-03-20T12:32:43Z</time>
      </trkpt>
      <trkpt lat="62.642639353339" lon="17.899487854691">
        <ele>35.4</ele>
        <time>2018-03-20T12:32:44Z</time>
      </trkpt>
      <trkpt lat="62.642679837916" lon="17.899497661514">
        <ele>35.4</ele>
        <time>2018-03-20T12:32:45Z</time>
      </trkpt>
      <trkpt lat="62.642715963905" lon="17.899512581296">
        <ele>35.2</ele>
        <time>2018-03-20T12:32:46Z</time>
      </trkpt>
      <trkpt lat="62.642754436826" lon="17.899528339268">
        <ele>35.2</ele>
        <time>2018-03-20T12:32:47Z</time>
      </trkpt>
      <trkpt lat="62.642776648861" lon="17.899582821618">
        <ele>35.2</ele>
        <time>2018-03-20T12:32:48Z</time>
      </trkpt>
      <trkpt lat="62.642802968027" lon="17.899655492691">
        <ele>35</ele>
        <time>2018-03-20T12:32:49Z</time>
      </trkpt>
      <trkpt lat="62.642814367411" lon="17.899736964759">
        <ele>34.8</ele>
        <time>2018-03-20T12:32:50Z</time>
      </trkpt>
      <trkpt lat="62.642815457058" lon="17.89982489089">
        <ele>34.6</ele>
        <time>2018-03-20T12:32:51Z</time>
      </trkpt>
      <trkpt lat="62.64281193666" lon="17.899913571392">
        <ele>34.6</ele>
        <time>2018-03-20T12:32:52Z</time>
      </trkpt>
      <trkpt lat="62.642809338271" lon="17.900015411477">
        <ele>34.8</ele>
        <time>2018-03-20T12:32:53Z</time>
      </trkpt>
      <trkpt lat="62.642805398778" lon="17.900126304014">
        <ele>35</ele>
        <time>2018-03-20T12:32:54Z</time>
      </trkpt>
      <trkpt lat="62.642800621095" lon="17.900230155755">
        <ele>35.2</ele>
        <time>2018-03-20T12:32:55Z</time>
      </trkpt>
      <trkpt lat="62.642796094869" lon="17.900328726899">
        <ele>35.4</ele>
        <time>2018-03-20T12:32:56Z</time>
      </trkpt>
      <trkpt lat="62.642795340498" lon="17.900423945283">
        <ele>35.4</ele>
        <time>2018-03-20T12:32:57Z</time>
      </trkpt>
      <trkpt lat="62.642797184516" lon="17.900501729315">
        <ele>35.6</ele>
        <time>2018-03-20T12:32:58Z</time>
      </trkpt>
      <trkpt lat="62.64281193666" lon="17.900594433129">
        <ele>35.6</ele>
        <time>2018-03-20T12:32:59Z</time>
      </trkpt>
      <trkpt lat="62.642841105672" lon="17.900658806121">
        <ele>35.4</ele>
        <time>2018-03-20T12:33:00Z</time>
      </trkpt>
      <trkpt lat="62.642872956892" lon="17.90070331401">
        <ele>35.2</ele>
        <time>2018-03-20T12:33:01Z</time>
      </trkpt>
      <trkpt lat="62.642903550827" lon="17.90072678333">
        <ele>35</ele>
        <time>2018-03-20T12:33:02Z</time>
      </trkpt>
      <trkpt lat="62.642931965468" lon="17.900745810243">
        <ele>35</ele>
        <time>2018-03-20T12:33:03Z</time>
      </trkpt>
      <trkpt lat="62.642953087856" lon="17.900766010622">
        <ele>35</ele>
        <time>2018-03-20T12:33:04Z</time>
      </trkpt>
      <trkpt lat="62.64296616362" lon="17.900772716142">
        <ele>34.8</ele>
        <time>2018-03-20T12:33:05Z</time>
      </trkpt>
      <trkpt lat="62.642974210244" lon="17.900770117753">
        <ele>35</ele>
        <time>2018-03-20T12:33:06Z</time>
      </trkpt>
      <trkpt lat="62.642975048434" lon="17.90077539835">
        <ele>35.2</ele>
        <time>2018-03-20T12:33:07Z</time>
      </trkpt>
      <trkpt lat="62.642980245212" lon="17.90077707473">
        <ele>35.4</ele>
        <time>2018-03-20T12:33:08Z</time>
      </trkpt>
      <trkpt lat="62.64298125104" lon="17.9007795893">
        <ele>35.4</ele>
        <time>2018-03-20T12:33:09Z</time>
      </trkpt>
      <trkpt lat="62.643007570206" lon="17.900884782145">
        <ele>35.8</ele>
        <time>2018-03-20T12:33:12Z</time>
      </trkpt>
      <trkpt lat="62.643010084776" lon="17.900973797923">
        <ele>35.8</ele>
        <time>2018-03-20T12:33:13Z</time>
      </trkpt>
      <trkpt lat="62.643006480559" lon="17.901111261083">
        <ele>36</ele>
        <time>2018-03-20T12:33:14Z</time>
      </trkpt>
      <trkpt lat="62.642996003184" lon="17.901355258192">
        <ele>36.2</ele>
        <time>2018-03-20T12:33:16Z</time>
      </trkpt>
      <trkpt lat="62.642991393139" lon="17.90152306383">
        <ele>36.2</ele>
        <time>2018-03-20T12:33:17Z</time>
      </trkpt>
      <trkpt lat="62.642988878569" lon="17.901676117324">
        <ele>36.2</ele>
        <time>2018-03-20T12:33:18Z</time>
      </trkpt>
      <trkpt lat="62.642986196361" lon="17.90186588354">
        <ele>36.2</ele>
        <time>2018-03-20T12:33:19Z</time>
      </trkpt>
      <trkpt lat="62.642980999583" lon="17.902074341393">
        <ele>36.2</ele>
        <time>2018-03-20T12:33:20Z</time>
      </trkpt>
      <trkpt lat="62.642973874968" lon="17.902310878611">
        <ele>36.4</ele>
        <time>2018-03-20T12:33:21Z</time>
      </trkpt>
      <trkpt lat="62.642968259095" lon="17.902552780245">
        <ele>36.6</ele>
        <time>2018-03-20T12:33:22Z</time>
      </trkpt>
      <trkpt lat="62.642965744525" lon="17.902806165082">
        <ele>36.8</ele>
        <time>2018-03-20T12:33:23Z</time>
      </trkpt>
      <trkpt lat="62.642967085629" lon="17.90306868619">
        <ele>37.2</ele>
        <time>2018-03-20T12:33:24Z</time>
      </trkpt>
      <trkpt lat="62.642972366226" lon="17.903303547028">
        <ele>37.4</ele>
        <time>2018-03-20T12:33:25Z</time>
      </trkpt>
      <trkpt lat="62.642978401194" lon="17.90352130879">
        <ele>37.4</ele>
        <time>2018-03-20T12:33:26Z</time>
      </trkpt>
      <trkpt lat="62.642986112542" lon="17.903765389718">
        <ele>37.6</ele>
        <time>2018-03-20T12:33:27Z</time>
      </trkpt>
      <trkpt lat="62.642992063691" lon="17.903956580857">
        <ele>37.4</ele>
        <time>2018-03-20T12:33:28Z</time>
      </trkpt>
      <trkpt lat="62.642995919365" lon="17.904197476663">
        <ele>37.4</ele>
        <time>2018-03-20T12:33:29Z</time>
      </trkpt>
      <trkpt lat="62.642996254641" lon="17.904403587584">
        <ele>37.2</ele>
        <time>2018-03-20T12:33:30Z</time>
      </trkpt>
      <trkpt lat="62.642991812234" lon="17.904603831175">
        <ele>37.2</ele>
        <time>2018-03-20T12:33:31Z</time>
      </trkpt>
      <trkpt lat="62.64298208923" lon="17.904798207436">
        <ele>37.2</ele>
        <time>2018-03-20T12:33:32Z</time>
      </trkpt>
      <trkpt lat="62.642964906335" lon="17.904979172657">
        <ele>37</ele>
        <time>2018-03-20T12:33:33Z</time>
      </trkpt>
      <trkpt lat="62.642940263549" lon="17.905163239181">
        <ele>37</ele>
        <time>2018-03-20T12:33:34Z</time>
      </trkpt>
      <trkpt lat="62.64290413756" lon="17.905356861071">
        <ele>36.8</ele>
        <time>2018-03-20T12:33:35Z</time>
      </trkpt>
      <trkpt lat="62.64286474263" lon="17.905540173224">
        <ele>36.8</ele>
        <time>2018-03-20T12:33:36Z</time>
      </trkpt>
      <trkpt lat="62.642819228913" lon="17.90571988116">
        <ele>36.4</ele>
        <time>2018-03-20T12:33:37Z</time>
      </trkpt>
      <trkpt lat="62.642770697712" lon="17.905887183884">
        <ele>36</ele>
        <time>2018-03-20T12:33:38Z</time>
      </trkpt>
      <trkpt lat="62.642716634457" lon="17.906093462443">
        <ele>35.8</ele>
        <time>2018-03-20T12:33:39Z</time>
      </trkpt>
      <trkpt lat="62.642654692216" lon="17.906331424584">
        <ele>35.8</ele>
        <time>2018-03-20T12:33:40Z</time>
      </trkpt>
      <trkpt lat="62.642630636163" lon="17.906556310961">
        <ele>35.4</ele>
        <time>2018-03-20T12:33:41Z</time>
      </trkpt>
      <trkpt lat="62.642599539314" lon="17.906814054386">
        <ele>35</ele>
        <time>2018-03-20T12:33:42Z</time>
      </trkpt>
      <trkpt lat="62.642582188781" lon="17.907050507785">
        <ele>34.4</ele>
        <time>2018-03-20T12:33:43Z</time>
      </trkpt>
      <trkpt lat="62.642572298139" lon="17.907312609798">
        <ele>33.8</ele>
        <time>2018-03-20T12:33:44Z</time>
      </trkpt>
      <trkpt lat="62.642573136329" lon="17.907553757061">
        <ele>33.2</ele>
        <time>2018-03-20T12:33:45Z</time>
      </trkpt>
      <trkpt lat="62.642583446066" lon="17.907773027565">
        <ele>32.8</ele>
        <time>2018-03-20T12:33:46Z</time>
      </trkpt>
      <trkpt lat="62.642599455495" lon="17.908010822068">
        <ele>32.4</ele>
        <time>2018-03-20T12:33:47Z</time>
      </trkpt>
      <trkpt lat="62.642622002806" lon="17.908200755922">
        <ele>32.2</ele>
        <time>2018-03-20T12:33:48Z</time>
      </trkpt>
      <trkpt lat="62.642649663076" lon="17.908396054192">
        <ele>32</ele>
        <time>2018-03-20T12:33:49Z</time>
      </trkpt>
      <trkpt lat="62.642679418821" lon="17.908552795722">
        <ele>32</ele>
        <time>2018-03-20T12:33:50Z</time>
      </trkpt>
      <trkpt lat="62.642704899797" lon="17.908688163407">
        <ele>32</ele>
        <time>2018-03-20T12:33:51Z</time>
      </trkpt>
      <trkpt lat="62.642718310837" lon="17.908795451727">
        <ele>32</ele>
        <time>2018-03-20T12:33:52Z</time>
      </trkpt>
      <trkpt lat="62.642717975561" lon="17.908903829694">
        <ele>32</ele>
        <time>2018-03-20T12:33:53Z</time>
      </trkpt>
      <trkpt lat="62.642690315291" lon="17.909003993399">
        <ele>31.8</ele>
        <time>2018-03-20T12:33:54Z</time>
      </trkpt>
      <trkpt lat="62.642646477954" lon="17.909080603965">
        <ele>31.8</ele>
        <time>2018-03-20T12:33:55Z</time>
      </trkpt>
      <trkpt lat="62.64258478717" lon="17.909145731328">
        <ele>31.8</ele>
        <time>2018-03-20T12:33:56Z</time>
      </trkpt>
      <trkpt lat="62.642489317329" lon="17.90922183898">
        <ele>31.8</ele>
        <time>2018-03-20T12:33:57Z</time>
      </trkpt>
      <trkpt lat="62.642405665967" lon="17.909289145637">
        <ele>31.8</ele>
        <time>2018-03-20T12:33:58Z</time>
      </trkpt>
      <trkpt lat="62.642295527801" lon="17.909387549143">
        <ele>32.2</ele>
        <time>2018-03-20T12:33:59Z</time>
      </trkpt>
      <trkpt lat="62.642191424603" lon="17.909480504414">
        <ele>32.6</ele>
        <time>2018-03-20T12:34:00Z</time>
      </trkpt>
      <trkpt lat="62.64209444602" lon="17.909566167432">
        <ele>33.4</ele>
        <time>2018-03-20T12:34:01Z</time>
      </trkpt>
      <trkpt lat="62.642004675871" lon="17.909644035283">
        <ele>34.4</ele>
        <time>2018-03-20T12:34:02Z</time>
      </trkpt>
      <trkpt lat="62.641926305106" lon="17.909712012492">
        <ele>35.6</ele>
        <time>2018-03-20T12:34:03Z</time>
      </trkpt>
      <trkpt lat="62.641895627352" lon="17.909737996382">
        <ele>36</ele>
        <time>2018-03-20T12:34:04Z</time>
      </trkpt>
      <trkpt lat="62.641780460046" lon="17.909840004105">
        <ele>37.2</ele>
        <time>2018-03-20T12:34:05Z</time>
      </trkpt>
      <trkpt lat="62.641693958838" lon="17.909919380698">
        <ele>38.2</ele>
        <time>2018-03-20T12:34:06Z</time>
      </trkpt>
      <trkpt lat="62.641619946661" lon="17.90998710645">
        <ele>39</ele>
        <time>2018-03-20T12:34:07Z</time>
      </trkpt>
      <trkpt lat="62.641557920601" lon="17.910038319859">
        <ele>39.6</ele>
        <time>2018-03-20T12:34:08Z</time>
      </trkpt>
      <trkpt lat="62.641481561492" lon="17.910108141086">
        <ele>40</ele>
        <time>2018-03-20T12:34:09Z</time>
      </trkpt>
      <trkpt lat="62.641411404989" lon="17.910169915689">
        <ele>40.4</ele>
        <time>2018-03-20T12:34:10Z</time>
      </trkpt>
      <trkpt lat="62.641336554622" lon="17.910228421351">
        <ele>40.6</ele>
        <time>2018-03-20T12:34:11Z</time>
      </trkpt>
      <trkpt lat="62.641249718138" lon="17.910290866506">
        <ele>40.8</ele>
        <time>2018-03-20T12:34:12Z</time>
      </trkpt>
      <trkpt lat="62.641175454504" lon="17.910338391879">
        <ele>41</ele>
        <time>2018-03-20T12:34:13Z</time>
      </trkpt>
      <trkpt lat="62.641089372391" lon="17.910394131514">
        <ele>41.2</ele>
        <time>2018-03-20T12:34:14Z</time>
      </trkpt>
      <trkpt lat="62.641009325246" lon="17.910456157574">
        <ele>41.2</ele>
        <time>2018-03-20T12:34:15Z</time>
      </trkpt>
      <trkpt lat="62.640934893974" lon="17.910524050964">
        <ele>41.2</ele>
        <time>2018-03-20T12:34:16Z</time>
      </trkpt>
      <trkpt lat="62.64084973387" lon="17.910597476408">
        <ele>41.2</ele>
        <time>2018-03-20T12:34:17Z</time>
      </trkpt>
      <trkpt lat="62.640774883503" lon="17.910663022866">
        <ele>41.2</ele>
        <time>2018-03-20T12:34:18Z</time>
      </trkpt>
      <trkpt lat="62.640691399779" lon="17.910739717251">
        <ele>41.2</ele>
        <time>2018-03-20T12:34:19Z</time>
      </trkpt>
      <trkpt lat="62.640621075638" lon="17.910816746912">
        <ele>41.2</ele>
        <time>2018-03-20T12:34:20Z</time>
      </trkpt>
      <trkpt lat="62.640544548891" lon="17.910905092138">
        <ele>41</ele>
        <time>2018-03-20T12:34:21Z</time>
      </trkpt>
      <trkpt lat="62.640478583338" lon="17.910993102088">
        <ele>41</ele>
        <time>2018-03-20T12:34:22Z</time>
      </trkpt>
      <trkpt lat="62.640406666636" lon="17.91110357553">
        <ele>40.8</ele>
        <time>2018-03-20T12:34:23Z</time>
      </trkpt>
      <trkpt lat="62.640332486821" lon="17.911248330943">
        <ele>40.4</ele>
        <time>2018-03-20T12:34:24Z</time>
      </trkpt>
      <trkpt lat="62.640274567892" lon="17.911391158519">
        <ele>39.8</ele>
        <time>2018-03-20T12:34:25Z</time>
      </trkpt>
      <trkpt lat="62.640227042519" lon="17.911544212013">
        <ele>39.2</ele>
        <time>2018-03-20T12:34:26Z</time>
      </trkpt>
      <trkpt lat="62.640183624277" lon="17.91172551251">
        <ele>38.4</ele>
        <time>2018-03-20T12:34:27Z</time>
      </trkpt>
      <trkpt lat="62.640156718378" lon="17.911880829117">
        <ele>37.8</ele>
        <time>2018-03-20T12:34:28Z</time>
      </trkpt>
      <trkpt lat="62.640132075592" lon="17.912083503459">
        <ele>37</ele>
        <time>2018-03-20T12:34:29Z</time>
      </trkpt>
      <trkpt lat="62.640117071991" lon="17.912272599123">
        <ele>36.2</ele>
        <time>2018-03-20T12:34:30Z</time>
      </trkpt>
      <trkpt lat="62.640104415322" lon="17.912457168561">
        <ele>35.4</ele>
        <time>2018-03-20T12:34:31Z</time>
      </trkpt>
      <trkpt lat="62.640096452517" lon="17.912661938378">
        <ele>34.6</ele>
        <time>2018-03-20T12:34:32Z</time>
      </trkpt>
      <trkpt lat="62.640095446689" lon="17.912846004902">
        <ele>34.2</ele>
        <time>2018-03-20T12:34:33Z</time>
      </trkpt>
      <trkpt lat="62.640095530508" lon="17.913048092511">
        <ele>33.8</ele>
        <time>2018-03-20T12:34:34Z</time>
      </trkpt>
      <trkpt lat="62.640098380354" lon="17.913258729658">
        <ele>33.2</ele>
        <time>2018-03-20T12:34:35Z</time>
      </trkpt>
      <trkpt lat="62.640103409494" lon="17.913459476163">
        <ele>32.8</ele>
        <time>2018-03-20T12:34:36Z</time>
      </trkpt>
      <trkpt lat="62.640109528281" lon="17.913658127193">
        <ele>32.6</ele>
        <time>2018-03-20T12:34:37Z</time>
      </trkpt>
      <trkpt lat="62.640114892697" lon="17.91381260561">
        <ele>32.2</ele>
        <time>2018-03-20T12:34:38Z</time>
      </trkpt>
      <trkpt lat="62.640126040624" lon="17.913978315773">
        <ele>31.8</ele>
        <time>2018-03-20T12:34:39Z</time>
      </trkpt>
      <trkpt lat="62.640138529655" lon="17.91408669374">
        <ele>31.4</ele>
        <time>2018-03-20T12:34:40Z</time>
      </trkpt>
      <trkpt lat="62.640158730034" lon="17.914204710892">
        <ele>31</ele>
        <time>2018-03-20T12:34:41Z</time>
      </trkpt>
      <trkpt lat="62.640185216838" lon="17.914328176279">
        <ele>30.6</ele>
        <time>2018-03-20T12:34:42Z</time>
      </trkpt>
      <trkpt lat="62.640212960927" lon="17.914437560074">
        <ele>30</ele>
        <time>2018-03-20T12:34:43Z</time>
      </trkpt>
      <trkpt lat="62.640241459387" lon="17.914573095397">
        <ele>29.4</ele>
        <time>2018-03-20T12:34:44Z</time>
      </trkpt>
      <trkpt lat="62.640258977558" lon="17.914712234937">
        <ele>28.6</ele>
        <time>2018-03-20T12:34:45Z</time>
      </trkpt>
      <trkpt lat="62.640254702789" lon="17.914837125247">
        <ele>27.8</ele>
        <time>2018-03-20T12:34:46Z</time>
      </trkpt>
      <trkpt lat="62.640228383623" lon="17.914967547611">
        <ele>27</ele>
        <time>2018-03-20T12:34:47Z</time>
      </trkpt>
      <trkpt lat="62.640182618449" lon="17.915079781252">
        <ele>26.4</ele>
        <time>2018-03-20T12:34:48Z</time>
      </trkpt>
      <trkpt lat="62.640110282652" lon="17.915196960214">
        <ele>25.8</ele>
        <time>2018-03-20T12:34:49Z</time>
      </trkpt>
      <trkpt lat="62.640030654602" lon="17.915295447539">
        <ele>25.6</ele>
        <time>2018-03-20T12:34:50Z</time>
      </trkpt>
      <trkpt lat="62.639942309376" lon="17.915401059479">
        <ele>25.6</ele>
        <time>2018-03-20T12:34:51Z</time>
      </trkpt>
      <trkpt lat="62.639863435697" lon="17.915493092741">
        <ele>25.6</ele>
        <time>2018-03-20T12:34:52Z</time>
      </trkpt>
      <trkpt lat="62.639777605041" lon="17.91559124479">
        <ele>25.6</ele>
        <time>2018-03-20T12:34:53Z</time>
      </trkpt>
      <trkpt lat="62.639683727761" lon="17.915695347988">
        <ele>25.8</ele>
        <time>2018-03-20T12:34:54Z</time>
      </trkpt>
      <trkpt lat="62.639594879621" lon="17.915785453413">
        <ele>25.8</ele>
        <time>2018-03-20T12:34:55Z</time>
      </trkpt>
      <trkpt lat="62.639507540223" lon="17.915871116431">
        <ele>25.8</ele>
        <time>2018-03-20T12:34:56Z</time>
      </trkpt>
      <trkpt lat="62.639407879432" lon="17.915962646779">
        <ele>25.8</ele>
        <time>2018-03-20T12:34:57Z</time>
      </trkpt>
      <trkpt lat="62.639327329373" lon="17.916031881273">
        <ele>25.6</ele>
        <time>2018-03-20T12:34:58Z</time>
      </trkpt>
      <trkpt lat="62.639219538139" lon="17.916122154336">
        <ele>25.6</ele>
        <time>2018-03-20T12:34:59Z</time>
      </trkpt>
      <trkpt lat="62.639121721366" lon="17.916196501789">
        <ele>25.6</ele>
        <time>2018-03-20T12:35:00Z</time>
      </trkpt>
      <trkpt lat="62.639023485498" lon="17.916265484826">
        <ele>25.6</ele>
        <time>2018-03-20T12:35:01Z</time>
      </trkpt>
      <trkpt lat="62.638928099476" lon="17.916326588877">
        <ele>25.6</ele>
        <time>2018-03-20T12:35:02Z</time>
      </trkpt>
      <trkpt lat="62.638837407318" lon="17.916388698756">
        <ele>25.4</ele>
        <time>2018-03-20T12:35:03Z</time>
      </trkpt>
      <trkpt lat="62.638739422907" lon="17.916447120599">
        <ele>25.4</ele>
        <time>2018-03-20T12:35:04Z</time>
      </trkpt>
      <trkpt lat="62.638636828451" lon="17.91650822465">
        <ele>25.4</ele>
        <time>2018-03-20T12:35:05Z</time>
      </trkpt>
      <trkpt lat="62.638535239823" lon="17.91656438338">
        <ele>25.4</ele>
        <time>2018-03-20T12:35:06Z</time>
      </trkpt>
      <trkpt lat="62.638438093602" lon="17.916611405839">
        <ele>25.2</ele>
        <time>2018-03-20T12:35:07Z</time>
      </trkpt>
      <trkpt lat="62.638349329281" lon="17.916655159357">
        <ele>25.2</ele>
        <time>2018-03-20T12:35:08Z</time>
      </trkpt>
      <trkpt lat="62.638249500852" lon="17.916708216784">
        <ele>25.2</ele>
        <time>2018-03-20T12:35:09Z</time>
      </trkpt>
      <trkpt lat="62.63815998216" lon="17.916751215931">
        <ele>25</ele>
        <time>2018-03-20T12:35:10Z</time>
      </trkpt>
      <trkpt lat="62.638063087396" lon="17.916797232562">
        <ele>25</ele>
        <time>2018-03-20T12:35:11Z</time>
      </trkpt>
      <trkpt lat="62.637958984198" lon="17.916845931401">
        <ele>24.8</ele>
        <time>2018-03-20T12:35:12Z</time>
      </trkpt>
      <trkpt lat="62.637867872945" lon="17.916887002711">
        <ele>24.8</ele>
        <time>2018-03-20T12:35:13Z</time>
      </trkpt>
      <trkpt lat="62.637759830254" lon="17.916932516428">
        <ele>24.6</ele>
        <time>2018-03-20T12:35:14Z</time>
      </trkpt>
      <trkpt lat="62.637658576902" lon="17.916973671557">
        <ele>24.4</ele>
        <time>2018-03-20T12:35:15Z</time>
      </trkpt>
      <trkpt lat="62.63755899993" lon="17.917011809202">
        <ele>24.2</ele>
        <time>2018-03-20T12:35:16Z</time>
      </trkpt>
      <trkpt lat="62.637445257547" lon="17.91705137177">
        <ele>24</ele>
        <time>2018-03-20T12:35:17Z</time>
      </trkpt>
      <trkpt lat="62.637342579272" lon="17.917079702592">
        <ele>23.8</ele>
        <time>2018-03-20T12:35:18Z</time>
      </trkpt>
      <trkpt lat="62.637219784437" lon="17.917117840237">
        <ele>23.4</ele>
        <time>2018-03-20T12:35:19Z</time>
      </trkpt>
      <trkpt lat="62.637104617131" lon="17.917155474968">
        <ele>23</ele>
        <time>2018-03-20T12:35:20Z</time>
      </trkpt>
      <trkpt lat="62.636986851436" lon="17.917195791907">
        <ele>22.6</ele>
        <time>2018-03-20T12:35:21Z</time>
      </trkpt>
      <trkpt lat="62.636880401306" lon="17.917228984231">
        <ele>22.2</ele>
        <time>2018-03-20T12:35:22Z</time>
      </trkpt>
      <trkpt lat="62.636773196805" lon="17.917268630618">
        <ele>21.6</ele>
        <time>2018-03-20T12:35:23Z</time>
      </trkpt>
      <trkpt lat="62.636663980648" lon="17.917326884823">
        <ele>21.2</ele>
        <time>2018-03-20T12:35:24Z</time>
      </trkpt>
      <trkpt lat="62.636567840255" lon="17.917393772385">
        <ele>20.6</ele>
        <time>2018-03-20T12:35:25Z</time>
      </trkpt>
      <trkpt lat="62.636486871101" lon="17.917463845069">
        <ele>19.8</ele>
        <time>2018-03-20T12:35:26Z</time>
      </trkpt>
      <trkpt lat="62.636405231395" lon="17.917560656014">
        <ele>19</ele>
        <time>2018-03-20T12:35:27Z</time>
      </trkpt>
      <trkpt lat="62.636341612774" lon="17.917653108371">
        <ele>18</ele>
        <time>2018-03-20T12:35:28Z</time>
      </trkpt>
      <trkpt lat="62.636271372452" lon="17.917768694772">
        <ele>17</ele>
        <time>2018-03-20T12:35:29Z</time>
      </trkpt>
      <trkpt lat="62.636212363876" lon="17.917876905101">
        <ele>16.2</ele>
        <time>2018-03-20T12:35:30Z</time>
      </trkpt>
      <trkpt lat="62.63616257539" lon="17.91794823507">
        <ele>15.6</ele>
        <time>2018-03-20T12:35:31Z</time>
      </trkpt>
      <trkpt lat="62.636111529619" lon="17.917976901168">
        <ele>15.2</ele>
        <time>2018-03-20T12:35:32Z</time>
      </trkpt>
      <trkpt lat="62.63606702173" lon="17.917969022182">
        <ele>14.8</ele>
        <time>2018-03-20T12:35:33Z</time>
      </trkpt>
      <trkpt lat="62.636025363687" lon="17.917925939216">
        <ele>14.8</ele>
        <time>2018-03-20T12:35:34Z</time>
      </trkpt>
      <trkpt lat="62.635979933789" lon="17.917868271744">
        <ele>14.6</ele>
        <time>2018-03-20T12:35:35Z</time>
      </trkpt>
      <trkpt lat="62.635931318769" lon="17.917797277051">
        <ele>14.6</ele>
        <time>2018-03-20T12:35:36Z</time>
      </trkpt>
      <trkpt lat="62.635873232202" lon="17.91771270368">
        <ele>14.8</ele>
        <time>2018-03-20T12:35:37Z</time>
      </trkpt>
      <trkpt lat="62.63581472654" lon="17.917629052318">
        <ele>15</ele>
        <time>2018-03-20T12:35:38Z</time>
      </trkpt>
      <trkpt lat="62.635742977476" lon="17.917525535853">
        <ele>15.4</ele>
        <time>2018-03-20T12:35:39Z</time>
      </trkpt>
      <trkpt lat="62.63567977795" lon="17.917435346609">
        <ele>15.6</ele>
        <time>2018-03-20T12:35:40Z</time>
      </trkpt>
      <trkpt lat="62.635617248976" lon="17.917344905908">
        <ele>16</ele>
        <time>2018-03-20T12:35:41Z</time>
      </trkpt>
      <trkpt lat="62.635558659495" lon="17.917257482691">
        <ele>16.4</ele>
        <time>2018-03-20T12:35:42Z</time>
      </trkpt>
      <trkpt lat="62.63551381633" lon="17.917189589301">
        <ele>16.8</ele>
        <time>2018-03-20T12:35:43Z</time>
      </trkpt>
      <trkpt lat="62.635470901002" lon="17.917115158029">
        <ele>17.2</ele>
        <time>2018-03-20T12:35:44Z</time>
      </trkpt>
      <trkpt lat="62.635445503845" lon="17.917036200531">
        <ele>17.8</ele>
        <time>2018-03-20T12:35:45Z</time>
      </trkpt>
      <trkpt lat="62.635436535212" lon="17.916960092879">
        <ele>18.4</ele>
        <time>2018-03-20T12:35:46Z</time>
      </trkpt>
      <trkpt lat="62.635438882144" lon="17.916892786222">
        <ele>19.2</ele>
        <time>2018-03-20T12:35:47Z</time>
      </trkpt>
      <trkpt lat="62.635448688967" lon="17.916828245592">
        <ele>19.8</ele>
        <time>2018-03-20T12:35:48Z</time>
      </trkpt>
      <trkpt lat="62.635466626233" lon="17.916752305578">
        <ele>20.2</ele>
        <time>2018-03-20T12:35:49Z</time>
      </trkpt>
      <trkpt lat="62.635485736965" lon="17.916678125763">
        <ele>20.8</ele>
        <time>2018-03-20T12:35:50Z</time>
      </trkpt>
      <trkpt lat="62.635506188801" lon="17.916604281224">
        <ele>21</ele>
        <time>2018-03-20T12:35:51Z</time>
      </trkpt>
      <trkpt lat="62.635525634809" lon="17.91653085578">
        <ele>21.2</ele>
        <time>2018-03-20T12:35:52Z</time>
      </trkpt>
      <trkpt lat="62.635546924835" lon="17.916452149739">
        <ele>21.4</ele>
        <time>2018-03-20T12:35:53Z</time>
      </trkpt>
      <trkpt lat="62.635569807422" lon="17.916369252748">
        <ele>21.8</ele>
        <time>2018-03-20T12:35:54Z</time>
      </trkpt>
      <trkpt lat="62.635590259258" lon="17.916292893639">
        <ele>22</ele>
        <time>2018-03-20T12:35:55Z</time>
      </trkpt>
      <trkpt lat="62.635607609791" lon="17.916221312213">
        <ele>22</ele>
        <time>2018-03-20T12:35:56Z</time>
      </trkpt>
      <trkpt lat="62.635628564541" lon="17.916143863457">
        <ele>22.2</ele>
        <time>2018-03-20T12:35:57Z</time>
      </trkpt>
      <trkpt lat="62.635645998893" lon="17.916080244836">
        <ele>22.4</ele>
        <time>2018-03-20T12:35:58Z</time>
      </trkpt>
      <trkpt lat="62.635668210928" lon="17.915999359501">
        <ele>22.4</ele>
        <time>2018-03-20T12:35:59Z</time>
      </trkpt>
      <trkpt lat="62.635686064375" lon="17.915934818871">
        <ele>22.6</ele>
        <time>2018-03-20T12:36:00Z</time>
      </trkpt>
      <trkpt lat="62.635703331089" lon="17.915875307381">
        <ele>22.8</ele>
        <time>2018-03-20T12:36:01Z</time>
      </trkpt>
      <trkpt lat="62.635719927251" lon="17.915816885538">
        <ele>23</ele>
        <time>2018-03-20T12:36:02Z</time>
      </trkpt>
      <trkpt lat="62.635738618888" lon="17.915768354337">
        <ele>23.4</ele>
        <time>2018-03-20T12:36:03Z</time>
      </trkpt>
      <trkpt lat="62.635753622489" lon="17.915717308566">
        <ele>23.8</ele>
        <time>2018-03-20T12:36:04Z</time>
      </trkpt>
      <trkpt lat="62.635767536443" lon="17.915675147609">
        <ele>24.2</ele>
        <time>2018-03-20T12:36:05Z</time>
      </trkpt>
      <trkpt lat="62.635776505076" lon="17.915643044932">
        <ele>24.4</ele>
        <time>2018-03-20T12:36:06Z</time>
      </trkpt>
      <trkpt lat="62.635776924171" lon="17.915609852608">
        <ele>24.6</ele>
        <time>2018-03-20T12:36:07Z</time>
      </trkpt>
      <trkpt lat="62.635775080153" lon="17.915586718564">
        <ele>24.8</ele>
        <time>2018-03-20T12:36:08Z</time>
      </trkpt>
      <trkpt lat="62.635767368805" lon="17.91555268805">
        <ele>24.8</ele>
        <time>2018-03-20T12:36:09Z</time>
      </trkpt>
      <trkpt lat="62.63575521505" lon="17.915522094115">
        <ele>24.8</ele>
        <time>2018-03-20T12:36:10Z</time>
      </trkpt>
      <trkpt lat="62.635738954164" lon="17.915492589827">
        <ele>24.8</ele>
        <time>2018-03-20T12:36:11Z</time>
      </trkpt>
      <trkpt lat="62.635719675794" lon="17.915459397503">
        <ele>25</ele>
        <time>2018-03-20T12:36:12Z</time>
      </trkpt>
      <trkpt lat="62.635702157623" lon="17.915425953722">
        <ele>25</ele>
        <time>2018-03-20T12:36:13Z</time>
      </trkpt>
      <trkpt lat="62.635680364683" lon="17.915389073362">
        <ele>25.2</ele>
        <time>2018-03-20T12:36:14Z</time>
      </trkpt>
      <trkpt lat="62.635660918675" lon="17.915355126667">
        <ele>25.2</ele>
        <time>2018-03-20T12:36:15Z</time>
      </trkpt>
      <trkpt lat="62.635647172359" lon="17.915312630434">
        <ele>25.4</ele>
        <time>2018-03-20T12:36:16Z</time>
      </trkpt>
      <trkpt lat="62.635635102423" lon="17.915261668482">
        <ele>25.6</ele>
        <time>2018-03-20T12:36:17Z</time>
      </trkpt>
      <trkpt lat="62.635636359708" lon="17.9152132211">
        <ele>25.8</ele>
        <time>2018-03-20T12:36:18Z</time>
      </trkpt>
      <trkpt lat="62.635643316685" lon="17.915169802858">
        <ele>25.8</ele>
        <time>2018-03-20T12:36:19Z</time>
      </trkpt>
      <trkpt lat="62.635651195671" lon="17.915154883076">
        <ele>26</ele>
        <time>2018-03-20T12:36:20Z</time>
      </trkpt>
      <trkpt lat="62.635646837083" lon="17.9151629297">
        <ele>26.4</ele>
        <time>2018-03-20T12:36:21Z</time>
      </trkpt>
      <trkpt lat="62.635645998893" lon="17.915165611908">
        <ele>26.6</ele>
        <time>2018-03-20T12:36:22Z</time>
      </trkpt>
    </trkseg>
  </trk>
</gpx>